<?xml version="1.0" encoding="UTF-8" standalone="no" ?>
<gpx xmlns="http://www.topografix.com/GPX/1/1" xmlns:xsi="http://www.w3.org/2001/XMLSchema-instance" xsi:schemaLocation="http://www.topografix.com/GPX/1/1 http://www.topografix.com/GPX/1/1/gpx.xsd" version="1.1" creator="VisuGPX - https://www.visugpx.com">
  <metadata>
    <name>Rocher d\'Herbouilly depuis Méaudre, en boucle</name>
    <desc><![CDATA[Méaudre ,Villarde de Lans, Correncon, Rocher d\'Herbouilly, et Station de ski de Méaudre]]></desc>
  </metadata>
  <trk>
    <name><![CDATA[Méaudrevillardherbouilly on GPSies.com]]></name>
    <trkseg>
      <trkpt lat="45.12257" lon="5.53052">
        <ele>970.97265</ele>
        <time>2012-04-19T22:29:27Z</time>
      </trkpt>
      <trkpt lat="45.12257" lon="5.53067">
        <ele>974</ele>
        <time>2012-04-19T22:29:29Z</time>
      </trkpt>
      <trkpt lat="45.12253" lon="5.53084">
        <ele>971</ele>
        <time>2012-04-19T22:29:32Z</time>
      </trkpt>
      <trkpt lat="45.12246" lon="5.53097">
        <ele>970</ele>
        <time>2012-04-19T22:29:35Z</time>
      </trkpt>
      <trkpt lat="45.12244" lon="5.53106">
        <ele>969</ele>
        <time>2012-04-19T22:29:36Z</time>
      </trkpt>
      <trkpt lat="45.1224" lon="5.53114">
        <ele>969</ele>
        <time>2012-04-19T22:29:38Z</time>
      </trkpt>
      <trkpt lat="45.12235" lon="5.53121">
        <ele>968</ele>
        <time>2012-04-19T22:29:39Z</time>
      </trkpt>
      <trkpt lat="45.12223" lon="5.53142">
        <ele>968</ele>
        <time>2012-04-19T22:29:44Z</time>
      </trkpt>
      <trkpt lat="45.12212" lon="5.53157">
        <ele>967</ele>
        <time>2012-04-19T22:29:48Z</time>
      </trkpt>
      <trkpt lat="45.12201" lon="5.53175">
        <ele>966</ele>
        <time>2012-04-19T22:29:52Z</time>
      </trkpt>
      <trkpt lat="45.12193" lon="5.53196">
        <ele>966</ele>
        <time>2012-04-19T22:29:56Z</time>
      </trkpt>
      <trkpt lat="45.12184" lon="5.53228">
        <ele>967</ele>
        <time>2012-04-19T22:30:02Z</time>
      </trkpt>
      <trkpt lat="45.12171" lon="5.53278">
        <ele>968</ele>
        <time>2012-04-19T22:30:12Z</time>
      </trkpt>
      <trkpt lat="45.12162" lon="5.53312">
        <ele>967</ele>
        <time>2012-04-19T22:30:19Z</time>
      </trkpt>
      <trkpt lat="45.1216" lon="5.53325">
        <ele>968</ele>
        <time>2012-04-19T22:30:21Z</time>
      </trkpt>
      <trkpt lat="45.12156" lon="5.5334">
        <ele>970</ele>
        <time>2012-04-19T22:30:24Z</time>
      </trkpt>
      <trkpt lat="45.12143" lon="5.53406">
        <ele>973</ele>
        <time>2012-04-19T22:30:37Z</time>
      </trkpt>
      <trkpt lat="45.12128" lon="5.53477">
        <ele>974</ele>
        <time>2012-04-19T22:30:51Z</time>
      </trkpt>
      <trkpt lat="45.1212" lon="5.53524">
        <ele>972</ele>
        <time>2012-04-19T22:31:00Z</time>
      </trkpt>
      <trkpt lat="45.12113" lon="5.53539">
        <ele>972</ele>
        <time>2012-04-19T22:31:03Z</time>
      </trkpt>
      <trkpt lat="45.12109" lon="5.5355">
        <ele>972</ele>
        <time>2012-04-19T22:31:05Z</time>
      </trkpt>
      <trkpt lat="45.12111" lon="5.53554">
        <ele>972</ele>
        <time>2012-04-19T22:31:06Z</time>
      </trkpt>
      <trkpt lat="45.12111" lon="5.53559">
        <ele>972</ele>
        <time>2012-04-19T22:31:06Z</time>
      </trkpt>
      <trkpt lat="45.12111" lon="5.53565">
        <ele>972</ele>
        <time>2012-04-19T22:31:07Z</time>
      </trkpt>
      <trkpt lat="45.12105" lon="5.53593">
        <ele>970</ele>
        <time>2012-04-19T22:31:12Z</time>
      </trkpt>
      <trkpt lat="45.1209" lon="5.53655">
        <ele>970</ele>
        <time>2012-04-19T22:31:24Z</time>
      </trkpt>
      <trkpt lat="45.12081" lon="5.53694">
        <ele>972</ele>
        <time>2012-04-19T22:31:31Z</time>
      </trkpt>
      <trkpt lat="45.12072" lon="5.53726">
        <ele>972</ele>
        <time>2012-04-19T22:31:37Z</time>
      </trkpt>
      <trkpt lat="45.1207" lon="5.53747">
        <ele>973</ele>
        <time>2012-04-19T22:31:41Z</time>
      </trkpt>
      <trkpt lat="45.12066" lon="5.53771">
        <ele>974</ele>
        <time>2012-04-19T22:31:45Z</time>
      </trkpt>
      <trkpt lat="45.12062" lon="5.53795">
        <ele>975</ele>
        <time>2012-04-19T22:31:49Z</time>
      </trkpt>
      <trkpt lat="45.12059" lon="5.53808">
        <ele>975</ele>
        <time>2012-04-19T22:31:51Z</time>
      </trkpt>
      <trkpt lat="45.12079" lon="5.5381">
        <ele>976</ele>
        <time>2012-04-19T22:31:56Z</time>
      </trkpt>
      <trkpt lat="45.12111" lon="5.53812">
        <ele>973</ele>
        <time>2012-04-19T22:32:04Z</time>
      </trkpt>
      <trkpt lat="45.1212" lon="5.53814">
        <ele>972</ele>
        <time>2012-04-19T22:32:06Z</time>
      </trkpt>
      <trkpt lat="45.12128" lon="5.53818">
        <ele>972</ele>
        <time>2012-04-19T22:32:08Z</time>
      </trkpt>
      <trkpt lat="45.12139" lon="5.5382">
        <ele>971</ele>
        <time>2012-04-19T22:32:11Z</time>
      </trkpt>
      <trkpt lat="45.1215" lon="5.53823">
        <ele>970</ele>
        <time>2012-04-19T22:32:14Z</time>
      </trkpt>
      <trkpt lat="45.12162" lon="5.53825">
        <ele>970</ele>
        <time>2012-04-19T22:32:17Z</time>
      </trkpt>
      <trkpt lat="45.12175" lon="5.53825">
        <ele>969</ele>
        <time>2012-04-19T22:32:20Z</time>
      </trkpt>
      <trkpt lat="45.12193" lon="5.53827">
        <ele>969</ele>
        <time>2012-04-19T22:32:24Z</time>
      </trkpt>
      <trkpt lat="45.12216" lon="5.53829">
        <ele>970</ele>
        <time>2012-04-19T22:32:30Z</time>
      </trkpt>
      <trkpt lat="45.12233" lon="5.53829">
        <ele>971</ele>
        <time>2012-04-19T22:32:34Z</time>
      </trkpt>
      <trkpt lat="45.12242" lon="5.53831">
        <ele>972</ele>
        <time>2012-04-19T22:32:36Z</time>
      </trkpt>
      <trkpt lat="45.12246" lon="5.53833">
        <ele>972</ele>
        <time>2012-04-19T22:32:37Z</time>
      </trkpt>
      <trkpt lat="45.12255" lon="5.53835">
        <ele>974</ele>
        <time>2012-04-19T22:32:39Z</time>
      </trkpt>
      <trkpt lat="45.12263" lon="5.5384">
        <ele>976</ele>
        <time>2012-04-19T22:32:41Z</time>
      </trkpt>
      <trkpt lat="45.1227" lon="5.53846">
        <ele>977</ele>
        <time>2012-04-19T22:32:43Z</time>
      </trkpt>
      <trkpt lat="45.12283" lon="5.53857">
        <ele>978</ele>
        <time>2012-04-19T22:32:47Z</time>
      </trkpt>
      <trkpt lat="45.12289" lon="5.53861">
        <ele>978</ele>
        <time>2012-04-19T22:32:48Z</time>
      </trkpt>
      <trkpt lat="45.12296" lon="5.53865">
        <ele>979</ele>
        <time>2012-04-19T22:32:49Z</time>
      </trkpt>
      <trkpt lat="45.123" lon="5.53868">
        <ele>979</ele>
        <time>2012-04-19T22:32:50Z</time>
      </trkpt>
      <trkpt lat="45.12308" lon="5.5387">
        <ele>980</ele>
        <time>2012-04-19T22:32:52Z</time>
      </trkpt>
      <trkpt lat="45.12315" lon="5.5387">
        <ele>980</ele>
        <time>2012-04-19T22:32:53Z</time>
      </trkpt>
      <trkpt lat="45.12319" lon="5.5387">
        <ele>980</ele>
        <time>2012-04-19T22:32:54Z</time>
      </trkpt>
      <trkpt lat="45.12328" lon="5.5387">
        <ele>980</ele>
        <time>2012-04-19T22:32:56Z</time>
      </trkpt>
      <trkpt lat="45.12342" lon="5.53866">
        <ele>985</ele>
        <time>2012-04-19T22:32:59Z</time>
      </trkpt>
      <trkpt lat="45.12353" lon="5.53863">
        <ele>985</ele>
        <time>2012-04-19T22:33:02Z</time>
      </trkpt>
      <trkpt lat="45.12368" lon="5.53859">
        <ele>986</ele>
        <time>2012-04-19T22:33:06Z</time>
      </trkpt>
      <trkpt lat="45.12403" lon="5.53848">
        <ele>988</ele>
        <time>2012-04-19T22:33:15Z</time>
      </trkpt>
      <trkpt lat="45.12429" lon="5.53842">
        <ele>989</ele>
        <time>2012-04-19T22:33:22Z</time>
      </trkpt>
      <trkpt lat="45.12448" lon="5.5384">
        <ele>989</ele>
        <time>2012-04-19T22:33:27Z</time>
      </trkpt>
      <trkpt lat="45.12456" lon="5.53838">
        <ele>989</ele>
        <time>2012-04-19T22:33:29Z</time>
      </trkpt>
      <trkpt lat="45.12465" lon="5.53838">
        <ele>989</ele>
        <time>2012-04-19T22:33:31Z</time>
      </trkpt>
      <trkpt lat="45.12484" lon="5.53838">
        <ele>989</ele>
        <time>2012-04-19T22:33:36Z</time>
      </trkpt>
      <trkpt lat="45.12502" lon="5.53838">
        <ele>989</ele>
        <time>2012-04-19T22:33:40Z</time>
      </trkpt>
      <trkpt lat="45.12517" lon="5.5384">
        <ele>988</ele>
        <time>2012-04-19T22:33:44Z</time>
      </trkpt>
      <trkpt lat="45.12527" lon="5.5384">
        <ele>988</ele>
        <time>2012-04-19T22:33:46Z</time>
      </trkpt>
      <trkpt lat="45.1254" lon="5.53838">
        <ele>987</ele>
        <time>2012-04-19T22:33:49Z</time>
      </trkpt>
      <trkpt lat="45.12553" lon="5.53838">
        <ele>988</ele>
        <time>2012-04-19T22:33:52Z</time>
      </trkpt>
      <trkpt lat="45.12566" lon="5.53835">
        <ele>988</ele>
        <time>2012-04-19T22:33:55Z</time>
      </trkpt>
      <trkpt lat="45.12574" lon="5.53833">
        <ele>989</ele>
        <time>2012-04-19T22:33:57Z</time>
      </trkpt>
      <trkpt lat="45.12583" lon="5.53829">
        <ele>990</ele>
        <time>2012-04-19T22:33:59Z</time>
      </trkpt>
      <trkpt lat="45.12589" lon="5.53825">
        <ele>988</ele>
        <time>2012-04-19T22:34:00Z</time>
      </trkpt>
      <trkpt lat="45.12598" lon="5.5382">
        <ele>987</ele>
        <time>2012-04-19T22:34:02Z</time>
      </trkpt>
      <trkpt lat="45.12609" lon="5.53814">
        <ele>986</ele>
        <time>2012-04-19T22:34:05Z</time>
      </trkpt>
      <trkpt lat="45.12622" lon="5.53805">
        <ele>986</ele>
        <time>2012-04-19T22:34:08Z</time>
      </trkpt>
      <trkpt lat="45.12637" lon="5.53795">
        <ele>985</ele>
        <time>2012-04-19T22:34:12Z</time>
      </trkpt>
      <trkpt lat="45.12652" lon="5.53784">
        <ele>985</ele>
        <time>2012-04-19T22:34:16Z</time>
      </trkpt>
      <trkpt lat="45.12675" lon="5.53771">
        <ele>985</ele>
        <time>2012-04-19T22:34:23Z</time>
      </trkpt>
      <trkpt lat="45.12697" lon="5.5376">
        <ele>986</ele>
        <time>2012-04-19T22:34:29Z</time>
      </trkpt>
      <trkpt lat="45.12714" lon="5.53752">
        <ele>986</ele>
        <time>2012-04-19T22:34:34Z</time>
      </trkpt>
      <trkpt lat="45.12731" lon="5.53745">
        <ele>989</ele>
        <time>2012-04-19T22:34:38Z</time>
      </trkpt>
      <trkpt lat="45.1274" lon="5.53741">
        <ele>989</ele>
        <time>2012-04-19T22:34:40Z</time>
      </trkpt>
      <trkpt lat="45.12746" lon="5.53741">
        <ele>989</ele>
        <time>2012-04-19T22:34:41Z</time>
      </trkpt>
      <trkpt lat="45.1275" lon="5.53739">
        <ele>989</ele>
        <time>2012-04-19T22:34:42Z</time>
      </trkpt>
      <trkpt lat="45.12757" lon="5.53739">
        <ele>989</ele>
        <time>2012-04-19T22:34:43Z</time>
      </trkpt>
      <trkpt lat="45.12772" lon="5.53741">
        <ele>989</ele>
        <time>2012-04-19T22:34:47Z</time>
      </trkpt>
      <trkpt lat="45.12778" lon="5.53741">
        <ele>989</ele>
        <time>2012-04-19T22:34:48Z</time>
      </trkpt>
      <trkpt lat="45.12783" lon="5.53739">
        <ele>989</ele>
        <time>2012-04-19T22:34:49Z</time>
      </trkpt>
      <trkpt lat="45.12789" lon="5.53737">
        <ele>989</ele>
        <time>2012-04-19T22:34:50Z</time>
      </trkpt>
      <trkpt lat="45.12795" lon="5.53735">
        <ele>989</ele>
        <time>2012-04-19T22:34:51Z</time>
      </trkpt>
      <trkpt lat="45.128" lon="5.53735">
        <ele>989</ele>
        <time>2012-04-19T22:34:52Z</time>
      </trkpt>
      <trkpt lat="45.12806" lon="5.53735">
        <ele>989</ele>
        <time>2012-04-19T22:34:53Z</time>
      </trkpt>
      <trkpt lat="45.12815" lon="5.53737">
        <ele>989</ele>
        <time>2012-04-19T22:34:55Z</time>
      </trkpt>
      <trkpt lat="45.12828" lon="5.53739">
        <ele>990</ele>
        <time>2012-04-19T22:34:58Z</time>
      </trkpt>
      <trkpt lat="45.12845" lon="5.53745">
        <ele>990</ele>
        <time>2012-04-19T22:35:02Z</time>
      </trkpt>
      <trkpt lat="45.12864" lon="5.53752">
        <ele>991</ele>
        <time>2012-04-19T22:35:07Z</time>
      </trkpt>
      <trkpt lat="45.12875" lon="5.53756">
        <ele>991</ele>
        <time>2012-04-19T22:35:10Z</time>
      </trkpt>
      <trkpt lat="45.12883" lon="5.5376">
        <ele>991</ele>
        <time>2012-04-19T22:35:12Z</time>
      </trkpt>
      <trkpt lat="45.12894" lon="5.53769">
        <ele>992</ele>
        <time>2012-04-19T22:35:15Z</time>
      </trkpt>
      <trkpt lat="45.12909" lon="5.53777">
        <ele>992</ele>
        <time>2012-04-19T22:35:19Z</time>
      </trkpt>
      <trkpt lat="45.12924" lon="5.53786">
        <ele>995</ele>
        <time>2012-04-19T22:35:23Z</time>
      </trkpt>
      <trkpt lat="45.12939" lon="5.53795">
        <ele>995</ele>
        <time>2012-04-19T22:35:27Z</time>
      </trkpt>
      <trkpt lat="45.12948" lon="5.53801">
        <ele>996</ele>
        <time>2012-04-19T22:35:29Z</time>
      </trkpt>
      <trkpt lat="45.12959" lon="5.53808">
        <ele>996</ele>
        <time>2012-04-19T22:35:32Z</time>
      </trkpt>
      <trkpt lat="45.12967" lon="5.5381">
        <ele>997</ele>
        <time>2012-04-19T22:35:34Z</time>
      </trkpt>
      <trkpt lat="45.12976" lon="5.53816">
        <ele>998</ele>
        <time>2012-04-19T22:35:36Z</time>
      </trkpt>
      <trkpt lat="45.12984" lon="5.5382">
        <ele>1000</ele>
        <time>2012-04-19T22:35:38Z</time>
      </trkpt>
      <trkpt lat="45.12993" lon="5.53825">
        <ele>1002</ele>
        <time>2012-04-19T22:35:40Z</time>
      </trkpt>
      <trkpt lat="45.13001" lon="5.53831">
        <ele>1005</ele>
        <time>2012-04-19T22:35:42Z</time>
      </trkpt>
      <trkpt lat="45.13016" lon="5.53842">
        <ele>1005</ele>
        <time>2012-04-19T22:35:46Z</time>
      </trkpt>
      <trkpt lat="45.13049" lon="5.53863">
        <ele>1006</ele>
        <time>2012-04-19T22:35:55Z</time>
      </trkpt>
      <trkpt lat="45.13055" lon="5.53865">
        <ele>1006</ele>
        <time>2012-04-19T22:35:56Z</time>
      </trkpt>
      <trkpt lat="45.13062" lon="5.5387">
        <ele>1006</ele>
        <time>2012-04-19T22:35:57Z</time>
      </trkpt>
      <trkpt lat="45.13068" lon="5.5387">
        <ele>1006</ele>
        <time>2012-04-19T22:35:58Z</time>
      </trkpt>
      <trkpt lat="45.13077" lon="5.53872">
        <ele>1007</ele>
        <time>2012-04-19T22:36:00Z</time>
      </trkpt>
      <trkpt lat="45.13085" lon="5.53872">
        <ele>1012</ele>
        <time>2012-04-19T22:36:02Z</time>
      </trkpt>
      <trkpt lat="45.13099" lon="5.53872">
        <ele>1012</ele>
        <time>2012-04-19T22:36:05Z</time>
      </trkpt>
      <trkpt lat="45.13107" lon="5.53872">
        <ele>1013</ele>
        <time>2012-04-19T22:36:07Z</time>
      </trkpt>
      <trkpt lat="45.13128" lon="5.5387">
        <ele>1014</ele>
        <time>2012-04-19T22:36:12Z</time>
      </trkpt>
      <trkpt lat="45.13143" lon="5.5387">
        <ele>1014</ele>
        <time>2012-04-19T22:36:16Z</time>
      </trkpt>
      <trkpt lat="45.13143" lon="5.53883">
        <ele>1014</ele>
        <time>2012-04-19T22:36:18Z</time>
      </trkpt>
      <trkpt lat="45.13143" lon="5.53896">
        <ele>1015</ele>
        <time>2012-04-19T22:36:20Z</time>
      </trkpt>
      <trkpt lat="45.13143" lon="5.53913">
        <ele>1015</ele>
        <time>2012-04-19T22:36:23Z</time>
      </trkpt>
      <trkpt lat="45.13147" lon="5.53947">
        <ele>1012</ele>
        <time>2012-04-19T22:36:29Z</time>
      </trkpt>
      <trkpt lat="45.13152" lon="5.53986">
        <ele>1010</ele>
        <time>2012-04-19T22:36:36Z</time>
      </trkpt>
      <trkpt lat="45.13156" lon="5.54007">
        <ele>1008</ele>
        <time>2012-04-19T22:36:40Z</time>
      </trkpt>
      <trkpt lat="45.13156" lon="5.54011">
        <ele>1008</ele>
        <time>2012-04-19T22:36:40Z</time>
      </trkpt>
      <trkpt lat="45.1316" lon="5.54026">
        <ele>1007</ele>
        <time>2012-04-19T22:36:43Z</time>
      </trkpt>
      <trkpt lat="45.13162" lon="5.54039">
        <ele>1006</ele>
        <time>2012-04-19T22:36:45Z</time>
      </trkpt>
      <trkpt lat="45.13169" lon="5.54056">
        <ele>1010</ele>
        <time>2012-04-19T22:36:48Z</time>
      </trkpt>
      <trkpt lat="45.1318" lon="5.54082">
        <ele>1008</ele>
        <time>2012-04-19T22:36:53Z</time>
      </trkpt>
      <trkpt lat="45.13218" lon="5.54174">
        <ele>1005</ele>
        <time>2012-04-19T22:37:14Z</time>
      </trkpt>
      <trkpt lat="45.13222" lon="5.54181">
        <ele>1005</ele>
        <time>2012-04-19T22:37:15Z</time>
      </trkpt>
      <trkpt lat="45.13231" lon="5.54202">
        <ele>1006</ele>
        <time>2012-04-19T22:37:19Z</time>
      </trkpt>
      <trkpt lat="45.13238" lon="5.54215">
        <ele>1006</ele>
        <time>2012-04-19T22:37:22Z</time>
      </trkpt>
      <trkpt lat="45.13242" lon="5.54222">
        <ele>1006</ele>
        <time>2012-04-19T22:37:23Z</time>
      </trkpt>
      <trkpt lat="45.1325" lon="5.54226">
        <ele>1008</ele>
        <time>2012-04-19T22:37:25Z</time>
      </trkpt>
      <trkpt lat="45.13257" lon="5.5423">
        <ele>1008</ele>
        <time>2012-04-19T22:37:26Z</time>
      </trkpt>
      <trkpt lat="45.13265" lon="5.54235">
        <ele>1008</ele>
        <time>2012-04-19T22:37:28Z</time>
      </trkpt>
      <trkpt lat="45.1328" lon="5.54235">
        <ele>1008</ele>
        <time>2012-04-19T22:37:32Z</time>
      </trkpt>
      <trkpt lat="45.13308" lon="5.54235">
        <ele>1008</ele>
        <time>2012-04-19T22:37:39Z</time>
      </trkpt>
      <trkpt lat="45.13332" lon="5.54235">
        <ele>1007</ele>
        <time>2012-04-19T22:37:45Z</time>
      </trkpt>
      <trkpt lat="45.13345" lon="5.54235">
        <ele>1008</ele>
        <time>2012-04-19T22:37:48Z</time>
      </trkpt>
      <trkpt lat="45.13353" lon="5.54235">
        <ele>1009</ele>
        <time>2012-04-19T22:37:50Z</time>
      </trkpt>
      <trkpt lat="45.13381" lon="5.54243">
        <ele>1009</ele>
        <time>2012-04-19T22:37:57Z</time>
      </trkpt>
      <trkpt lat="45.13416" lon="5.54256">
        <ele>1005</ele>
        <time>2012-04-19T22:38:06Z</time>
      </trkpt>
      <trkpt lat="45.13426" lon="5.5426">
        <ele>1007</ele>
        <time>2012-04-19T22:38:09Z</time>
      </trkpt>
      <trkpt lat="45.13437" lon="5.54267">
        <ele>1008</ele>
        <time>2012-04-19T22:38:12Z</time>
      </trkpt>
      <trkpt lat="45.13446" lon="5.54275">
        <ele>1008</ele>
        <time>2012-04-19T22:38:14Z</time>
      </trkpt>
      <trkpt lat="45.13456" lon="5.54286">
        <ele>1009</ele>
        <time>2012-04-19T22:38:17Z</time>
      </trkpt>
      <trkpt lat="45.13465" lon="5.54295">
        <ele>1009</ele>
        <time>2012-04-19T22:38:19Z</time>
      </trkpt>
      <trkpt lat="45.13474" lon="5.54301">
        <ele>1009</ele>
        <time>2012-04-19T22:38:21Z</time>
      </trkpt>
      <trkpt lat="45.1348" lon="5.54305">
        <ele>1009</ele>
        <time>2012-04-19T22:38:22Z</time>
      </trkpt>
      <trkpt lat="45.13484" lon="5.54307">
        <ele>1009</ele>
        <time>2012-04-19T22:38:23Z</time>
      </trkpt>
      <trkpt lat="45.13493" lon="5.5431">
        <ele>1009</ele>
        <time>2012-04-19T22:38:25Z</time>
      </trkpt>
      <trkpt lat="45.13501" lon="5.5431">
        <ele>1013</ele>
        <time>2012-04-19T22:38:27Z</time>
      </trkpt>
      <trkpt lat="45.1351" lon="5.54307">
        <ele>1014</ele>
        <time>2012-04-19T22:38:29Z</time>
      </trkpt>
      <trkpt lat="45.13514" lon="5.54305">
        <ele>1014</ele>
        <time>2012-04-19T22:38:30Z</time>
      </trkpt>
      <trkpt lat="45.13519" lon="5.54305">
        <ele>1014</ele>
        <time>2012-04-19T22:38:31Z</time>
      </trkpt>
      <trkpt lat="45.13523" lon="5.54305">
        <ele>1014</ele>
        <time>2012-04-19T22:38:32Z</time>
      </trkpt>
      <trkpt lat="45.13531" lon="5.54307">
        <ele>1014</ele>
        <time>2012-04-19T22:38:34Z</time>
      </trkpt>
      <trkpt lat="45.13536" lon="5.5431">
        <ele>1015</ele>
        <time>2012-04-19T22:38:35Z</time>
      </trkpt>
      <trkpt lat="45.1354" lon="5.54312">
        <ele>1015</ele>
        <time>2012-04-19T22:38:36Z</time>
      </trkpt>
      <trkpt lat="45.13547" lon="5.54316">
        <ele>1015</ele>
        <time>2012-04-19T22:38:37Z</time>
      </trkpt>
      <trkpt lat="45.13559" lon="5.54327">
        <ele>1014</ele>
        <time>2012-04-19T22:38:41Z</time>
      </trkpt>
      <trkpt lat="45.1357" lon="5.54338">
        <ele>1011</ele>
        <time>2012-04-19T22:38:44Z</time>
      </trkpt>
      <trkpt lat="45.13581" lon="5.54346">
        <ele>1011</ele>
        <time>2012-04-19T22:38:47Z</time>
      </trkpt>
      <trkpt lat="45.13604" lon="5.5437">
        <ele>1017</ele>
        <time>2012-04-19T22:38:55Z</time>
      </trkpt>
      <trkpt lat="45.13652" lon="5.54413">
        <ele>1019</ele>
        <time>2012-04-19T22:39:10Z</time>
      </trkpt>
      <trkpt lat="45.13669" lon="5.5443">
        <ele>1019</ele>
        <time>2012-04-19T22:39:15Z</time>
      </trkpt>
      <trkpt lat="45.13677" lon="5.54438">
        <ele>1019</ele>
        <time>2012-04-19T22:39:17Z</time>
      </trkpt>
      <trkpt lat="45.13682" lon="5.54441">
        <ele>1018</ele>
        <time>2012-04-19T22:39:18Z</time>
      </trkpt>
      <trkpt lat="45.13686" lon="5.54443">
        <ele>1018</ele>
        <time>2012-04-19T22:39:19Z</time>
      </trkpt>
      <trkpt lat="45.1369" lon="5.54447">
        <ele>1018</ele>
        <time>2012-04-19T22:39:20Z</time>
      </trkpt>
      <trkpt lat="45.13695" lon="5.54447">
        <ele>1018</ele>
        <time>2012-04-19T22:39:21Z</time>
      </trkpt>
      <trkpt lat="45.13701" lon="5.54449">
        <ele>1018</ele>
        <time>2012-04-19T22:39:22Z</time>
      </trkpt>
      <trkpt lat="45.13725" lon="5.54453">
        <ele>1018</ele>
        <time>2012-04-19T22:39:28Z</time>
      </trkpt>
      <trkpt lat="45.13737" lon="5.54458">
        <ele>1018</ele>
        <time>2012-04-19T22:39:31Z</time>
      </trkpt>
      <trkpt lat="45.13742" lon="5.5446">
        <ele>1018</ele>
        <time>2012-04-19T22:39:32Z</time>
      </trkpt>
      <trkpt lat="45.13748" lon="5.54462">
        <ele>1017</ele>
        <time>2012-04-19T22:39:33Z</time>
      </trkpt>
      <trkpt lat="45.13757" lon="5.54468">
        <ele>1018</ele>
        <time>2012-04-19T22:39:35Z</time>
      </trkpt>
      <trkpt lat="45.13768" lon="5.54477">
        <ele>1018</ele>
        <time>2012-04-19T22:39:38Z</time>
      </trkpt>
      <trkpt lat="45.13772" lon="5.54481">
        <ele>1018</ele>
        <time>2012-04-19T22:39:39Z</time>
      </trkpt>
      <trkpt lat="45.13776" lon="5.54483">
        <ele>1018</ele>
        <time>2012-04-19T22:39:40Z</time>
      </trkpt>
      <trkpt lat="45.13783" lon="5.54486">
        <ele>1019</ele>
        <time>2012-04-19T22:39:41Z</time>
      </trkpt>
      <trkpt lat="45.13789" lon="5.54488">
        <ele>1019</ele>
        <time>2012-04-19T22:39:42Z</time>
      </trkpt>
      <trkpt lat="45.13798" lon="5.5449">
        <ele>1020</ele>
        <time>2012-04-19T22:39:44Z</time>
      </trkpt>
      <trkpt lat="45.13817" lon="5.5449">
        <ele>1021</ele>
        <time>2012-04-19T22:39:49Z</time>
      </trkpt>
      <trkpt lat="45.1386" lon="5.54494">
        <ele>1025</ele>
        <time>2012-04-19T22:40:00Z</time>
      </trkpt>
      <trkpt lat="45.13894" lon="5.54496">
        <ele>1027</ele>
        <time>2012-04-19T22:40:09Z</time>
      </trkpt>
      <trkpt lat="45.13907" lon="5.54496">
        <ele>1028</ele>
        <time>2012-04-19T22:40:12Z</time>
      </trkpt>
      <trkpt lat="45.13911" lon="5.54496">
        <ele>1028</ele>
        <time>2012-04-19T22:40:13Z</time>
      </trkpt>
      <trkpt lat="45.13918" lon="5.54496">
        <ele>1028</ele>
        <time>2012-04-19T22:40:14Z</time>
      </trkpt>
      <trkpt lat="45.13924" lon="5.54498">
        <ele>1029</ele>
        <time>2012-04-19T22:40:15Z</time>
      </trkpt>
      <trkpt lat="45.13933" lon="5.54501">
        <ele>1028</ele>
        <time>2012-04-19T22:40:17Z</time>
      </trkpt>
      <trkpt lat="45.13943" lon="5.54501">
        <ele>1028</ele>
        <time>2012-04-19T22:40:19Z</time>
      </trkpt>
      <trkpt lat="45.13941" lon="5.5452">
        <ele>1028</ele>
        <time>2012-04-19T22:40:22Z</time>
      </trkpt>
      <trkpt lat="45.13941" lon="5.54531">
        <ele>1028</ele>
        <time>2012-04-19T22:40:24Z</time>
      </trkpt>
      <trkpt lat="45.13943" lon="5.54539">
        <ele>1028</ele>
        <time>2012-04-19T22:40:25Z</time>
      </trkpt>
      <trkpt lat="45.1395" lon="5.54563">
        <ele>1028</ele>
        <time>2012-04-19T22:40:29Z</time>
      </trkpt>
      <trkpt lat="45.13958" lon="5.54586">
        <ele>1030</ele>
        <time>2012-04-19T22:40:34Z</time>
      </trkpt>
      <trkpt lat="45.13961" lon="5.54595">
        <ele>1030</ele>
        <time>2012-04-19T22:40:35Z</time>
      </trkpt>
      <trkpt lat="45.13963" lon="5.54599">
        <ele>1030</ele>
        <time>2012-04-19T22:40:36Z</time>
      </trkpt>
      <trkpt lat="45.13963" lon="5.54604">
        <ele>1030</ele>
        <time>2012-04-19T22:40:36Z</time>
      </trkpt>
      <trkpt lat="45.13963" lon="5.54608">
        <ele>1031</ele>
        <time>2012-04-19T22:40:36Z</time>
      </trkpt>
      <trkpt lat="45.13963" lon="5.54612">
        <ele>1031</ele>
        <time>2012-04-19T22:40:36Z</time>
      </trkpt>
      <trkpt lat="45.13952" lon="5.54644">
        <ele>1032</ele>
        <time>2012-04-19T22:40:42Z</time>
      </trkpt>
      <trkpt lat="45.13943" lon="5.54666">
        <ele>1033</ele>
        <time>2012-04-19T22:40:46Z</time>
      </trkpt>
      <trkpt lat="45.13935" lon="5.54685">
        <ele>1038</ele>
        <time>2012-04-19T22:40:50Z</time>
      </trkpt>
      <trkpt lat="45.13933" lon="5.54694">
        <ele>1038</ele>
        <time>2012-04-19T22:40:51Z</time>
      </trkpt>
      <trkpt lat="45.13931" lon="5.54698">
        <ele>1039</ele>
        <time>2012-04-19T22:40:52Z</time>
      </trkpt>
      <trkpt lat="45.13928" lon="5.54702">
        <ele>1039</ele>
        <time>2012-04-19T22:40:53Z</time>
      </trkpt>
      <trkpt lat="45.13922" lon="5.54709">
        <ele>1040</ele>
        <time>2012-04-19T22:40:55Z</time>
      </trkpt>
      <trkpt lat="45.13905" lon="5.54728">
        <ele>1043</ele>
        <time>2012-04-19T22:41:01Z</time>
      </trkpt>
      <trkpt lat="45.13901" lon="5.54732">
        <ele>1044</ele>
        <time>2012-04-19T22:41:02Z</time>
      </trkpt>
      <trkpt lat="45.13896" lon="5.54737">
        <ele>1044</ele>
        <time>2012-04-19T22:41:03Z</time>
      </trkpt>
      <trkpt lat="45.1389" lon="5.54741">
        <ele>1044</ele>
        <time>2012-04-19T22:41:04Z</time>
      </trkpt>
      <trkpt lat="45.13883" lon="5.54743">
        <ele>1044</ele>
        <time>2012-04-19T22:41:05Z</time>
      </trkpt>
      <trkpt lat="45.13871" lon="5.5475">
        <ele>1045</ele>
        <time>2012-04-19T22:41:08Z</time>
      </trkpt>
      <trkpt lat="45.13864" lon="5.54752">
        <ele>1058</ele>
        <time>2012-04-19T22:41:09Z</time>
      </trkpt>
      <trkpt lat="45.1386" lon="5.54752">
        <ele>1058</ele>
        <time>2012-04-19T22:41:10Z</time>
      </trkpt>
      <trkpt lat="45.13851" lon="5.54754">
        <ele>1057</ele>
        <time>2012-04-19T22:41:12Z</time>
      </trkpt>
      <trkpt lat="45.13843" lon="5.54756">
        <ele>1056</ele>
        <time>2012-04-19T22:41:14Z</time>
      </trkpt>
      <trkpt lat="45.13834" lon="5.54758">
        <ele>1056</ele>
        <time>2012-04-19T22:41:16Z</time>
      </trkpt>
      <trkpt lat="45.13823" lon="5.54762">
        <ele>1058</ele>
        <time>2012-04-19T22:41:19Z</time>
      </trkpt>
      <trkpt lat="45.13811" lon="5.54766">
        <ele>1060</ele>
        <time>2012-04-19T22:41:22Z</time>
      </trkpt>
      <trkpt lat="45.13808" lon="5.54767">
        <ele>1060</ele>
        <time>2012-04-19T22:41:22Z</time>
      </trkpt>
      <trkpt lat="45.138" lon="5.54771">
        <ele>1061</ele>
        <time>2012-04-19T22:41:24Z</time>
      </trkpt>
      <trkpt lat="45.13795" lon="5.54773">
        <ele>1061</ele>
        <time>2012-04-19T22:41:25Z</time>
      </trkpt>
      <trkpt lat="45.13791" lon="5.54775">
        <ele>1061</ele>
        <time>2012-04-19T22:41:26Z</time>
      </trkpt>
      <trkpt lat="45.13789" lon="5.54782">
        <ele>1062</ele>
        <time>2012-04-19T22:41:27Z</time>
      </trkpt>
      <trkpt lat="45.13787" lon="5.54786">
        <ele>1063</ele>
        <time>2012-04-19T22:41:28Z</time>
      </trkpt>
      <trkpt lat="45.13783" lon="5.54822">
        <ele>1067</ele>
        <time>2012-04-19T22:41:35Z</time>
      </trkpt>
      <trkpt lat="45.1378" lon="5.54827">
        <ele>1067</ele>
        <time>2012-04-19T22:41:36Z</time>
      </trkpt>
      <trkpt lat="45.13778" lon="5.54833">
        <ele>1067</ele>
        <time>2012-04-19T22:41:37Z</time>
      </trkpt>
      <trkpt lat="45.13774" lon="5.54838">
        <ele>1081</ele>
        <time>2012-04-19T22:41:38Z</time>
      </trkpt>
      <trkpt lat="45.13768" lon="5.54844">
        <ele>1080</ele>
        <time>2012-04-19T22:41:40Z</time>
      </trkpt>
      <trkpt lat="45.13729" lon="5.5488">
        <ele>1090</ele>
        <time>2012-04-19T22:41:52Z</time>
      </trkpt>
      <trkpt lat="45.13714" lon="5.54878">
        <ele>1090</ele>
        <time>2012-04-19T22:41:56Z</time>
      </trkpt>
      <trkpt lat="45.13699" lon="5.54868">
        <ele>1089</ele>
        <time>2012-04-19T22:42:00Z</time>
      </trkpt>
      <trkpt lat="45.13662" lon="5.54838">
        <ele>1084</ele>
        <time>2012-04-19T22:42:11Z</time>
      </trkpt>
      <trkpt lat="45.13609" lon="5.54848">
        <ele>1095</ele>
        <time>2012-04-19T22:42:26Z</time>
      </trkpt>
      <trkpt lat="45.13523" lon="5.54889">
        <ele>1104</ele>
        <time>2012-04-19T22:42:51Z</time>
      </trkpt>
      <trkpt lat="45.13459" lon="5.54932">
        <ele>1118</ele>
        <time>2012-04-19T22:43:10Z</time>
      </trkpt>
      <trkpt lat="45.13424" lon="5.54968">
        <ele>1122</ele>
        <time>2012-04-19T22:43:21Z</time>
      </trkpt>
      <trkpt lat="45.13381" lon="5.54994">
        <ele>1121</ele>
        <time>2012-04-19T22:43:33Z</time>
      </trkpt>
      <trkpt lat="45.13328" lon="5.55011">
        <ele>1136</ele>
        <time>2012-04-19T22:43:48Z</time>
      </trkpt>
      <trkpt lat="45.1327" lon="5.55022">
        <ele>1142</ele>
        <time>2012-04-19T22:44:04Z</time>
      </trkpt>
      <trkpt lat="45.1324" lon="5.55031">
        <ele>1151</ele>
        <time>2012-04-19T22:44:12Z</time>
      </trkpt>
      <trkpt lat="45.13216" lon="5.55024">
        <ele>1153</ele>
        <time>2012-04-19T22:44:18Z</time>
      </trkpt>
      <trkpt lat="45.13188" lon="5.55">
        <ele>1140</ele>
        <time>2012-04-19T22:44:27Z</time>
      </trkpt>
      <trkpt lat="45.1318" lon="5.54992">
        <ele>1143</ele>
        <time>2012-04-19T22:44:29Z</time>
      </trkpt>
      <trkpt lat="45.13141" lon="5.5496">
        <ele>1144</ele>
        <time>2012-04-19T22:44:41Z</time>
      </trkpt>
      <trkpt lat="45.13117" lon="5.54949">
        <ele>1144</ele>
        <time>2012-04-19T22:44:47Z</time>
      </trkpt>
      <trkpt lat="45.13092" lon="5.54956">
        <ele>1146</ele>
        <time>2012-04-19T22:44:54Z</time>
      </trkpt>
      <trkpt lat="45.13053" lon="5.55009">
        <ele>1178</ele>
        <time>2012-04-19T22:45:09Z</time>
      </trkpt>
      <trkpt lat="45.13038" lon="5.55007">
        <ele>1180</ele>
        <time>2012-04-19T22:45:13Z</time>
      </trkpt>
      <trkpt lat="45.13016" lon="5.55001">
        <ele>1179</ele>
        <time>2012-04-19T22:45:19Z</time>
      </trkpt>
      <trkpt lat="45.12971" lon="5.54975">
        <ele>1173</ele>
        <time>2012-04-19T22:45:32Z</time>
      </trkpt>
      <trkpt lat="45.12926" lon="5.54953">
        <ele>1174</ele>
        <time>2012-04-19T22:45:45Z</time>
      </trkpt>
      <trkpt lat="45.12909" lon="5.54947">
        <ele>1185</ele>
        <time>2012-04-19T22:45:49Z</time>
      </trkpt>
      <trkpt lat="45.1289" lon="5.54941">
        <ele>1185</ele>
        <time>2012-04-19T22:45:54Z</time>
      </trkpt>
      <trkpt lat="45.12843" lon="5.54941">
        <ele>1188</ele>
        <time>2012-04-19T22:46:07Z</time>
      </trkpt>
      <trkpt lat="45.12804" lon="5.54953">
        <ele>1199</ele>
        <time>2012-04-19T22:46:17Z</time>
      </trkpt>
      <trkpt lat="45.12763" lon="5.55009">
        <ele>1219.6562</ele>
        <time>2012-04-19T22:46:32Z</time>
      </trkpt>
      <trkpt lat="45.12733" lon="5.54969">
        <ele>1212.8125</ele>
        <time>2012-04-19T22:46:43Z</time>
      </trkpt>
      <trkpt lat="45.12628" lon="5.54986">
        <ele>1226.4804</ele>
        <time>2012-04-19T22:47:12Z</time>
      </trkpt>
      <trkpt lat="45.12624" lon="5.54988">
        <ele>1225</ele>
        <time>2012-04-19T22:47:13Z</time>
      </trkpt>
      <trkpt lat="45.12607" lon="5.54992">
        <ele>1227</ele>
        <time>2012-04-19T22:47:17Z</time>
      </trkpt>
      <trkpt lat="45.12592" lon="5.54998">
        <ele>1231</ele>
        <time>2012-04-19T22:47:21Z</time>
      </trkpt>
      <trkpt lat="45.12566" lon="5.55018">
        <ele>1239</ele>
        <time>2012-04-19T22:47:29Z</time>
      </trkpt>
      <trkpt lat="45.12538" lon="5.55052">
        <ele>1243</ele>
        <time>2012-04-19T22:47:39Z</time>
      </trkpt>
      <trkpt lat="45.12519" lon="5.55099">
        <ele>1248</ele>
        <time>2012-04-19T22:47:49Z</time>
      </trkpt>
      <trkpt lat="45.1251" lon="5.55114">
        <ele>1249</ele>
        <time>2012-04-19T22:47:52Z</time>
      </trkpt>
      <trkpt lat="45.12504" lon="5.55125">
        <ele>1249</ele>
        <time>2012-04-19T22:47:54Z</time>
      </trkpt>
      <trkpt lat="45.12499" lon="5.55134">
        <ele>1250</ele>
        <time>2012-04-19T22:47:56Z</time>
      </trkpt>
      <trkpt lat="45.12497" lon="5.55144">
        <ele>1250</ele>
        <time>2012-04-19T22:47:58Z</time>
      </trkpt>
      <trkpt lat="45.12495" lon="5.55155">
        <ele>1250</ele>
        <time>2012-04-19T22:48:00Z</time>
      </trkpt>
      <trkpt lat="45.12495" lon="5.55166">
        <ele>1249</ele>
        <time>2012-04-19T22:48:02Z</time>
      </trkpt>
      <trkpt lat="45.12491" lon="5.55179">
        <ele>1250</ele>
        <time>2012-04-19T22:48:04Z</time>
      </trkpt>
      <trkpt lat="45.12486" lon="5.55192">
        <ele>1250</ele>
        <time>2012-04-19T22:48:06Z</time>
      </trkpt>
      <trkpt lat="45.12486" lon="5.55181">
        <ele>1250</ele>
        <time>2012-04-19T22:48:08Z</time>
      </trkpt>
      <trkpt lat="45.12486" lon="5.55168">
        <ele>1250</ele>
        <time>2012-04-19T22:48:10Z</time>
      </trkpt>
      <trkpt lat="45.12484" lon="5.55153">
        <ele>1251</ele>
        <time>2012-04-19T22:48:13Z</time>
      </trkpt>
      <trkpt lat="45.12483" lon="5.55146">
        <ele>1251</ele>
        <time>2012-04-19T22:48:14Z</time>
      </trkpt>
      <trkpt lat="45.1248" lon="5.55131">
        <ele>1251</ele>
        <time>2012-04-19T22:48:16Z</time>
      </trkpt>
      <trkpt lat="45.12478" lon="5.5511">
        <ele>1250</ele>
        <time>2012-04-19T22:48:20Z</time>
      </trkpt>
      <trkpt lat="45.12474" lon="5.55089">
        <ele>1250</ele>
        <time>2012-04-19T22:48:24Z</time>
      </trkpt>
      <trkpt lat="45.12471" lon="5.55052">
        <ele>1248</ele>
        <time>2012-04-19T22:48:31Z</time>
      </trkpt>
      <trkpt lat="45.12469" lon="5.55041">
        <ele>1248</ele>
        <time>2012-04-19T22:48:33Z</time>
      </trkpt>
      <trkpt lat="45.12467" lon="5.55031">
        <ele>1247</ele>
        <time>2012-04-19T22:48:35Z</time>
      </trkpt>
      <trkpt lat="45.12463" lon="5.5502">
        <ele>1247</ele>
        <time>2012-04-19T22:48:37Z</time>
      </trkpt>
      <trkpt lat="45.12459" lon="5.55013">
        <ele>1247</ele>
        <time>2012-04-19T22:48:38Z</time>
      </trkpt>
      <trkpt lat="45.12454" lon="5.55007">
        <ele>1248</ele>
        <time>2012-04-19T22:48:39Z</time>
      </trkpt>
      <trkpt lat="45.12448" lon="5.55003">
        <ele>1248</ele>
        <time>2012-04-19T22:48:40Z</time>
      </trkpt>
      <trkpt lat="45.12435" lon="5.54994">
        <ele>1244</ele>
        <time>2012-04-19T22:48:43Z</time>
      </trkpt>
      <trkpt lat="45.1242" lon="5.54988">
        <ele>1245</ele>
        <time>2012-04-19T22:48:47Z</time>
      </trkpt>
      <trkpt lat="45.12403" lon="5.54979">
        <ele>1248</ele>
        <time>2012-04-19T22:48:52Z</time>
      </trkpt>
      <trkpt lat="45.12379" lon="5.54968">
        <ele>1248</ele>
        <time>2012-04-19T22:48:58Z</time>
      </trkpt>
      <trkpt lat="45.12358" lon="5.54958">
        <ele>1248</ele>
        <time>2012-04-19T22:49:04Z</time>
      </trkpt>
      <trkpt lat="45.12338" lon="5.54951">
        <ele>1248</ele>
        <time>2012-04-19T22:49:09Z</time>
      </trkpt>
      <trkpt lat="45.12317" lon="5.54943">
        <ele>1253</ele>
        <time>2012-04-19T22:49:15Z</time>
      </trkpt>
      <trkpt lat="45.12272" lon="5.54923">
        <ele>1255</ele>
        <time>2012-04-19T22:49:28Z</time>
      </trkpt>
      <trkpt lat="45.1225" lon="5.54913">
        <ele>1252</ele>
        <time>2012-04-19T22:49:34Z</time>
      </trkpt>
      <trkpt lat="45.12229" lon="5.54904">
        <ele>1253</ele>
        <time>2012-04-19T22:49:40Z</time>
      </trkpt>
      <trkpt lat="45.1221" lon="5.54891">
        <ele>1253</ele>
        <time>2012-04-19T22:49:45Z</time>
      </trkpt>
      <trkpt lat="45.12193" lon="5.54883">
        <ele>1253</ele>
        <time>2012-04-19T22:49:50Z</time>
      </trkpt>
      <trkpt lat="45.1218" lon="5.54874">
        <ele>1253</ele>
        <time>2012-04-19T22:49:53Z</time>
      </trkpt>
      <trkpt lat="45.12167" lon="5.54868">
        <ele>1253</ele>
        <time>2012-04-19T22:49:56Z</time>
      </trkpt>
      <trkpt lat="45.12154" lon="5.54861">
        <ele>1256</ele>
        <time>2012-04-19T22:49:59Z</time>
      </trkpt>
      <trkpt lat="45.12143" lon="5.54857">
        <ele>1256</ele>
        <time>2012-04-19T22:50:02Z</time>
      </trkpt>
      <trkpt lat="45.12132" lon="5.54855">
        <ele>1256</ele>
        <time>2012-04-19T22:50:05Z</time>
      </trkpt>
      <trkpt lat="45.12126" lon="5.54853">
        <ele>1256</ele>
        <time>2012-04-19T22:50:06Z</time>
      </trkpt>
      <trkpt lat="45.12113" lon="5.5485">
        <ele>1256</ele>
        <time>2012-04-19T22:50:09Z</time>
      </trkpt>
      <trkpt lat="45.121" lon="5.54848">
        <ele>1255</ele>
        <time>2012-04-19T22:50:12Z</time>
      </trkpt>
      <trkpt lat="45.12085" lon="5.54846">
        <ele>1254</ele>
        <time>2012-04-19T22:50:16Z</time>
      </trkpt>
      <trkpt lat="45.12075" lon="5.54844">
        <ele>1255</ele>
        <time>2012-04-19T22:50:19Z</time>
      </trkpt>
      <trkpt lat="45.12064" lon="5.54844">
        <ele>1257</ele>
        <time>2012-04-19T22:50:21Z</time>
      </trkpt>
      <trkpt lat="45.12057" lon="5.54846">
        <ele>1257</ele>
        <time>2012-04-19T22:50:22Z</time>
      </trkpt>
      <trkpt lat="45.12051" lon="5.54848">
        <ele>1258</ele>
        <time>2012-04-19T22:50:23Z</time>
      </trkpt>
      <trkpt lat="45.12044" lon="5.54853">
        <ele>1258</ele>
        <time>2012-04-19T22:50:24Z</time>
      </trkpt>
      <trkpt lat="45.12036" lon="5.54859">
        <ele>1259</ele>
        <time>2012-04-19T22:50:26Z</time>
      </trkpt>
      <trkpt lat="45.12025" lon="5.54865">
        <ele>1259</ele>
        <time>2012-04-19T22:50:29Z</time>
      </trkpt>
      <trkpt lat="45.12004" lon="5.54878">
        <ele>1261</ele>
        <time>2012-04-19T22:50:35Z</time>
      </trkpt>
      <trkpt lat="45.11997" lon="5.5488">
        <ele>1263</ele>
        <time>2012-04-19T22:50:36Z</time>
      </trkpt>
      <trkpt lat="45.11989" lon="5.54883">
        <ele>1263</ele>
        <time>2012-04-19T22:50:38Z</time>
      </trkpt>
      <trkpt lat="45.11976" lon="5.54885">
        <ele>1264</ele>
        <time>2012-04-19T22:50:41Z</time>
      </trkpt>
      <trkpt lat="45.11967" lon="5.54885">
        <ele>1264</ele>
        <time>2012-04-19T22:50:43Z</time>
      </trkpt>
      <trkpt lat="45.11963" lon="5.54883">
        <ele>1264</ele>
        <time>2012-04-19T22:50:44Z</time>
      </trkpt>
      <trkpt lat="45.11956" lon="5.54874">
        <ele>1264</ele>
        <time>2012-04-19T22:50:46Z</time>
      </trkpt>
      <trkpt lat="45.11954" lon="5.54868">
        <ele>1264</ele>
        <time>2012-04-19T22:50:47Z</time>
      </trkpt>
      <trkpt lat="45.11952" lon="5.54859">
        <ele>1263</ele>
        <time>2012-04-19T22:50:48Z</time>
      </trkpt>
      <trkpt lat="45.11952" lon="5.54848">
        <ele>1263</ele>
        <time>2012-04-19T22:50:50Z</time>
      </trkpt>
      <trkpt lat="45.11952" lon="5.5484">
        <ele>1263</ele>
        <time>2012-04-19T22:50:51Z</time>
      </trkpt>
      <trkpt lat="45.11954" lon="5.54831">
        <ele>1257</ele>
        <time>2012-04-19T22:50:52Z</time>
      </trkpt>
      <trkpt lat="45.11956" lon="5.54818">
        <ele>1257</ele>
        <time>2012-04-19T22:50:54Z</time>
      </trkpt>
      <trkpt lat="45.11956" lon="5.5481">
        <ele>1256</ele>
        <time>2012-04-19T22:50:55Z</time>
      </trkpt>
      <trkpt lat="45.1195" lon="5.54792">
        <ele>1255</ele>
        <time>2012-04-19T22:50:58Z</time>
      </trkpt>
      <trkpt lat="45.11946" lon="5.54786">
        <ele>1255</ele>
        <time>2012-04-19T22:50:59Z</time>
      </trkpt>
      <trkpt lat="45.11939" lon="5.54782">
        <ele>1255</ele>
        <time>2012-04-19T22:51:00Z</time>
      </trkpt>
      <trkpt lat="45.11933" lon="5.54782">
        <ele>1255</ele>
        <time>2012-04-19T22:51:01Z</time>
      </trkpt>
      <trkpt lat="45.1192" lon="5.5478">
        <ele>1255</ele>
        <time>2012-04-19T22:51:04Z</time>
      </trkpt>
      <trkpt lat="45.11911" lon="5.5478">
        <ele>1259</ele>
        <time>2012-04-19T22:51:06Z</time>
      </trkpt>
      <trkpt lat="45.11899" lon="5.54782">
        <ele>1259</ele>
        <time>2012-04-19T22:51:09Z</time>
      </trkpt>
      <trkpt lat="45.11888" lon="5.54784">
        <ele>1260</ele>
        <time>2012-04-19T22:51:12Z</time>
      </trkpt>
      <trkpt lat="45.11875" lon="5.54788">
        <ele>1260</ele>
        <time>2012-04-19T22:51:15Z</time>
      </trkpt>
      <trkpt lat="45.11862" lon="5.54797">
        <ele>1261</ele>
        <time>2012-04-19T22:51:18Z</time>
      </trkpt>
      <trkpt lat="45.11851" lon="5.54803">
        <ele>1262</ele>
        <time>2012-04-19T22:51:21Z</time>
      </trkpt>
      <trkpt lat="45.11841" lon="5.54807">
        <ele>1263</ele>
        <time>2012-04-19T22:51:24Z</time>
      </trkpt>
      <trkpt lat="45.1183" lon="5.54812">
        <ele>1264</ele>
        <time>2012-04-19T22:51:27Z</time>
      </trkpt>
      <trkpt lat="45.11811" lon="5.54818">
        <ele>1264</ele>
        <time>2012-04-19T22:51:32Z</time>
      </trkpt>
      <trkpt lat="45.118" lon="5.54822">
        <ele>1264</ele>
        <time>2012-04-19T22:51:35Z</time>
      </trkpt>
      <trkpt lat="45.11789" lon="5.54825">
        <ele>1264</ele>
        <time>2012-04-19T22:51:38Z</time>
      </trkpt>
      <trkpt lat="45.11774" lon="5.54829">
        <ele>1265</ele>
        <time>2012-04-19T22:51:42Z</time>
      </trkpt>
      <trkpt lat="45.11731" lon="5.54835">
        <ele>1270</ele>
        <time>2012-04-19T22:51:53Z</time>
      </trkpt>
      <trkpt lat="45.11716" lon="5.5484">
        <ele>1270</ele>
        <time>2012-04-19T22:51:57Z</time>
      </trkpt>
      <trkpt lat="45.11703" lon="5.54844">
        <ele>1270</ele>
        <time>2012-04-19T22:52:00Z</time>
      </trkpt>
      <trkpt lat="45.11693" lon="5.54848">
        <ele>1269</ele>
        <time>2012-04-19T22:52:03Z</time>
      </trkpt>
      <trkpt lat="45.11675" lon="5.54857">
        <ele>1269</ele>
        <time>2012-04-19T22:52:08Z</time>
      </trkpt>
      <trkpt lat="45.11658" lon="5.54863">
        <ele>1268</ele>
        <time>2012-04-19T22:52:12Z</time>
      </trkpt>
      <trkpt lat="45.11645" lon="5.5487">
        <ele>1268</ele>
        <time>2012-04-19T22:52:15Z</time>
      </trkpt>
      <trkpt lat="45.11622" lon="5.54876">
        <ele>1269</ele>
        <time>2012-04-19T22:52:21Z</time>
      </trkpt>
      <trkpt lat="45.11605" lon="5.5488">
        <ele>1269</ele>
        <time>2012-04-19T22:52:25Z</time>
      </trkpt>
      <trkpt lat="45.11587" lon="5.54883">
        <ele>1269</ele>
        <time>2012-04-19T22:52:29Z</time>
      </trkpt>
      <trkpt lat="45.11579" lon="5.54883">
        <ele>1270</ele>
        <time>2012-04-19T22:52:31Z</time>
      </trkpt>
      <trkpt lat="45.1157" lon="5.5488">
        <ele>1270</ele>
        <time>2012-04-19T22:52:33Z</time>
      </trkpt>
      <trkpt lat="45.11562" lon="5.54876">
        <ele>1270</ele>
        <time>2012-04-19T22:52:35Z</time>
      </trkpt>
      <trkpt lat="45.11547" lon="5.54868">
        <ele>1270</ele>
        <time>2012-04-19T22:52:39Z</time>
      </trkpt>
      <trkpt lat="45.11536" lon="5.54861">
        <ele>1271</ele>
        <time>2012-04-19T22:52:42Z</time>
      </trkpt>
      <trkpt lat="45.11521" lon="5.54853">
        <ele>1272</ele>
        <time>2012-04-19T22:52:46Z</time>
      </trkpt>
      <trkpt lat="45.11504" lon="5.5484">
        <ele>1275</ele>
        <time>2012-04-19T22:52:51Z</time>
      </trkpt>
      <trkpt lat="45.11493" lon="5.54831">
        <ele>1275</ele>
        <time>2012-04-19T22:52:54Z</time>
      </trkpt>
      <trkpt lat="45.11489" lon="5.54829">
        <ele>1274</ele>
        <time>2012-04-19T22:52:55Z</time>
      </trkpt>
      <trkpt lat="45.11482" lon="5.54825">
        <ele>1274</ele>
        <time>2012-04-19T22:52:56Z</time>
      </trkpt>
      <trkpt lat="45.11474" lon="5.5482">
        <ele>1273</ele>
        <time>2012-04-19T22:52:58Z</time>
      </trkpt>
      <trkpt lat="45.11461" lon="5.54818">
        <ele>1272</ele>
        <time>2012-04-19T22:53:01Z</time>
      </trkpt>
      <trkpt lat="45.11448" lon="5.54814">
        <ele>1272</ele>
        <time>2012-04-19T22:53:04Z</time>
      </trkpt>
      <trkpt lat="45.11422" lon="5.54807">
        <ele>1272</ele>
        <time>2012-04-19T22:53:11Z</time>
      </trkpt>
      <trkpt lat="45.11405" lon="5.54801">
        <ele>1270</ele>
        <time>2012-04-19T22:53:15Z</time>
      </trkpt>
      <trkpt lat="45.11388" lon="5.54799">
        <ele>1270</ele>
        <time>2012-04-19T22:53:19Z</time>
      </trkpt>
      <trkpt lat="45.11358" lon="5.54797">
        <ele>1269</ele>
        <time>2012-04-19T22:53:27Z</time>
      </trkpt>
      <trkpt lat="45.11343" lon="5.54797">
        <ele>1269</ele>
        <time>2012-04-19T22:53:31Z</time>
      </trkpt>
      <trkpt lat="45.11315" lon="5.54797">
        <ele>1266</ele>
        <time>2012-04-19T22:53:38Z</time>
      </trkpt>
      <trkpt lat="45.11278" lon="5.54797">
        <ele>1265</ele>
        <time>2012-04-19T22:53:48Z</time>
      </trkpt>
      <trkpt lat="45.11261" lon="5.54799">
        <ele>1265</ele>
        <time>2012-04-19T22:53:52Z</time>
      </trkpt>
      <trkpt lat="45.11246" lon="5.54801">
        <ele>1263</ele>
        <time>2012-04-19T22:53:56Z</time>
      </trkpt>
      <trkpt lat="45.11227" lon="5.54801">
        <ele>1263</ele>
        <time>2012-04-19T22:54:01Z</time>
      </trkpt>
      <trkpt lat="45.1121" lon="5.54801">
        <ele>1263</ele>
        <time>2012-04-19T22:54:05Z</time>
      </trkpt>
      <trkpt lat="45.11173" lon="5.54797">
        <ele>1264</ele>
        <time>2012-04-19T22:54:15Z</time>
      </trkpt>
      <trkpt lat="45.1116" lon="5.54792">
        <ele>1262</ele>
        <time>2012-04-19T22:54:18Z</time>
      </trkpt>
      <trkpt lat="45.1115" lon="5.5479">
        <ele>1261</ele>
        <time>2012-04-19T22:54:21Z</time>
      </trkpt>
      <trkpt lat="45.11143" lon="5.54788">
        <ele>1261</ele>
        <time>2012-04-19T22:54:22Z</time>
      </trkpt>
      <trkpt lat="45.11139" lon="5.54786">
        <ele>1261</ele>
        <time>2012-04-19T22:54:23Z</time>
      </trkpt>
      <trkpt lat="45.11122" lon="5.5478">
        <ele>1260</ele>
        <time>2012-04-19T22:54:27Z</time>
      </trkpt>
      <trkpt lat="45.11113" lon="5.54775">
        <ele>1259</ele>
        <time>2012-04-19T22:54:29Z</time>
      </trkpt>
      <trkpt lat="45.11109" lon="5.54775">
        <ele>1259</ele>
        <time>2012-04-19T22:54:30Z</time>
      </trkpt>
      <trkpt lat="45.11102" lon="5.54773">
        <ele>1258</ele>
        <time>2012-04-19T22:54:31Z</time>
      </trkpt>
      <trkpt lat="45.11092" lon="5.54773">
        <ele>1257</ele>
        <time>2012-04-19T22:54:33Z</time>
      </trkpt>
      <trkpt lat="45.11085" lon="5.54773">
        <ele>1257</ele>
        <time>2012-04-19T22:54:34Z</time>
      </trkpt>
      <trkpt lat="45.11081" lon="5.54775">
        <ele>1256</ele>
        <time>2012-04-19T22:54:35Z</time>
      </trkpt>
      <trkpt lat="45.11077" lon="5.54775">
        <ele>1256</ele>
        <time>2012-04-19T22:54:36Z</time>
      </trkpt>
      <trkpt lat="45.11068" lon="5.5478">
        <ele>1256</ele>
        <time>2012-04-19T22:54:38Z</time>
      </trkpt>
      <trkpt lat="45.11062" lon="5.5478">
        <ele>1256</ele>
        <time>2012-04-19T22:54:39Z</time>
      </trkpt>
      <trkpt lat="45.11057" lon="5.54784">
        <ele>1257</ele>
        <time>2012-04-19T22:54:40Z</time>
      </trkpt>
      <trkpt lat="45.11053" lon="5.54784">
        <ele>1257</ele>
        <time>2012-04-19T22:54:41Z</time>
      </trkpt>
      <trkpt lat="45.11049" lon="5.54786">
        <ele>1257</ele>
        <time>2012-04-19T22:54:42Z</time>
      </trkpt>
      <trkpt lat="45.11042" lon="5.54786">
        <ele>1257</ele>
        <time>2012-04-19T22:54:43Z</time>
      </trkpt>
      <trkpt lat="45.11038" lon="5.54788">
        <ele>1257</ele>
        <time>2012-04-19T22:54:44Z</time>
      </trkpt>
      <trkpt lat="45.11027" lon="5.54786">
        <ele>1257</ele>
        <time>2012-04-19T22:54:47Z</time>
      </trkpt>
      <trkpt lat="45.11021" lon="5.54784">
        <ele>1256</ele>
        <time>2012-04-19T22:54:48Z</time>
      </trkpt>
      <trkpt lat="45.1101" lon="5.54782">
        <ele>1256</ele>
        <time>2012-04-19T22:54:51Z</time>
      </trkpt>
      <trkpt lat="45.11006" lon="5.5478">
        <ele>1256</ele>
        <time>2012-04-19T22:54:52Z</time>
      </trkpt>
      <trkpt lat="45.10993" lon="5.54777">
        <ele>1253</ele>
        <time>2012-04-19T22:54:55Z</time>
      </trkpt>
      <trkpt lat="45.10974" lon="5.54775">
        <ele>1252</ele>
        <time>2012-04-19T22:55:00Z</time>
      </trkpt>
      <trkpt lat="45.10967" lon="5.54773">
        <ele>1252</ele>
        <time>2012-04-19T22:55:01Z</time>
      </trkpt>
      <trkpt lat="45.10961" lon="5.54773">
        <ele>1251</ele>
        <time>2012-04-19T22:55:02Z</time>
      </trkpt>
      <trkpt lat="45.10954" lon="5.54773">
        <ele>1251</ele>
        <time>2012-04-19T22:55:03Z</time>
      </trkpt>
      <trkpt lat="45.10948" lon="5.54773">
        <ele>1251</ele>
        <time>2012-04-19T22:55:04Z</time>
      </trkpt>
      <trkpt lat="45.10937" lon="5.54773">
        <ele>1250</ele>
        <time>2012-04-19T22:55:06Z</time>
      </trkpt>
      <trkpt lat="45.10931" lon="5.54773">
        <ele>1249</ele>
        <time>2012-04-19T22:55:07Z</time>
      </trkpt>
      <trkpt lat="45.10918" lon="5.54773">
        <ele>1249</ele>
        <time>2012-04-19T22:55:10Z</time>
      </trkpt>
      <trkpt lat="45.10905" lon="5.54773">
        <ele>1244</ele>
        <time>2012-04-19T22:55:13Z</time>
      </trkpt>
      <trkpt lat="45.10888" lon="5.54773">
        <ele>1244</ele>
        <time>2012-04-19T22:55:17Z</time>
      </trkpt>
      <trkpt lat="45.10884" lon="5.54771">
        <ele>1243</ele>
        <time>2012-04-19T22:55:18Z</time>
      </trkpt>
      <trkpt lat="45.10873" lon="5.54771">
        <ele>1243</ele>
        <time>2012-04-19T22:55:20Z</time>
      </trkpt>
      <trkpt lat="45.1086" lon="5.54769">
        <ele>1242</ele>
        <time>2012-04-19T22:55:23Z</time>
      </trkpt>
      <trkpt lat="45.10856" lon="5.54767">
        <ele>1242</ele>
        <time>2012-04-19T22:55:24Z</time>
      </trkpt>
      <trkpt lat="45.10849" lon="5.54765">
        <ele>1241</ele>
        <time>2012-04-19T22:55:25Z</time>
      </trkpt>
      <trkpt lat="45.10845" lon="5.54765">
        <ele>1241</ele>
        <time>2012-04-19T22:55:26Z</time>
      </trkpt>
      <trkpt lat="45.10841" lon="5.5476">
        <ele>1240</ele>
        <time>2012-04-19T22:55:27Z</time>
      </trkpt>
      <trkpt lat="45.10828" lon="5.54756">
        <ele>1238</ele>
        <time>2012-04-19T22:55:30Z</time>
      </trkpt>
      <trkpt lat="45.10815" lon="5.5475">
        <ele>1233</ele>
        <time>2012-04-19T22:55:33Z</time>
      </trkpt>
      <trkpt lat="45.10804" lon="5.54745">
        <ele>1231</ele>
        <time>2012-04-19T22:55:36Z</time>
      </trkpt>
      <trkpt lat="45.10774" lon="5.54741">
        <ele>1230</ele>
        <time>2012-04-19T22:55:44Z</time>
      </trkpt>
      <trkpt lat="45.10733" lon="5.5473">
        <ele>1228</ele>
        <time>2012-04-19T22:55:55Z</time>
      </trkpt>
      <trkpt lat="45.10736" lon="5.54769">
        <ele>1232</ele>
        <time>2012-04-19T22:56:02Z</time>
      </trkpt>
      <trkpt lat="45.10741" lon="5.5479">
        <ele>1232</ele>
        <time>2012-04-19T22:56:06Z</time>
      </trkpt>
      <trkpt lat="45.10742" lon="5.54797">
        <ele>1232</ele>
        <time>2012-04-19T22:56:07Z</time>
      </trkpt>
      <trkpt lat="45.1077" lon="5.54853">
        <ele>1232</ele>
        <time>2012-04-19T22:56:20Z</time>
      </trkpt>
      <trkpt lat="45.10811" lon="5.5491">
        <ele>1229</ele>
        <time>2012-04-19T22:56:36Z</time>
      </trkpt>
      <trkpt lat="45.10869" lon="5.5499">
        <ele>1220</ele>
        <time>2012-04-19T22:56:58Z</time>
      </trkpt>
      <trkpt lat="45.10935" lon="5.55076">
        <ele>1208</ele>
        <time>2012-04-19T22:57:23Z</time>
      </trkpt>
      <trkpt lat="45.10991" lon="5.55114">
        <ele>1199</ele>
        <time>2012-04-19T22:57:40Z</time>
      </trkpt>
      <trkpt lat="45.1104" lon="5.55166">
        <ele>1202</ele>
        <time>2012-04-19T22:57:57Z</time>
      </trkpt>
      <trkpt lat="45.1104" lon="5.55172">
        <ele>1187</ele>
        <time>2012-04-19T22:57:58Z</time>
      </trkpt>
      <trkpt lat="45.11042" lon="5.55177">
        <ele>1187</ele>
        <time>2012-04-19T22:57:59Z</time>
      </trkpt>
      <trkpt lat="45.11045" lon="5.55181">
        <ele>1187</ele>
        <time>2012-04-19T22:58:00Z</time>
      </trkpt>
      <trkpt lat="45.11049" lon="5.55187">
        <ele>1187</ele>
        <time>2012-04-19T22:58:01Z</time>
      </trkpt>
      <trkpt lat="45.11051" lon="5.55192">
        <ele>1186</ele>
        <time>2012-04-19T22:58:02Z</time>
      </trkpt>
      <trkpt lat="45.11057" lon="5.55198">
        <ele>1186</ele>
        <time>2012-04-19T22:58:04Z</time>
      </trkpt>
      <trkpt lat="45.1107" lon="5.55215">
        <ele>1184</ele>
        <time>2012-04-19T22:58:08Z</time>
      </trkpt>
      <trkpt lat="45.11079" lon="5.55224">
        <ele>1184</ele>
        <time>2012-04-19T22:58:10Z</time>
      </trkpt>
      <trkpt lat="45.11087" lon="5.55241">
        <ele>1187</ele>
        <time>2012-04-19T22:58:14Z</time>
      </trkpt>
      <trkpt lat="45.111" lon="5.5526">
        <ele>1180</ele>
        <time>2012-04-19T22:58:19Z</time>
      </trkpt>
      <trkpt lat="45.11105" lon="5.55269">
        <ele>1179</ele>
        <time>2012-04-19T22:58:21Z</time>
      </trkpt>
      <trkpt lat="45.11111" lon="5.55277">
        <ele>1179</ele>
        <time>2012-04-19T22:58:23Z</time>
      </trkpt>
      <trkpt lat="45.11115" lon="5.55286">
        <ele>1178</ele>
        <time>2012-04-19T22:58:25Z</time>
      </trkpt>
      <trkpt lat="45.11128" lon="5.55305">
        <ele>1177</ele>
        <time>2012-04-19T22:58:30Z</time>
      </trkpt>
      <trkpt lat="45.11133" lon="5.55314">
        <ele>1177</ele>
        <time>2012-04-19T22:58:32Z</time>
      </trkpt>
      <trkpt lat="45.11143" lon="5.55331">
        <ele>1176</ele>
        <time>2012-04-19T22:58:36Z</time>
      </trkpt>
      <trkpt lat="45.11148" lon="5.5534">
        <ele>1166</ele>
        <time>2012-04-19T22:58:38Z</time>
      </trkpt>
      <trkpt lat="45.11158" lon="5.55355">
        <ele>1165</ele>
        <time>2012-04-19T22:58:42Z</time>
      </trkpt>
      <trkpt lat="45.11165" lon="5.55363">
        <ele>1163</ele>
        <time>2012-04-19T22:58:44Z</time>
      </trkpt>
      <trkpt lat="45.11169" lon="5.5537">
        <ele>1166</ele>
        <time>2012-04-19T22:58:45Z</time>
      </trkpt>
      <trkpt lat="45.11186" lon="5.55387">
        <ele>1163</ele>
        <time>2012-04-19T22:58:50Z</time>
      </trkpt>
      <trkpt lat="45.11195" lon="5.55393">
        <ele>1163</ele>
        <time>2012-04-19T22:58:52Z</time>
      </trkpt>
      <trkpt lat="45.11212" lon="5.55408">
        <ele>1162</ele>
        <time>2012-04-19T22:58:57Z</time>
      </trkpt>
      <trkpt lat="45.11225" lon="5.55421">
        <ele>1151</ele>
        <time>2012-04-19T22:59:01Z</time>
      </trkpt>
      <trkpt lat="45.11236" lon="5.55434">
        <ele>1151</ele>
        <time>2012-04-19T22:59:04Z</time>
      </trkpt>
      <trkpt lat="45.11242" lon="5.55443">
        <ele>1150</ele>
        <time>2012-04-19T22:59:06Z</time>
      </trkpt>
      <trkpt lat="45.11244" lon="5.55449">
        <ele>1149</ele>
        <time>2012-04-19T22:59:07Z</time>
      </trkpt>
      <trkpt lat="45.11246" lon="5.55453">
        <ele>1148</ele>
        <time>2012-04-19T22:59:08Z</time>
      </trkpt>
      <trkpt lat="45.11248" lon="5.5546">
        <ele>1147</ele>
        <time>2012-04-19T22:59:09Z</time>
      </trkpt>
      <trkpt lat="45.11248" lon="5.55466">
        <ele>1146</ele>
        <time>2012-04-19T22:59:10Z</time>
      </trkpt>
      <trkpt lat="45.11248" lon="5.55473">
        <ele>1145</ele>
        <time>2012-04-19T22:59:11Z</time>
      </trkpt>
      <trkpt lat="45.11246" lon="5.55479">
        <ele>1145</ele>
        <time>2012-04-19T22:59:12Z</time>
      </trkpt>
      <trkpt lat="45.11244" lon="5.55486">
        <ele>1144</ele>
        <time>2012-04-19T22:59:13Z</time>
      </trkpt>
      <trkpt lat="45.1124" lon="5.55492">
        <ele>1143</ele>
        <time>2012-04-19T22:59:14Z</time>
      </trkpt>
      <trkpt lat="45.11231" lon="5.55507">
        <ele>1137</ele>
        <time>2012-04-19T22:59:17Z</time>
      </trkpt>
      <trkpt lat="45.11227" lon="5.55513">
        <ele>1137</ele>
        <time>2012-04-19T22:59:18Z</time>
      </trkpt>
      <trkpt lat="45.1122" lon="5.55522">
        <ele>1136</ele>
        <time>2012-04-19T22:59:20Z</time>
      </trkpt>
      <trkpt lat="45.1121" lon="5.55537">
        <ele>1135</ele>
        <time>2012-04-19T22:59:24Z</time>
      </trkpt>
      <trkpt lat="45.11193" lon="5.55558">
        <ele>1134</ele>
        <time>2012-04-19T22:59:30Z</time>
      </trkpt>
      <trkpt lat="45.11184" lon="5.55565">
        <ele>1133</ele>
        <time>2012-04-19T22:59:32Z</time>
      </trkpt>
      <trkpt lat="45.11175" lon="5.55569">
        <ele>1132</ele>
        <time>2012-04-19T22:59:34Z</time>
      </trkpt>
      <trkpt lat="45.11167" lon="5.55574">
        <ele>1130</ele>
        <time>2012-04-19T22:59:36Z</time>
      </trkpt>
      <trkpt lat="45.11178" lon="5.5558">
        <ele>1131</ele>
        <time>2012-04-19T22:59:39Z</time>
      </trkpt>
      <trkpt lat="45.11184" lon="5.55584">
        <ele>1126</ele>
        <time>2012-04-19T22:59:40Z</time>
      </trkpt>
      <trkpt lat="45.11193" lon="5.55591">
        <ele>1126</ele>
        <time>2012-04-19T22:59:42Z</time>
      </trkpt>
      <trkpt lat="45.11201" lon="5.55595">
        <ele>1126</ele>
        <time>2012-04-19T22:59:44Z</time>
      </trkpt>
      <trkpt lat="45.11208" lon="5.55599">
        <ele>1126</ele>
        <time>2012-04-19T22:59:45Z</time>
      </trkpt>
      <trkpt lat="45.11218" lon="5.55608">
        <ele>1126</ele>
        <time>2012-04-19T22:59:48Z</time>
      </trkpt>
      <trkpt lat="45.11223" lon="5.55614">
        <ele>1125</ele>
        <time>2012-04-19T22:59:49Z</time>
      </trkpt>
      <trkpt lat="45.11227" lon="5.55619">
        <ele>1125</ele>
        <time>2012-04-19T22:59:50Z</time>
      </trkpt>
      <trkpt lat="45.11231" lon="5.55623">
        <ele>1125</ele>
        <time>2012-04-19T22:59:51Z</time>
      </trkpt>
      <trkpt lat="45.11233" lon="5.55629">
        <ele>1124</ele>
        <time>2012-04-19T22:59:52Z</time>
      </trkpt>
      <trkpt lat="45.11236" lon="5.55636">
        <ele>1124</ele>
        <time>2012-04-19T22:59:53Z</time>
      </trkpt>
      <trkpt lat="45.11238" lon="5.55642">
        <ele>1123</ele>
        <time>2012-04-19T22:59:54Z</time>
      </trkpt>
      <trkpt lat="45.1124" lon="5.55646">
        <ele>1123</ele>
        <time>2012-04-19T22:59:55Z</time>
      </trkpt>
      <trkpt lat="45.11242" lon="5.55651">
        <ele>1123</ele>
        <time>2012-04-19T22:59:56Z</time>
      </trkpt>
      <trkpt lat="45.11246" lon="5.55655">
        <ele>1122</ele>
        <time>2012-04-19T22:59:57Z</time>
      </trkpt>
      <trkpt lat="45.11268" lon="5.55651">
        <ele>1127</ele>
        <time>2012-04-19T23:00:03Z</time>
      </trkpt>
      <trkpt lat="45.11289" lon="5.55659">
        <ele>1128</ele>
        <time>2012-04-19T23:00:09Z</time>
      </trkpt>
      <trkpt lat="45.11291" lon="5.55666">
        <ele>1128</ele>
        <time>2012-04-19T23:00:10Z</time>
      </trkpt>
      <trkpt lat="45.11293" lon="5.5567">
        <ele>1124</ele>
        <time>2012-04-19T23:00:11Z</time>
      </trkpt>
      <trkpt lat="45.11298" lon="5.55679">
        <ele>1124</ele>
        <time>2012-04-19T23:00:13Z</time>
      </trkpt>
      <trkpt lat="45.11302" lon="5.55698">
        <ele>1124</ele>
        <time>2012-04-19T23:00:16Z</time>
      </trkpt>
      <trkpt lat="45.11311" lon="5.55724">
        <ele>1124</ele>
        <time>2012-04-19T23:00:21Z</time>
      </trkpt>
      <trkpt lat="45.11319" lon="5.55749">
        <ele>1124</ele>
        <time>2012-04-19T23:00:26Z</time>
      </trkpt>
      <trkpt lat="45.11328" lon="5.55767">
        <ele>1124</ele>
        <time>2012-04-19T23:00:30Z</time>
      </trkpt>
      <trkpt lat="45.11334" lon="5.55782">
        <ele>1130</ele>
        <time>2012-04-19T23:00:33Z</time>
      </trkpt>
      <trkpt lat="45.11339" lon="5.5579">
        <ele>1131</ele>
        <time>2012-04-19T23:00:35Z</time>
      </trkpt>
      <trkpt lat="45.11343" lon="5.55799">
        <ele>1131</ele>
        <time>2012-04-19T23:00:37Z</time>
      </trkpt>
      <trkpt lat="45.11375" lon="5.55831">
        <ele>1132</ele>
        <time>2012-04-19T23:00:47Z</time>
      </trkpt>
      <trkpt lat="45.11414" lon="5.55852">
        <ele>1132</ele>
        <time>2012-04-19T23:00:58Z</time>
      </trkpt>
      <trkpt lat="45.11429" lon="5.55857">
        <ele>1132</ele>
        <time>2012-04-19T23:01:02Z</time>
      </trkpt>
      <trkpt lat="45.11433" lon="5.5587">
        <ele>1131</ele>
        <time>2012-04-19T23:01:04Z</time>
      </trkpt>
      <trkpt lat="45.11431" lon="5.55887">
        <ele>1131</ele>
        <time>2012-04-19T23:01:07Z</time>
      </trkpt>
      <trkpt lat="45.11426" lon="5.55913">
        <ele>1129</ele>
        <time>2012-04-19T23:01:12Z</time>
      </trkpt>
      <trkpt lat="45.11411" lon="5.55962">
        <ele>1126</ele>
        <time>2012-04-19T23:01:22Z</time>
      </trkpt>
      <trkpt lat="45.11403" lon="5.55977">
        <ele>1126</ele>
        <time>2012-04-19T23:01:25Z</time>
      </trkpt>
      <trkpt lat="45.11381" lon="5.55985">
        <ele>1126</ele>
        <time>2012-04-19T23:01:31Z</time>
      </trkpt>
      <trkpt lat="45.11323" lon="5.55988">
        <ele>1122</ele>
        <time>2012-04-19T23:01:47Z</time>
      </trkpt>
      <trkpt lat="45.1118" lon="5.56033">
        <ele>1118.8828</ele>
        <time>2012-04-19T23:02:27Z</time>
      </trkpt>
      <trkpt lat="45.11038" lon="5.55989">
        <ele>1111.457</ele>
        <time>2012-04-19T23:03:07Z</time>
      </trkpt>
      <trkpt lat="45.10966" lon="5.55978">
        <ele>1100.9179</ele>
        <time>2012-04-19T23:03:27Z</time>
      </trkpt>
      <trkpt lat="45.10905" lon="5.55923">
        <ele>1094.1171</ele>
        <time>2012-04-19T23:03:47Z</time>
      </trkpt>
      <trkpt lat="45.10846" lon="5.55923">
        <ele>1088.9062</ele>
        <time>2012-04-19T23:04:03Z</time>
      </trkpt>
      <trkpt lat="45.10587" lon="5.55925">
        <ele>1055.7968</ele>
        <time>2012-04-19T23:05:14Z</time>
      </trkpt>
      <trkpt lat="45.10583" lon="5.55923">
        <ele>1063</ele>
        <time>2012-04-19T23:05:15Z</time>
      </trkpt>
      <trkpt lat="45.10577" lon="5.55921">
        <ele>1063</ele>
        <time>2012-04-19T23:05:16Z</time>
      </trkpt>
      <trkpt lat="45.1057" lon="5.55919">
        <ele>1061</ele>
        <time>2012-04-19T23:05:17Z</time>
      </trkpt>
      <trkpt lat="45.10566" lon="5.55919">
        <ele>1061</ele>
        <time>2012-04-19T23:05:18Z</time>
      </trkpt>
      <trkpt lat="45.1056" lon="5.55921">
        <ele>1060</ele>
        <time>2012-04-19T23:05:19Z</time>
      </trkpt>
      <trkpt lat="45.10545" lon="5.55923">
        <ele>1058</ele>
        <time>2012-04-19T23:05:23Z</time>
      </trkpt>
      <trkpt lat="45.10538" lon="5.55923">
        <ele>1057</ele>
        <time>2012-04-19T23:05:24Z</time>
      </trkpt>
      <trkpt lat="45.1053" lon="5.55925">
        <ele>1056</ele>
        <time>2012-04-19T23:05:26Z</time>
      </trkpt>
      <trkpt lat="45.10521" lon="5.55925">
        <ele>1055</ele>
        <time>2012-04-19T23:05:28Z</time>
      </trkpt>
      <trkpt lat="45.10515" lon="5.55923">
        <ele>1054</ele>
        <time>2012-04-19T23:05:29Z</time>
      </trkpt>
      <trkpt lat="45.10506" lon="5.55923">
        <ele>1053</ele>
        <time>2012-04-19T23:05:31Z</time>
      </trkpt>
      <trkpt lat="45.10497" lon="5.55925">
        <ele>1049</ele>
        <time>2012-04-19T23:05:33Z</time>
      </trkpt>
      <trkpt lat="45.10491" lon="5.55928">
        <ele>1048</ele>
        <time>2012-04-19T23:05:34Z</time>
      </trkpt>
      <trkpt lat="45.10484" lon="5.55928">
        <ele>1047</ele>
        <time>2012-04-19T23:05:35Z</time>
      </trkpt>
      <trkpt lat="45.10478" lon="5.5593">
        <ele>1046</ele>
        <time>2012-04-19T23:05:36Z</time>
      </trkpt>
      <trkpt lat="45.10459" lon="5.5593">
        <ele>1043</ele>
        <time>2012-04-19T23:05:41Z</time>
      </trkpt>
      <trkpt lat="45.10448" lon="5.55934">
        <ele>1042</ele>
        <time>2012-04-19T23:05:44Z</time>
      </trkpt>
      <trkpt lat="45.10435" lon="5.55934">
        <ele>1040</ele>
        <time>2012-04-19T23:05:47Z</time>
      </trkpt>
      <trkpt lat="45.10429" lon="5.55932">
        <ele>1040</ele>
        <time>2012-04-19T23:05:48Z</time>
      </trkpt>
      <trkpt lat="45.10424" lon="5.55932">
        <ele>1039</ele>
        <time>2012-04-19T23:05:49Z</time>
      </trkpt>
      <trkpt lat="45.10418" lon="5.5593">
        <ele>1039</ele>
        <time>2012-04-19T23:05:50Z</time>
      </trkpt>
      <trkpt lat="45.10412" lon="5.5593">
        <ele>1032</ele>
        <time>2012-04-19T23:05:51Z</time>
      </trkpt>
      <trkpt lat="45.10405" lon="5.5593">
        <ele>1031</ele>
        <time>2012-04-19T23:05:52Z</time>
      </trkpt>
      <trkpt lat="45.10401" lon="5.55928">
        <ele>1031</ele>
        <time>2012-04-19T23:05:53Z</time>
      </trkpt>
      <trkpt lat="45.10399" lon="5.55921">
        <ele>1031</ele>
        <time>2012-04-19T23:05:54Z</time>
      </trkpt>
      <trkpt lat="45.10397" lon="5.55917">
        <ele>1030</ele>
        <time>2012-04-19T23:05:55Z</time>
      </trkpt>
      <trkpt lat="45.10392" lon="5.55913">
        <ele>1029</ele>
        <time>2012-04-19T23:05:56Z</time>
      </trkpt>
      <trkpt lat="45.10386" lon="5.5591">
        <ele>1028</ele>
        <time>2012-04-19T23:05:57Z</time>
      </trkpt>
      <trkpt lat="45.10373" lon="5.55908">
        <ele>1026</ele>
        <time>2012-04-19T23:06:00Z</time>
      </trkpt>
      <trkpt lat="45.10366" lon="5.55908">
        <ele>1025</ele>
        <time>2012-04-19T23:06:01Z</time>
      </trkpt>
      <trkpt lat="45.1036" lon="5.55904">
        <ele>1024</ele>
        <time>2012-04-19T23:06:02Z</time>
      </trkpt>
      <trkpt lat="45.10358" lon="5.559">
        <ele>1024</ele>
        <time>2012-04-19T23:06:03Z</time>
      </trkpt>
      <trkpt lat="45.10358" lon="5.55893">
        <ele>1024</ele>
        <time>2012-04-19T23:06:04Z</time>
      </trkpt>
      <trkpt lat="45.1036" lon="5.55889">
        <ele>1024</ele>
        <time>2012-04-19T23:06:05Z</time>
      </trkpt>
      <trkpt lat="45.1036" lon="5.55885">
        <ele>1024</ele>
        <time>2012-04-19T23:06:05Z</time>
      </trkpt>
      <trkpt lat="45.10362" lon="5.5588">
        <ele>1024</ele>
        <time>2012-04-19T23:06:06Z</time>
      </trkpt>
      <trkpt lat="45.10366" lon="5.55878">
        <ele>1025</ele>
        <time>2012-04-19T23:06:07Z</time>
      </trkpt>
      <trkpt lat="45.10369" lon="5.55872">
        <ele>1025</ele>
        <time>2012-04-19T23:06:08Z</time>
      </trkpt>
      <trkpt lat="45.10371" lon="5.55867">
        <ele>1025</ele>
        <time>2012-04-19T23:06:09Z</time>
      </trkpt>
      <trkpt lat="45.10369" lon="5.55863">
        <ele>1024</ele>
        <time>2012-04-19T23:06:10Z</time>
      </trkpt>
      <trkpt lat="45.10362" lon="5.55861">
        <ele>1024</ele>
        <time>2012-04-19T23:06:11Z</time>
      </trkpt>
      <trkpt lat="45.10356" lon="5.55859">
        <ele>1023</ele>
        <time>2012-04-19T23:06:12Z</time>
      </trkpt>
      <trkpt lat="45.10351" lon="5.55857">
        <ele>1023</ele>
        <time>2012-04-19T23:06:13Z</time>
      </trkpt>
      <trkpt lat="45.10343" lon="5.55855">
        <ele>1022</ele>
        <time>2012-04-19T23:06:15Z</time>
      </trkpt>
      <trkpt lat="45.10334" lon="5.55855">
        <ele>1022</ele>
        <time>2012-04-19T23:06:17Z</time>
      </trkpt>
      <trkpt lat="45.10326" lon="5.55852">
        <ele>1018</ele>
        <time>2012-04-19T23:06:19Z</time>
      </trkpt>
      <trkpt lat="45.10315" lon="5.55848">
        <ele>1018</ele>
        <time>2012-04-19T23:06:22Z</time>
      </trkpt>
      <trkpt lat="45.103" lon="5.55848">
        <ele>1018</ele>
        <time>2012-04-19T23:06:26Z</time>
      </trkpt>
      <trkpt lat="45.10283" lon="5.55852">
        <ele>1018</ele>
        <time>2012-04-19T23:06:30Z</time>
      </trkpt>
      <trkpt lat="45.10268" lon="5.55876">
        <ele>1018</ele>
        <time>2012-04-19T23:06:36Z</time>
      </trkpt>
      <trkpt lat="45.10261" lon="5.55889">
        <ele>1017</ele>
        <time>2012-04-19T23:06:39Z</time>
      </trkpt>
      <trkpt lat="45.10259" lon="5.559">
        <ele>1017</ele>
        <time>2012-04-19T23:06:41Z</time>
      </trkpt>
      <trkpt lat="45.10253" lon="5.55913">
        <ele>1016</ele>
        <time>2012-04-19T23:06:44Z</time>
      </trkpt>
      <trkpt lat="45.10244" lon="5.55923">
        <ele>1013</ele>
        <time>2012-04-19T23:06:47Z</time>
      </trkpt>
      <trkpt lat="45.10233" lon="5.55936">
        <ele>1011</ele>
        <time>2012-04-19T23:06:50Z</time>
      </trkpt>
      <trkpt lat="45.10227" lon="5.55943">
        <ele>1011</ele>
        <time>2012-04-19T23:06:52Z</time>
      </trkpt>
      <trkpt lat="45.10221" lon="5.5594">
        <ele>1011</ele>
        <time>2012-04-19T23:06:53Z</time>
      </trkpt>
      <trkpt lat="45.10212" lon="5.5593">
        <ele>1011</ele>
        <time>2012-04-19T23:06:56Z</time>
      </trkpt>
      <trkpt lat="45.10203" lon="5.55923">
        <ele>1011</ele>
        <time>2012-04-19T23:06:58Z</time>
      </trkpt>
      <trkpt lat="45.10195" lon="5.55915">
        <ele>1015</ele>
        <time>2012-04-19T23:07:00Z</time>
      </trkpt>
      <trkpt lat="45.10191" lon="5.5591">
        <ele>1015</ele>
        <time>2012-04-19T23:07:01Z</time>
      </trkpt>
      <trkpt lat="45.10186" lon="5.55906">
        <ele>1015</ele>
        <time>2012-04-19T23:07:02Z</time>
      </trkpt>
      <trkpt lat="45.10182" lon="5.55891">
        <ele>1015</ele>
        <time>2012-04-19T23:07:05Z</time>
      </trkpt>
      <trkpt lat="45.1018" lon="5.55878">
        <ele>1016</ele>
        <time>2012-04-19T23:07:07Z</time>
      </trkpt>
      <trkpt lat="45.10178" lon="5.55874">
        <ele>1016</ele>
        <time>2012-04-19T23:07:08Z</time>
      </trkpt>
      <trkpt lat="45.10176" lon="5.55867">
        <ele>1016</ele>
        <time>2012-04-19T23:07:09Z</time>
      </trkpt>
      <trkpt lat="45.10176" lon="5.55861">
        <ele>1016</ele>
        <time>2012-04-19T23:07:10Z</time>
      </trkpt>
      <trkpt lat="45.10173" lon="5.55857">
        <ele>1016</ele>
        <time>2012-04-19T23:07:11Z</time>
      </trkpt>
      <trkpt lat="45.10171" lon="5.55852">
        <ele>1016</ele>
        <time>2012-04-19T23:07:12Z</time>
      </trkpt>
      <trkpt lat="45.10169" lon="5.55848">
        <ele>1015</ele>
        <time>2012-04-19T23:07:13Z</time>
      </trkpt>
      <trkpt lat="45.10165" lon="5.55842">
        <ele>1013</ele>
        <time>2012-04-19T23:07:14Z</time>
      </trkpt>
      <trkpt lat="45.1016" lon="5.55837">
        <ele>1013</ele>
        <time>2012-04-19T23:07:15Z</time>
      </trkpt>
      <trkpt lat="45.10156" lon="5.55833">
        <ele>1014</ele>
        <time>2012-04-19T23:07:16Z</time>
      </trkpt>
      <trkpt lat="45.1015" lon="5.55827">
        <ele>1014</ele>
        <time>2012-04-19T23:07:18Z</time>
      </trkpt>
      <trkpt lat="45.10139" lon="5.55818">
        <ele>1014</ele>
        <time>2012-04-19T23:07:21Z</time>
      </trkpt>
      <trkpt lat="45.10133" lon="5.55812">
        <ele>1013</ele>
        <time>2012-04-19T23:07:23Z</time>
      </trkpt>
      <trkpt lat="45.10128" lon="5.55807">
        <ele>1013</ele>
        <time>2012-04-19T23:07:24Z</time>
      </trkpt>
      <trkpt lat="45.10122" lon="5.55805">
        <ele>1013</ele>
        <time>2012-04-19T23:07:25Z</time>
      </trkpt>
      <trkpt lat="45.10118" lon="5.55805">
        <ele>1013</ele>
        <time>2012-04-19T23:07:26Z</time>
      </trkpt>
      <trkpt lat="45.10113" lon="5.55803">
        <ele>1013</ele>
        <time>2012-04-19T23:07:27Z</time>
      </trkpt>
      <trkpt lat="45.10109" lon="5.55805">
        <ele>1013</ele>
        <time>2012-04-19T23:07:28Z</time>
      </trkpt>
      <trkpt lat="45.10105" lon="5.55805">
        <ele>1012</ele>
        <time>2012-04-19T23:07:29Z</time>
      </trkpt>
      <trkpt lat="45.10094" lon="5.55805">
        <ele>1012</ele>
        <time>2012-04-19T23:07:31Z</time>
      </trkpt>
      <trkpt lat="45.10079" lon="5.5581">
        <ele>1006</ele>
        <time>2012-04-19T23:07:35Z</time>
      </trkpt>
      <trkpt lat="45.10073" lon="5.55814">
        <ele>1006</ele>
        <time>2012-04-19T23:07:36Z</time>
      </trkpt>
      <trkpt lat="45.10064" lon="5.55818">
        <ele>1005</ele>
        <time>2012-04-19T23:07:38Z</time>
      </trkpt>
      <trkpt lat="45.1006" lon="5.55822">
        <ele>1005</ele>
        <time>2012-04-19T23:07:39Z</time>
      </trkpt>
      <trkpt lat="45.10053" lon="5.55827">
        <ele>1004</ele>
        <time>2012-04-19T23:07:40Z</time>
      </trkpt>
      <trkpt lat="45.10045" lon="5.55837">
        <ele>998</ele>
        <time>2012-04-19T23:07:43Z</time>
      </trkpt>
      <trkpt lat="45.1004" lon="5.55842">
        <ele>998</ele>
        <time>2012-04-19T23:07:44Z</time>
      </trkpt>
      <trkpt lat="45.10038" lon="5.55846">
        <ele>997</ele>
        <time>2012-04-19T23:07:45Z</time>
      </trkpt>
      <trkpt lat="45.10034" lon="5.55855">
        <ele>997</ele>
        <time>2012-04-19T23:07:47Z</time>
      </trkpt>
      <trkpt lat="45.10027" lon="5.55878">
        <ele>995</ele>
        <time>2012-04-19T23:07:51Z</time>
      </trkpt>
      <trkpt lat="45.10025" lon="5.55889">
        <ele>994</ele>
        <time>2012-04-19T23:07:53Z</time>
      </trkpt>
      <trkpt lat="45.10025" lon="5.55898">
        <ele>994</ele>
        <time>2012-04-19T23:07:54Z</time>
      </trkpt>
      <trkpt lat="45.10027" lon="5.5591">
        <ele>993</ele>
        <time>2012-04-19T23:07:56Z</time>
      </trkpt>
      <trkpt lat="45.1003" lon="5.55925">
        <ele>989</ele>
        <time>2012-04-19T23:07:59Z</time>
      </trkpt>
      <trkpt lat="45.10032" lon="5.5593">
        <ele>990</ele>
        <time>2012-04-19T23:08:00Z</time>
      </trkpt>
      <trkpt lat="45.10036" lon="5.55943">
        <ele>990</ele>
        <time>2012-04-19T23:08:02Z</time>
      </trkpt>
      <trkpt lat="45.10038" lon="5.5596">
        <ele>989</ele>
        <time>2012-04-19T23:08:05Z</time>
      </trkpt>
      <trkpt lat="45.10042" lon="5.55977">
        <ele>989</ele>
        <time>2012-04-19T23:08:08Z</time>
      </trkpt>
      <trkpt lat="45.10042" lon="5.55985">
        <ele>989</ele>
        <time>2012-04-19T23:08:09Z</time>
      </trkpt>
      <trkpt lat="45.10049" lon="5.55992">
        <ele>989</ele>
        <time>2012-04-19T23:08:11Z</time>
      </trkpt>
      <trkpt lat="45.10053" lon="5.55998">
        <ele>989</ele>
        <time>2012-04-19T23:08:12Z</time>
      </trkpt>
      <trkpt lat="45.10049" lon="5.56016">
        <ele>986</ele>
        <time>2012-04-19T23:08:15Z</time>
      </trkpt>
      <trkpt lat="45.10049" lon="5.56024">
        <ele>986</ele>
        <time>2012-04-19T23:08:16Z</time>
      </trkpt>
      <trkpt lat="45.10049" lon="5.56035">
        <ele>985</ele>
        <time>2012-04-19T23:08:18Z</time>
      </trkpt>
      <trkpt lat="45.10051" lon="5.56043">
        <ele>985</ele>
        <time>2012-04-19T23:08:19Z</time>
      </trkpt>
      <trkpt lat="45.10057" lon="5.56061">
        <ele>985</ele>
        <time>2012-04-19T23:08:22Z</time>
      </trkpt>
      <trkpt lat="45.10062" lon="5.56078">
        <ele>984</ele>
        <time>2012-04-19T23:08:25Z</time>
      </trkpt>
      <trkpt lat="45.10066" lon="5.56093">
        <ele>983</ele>
        <time>2012-04-19T23:08:28Z</time>
      </trkpt>
      <trkpt lat="45.10068" lon="5.56114">
        <ele>983</ele>
        <time>2012-04-19T23:08:32Z</time>
      </trkpt>
      <trkpt lat="45.1007" lon="5.56134">
        <ele>983</ele>
        <time>2012-04-19T23:08:35Z</time>
      </trkpt>
      <trkpt lat="45.1007" lon="5.56142">
        <ele>983</ele>
        <time>2012-04-19T23:08:36Z</time>
      </trkpt>
      <trkpt lat="45.1007" lon="5.56151">
        <ele>983</ele>
        <time>2012-04-19T23:08:37Z</time>
      </trkpt>
      <trkpt lat="45.10073" lon="5.56159">
        <ele>982</ele>
        <time>2012-04-19T23:08:38Z</time>
      </trkpt>
      <trkpt lat="45.10073" lon="5.5617">
        <ele>983</ele>
        <time>2012-04-19T23:08:40Z</time>
      </trkpt>
      <trkpt lat="45.10075" lon="5.56176">
        <ele>983</ele>
        <time>2012-04-19T23:08:41Z</time>
      </trkpt>
      <trkpt lat="45.10077" lon="5.56185">
        <ele>983</ele>
        <time>2012-04-19T23:08:42Z</time>
      </trkpt>
      <trkpt lat="45.10079" lon="5.56194">
        <ele>983</ele>
        <time>2012-04-19T23:08:43Z</time>
      </trkpt>
      <trkpt lat="45.10085" lon="5.56209">
        <ele>983</ele>
        <time>2012-04-19T23:08:46Z</time>
      </trkpt>
      <trkpt lat="45.10092" lon="5.56224">
        <ele>984</ele>
        <time>2012-04-19T23:08:49Z</time>
      </trkpt>
      <trkpt lat="45.10096" lon="5.56237">
        <ele>984</ele>
        <time>2012-04-19T23:08:51Z</time>
      </trkpt>
      <trkpt lat="45.10098" lon="5.56252">
        <ele>985</ele>
        <time>2012-04-19T23:08:54Z</time>
      </trkpt>
      <trkpt lat="45.101" lon="5.56271">
        <ele>985</ele>
        <time>2012-04-19T23:08:57Z</time>
      </trkpt>
      <trkpt lat="45.10098" lon="5.5629">
        <ele>985</ele>
        <time>2012-04-19T23:09:00Z</time>
      </trkpt>
      <trkpt lat="45.10098" lon="5.56307">
        <ele>985</ele>
        <time>2012-04-19T23:09:03Z</time>
      </trkpt>
      <trkpt lat="45.10064" lon="5.56282">
        <ele>984</ele>
        <time>2012-04-19T23:09:13Z</time>
      </trkpt>
      <trkpt lat="45.10008" lon="5.5623">
        <ele>984</ele>
        <time>2012-04-19T23:09:31Z</time>
      </trkpt>
      <trkpt lat="45.09954" lon="5.56183">
        <ele>985</ele>
        <time>2012-04-19T23:09:48Z</time>
      </trkpt>
      <trkpt lat="45.09897" lon="5.56131">
        <ele>983</ele>
        <time>2012-04-19T23:10:07Z</time>
      </trkpt>
      <trkpt lat="45.09832" lon="5.56076">
        <ele>982</ele>
        <time>2012-04-19T23:10:27Z</time>
      </trkpt>
      <trkpt lat="45.09764" lon="5.56011">
        <ele>982</ele>
        <time>2012-04-19T23:10:49Z</time>
      </trkpt>
      <trkpt lat="45.09757" lon="5.56007">
        <ele>981</ele>
        <time>2012-04-19T23:10:50Z</time>
      </trkpt>
      <trkpt lat="45.09753" lon="5.56003">
        <ele>981</ele>
        <time>2012-04-19T23:10:51Z</time>
      </trkpt>
      <trkpt lat="45.09706" lon="5.55964">
        <ele>981</ele>
        <time>2012-04-19T23:11:06Z</time>
      </trkpt>
      <trkpt lat="45.09665" lon="5.55925">
        <ele>981</ele>
        <time>2012-04-19T23:11:19Z</time>
      </trkpt>
      <trkpt lat="45.09628" lon="5.55895">
        <ele>981</ele>
        <time>2012-04-19T23:11:30Z</time>
      </trkpt>
      <trkpt lat="45.09624" lon="5.55906">
        <ele>981</ele>
        <time>2012-04-19T23:11:32Z</time>
      </trkpt>
      <trkpt lat="45.09615" lon="5.55921">
        <ele>982</ele>
        <time>2012-04-19T23:11:35Z</time>
      </trkpt>
      <trkpt lat="45.09609" lon="5.55928">
        <ele>982</ele>
        <time>2012-04-19T23:11:37Z</time>
      </trkpt>
      <trkpt lat="45.096" lon="5.55934">
        <ele>982</ele>
        <time>2012-04-19T23:11:39Z</time>
      </trkpt>
      <trkpt lat="45.09581" lon="5.5594">
        <ele>984</ele>
        <time>2012-04-19T23:11:44Z</time>
      </trkpt>
      <trkpt lat="45.09566" lon="5.55943">
        <ele>984</ele>
        <time>2012-04-19T23:11:48Z</time>
      </trkpt>
      <trkpt lat="45.09553" lon="5.55945">
        <ele>985</ele>
        <time>2012-04-19T23:11:51Z</time>
      </trkpt>
      <trkpt lat="45.09545" lon="5.55947">
        <ele>985</ele>
        <time>2012-04-19T23:11:53Z</time>
      </trkpt>
      <trkpt lat="45.09538" lon="5.55953">
        <ele>986</ele>
        <time>2012-04-19T23:11:55Z</time>
      </trkpt>
      <trkpt lat="45.09534" lon="5.55962">
        <ele>986</ele>
        <time>2012-04-19T23:11:57Z</time>
      </trkpt>
      <trkpt lat="45.0953" lon="5.55973">
        <ele>986</ele>
        <time>2012-04-19T23:11:59Z</time>
      </trkpt>
      <trkpt lat="45.09521" lon="5.56005">
        <ele>989</ele>
        <time>2012-04-19T23:12:05Z</time>
      </trkpt>
      <trkpt lat="45.09512" lon="5.56033">
        <ele>989</ele>
        <time>2012-04-19T23:12:10Z</time>
      </trkpt>
      <trkpt lat="45.09508" lon="5.56048">
        <ele>989</ele>
        <time>2012-04-19T23:12:13Z</time>
      </trkpt>
      <trkpt lat="45.09504" lon="5.56061">
        <ele>990</ele>
        <time>2012-04-19T23:12:15Z</time>
      </trkpt>
      <trkpt lat="45.09497" lon="5.56071">
        <ele>992</ele>
        <time>2012-04-19T23:12:17Z</time>
      </trkpt>
      <trkpt lat="45.09489" lon="5.5608">
        <ele>992</ele>
        <time>2012-04-19T23:12:19Z</time>
      </trkpt>
      <trkpt lat="45.09478" lon="5.56095">
        <ele>993</ele>
        <time>2012-04-19T23:12:23Z</time>
      </trkpt>
      <trkpt lat="45.09465" lon="5.56106">
        <ele>993</ele>
        <time>2012-04-19T23:12:27Z</time>
      </trkpt>
      <trkpt lat="45.09457" lon="5.56112">
        <ele>993</ele>
        <time>2012-04-19T23:12:29Z</time>
      </trkpt>
      <trkpt lat="45.09444" lon="5.56125">
        <ele>993</ele>
        <time>2012-04-19T23:12:33Z</time>
      </trkpt>
      <trkpt lat="45.09433" lon="5.56138">
        <ele>994</ele>
        <time>2012-04-19T23:12:36Z</time>
      </trkpt>
      <trkpt lat="45.09422" lon="5.56149">
        <ele>994</ele>
        <time>2012-04-19T23:12:39Z</time>
      </trkpt>
      <trkpt lat="45.09405" lon="5.56168">
        <ele>995</ele>
        <time>2012-04-19T23:12:45Z</time>
      </trkpt>
      <trkpt lat="45.09392" lon="5.56185">
        <ele>995</ele>
        <time>2012-04-19T23:12:49Z</time>
      </trkpt>
      <trkpt lat="45.09379" lon="5.56204">
        <ele>995</ele>
        <time>2012-04-19T23:12:54Z</time>
      </trkpt>
      <trkpt lat="45.09367" lon="5.56226">
        <ele>995</ele>
        <time>2012-04-19T23:12:59Z</time>
      </trkpt>
      <trkpt lat="45.09362" lon="5.56239">
        <ele>995</ele>
        <time>2012-04-19T23:13:01Z</time>
      </trkpt>
      <trkpt lat="45.09352" lon="5.56262">
        <ele>999</ele>
        <time>2012-04-19T23:13:06Z</time>
      </trkpt>
      <trkpt lat="45.09347" lon="5.56277">
        <ele>999</ele>
        <time>2012-04-19T23:13:09Z</time>
      </trkpt>
      <trkpt lat="45.09339" lon="5.56292">
        <ele>1001</ele>
        <time>2012-04-19T23:13:12Z</time>
      </trkpt>
      <trkpt lat="45.09334" lon="5.56301">
        <ele>1002</ele>
        <time>2012-04-19T23:13:14Z</time>
      </trkpt>
      <trkpt lat="45.09328" lon="5.56322">
        <ele>1004</ele>
        <time>2012-04-19T23:13:18Z</time>
      </trkpt>
      <trkpt lat="45.09326" lon="5.56329">
        <ele>1005</ele>
        <time>2012-04-19T23:13:19Z</time>
      </trkpt>
      <trkpt lat="45.09321" lon="5.56344">
        <ele>1008</ele>
        <time>2012-04-19T23:13:22Z</time>
      </trkpt>
      <trkpt lat="45.09313" lon="5.56365">
        <ele>1009</ele>
        <time>2012-04-19T23:13:26Z</time>
      </trkpt>
      <trkpt lat="45.09298" lon="5.56395">
        <ele>1010</ele>
        <time>2012-04-19T23:13:33Z</time>
      </trkpt>
      <trkpt lat="45.09285" lon="5.56419">
        <ele>1013</ele>
        <time>2012-04-19T23:13:38Z</time>
      </trkpt>
      <trkpt lat="45.0927" lon="5.56451">
        <ele>1012</ele>
        <time>2012-04-19T23:13:45Z</time>
      </trkpt>
      <trkpt lat="45.09266" lon="5.56464">
        <ele>1012</ele>
        <time>2012-04-19T23:13:47Z</time>
      </trkpt>
      <trkpt lat="45.09266" lon="5.5647">
        <ele>1012</ele>
        <time>2012-04-19T23:13:48Z</time>
      </trkpt>
      <trkpt lat="45.09266" lon="5.56475">
        <ele>1012</ele>
        <time>2012-04-19T23:13:48Z</time>
      </trkpt>
      <trkpt lat="45.09261" lon="5.56481">
        <ele>1012</ele>
        <time>2012-04-19T23:13:49Z</time>
      </trkpt>
      <trkpt lat="45.09257" lon="5.56488">
        <ele>1012</ele>
        <time>2012-04-19T23:13:50Z</time>
      </trkpt>
      <trkpt lat="45.09249" lon="5.56507">
        <ele>1011</ele>
        <time>2012-04-19T23:13:54Z</time>
      </trkpt>
      <trkpt lat="45.09238" lon="5.56526">
        <ele>1010</ele>
        <time>2012-04-19T23:13:58Z</time>
      </trkpt>
      <trkpt lat="45.09223" lon="5.5655">
        <ele>1011</ele>
        <time>2012-04-19T23:14:04Z</time>
      </trkpt>
      <trkpt lat="45.09208" lon="5.56571">
        <ele>1011</ele>
        <time>2012-04-19T23:14:09Z</time>
      </trkpt>
      <trkpt lat="45.09197" lon="5.56582">
        <ele>1011</ele>
        <time>2012-04-19T23:14:12Z</time>
      </trkpt>
      <trkpt lat="45.09186" lon="5.56595">
        <ele>1015</ele>
        <time>2012-04-19T23:14:15Z</time>
      </trkpt>
      <trkpt lat="45.09176" lon="5.56612">
        <ele>1016</ele>
        <time>2012-04-19T23:14:19Z</time>
      </trkpt>
      <trkpt lat="45.09156" lon="5.56638">
        <ele>1019</ele>
        <time>2012-04-19T23:14:26Z</time>
      </trkpt>
      <trkpt lat="45.09133" lon="5.5667">
        <ele>1022</ele>
        <time>2012-04-19T23:14:35Z</time>
      </trkpt>
      <trkpt lat="45.09115" lon="5.56689">
        <ele>1022</ele>
        <time>2012-04-19T23:14:41Z</time>
      </trkpt>
      <trkpt lat="45.091" lon="5.56711">
        <ele>1023</ele>
        <time>2012-04-19T23:14:46Z</time>
      </trkpt>
      <trkpt lat="45.09083" lon="5.5673">
        <ele>1024</ele>
        <time>2012-04-19T23:14:52Z</time>
      </trkpt>
      <trkpt lat="45.09066" lon="5.56747">
        <ele>1024</ele>
        <time>2012-04-19T23:14:57Z</time>
      </trkpt>
      <trkpt lat="45.09055" lon="5.56756">
        <ele>1024</ele>
        <time>2012-04-19T23:15:00Z</time>
      </trkpt>
      <trkpt lat="45.09043" lon="5.56771">
        <ele>1023</ele>
        <time>2012-04-19T23:15:04Z</time>
      </trkpt>
      <trkpt lat="45.09032" lon="5.56784">
        <ele>1023</ele>
        <time>2012-04-19T23:15:07Z</time>
      </trkpt>
      <trkpt lat="45.09021" lon="5.56801">
        <ele>1023</ele>
        <time>2012-04-19T23:15:11Z</time>
      </trkpt>
      <trkpt lat="45.09008" lon="5.56822">
        <ele>1024</ele>
        <time>2012-04-19T23:15:16Z</time>
      </trkpt>
      <trkpt lat="45.09" lon="5.56835">
        <ele>1025</ele>
        <time>2012-04-19T23:15:19Z</time>
      </trkpt>
      <trkpt lat="45.08995" lon="5.56837">
        <ele>1026</ele>
        <time>2012-04-19T23:15:20Z</time>
      </trkpt>
      <trkpt lat="45.08989" lon="5.56835">
        <ele>1026</ele>
        <time>2012-04-19T23:15:21Z</time>
      </trkpt>
      <trkpt lat="45.08982" lon="5.56833">
        <ele>1025</ele>
        <time>2012-04-19T23:15:22Z</time>
      </trkpt>
      <trkpt lat="45.08955" lon="5.56827">
        <ele>1025</ele>
        <time>2012-04-19T23:15:29Z</time>
      </trkpt>
      <trkpt lat="45.08948" lon="5.56824">
        <ele>1025</ele>
        <time>2012-04-19T23:15:30Z</time>
      </trkpt>
      <trkpt lat="45.0894" lon="5.56824">
        <ele>1026</ele>
        <time>2012-04-19T23:15:32Z</time>
      </trkpt>
      <trkpt lat="45.08916" lon="5.56818">
        <ele>1027</ele>
        <time>2012-04-19T23:15:38Z</time>
      </trkpt>
      <trkpt lat="45.08907" lon="5.56818">
        <ele>1027</ele>
        <time>2012-04-19T23:15:40Z</time>
      </trkpt>
      <trkpt lat="45.08901" lon="5.5682">
        <ele>1028</ele>
        <time>2012-04-19T23:15:41Z</time>
      </trkpt>
      <trkpt lat="45.08886" lon="5.56822">
        <ele>1028</ele>
        <time>2012-04-19T23:15:45Z</time>
      </trkpt>
      <trkpt lat="45.08875" lon="5.5682">
        <ele>1028</ele>
        <time>2012-04-19T23:15:48Z</time>
      </trkpt>
      <trkpt lat="45.08871" lon="5.56819">
        <ele>1028</ele>
        <time>2012-04-19T23:15:49Z</time>
      </trkpt>
      <trkpt lat="45.08867" lon="5.56818">
        <ele>1028</ele>
        <time>2012-04-19T23:15:50Z</time>
      </trkpt>
      <trkpt lat="45.08847" lon="5.56816">
        <ele>1029</ele>
        <time>2012-04-19T23:15:55Z</time>
      </trkpt>
      <trkpt lat="45.08832" lon="5.56818">
        <ele>1030</ele>
        <time>2012-04-19T23:15:59Z</time>
      </trkpt>
      <trkpt lat="45.08826" lon="5.56818">
        <ele>1030</ele>
        <time>2012-04-19T23:16:00Z</time>
      </trkpt>
      <trkpt lat="45.08807" lon="5.56816">
        <ele>1029</ele>
        <time>2012-04-19T23:16:05Z</time>
      </trkpt>
      <trkpt lat="45.08774" lon="5.56812">
        <ele>1029</ele>
        <time>2012-04-19T23:16:13Z</time>
      </trkpt>
      <trkpt lat="45.0877" lon="5.56824">
        <ele>1029</ele>
        <time>2012-04-19T23:16:15Z</time>
      </trkpt>
      <trkpt lat="45.08766" lon="5.56842">
        <ele>1031</ele>
        <time>2012-04-19T23:16:18Z</time>
      </trkpt>
      <trkpt lat="45.08761" lon="5.56859">
        <ele>1031</ele>
        <time>2012-04-19T23:16:21Z</time>
      </trkpt>
      <trkpt lat="45.08755" lon="5.5687">
        <ele>1031</ele>
        <time>2012-04-19T23:16:23Z</time>
      </trkpt>
      <trkpt lat="45.08749" lon="5.56885">
        <ele>1028</ele>
        <time>2012-04-19T23:16:26Z</time>
      </trkpt>
      <trkpt lat="45.08738" lon="5.569">
        <ele>1029</ele>
        <time>2012-04-19T23:16:30Z</time>
      </trkpt>
      <trkpt lat="45.08734" lon="5.56912">
        <ele>1029</ele>
        <time>2012-04-19T23:16:32Z</time>
      </trkpt>
      <trkpt lat="45.08725" lon="5.56925">
        <ele>1031</ele>
        <time>2012-04-19T23:16:35Z</time>
      </trkpt>
      <trkpt lat="45.08721" lon="5.56943">
        <ele>1031</ele>
        <time>2012-04-19T23:16:38Z</time>
      </trkpt>
      <trkpt lat="45.08716" lon="5.56947">
        <ele>1030</ele>
        <time>2012-04-19T23:16:39Z</time>
      </trkpt>
      <trkpt lat="45.08714" lon="5.56938">
        <ele>1030</ele>
        <time>2012-04-19T23:16:40Z</time>
      </trkpt>
      <trkpt lat="45.08708" lon="5.56938">
        <ele>1030</ele>
        <time>2012-04-19T23:16:41Z</time>
      </trkpt>
      <trkpt lat="45.08697" lon="5.56945">
        <ele>1029</ele>
        <time>2012-04-19T23:16:44Z</time>
      </trkpt>
      <trkpt lat="45.08693" lon="5.56951">
        <ele>1029</ele>
        <time>2012-04-19T23:16:45Z</time>
      </trkpt>
      <trkpt lat="45.08686" lon="5.5696">
        <ele>1029</ele>
        <time>2012-04-19T23:16:47Z</time>
      </trkpt>
      <trkpt lat="45.0868" lon="5.5697">
        <ele>1030</ele>
        <time>2012-04-19T23:16:49Z</time>
      </trkpt>
      <trkpt lat="45.08673" lon="5.56977">
        <ele>1030</ele>
        <time>2012-04-19T23:16:51Z</time>
      </trkpt>
      <trkpt lat="45.08667" lon="5.56983">
        <ele>1030</ele>
        <time>2012-04-19T23:16:53Z</time>
      </trkpt>
      <trkpt lat="45.08663" lon="5.56988">
        <ele>1027</ele>
        <time>2012-04-19T23:16:54Z</time>
      </trkpt>
      <trkpt lat="45.08652" lon="5.57">
        <ele>1030</ele>
        <time>2012-04-19T23:16:57Z</time>
      </trkpt>
      <trkpt lat="45.08648" lon="5.57007">
        <ele>1029</ele>
        <time>2012-04-19T23:16:58Z</time>
      </trkpt>
      <trkpt lat="45.08637" lon="5.57011">
        <ele>1029</ele>
        <time>2012-04-19T23:17:01Z</time>
      </trkpt>
      <trkpt lat="45.08631" lon="5.57015">
        <ele>1029</ele>
        <time>2012-04-19T23:17:02Z</time>
      </trkpt>
      <trkpt lat="45.0862" lon="5.5702">
        <ele>1028</ele>
        <time>2012-04-19T23:17:05Z</time>
      </trkpt>
      <trkpt lat="45.08611" lon="5.57022">
        <ele>1028</ele>
        <time>2012-04-19T23:17:07Z</time>
      </trkpt>
      <trkpt lat="45.08607" lon="5.57022">
        <ele>1027</ele>
        <time>2012-04-19T23:17:08Z</time>
      </trkpt>
      <trkpt lat="45.08598" lon="5.57022">
        <ele>1027</ele>
        <time>2012-04-19T23:17:10Z</time>
      </trkpt>
      <trkpt lat="45.08585" lon="5.5702">
        <ele>1026</ele>
        <time>2012-04-19T23:17:13Z</time>
      </trkpt>
      <trkpt lat="45.08562" lon="5.57018">
        <ele>1024</ele>
        <time>2012-04-19T23:17:19Z</time>
      </trkpt>
      <trkpt lat="45.08543" lon="5.57013">
        <ele>1024</ele>
        <time>2012-04-19T23:17:24Z</time>
      </trkpt>
      <trkpt lat="45.08538" lon="5.57011">
        <ele>1024</ele>
        <time>2012-04-19T23:17:25Z</time>
      </trkpt>
      <trkpt lat="45.08532" lon="5.57009">
        <ele>1024</ele>
        <time>2012-04-19T23:17:26Z</time>
      </trkpt>
      <trkpt lat="45.08528" lon="5.57007">
        <ele>1024</ele>
        <time>2012-04-19T23:17:27Z</time>
      </trkpt>
      <trkpt lat="45.08515" lon="5.5699">
        <ele>1023</ele>
        <time>2012-04-19T23:17:31Z</time>
      </trkpt>
      <trkpt lat="45.08495" lon="5.5697">
        <ele>1028</ele>
        <time>2012-04-19T23:17:37Z</time>
      </trkpt>
      <trkpt lat="45.0848" lon="5.56951">
        <ele>1029</ele>
        <time>2012-04-19T23:17:42Z</time>
      </trkpt>
      <trkpt lat="45.08474" lon="5.56938">
        <ele>1029</ele>
        <time>2012-04-19T23:17:45Z</time>
      </trkpt>
      <trkpt lat="45.0847" lon="5.56932">
        <ele>1029</ele>
        <time>2012-04-19T23:17:46Z</time>
      </trkpt>
      <trkpt lat="45.08463" lon="5.56912">
        <ele>1029</ele>
        <time>2012-04-19T23:17:50Z</time>
      </trkpt>
      <trkpt lat="45.08461" lon="5.56904">
        <ele>1029</ele>
        <time>2012-04-19T23:17:51Z</time>
      </trkpt>
      <trkpt lat="45.08457" lon="5.56885">
        <ele>1030</ele>
        <time>2012-04-19T23:17:54Z</time>
      </trkpt>
      <trkpt lat="45.08455" lon="5.56872">
        <ele>1030</ele>
        <time>2012-04-19T23:17:56Z</time>
      </trkpt>
      <trkpt lat="45.0845" lon="5.56861">
        <ele>1030</ele>
        <time>2012-04-19T23:17:58Z</time>
      </trkpt>
      <trkpt lat="45.08448" lon="5.56852">
        <ele>1030</ele>
        <time>2012-04-19T23:17:59Z</time>
      </trkpt>
      <trkpt lat="45.08444" lon="5.56846">
        <ele>1031</ele>
        <time>2012-04-19T23:18:00Z</time>
      </trkpt>
      <trkpt lat="45.08442" lon="5.56842">
        <ele>1031</ele>
        <time>2012-04-19T23:18:01Z</time>
      </trkpt>
      <trkpt lat="45.08437" lon="5.56833">
        <ele>1032</ele>
        <time>2012-04-19T23:18:03Z</time>
      </trkpt>
      <trkpt lat="45.08429" lon="5.56814">
        <ele>1032</ele>
        <time>2012-04-19T23:18:07Z</time>
      </trkpt>
      <trkpt lat="45.08422" lon="5.56812">
        <ele>1032</ele>
        <time>2012-04-19T23:18:08Z</time>
      </trkpt>
      <trkpt lat="45.08414" lon="5.56809">
        <ele>1032</ele>
        <time>2012-04-19T23:18:10Z</time>
      </trkpt>
      <trkpt lat="45.08401" lon="5.56807">
        <ele>1032</ele>
        <time>2012-04-19T23:18:13Z</time>
      </trkpt>
      <trkpt lat="45.08384" lon="5.56807">
        <ele>1031</ele>
        <time>2012-04-19T23:18:17Z</time>
      </trkpt>
      <trkpt lat="45.08371" lon="5.56809">
        <ele>1030</ele>
        <time>2012-04-19T23:18:20Z</time>
      </trkpt>
      <trkpt lat="45.08364" lon="5.56809">
        <ele>1030</ele>
        <time>2012-04-19T23:18:21Z</time>
      </trkpt>
      <trkpt lat="45.08356" lon="5.56809">
        <ele>1030</ele>
        <time>2012-04-19T23:18:23Z</time>
      </trkpt>
      <trkpt lat="45.08347" lon="5.56809">
        <ele>1029</ele>
        <time>2012-04-19T23:18:25Z</time>
      </trkpt>
      <trkpt lat="45.08341" lon="5.56807">
        <ele>1029</ele>
        <time>2012-04-19T23:18:26Z</time>
      </trkpt>
      <trkpt lat="45.08334" lon="5.56801">
        <ele>1029</ele>
        <time>2012-04-19T23:18:28Z</time>
      </trkpt>
      <trkpt lat="45.08326" lon="5.56788">
        <ele>1027</ele>
        <time>2012-04-19T23:18:31Z</time>
      </trkpt>
      <trkpt lat="45.08319" lon="5.56773">
        <ele>1027</ele>
        <time>2012-04-19T23:18:34Z</time>
      </trkpt>
      <trkpt lat="45.08315" lon="5.56758">
        <ele>1027</ele>
        <time>2012-04-19T23:18:37Z</time>
      </trkpt>
      <trkpt lat="45.08311" lon="5.56745">
        <ele>1026</ele>
        <time>2012-04-19T23:18:39Z</time>
      </trkpt>
      <trkpt lat="45.08309" lon="5.56739">
        <ele>1026</ele>
        <time>2012-04-19T23:18:40Z</time>
      </trkpt>
      <trkpt lat="45.08309" lon="5.56732">
        <ele>1025</ele>
        <time>2012-04-19T23:18:41Z</time>
      </trkpt>
      <trkpt lat="45.08302" lon="5.56719">
        <ele>1025</ele>
        <time>2012-04-19T23:18:44Z</time>
      </trkpt>
      <trkpt lat="45.08296" lon="5.56717">
        <ele>1025</ele>
        <time>2012-04-19T23:18:45Z</time>
      </trkpt>
      <trkpt lat="45.08289" lon="5.56709">
        <ele>1024</ele>
        <time>2012-04-19T23:18:47Z</time>
      </trkpt>
      <trkpt lat="45.08283" lon="5.567">
        <ele>1024</ele>
        <time>2012-04-19T23:18:49Z</time>
      </trkpt>
      <trkpt lat="45.08279" lon="5.56691">
        <ele>1024</ele>
        <time>2012-04-19T23:18:51Z</time>
      </trkpt>
      <trkpt lat="45.0827" lon="5.56674">
        <ele>1024</ele>
        <time>2012-04-19T23:18:55Z</time>
      </trkpt>
      <trkpt lat="45.08257" lon="5.56649">
        <ele>1023</ele>
        <time>2012-04-19T23:19:01Z</time>
      </trkpt>
      <trkpt lat="45.08255" lon="5.5664">
        <ele>1023</ele>
        <time>2012-04-19T23:19:02Z</time>
      </trkpt>
      <trkpt lat="45.08251" lon="5.56631">
        <ele>1023</ele>
        <time>2012-04-19T23:19:04Z</time>
      </trkpt>
      <trkpt lat="45.08249" lon="5.56625">
        <ele>1025</ele>
        <time>2012-04-19T23:19:05Z</time>
      </trkpt>
      <trkpt lat="45.08246" lon="5.56616">
        <ele>1025</ele>
        <time>2012-04-19T23:19:06Z</time>
      </trkpt>
      <trkpt lat="45.08242" lon="5.56599">
        <ele>1025</ele>
        <time>2012-04-19T23:19:09Z</time>
      </trkpt>
      <trkpt lat="45.08238" lon="5.56586">
        <ele>1025</ele>
        <time>2012-04-19T23:19:11Z</time>
      </trkpt>
      <trkpt lat="45.08236" lon="5.56578">
        <ele>1024</ele>
        <time>2012-04-19T23:19:12Z</time>
      </trkpt>
      <trkpt lat="45.08231" lon="5.56576">
        <ele>1024</ele>
        <time>2012-04-19T23:19:13Z</time>
      </trkpt>
      <trkpt lat="45.08225" lon="5.56567">
        <ele>1024</ele>
        <time>2012-04-19T23:19:15Z</time>
      </trkpt>
      <trkpt lat="45.08221" lon="5.56561">
        <ele>1024</ele>
        <time>2012-04-19T23:19:16Z</time>
      </trkpt>
      <trkpt lat="45.08214" lon="5.56554">
        <ele>1023</ele>
        <time>2012-04-19T23:19:18Z</time>
      </trkpt>
      <trkpt lat="45.08206" lon="5.56537">
        <ele>1023</ele>
        <time>2012-04-19T23:19:22Z</time>
      </trkpt>
      <trkpt lat="45.08197" lon="5.56524">
        <ele>1022</ele>
        <time>2012-04-19T23:19:25Z</time>
      </trkpt>
      <trkpt lat="45.08195" lon="5.56518">
        <ele>1022</ele>
        <time>2012-04-19T23:19:26Z</time>
      </trkpt>
      <trkpt lat="45.08193" lon="5.56511">
        <ele>1022</ele>
        <time>2012-04-19T23:19:27Z</time>
      </trkpt>
      <trkpt lat="45.08191" lon="5.56503">
        <ele>1022</ele>
        <time>2012-04-19T23:19:28Z</time>
      </trkpt>
      <trkpt lat="45.08191" lon="5.56494">
        <ele>1020</ele>
        <time>2012-04-19T23:19:29Z</time>
      </trkpt>
      <trkpt lat="45.08191" lon="5.56483">
        <ele>1020</ele>
        <time>2012-04-19T23:19:31Z</time>
      </trkpt>
      <trkpt lat="45.08191" lon="5.56475">
        <ele>1020</ele>
        <time>2012-04-19T23:19:32Z</time>
      </trkpt>
      <trkpt lat="45.08191" lon="5.56464">
        <ele>1019</ele>
        <time>2012-04-19T23:19:34Z</time>
      </trkpt>
      <trkpt lat="45.08195" lon="5.56449">
        <ele>1019</ele>
        <time>2012-04-19T23:19:37Z</time>
      </trkpt>
      <trkpt lat="45.08204" lon="5.56419">
        <ele>1019</ele>
        <time>2012-04-19T23:19:43Z</time>
      </trkpt>
      <trkpt lat="45.08204" lon="5.5641">
        <ele>1016</ele>
        <time>2012-04-19T23:19:44Z</time>
      </trkpt>
      <trkpt lat="45.08204" lon="5.56404">
        <ele>1016</ele>
        <time>2012-04-19T23:19:45Z</time>
      </trkpt>
      <trkpt lat="45.08204" lon="5.56393">
        <ele>1016</ele>
        <time>2012-04-19T23:19:47Z</time>
      </trkpt>
      <trkpt lat="45.08204" lon="5.5638">
        <ele>1016</ele>
        <time>2012-04-19T23:19:49Z</time>
      </trkpt>
      <trkpt lat="45.08201" lon="5.56365">
        <ele>1015</ele>
        <time>2012-04-19T23:19:52Z</time>
      </trkpt>
      <trkpt lat="45.08201" lon="5.56352">
        <ele>1015</ele>
        <time>2012-04-19T23:19:54Z</time>
      </trkpt>
      <trkpt lat="45.08199" lon="5.56342">
        <ele>1014</ele>
        <time>2012-04-19T23:19:56Z</time>
      </trkpt>
      <trkpt lat="45.08197" lon="5.56329">
        <ele>1014</ele>
        <time>2012-04-19T23:19:58Z</time>
      </trkpt>
      <trkpt lat="45.08195" lon="5.56318">
        <ele>1015</ele>
        <time>2012-04-19T23:20:00Z</time>
      </trkpt>
      <trkpt lat="45.08195" lon="5.56305">
        <ele>1015</ele>
        <time>2012-04-19T23:20:02Z</time>
      </trkpt>
      <trkpt lat="45.08193" lon="5.56284">
        <ele>1016</ele>
        <time>2012-04-19T23:20:06Z</time>
      </trkpt>
      <trkpt lat="45.08191" lon="5.56273">
        <ele>1017</ele>
        <time>2012-04-19T23:20:08Z</time>
      </trkpt>
      <trkpt lat="45.08189" lon="5.56254">
        <ele>1018</ele>
        <time>2012-04-19T23:20:11Z</time>
      </trkpt>
      <trkpt lat="45.08186" lon="5.56237">
        <ele>1020</ele>
        <time>2012-04-19T23:20:14Z</time>
      </trkpt>
      <trkpt lat="45.08184" lon="5.56229">
        <ele>1020</ele>
        <time>2012-04-19T23:20:15Z</time>
      </trkpt>
      <trkpt lat="45.0818" lon="5.56219">
        <ele>1019</ele>
        <time>2012-04-19T23:20:17Z</time>
      </trkpt>
      <trkpt lat="45.08178" lon="5.56213">
        <ele>1019</ele>
        <time>2012-04-19T23:20:18Z</time>
      </trkpt>
      <trkpt lat="45.08174" lon="5.56207">
        <ele>1019</ele>
        <time>2012-04-19T23:20:19Z</time>
      </trkpt>
      <trkpt lat="45.08169" lon="5.562">
        <ele>1019</ele>
        <time>2012-04-19T23:20:20Z</time>
      </trkpt>
      <trkpt lat="45.08167" lon="5.56196">
        <ele>1019</ele>
        <time>2012-04-19T23:20:21Z</time>
      </trkpt>
      <trkpt lat="45.08163" lon="5.56191">
        <ele>1022</ele>
        <time>2012-04-19T23:20:22Z</time>
      </trkpt>
      <trkpt lat="45.08143" lon="5.56174">
        <ele>1022</ele>
        <time>2012-04-19T23:20:28Z</time>
      </trkpt>
      <trkpt lat="45.08128" lon="5.56161">
        <ele>1022</ele>
        <time>2012-04-19T23:20:32Z</time>
      </trkpt>
      <trkpt lat="45.08105" lon="5.56144">
        <ele>1023</ele>
        <time>2012-04-19T23:20:39Z</time>
      </trkpt>
      <trkpt lat="45.08094" lon="5.56138">
        <ele>1023</ele>
        <time>2012-04-19T23:20:42Z</time>
      </trkpt>
      <trkpt lat="45.08081" lon="5.56127">
        <ele>1025</ele>
        <time>2012-04-19T23:20:46Z</time>
      </trkpt>
      <trkpt lat="45.08071" lon="5.56121">
        <ele>1025</ele>
        <time>2012-04-19T23:20:49Z</time>
      </trkpt>
      <trkpt lat="45.08053" lon="5.56106">
        <ele>1025</ele>
        <time>2012-04-19T23:20:54Z</time>
      </trkpt>
      <trkpt lat="45.08049" lon="5.56101">
        <ele>1025</ele>
        <time>2012-04-19T23:20:55Z</time>
      </trkpt>
      <trkpt lat="45.08043" lon="5.56097">
        <ele>1026</ele>
        <time>2012-04-19T23:20:56Z</time>
      </trkpt>
      <trkpt lat="45.08028" lon="5.56086">
        <ele>1027</ele>
        <time>2012-04-19T23:21:00Z</time>
      </trkpt>
      <trkpt lat="45.08023" lon="5.5608">
        <ele>1026</ele>
        <time>2012-04-19T23:21:01Z</time>
      </trkpt>
      <trkpt lat="45.07974" lon="5.55996">
        <ele>1025</ele>
        <time>2012-04-19T23:21:22Z</time>
      </trkpt>
      <trkpt lat="45.07965" lon="5.55977">
        <ele>1024</ele>
        <time>2012-04-19T23:21:26Z</time>
      </trkpt>
      <trkpt lat="45.07959" lon="5.55964">
        <ele>1023</ele>
        <time>2012-04-19T23:21:29Z</time>
      </trkpt>
      <trkpt lat="45.07959" lon="5.55968">
        <ele>1024</ele>
        <time>2012-04-19T23:21:29Z</time>
      </trkpt>
      <trkpt lat="45.07931" lon="5.56028">
        <ele>1026</ele>
        <time>2012-04-19T23:21:43Z</time>
      </trkpt>
      <trkpt lat="45.07912" lon="5.56073">
        <ele>1025</ele>
        <time>2012-04-19T23:21:53Z</time>
      </trkpt>
      <trkpt lat="45.07888" lon="5.56131">
        <ele>1027</ele>
        <time>2012-04-19T23:22:06Z</time>
      </trkpt>
      <trkpt lat="45.07858" lon="5.56204">
        <ele>1028</ele>
        <time>2012-04-19T23:22:22Z</time>
      </trkpt>
      <trkpt lat="45.07834" lon="5.5626">
        <ele>1030</ele>
        <time>2012-04-19T23:22:34Z</time>
      </trkpt>
      <trkpt lat="45.0783" lon="5.56275">
        <ele>1028</ele>
        <time>2012-04-19T23:22:37Z</time>
      </trkpt>
      <trkpt lat="45.07822" lon="5.56297">
        <ele>1028</ele>
        <time>2012-04-19T23:22:41Z</time>
      </trkpt>
      <trkpt lat="45.07813" lon="5.56331">
        <ele>1028</ele>
        <time>2012-04-19T23:22:48Z</time>
      </trkpt>
      <trkpt lat="45.07807" lon="5.56352">
        <ele>1029</ele>
        <time>2012-04-19T23:22:52Z</time>
      </trkpt>
      <trkpt lat="45.078" lon="5.56382">
        <ele>1029</ele>
        <time>2012-04-19T23:22:58Z</time>
      </trkpt>
      <trkpt lat="45.07796" lon="5.56406">
        <ele>1029</ele>
        <time>2012-04-19T23:23:02Z</time>
      </trkpt>
      <trkpt lat="45.07792" lon="5.56415">
        <ele>1028</ele>
        <time>2012-04-19T23:23:04Z</time>
      </trkpt>
      <trkpt lat="45.07787" lon="5.56425">
        <ele>1030</ele>
        <time>2012-04-19T23:23:06Z</time>
      </trkpt>
      <trkpt lat="45.07783" lon="5.56438">
        <ele>1030</ele>
        <time>2012-04-19T23:23:08Z</time>
      </trkpt>
      <trkpt lat="45.07772" lon="5.56462">
        <ele>1031</ele>
        <time>2012-04-19T23:23:13Z</time>
      </trkpt>
      <trkpt lat="45.07766" lon="5.56488">
        <ele>1032</ele>
        <time>2012-04-19T23:23:18Z</time>
      </trkpt>
      <trkpt lat="45.07757" lon="5.56511">
        <ele>1033</ele>
        <time>2012-04-19T23:23:23Z</time>
      </trkpt>
      <trkpt lat="45.07751" lon="5.56526">
        <ele>1034</ele>
        <time>2012-04-19T23:23:26Z</time>
      </trkpt>
      <trkpt lat="45.07738" lon="5.56518">
        <ele>1030</ele>
        <time>2012-04-19T23:23:29Z</time>
      </trkpt>
      <trkpt lat="45.07731" lon="5.56513">
        <ele>1030</ele>
        <time>2012-04-19T23:23:30Z</time>
      </trkpt>
      <trkpt lat="45.07727" lon="5.56511">
        <ele>1030</ele>
        <time>2012-04-19T23:23:31Z</time>
      </trkpt>
      <trkpt lat="45.07723" lon="5.56513">
        <ele>1029</ele>
        <time>2012-04-19T23:23:32Z</time>
      </trkpt>
      <trkpt lat="45.07719" lon="5.56515">
        <ele>1029</ele>
        <time>2012-04-19T23:23:33Z</time>
      </trkpt>
      <trkpt lat="45.07714" lon="5.56524">
        <ele>1028</ele>
        <time>2012-04-19T23:23:35Z</time>
      </trkpt>
      <trkpt lat="45.0771" lon="5.56533">
        <ele>1028</ele>
        <time>2012-04-19T23:23:37Z</time>
      </trkpt>
      <trkpt lat="45.07708" lon="5.56548">
        <ele>1029</ele>
        <time>2012-04-19T23:23:40Z</time>
      </trkpt>
      <trkpt lat="45.07706" lon="5.56558">
        <ele>1029</ele>
        <time>2012-04-19T23:23:42Z</time>
      </trkpt>
      <trkpt lat="45.07704" lon="5.56565">
        <ele>1029</ele>
        <time>2012-04-19T23:23:43Z</time>
      </trkpt>
      <trkpt lat="45.07699" lon="5.56578">
        <ele>1029</ele>
        <time>2012-04-19T23:23:45Z</time>
      </trkpt>
      <trkpt lat="45.07686" lon="5.56593">
        <ele>1032</ele>
        <time>2012-04-19T23:23:49Z</time>
      </trkpt>
      <trkpt lat="45.07667" lon="5.5661">
        <ele>1033</ele>
        <time>2012-04-19T23:23:55Z</time>
      </trkpt>
      <trkpt lat="45.07654" lon="5.56612">
        <ele>1027</ele>
        <time>2012-04-19T23:23:58Z</time>
      </trkpt>
      <trkpt lat="45.07626" lon="5.56629">
        <ele>1027</ele>
        <time>2012-04-19T23:24:06Z</time>
      </trkpt>
      <trkpt lat="45.07603" lon="5.56638">
        <ele>1025</ele>
        <time>2012-04-19T23:24:12Z</time>
      </trkpt>
      <trkpt lat="45.07586" lon="5.5664">
        <ele>1025</ele>
        <time>2012-04-19T23:24:16Z</time>
      </trkpt>
      <trkpt lat="45.07575" lon="5.5664">
        <ele>1019</ele>
        <time>2012-04-19T23:24:18Z</time>
      </trkpt>
      <trkpt lat="45.07568" lon="5.5664">
        <ele>1018</ele>
        <time>2012-04-19T23:24:19Z</time>
      </trkpt>
      <trkpt lat="45.07553" lon="5.56642">
        <ele>1017</ele>
        <time>2012-04-19T23:24:23Z</time>
      </trkpt>
      <trkpt lat="45.07547" lon="5.5664">
        <ele>1017</ele>
        <time>2012-04-19T23:24:24Z</time>
      </trkpt>
      <trkpt lat="45.07543" lon="5.56638">
        <ele>1016</ele>
        <time>2012-04-19T23:24:25Z</time>
      </trkpt>
      <trkpt lat="45.07536" lon="5.56636">
        <ele>1016</ele>
        <time>2012-04-19T23:24:26Z</time>
      </trkpt>
      <trkpt lat="45.07528" lon="5.56627">
        <ele>1015</ele>
        <time>2012-04-19T23:24:28Z</time>
      </trkpt>
      <trkpt lat="45.07519" lon="5.56618">
        <ele>1014</ele>
        <time>2012-04-19T23:24:30Z</time>
      </trkpt>
      <trkpt lat="45.07515" lon="5.56614">
        <ele>1014</ele>
        <time>2012-04-19T23:24:31Z</time>
      </trkpt>
      <trkpt lat="45.0751" lon="5.56608">
        <ele>1013</ele>
        <time>2012-04-19T23:24:32Z</time>
      </trkpt>
      <trkpt lat="45.07498" lon="5.56593">
        <ele>1011</ele>
        <time>2012-04-19T23:24:36Z</time>
      </trkpt>
      <trkpt lat="45.07487" lon="5.56578">
        <ele>1012</ele>
        <time>2012-04-19T23:24:40Z</time>
      </trkpt>
      <trkpt lat="45.0748" lon="5.56567">
        <ele>1013</ele>
        <time>2012-04-19T23:24:42Z</time>
      </trkpt>
      <trkpt lat="45.07476" lon="5.56558">
        <ele>1014</ele>
        <time>2012-04-19T23:24:44Z</time>
      </trkpt>
      <trkpt lat="45.0747" lon="5.56548">
        <ele>1014</ele>
        <time>2012-04-19T23:24:46Z</time>
      </trkpt>
      <trkpt lat="45.07463" lon="5.56537">
        <ele>1015</ele>
        <time>2012-04-19T23:24:48Z</time>
      </trkpt>
      <trkpt lat="45.07459" lon="5.56528">
        <ele>1016</ele>
        <time>2012-04-19T23:24:50Z</time>
      </trkpt>
      <trkpt lat="45.07457" lon="5.56518">
        <ele>1016</ele>
        <time>2012-04-19T23:24:52Z</time>
      </trkpt>
      <trkpt lat="45.07455" lon="5.56511">
        <ele>1016</ele>
        <time>2012-04-19T23:24:53Z</time>
      </trkpt>
      <trkpt lat="45.07453" lon="5.565">
        <ele>1017</ele>
        <time>2012-04-19T23:24:55Z</time>
      </trkpt>
      <trkpt lat="45.07448" lon="5.56494">
        <ele>1019</ele>
        <time>2012-04-19T23:24:56Z</time>
      </trkpt>
      <trkpt lat="45.07442" lon="5.56485">
        <ele>1020</ele>
        <time>2012-04-19T23:24:58Z</time>
      </trkpt>
      <trkpt lat="45.07438" lon="5.56479">
        <ele>1020</ele>
        <time>2012-04-19T23:24:59Z</time>
      </trkpt>
      <trkpt lat="45.07431" lon="5.56473">
        <ele>1021</ele>
        <time>2012-04-19T23:25:01Z</time>
      </trkpt>
      <trkpt lat="45.07422" lon="5.56466">
        <ele>1021</ele>
        <time>2012-04-19T23:25:03Z</time>
      </trkpt>
      <trkpt lat="45.07416" lon="5.56464">
        <ele>1028</ele>
        <time>2012-04-19T23:25:04Z</time>
      </trkpt>
      <trkpt lat="45.07407" lon="5.5646">
        <ele>1028</ele>
        <time>2012-04-19T23:25:06Z</time>
      </trkpt>
      <trkpt lat="45.07399" lon="5.56453">
        <ele>1028</ele>
        <time>2012-04-19T23:25:08Z</time>
      </trkpt>
      <trkpt lat="45.07369" lon="5.56436">
        <ele>1029</ele>
        <time>2012-04-19T23:25:17Z</time>
      </trkpt>
      <trkpt lat="45.07354" lon="5.5643">
        <ele>1029</ele>
        <time>2012-04-19T23:25:21Z</time>
      </trkpt>
      <trkpt lat="45.07332" lon="5.56425">
        <ele>1031</ele>
        <time>2012-04-19T23:25:27Z</time>
      </trkpt>
      <trkpt lat="45.07324" lon="5.56425">
        <ele>1032</ele>
        <time>2012-04-19T23:25:29Z</time>
      </trkpt>
      <trkpt lat="45.07332" lon="5.56436">
        <ele>1032</ele>
        <time>2012-04-19T23:25:32Z</time>
      </trkpt>
      <trkpt lat="45.07352" lon="5.56468">
        <ele>1030</ele>
        <time>2012-04-19T23:25:40Z</time>
      </trkpt>
      <trkpt lat="45.07375" lon="5.565">
        <ele>1028</ele>
        <time>2012-04-19T23:25:49Z</time>
      </trkpt>
      <trkpt lat="45.0738" lon="5.56505">
        <ele>1028</ele>
        <time>2012-04-19T23:25:50Z</time>
      </trkpt>
      <trkpt lat="45.07382" lon="5.56509">
        <ele>1028</ele>
        <time>2012-04-19T23:25:51Z</time>
      </trkpt>
      <trkpt lat="45.07382" lon="5.56515">
        <ele>1028</ele>
        <time>2012-04-19T23:25:52Z</time>
      </trkpt>
      <trkpt lat="45.07382" lon="5.56522">
        <ele>1028</ele>
        <time>2012-04-19T23:25:53Z</time>
      </trkpt>
      <trkpt lat="45.07377" lon="5.56524">
        <ele>1028</ele>
        <time>2012-04-19T23:25:54Z</time>
      </trkpt>
      <trkpt lat="45.07371" lon="5.56526">
        <ele>1028</ele>
        <time>2012-04-19T23:25:55Z</time>
      </trkpt>
      <trkpt lat="45.07362" lon="5.56528">
        <ele>1029</ele>
        <time>2012-04-19T23:25:57Z</time>
      </trkpt>
      <trkpt lat="45.07354" lon="5.56533">
        <ele>1029</ele>
        <time>2012-04-19T23:25:59Z</time>
      </trkpt>
      <trkpt lat="45.07345" lon="5.56539">
        <ele>1030</ele>
        <time>2012-04-19T23:26:01Z</time>
      </trkpt>
      <trkpt lat="45.07335" lon="5.56548">
        <ele>1030</ele>
        <time>2012-04-19T23:26:04Z</time>
      </trkpt>
      <trkpt lat="45.07324" lon="5.56558">
        <ele>1037</ele>
        <time>2012-04-19T23:26:07Z</time>
      </trkpt>
      <trkpt lat="45.07313" lon="5.56567">
        <ele>1037</ele>
        <time>2012-04-19T23:26:10Z</time>
      </trkpt>
      <trkpt lat="45.07302" lon="5.56573">
        <ele>1038</ele>
        <time>2012-04-19T23:26:13Z</time>
      </trkpt>
      <trkpt lat="45.07292" lon="5.56578">
        <ele>1039</ele>
        <time>2012-04-19T23:26:16Z</time>
      </trkpt>
      <trkpt lat="45.07279" lon="5.5658">
        <ele>1041</ele>
        <time>2012-04-19T23:26:19Z</time>
      </trkpt>
      <trkpt lat="45.07251" lon="5.56593">
        <ele>1044</ele>
        <time>2012-04-19T23:26:27Z</time>
      </trkpt>
      <trkpt lat="45.07238" lon="5.56599">
        <ele>1047</ele>
        <time>2012-04-19T23:26:30Z</time>
      </trkpt>
      <trkpt lat="45.07223" lon="5.56601">
        <ele>1047</ele>
        <time>2012-04-19T23:26:34Z</time>
      </trkpt>
      <trkpt lat="45.0721" lon="5.56603">
        <ele>1048</ele>
        <time>2012-04-19T23:26:37Z</time>
      </trkpt>
      <trkpt lat="45.07197" lon="5.56606">
        <ele>1048</ele>
        <time>2012-04-19T23:26:40Z</time>
      </trkpt>
      <trkpt lat="45.07186" lon="5.56603">
        <ele>1049</ele>
        <time>2012-04-19T23:26:43Z</time>
      </trkpt>
      <trkpt lat="45.07178" lon="5.56603">
        <ele>1049</ele>
        <time>2012-04-19T23:26:45Z</time>
      </trkpt>
      <trkpt lat="45.07154" lon="5.56608">
        <ele>1053</ele>
        <time>2012-04-19T23:26:51Z</time>
      </trkpt>
      <trkpt lat="45.07126" lon="5.56614">
        <ele>1054</ele>
        <time>2012-04-19T23:26:58Z</time>
      </trkpt>
      <trkpt lat="45.07109" lon="5.56618">
        <ele>1055</ele>
        <time>2012-04-19T23:27:02Z</time>
      </trkpt>
      <trkpt lat="45.07086" lon="5.56623">
        <ele>1056</ele>
        <time>2012-04-19T23:27:08Z</time>
      </trkpt>
      <trkpt lat="45.07071" lon="5.56625">
        <ele>1060</ele>
        <time>2012-04-19T23:27:12Z</time>
      </trkpt>
      <trkpt lat="45.07062" lon="5.56627">
        <ele>1061</ele>
        <time>2012-04-19T23:27:14Z</time>
      </trkpt>
      <trkpt lat="45.07045" lon="5.56629">
        <ele>1061</ele>
        <time>2012-04-19T23:27:18Z</time>
      </trkpt>
      <trkpt lat="45.07013" lon="5.56634">
        <ele>1063</ele>
        <time>2012-04-19T23:27:26Z</time>
      </trkpt>
      <trkpt lat="45.06978" lon="5.5664">
        <ele>1069</ele>
        <time>2012-04-19T23:27:35Z</time>
      </trkpt>
      <trkpt lat="45.06946" lon="5.56644">
        <ele>1071</ele>
        <time>2012-04-19T23:27:43Z</time>
      </trkpt>
      <trkpt lat="45.06899" lon="5.56651">
        <ele>1078</ele>
        <time>2012-04-19T23:27:56Z</time>
      </trkpt>
      <trkpt lat="45.06884" lon="5.56657">
        <ele>1078</ele>
        <time>2012-04-19T23:28:00Z</time>
      </trkpt>
      <trkpt lat="45.06869" lon="5.56659">
        <ele>1079</ele>
        <time>2012-04-19T23:28:04Z</time>
      </trkpt>
      <trkpt lat="45.06862" lon="5.56661">
        <ele>1079</ele>
        <time>2012-04-19T23:28:05Z</time>
      </trkpt>
      <trkpt lat="45.0686" lon="5.56666">
        <ele>1079</ele>
        <time>2012-04-19T23:28:06Z</time>
      </trkpt>
      <trkpt lat="45.06858" lon="5.56672">
        <ele>1081</ele>
        <time>2012-04-19T23:28:07Z</time>
      </trkpt>
      <trkpt lat="45.06856" lon="5.56679">
        <ele>1081</ele>
        <time>2012-04-19T23:28:08Z</time>
      </trkpt>
      <trkpt lat="45.06852" lon="5.56681">
        <ele>1081</ele>
        <time>2012-04-19T23:28:09Z</time>
      </trkpt>
      <trkpt lat="45.06843" lon="5.56679">
        <ele>1081</ele>
        <time>2012-04-19T23:28:11Z</time>
      </trkpt>
      <trkpt lat="45.06832" lon="5.56676">
        <ele>1084</ele>
        <time>2012-04-19T23:28:14Z</time>
      </trkpt>
      <trkpt lat="45.06826" lon="5.56676">
        <ele>1084</ele>
        <time>2012-04-19T23:28:15Z</time>
      </trkpt>
      <trkpt lat="45.0682" lon="5.56672">
        <ele>1084</ele>
        <time>2012-04-19T23:28:16Z</time>
      </trkpt>
      <trkpt lat="45.06805" lon="5.56664">
        <ele>1084</ele>
        <time>2012-04-19T23:28:20Z</time>
      </trkpt>
      <trkpt lat="45.06789" lon="5.56655">
        <ele>1085</ele>
        <time>2012-04-19T23:28:24Z</time>
      </trkpt>
      <trkpt lat="45.06781" lon="5.56651">
        <ele>1085</ele>
        <time>2012-04-19T23:28:26Z</time>
      </trkpt>
      <trkpt lat="45.06777" lon="5.56649">
        <ele>1086</ele>
        <time>2012-04-19T23:28:27Z</time>
      </trkpt>
      <trkpt lat="45.0677" lon="5.56651">
        <ele>1086</ele>
        <time>2012-04-19T23:28:28Z</time>
      </trkpt>
      <trkpt lat="45.06755" lon="5.56657">
        <ele>1088</ele>
        <time>2012-04-19T23:28:32Z</time>
      </trkpt>
      <trkpt lat="45.06751" lon="5.56659">
        <ele>1088</ele>
        <time>2012-04-19T23:28:33Z</time>
      </trkpt>
      <trkpt lat="45.06744" lon="5.56659">
        <ele>1091</ele>
        <time>2012-04-19T23:28:34Z</time>
      </trkpt>
      <trkpt lat="45.06736" lon="5.56659">
        <ele>1092</ele>
        <time>2012-04-19T23:28:36Z</time>
      </trkpt>
      <trkpt lat="45.06725" lon="5.56659">
        <ele>1093</ele>
        <time>2012-04-19T23:28:38Z</time>
      </trkpt>
      <trkpt lat="45.06706" lon="5.56659">
        <ele>1095</ele>
        <time>2012-04-19T23:28:43Z</time>
      </trkpt>
      <trkpt lat="45.06689" lon="5.56664">
        <ele>1097</ele>
        <time>2012-04-19T23:28:47Z</time>
      </trkpt>
      <trkpt lat="45.06669" lon="5.5667">
        <ele>1100</ele>
        <time>2012-04-19T23:28:52Z</time>
      </trkpt>
      <trkpt lat="45.06652" lon="5.56679">
        <ele>1106</ele>
        <time>2012-04-19T23:28:57Z</time>
      </trkpt>
      <trkpt lat="45.06635" lon="5.56683">
        <ele>1108</ele>
        <time>2012-04-19T23:29:01Z</time>
      </trkpt>
      <trkpt lat="45.06622" lon="5.56687">
        <ele>1110</ele>
        <time>2012-04-19T23:29:04Z</time>
      </trkpt>
      <trkpt lat="45.06611" lon="5.56691">
        <ele>1111</ele>
        <time>2012-04-19T23:29:07Z</time>
      </trkpt>
      <trkpt lat="45.06603" lon="5.56691">
        <ele>1112</ele>
        <time>2012-04-19T23:29:09Z</time>
      </trkpt>
      <trkpt lat="45.06594" lon="5.56689">
        <ele>1113</ele>
        <time>2012-04-19T23:29:11Z</time>
      </trkpt>
      <trkpt lat="45.0659" lon="5.56685">
        <ele>1113</ele>
        <time>2012-04-19T23:29:12Z</time>
      </trkpt>
      <trkpt lat="45.06588" lon="5.56679">
        <ele>1114</ele>
        <time>2012-04-19T23:29:13Z</time>
      </trkpt>
      <trkpt lat="45.06586" lon="5.56668">
        <ele>1116</ele>
        <time>2012-04-19T23:29:15Z</time>
      </trkpt>
      <trkpt lat="45.06586" lon="5.56657">
        <ele>1114</ele>
        <time>2012-04-19T23:29:17Z</time>
      </trkpt>
      <trkpt lat="45.06583" lon="5.56664">
        <ele>1116</ele>
        <time>2012-04-19T23:29:18Z</time>
      </trkpt>
      <trkpt lat="45.06581" lon="5.56668">
        <ele>1118</ele>
        <time>2012-04-19T23:29:19Z</time>
      </trkpt>
      <trkpt lat="45.06575" lon="5.56666">
        <ele>1119</ele>
        <time>2012-04-19T23:29:20Z</time>
      </trkpt>
      <trkpt lat="45.06543" lon="5.56646">
        <ele>1124</ele>
        <time>2012-04-19T23:29:29Z</time>
      </trkpt>
      <trkpt lat="45.06534" lon="5.56642">
        <ele>1125</ele>
        <time>2012-04-19T23:29:31Z</time>
      </trkpt>
      <trkpt lat="45.06517" lon="5.5664">
        <ele>1126</ele>
        <time>2012-04-19T23:29:35Z</time>
      </trkpt>
      <trkpt lat="45.06506" lon="5.56638">
        <ele>1127</ele>
        <time>2012-04-19T23:29:38Z</time>
      </trkpt>
      <trkpt lat="45.06493" lon="5.56636">
        <ele>1130</ele>
        <time>2012-04-19T23:29:41Z</time>
      </trkpt>
      <trkpt lat="45.06478" lon="5.56629">
        <ele>1129</ele>
        <time>2012-04-19T23:29:45Z</time>
      </trkpt>
      <trkpt lat="45.0647" lon="5.56623">
        <ele>1128</ele>
        <time>2012-04-19T23:29:47Z</time>
      </trkpt>
      <trkpt lat="45.06461" lon="5.56623">
        <ele>1128</ele>
        <time>2012-04-19T23:29:49Z</time>
      </trkpt>
      <trkpt lat="45.06455" lon="5.56623">
        <ele>1128</ele>
        <time>2012-04-19T23:29:50Z</time>
      </trkpt>
      <trkpt lat="45.0645" lon="5.56627">
        <ele>1128</ele>
        <time>2012-04-19T23:29:51Z</time>
      </trkpt>
      <trkpt lat="45.0644" lon="5.56627">
        <ele>1128</ele>
        <time>2012-04-19T23:29:53Z</time>
      </trkpt>
      <trkpt lat="45.06431" lon="5.56629">
        <ele>1128</ele>
        <time>2012-04-19T23:29:55Z</time>
      </trkpt>
      <trkpt lat="45.06416" lon="5.56631">
        <ele>1122</ele>
        <time>2012-04-19T23:29:59Z</time>
      </trkpt>
      <trkpt lat="45.06408" lon="5.56634">
        <ele>1122</ele>
        <time>2012-04-19T23:30:01Z</time>
      </trkpt>
      <trkpt lat="45.06399" lon="5.56636">
        <ele>1122</ele>
        <time>2012-04-19T23:30:03Z</time>
      </trkpt>
      <trkpt lat="45.0639" lon="5.5664">
        <ele>1121</ele>
        <time>2012-04-19T23:30:05Z</time>
      </trkpt>
      <trkpt lat="45.0638" lon="5.56651">
        <ele>1121</ele>
        <time>2012-04-19T23:30:08Z</time>
      </trkpt>
      <trkpt lat="45.06367" lon="5.56668">
        <ele>1131</ele>
        <time>2012-04-19T23:30:12Z</time>
      </trkpt>
      <trkpt lat="45.06356" lon="5.56679">
        <ele>1129</ele>
        <time>2012-04-19T23:30:15Z</time>
      </trkpt>
      <trkpt lat="45.06351" lon="5.56682">
        <ele>1129</ele>
        <time>2012-04-19T23:30:16Z</time>
      </trkpt>
      <trkpt lat="45.06345" lon="5.56685">
        <ele>1128</ele>
        <time>2012-04-19T23:30:17Z</time>
      </trkpt>
      <trkpt lat="45.06332" lon="5.56691">
        <ele>1122</ele>
        <time>2012-04-19T23:30:20Z</time>
      </trkpt>
      <trkpt lat="45.06322" lon="5.56694">
        <ele>1123</ele>
        <time>2012-04-19T23:30:23Z</time>
      </trkpt>
      <trkpt lat="45.06309" lon="5.56691">
        <ele>1123</ele>
        <time>2012-04-19T23:30:26Z</time>
      </trkpt>
      <trkpt lat="45.06298" lon="5.56685">
        <ele>1122</ele>
        <time>2012-04-19T23:30:29Z</time>
      </trkpt>
      <trkpt lat="45.06285" lon="5.56676">
        <ele>1121</ele>
        <time>2012-04-19T23:30:32Z</time>
      </trkpt>
      <trkpt lat="45.06274" lon="5.5667">
        <ele>1119</ele>
        <time>2012-04-19T23:30:35Z</time>
      </trkpt>
      <trkpt lat="45.0627" lon="5.56668">
        <ele>1119</ele>
        <time>2012-04-19T23:30:36Z</time>
      </trkpt>
      <trkpt lat="45.06259" lon="5.56661">
        <ele>1114</ele>
        <time>2012-04-19T23:30:39Z</time>
      </trkpt>
      <trkpt lat="45.06253" lon="5.56659">
        <ele>1114</ele>
        <time>2012-04-19T23:30:40Z</time>
      </trkpt>
      <trkpt lat="45.06247" lon="5.56664">
        <ele>1118</ele>
        <time>2012-04-19T23:30:41Z</time>
      </trkpt>
      <trkpt lat="45.0624" lon="5.56668">
        <ele>1119</ele>
        <time>2012-04-19T23:30:42Z</time>
      </trkpt>
      <trkpt lat="45.06236" lon="5.56676">
        <ele>1122</ele>
        <time>2012-04-19T23:30:44Z</time>
      </trkpt>
      <trkpt lat="45.06234" lon="5.56685">
        <ele>1124</ele>
        <time>2012-04-19T23:30:45Z</time>
      </trkpt>
      <trkpt lat="45.06232" lon="5.56698">
        <ele>1126</ele>
        <time>2012-04-19T23:30:47Z</time>
      </trkpt>
      <trkpt lat="45.06227" lon="5.56704">
        <ele>1127</ele>
        <time>2012-04-19T23:30:48Z</time>
      </trkpt>
      <trkpt lat="45.06225" lon="5.56711">
        <ele>1127</ele>
        <time>2012-04-19T23:30:49Z</time>
      </trkpt>
      <trkpt lat="45.06222" lon="5.56714">
        <ele>1128</ele>
        <time>2012-04-19T23:30:50Z</time>
      </trkpt>
      <trkpt lat="45.06212" lon="5.56721">
        <ele>1129</ele>
        <time>2012-04-19T23:30:52Z</time>
      </trkpt>
      <trkpt lat="45.06202" lon="5.56732">
        <ele>1129</ele>
        <time>2012-04-19T23:30:55Z</time>
      </trkpt>
      <trkpt lat="45.06195" lon="5.56739">
        <ele>1130</ele>
        <time>2012-04-19T23:30:57Z</time>
      </trkpt>
      <trkpt lat="45.06187" lon="5.56741">
        <ele>1130</ele>
        <time>2012-04-19T23:30:59Z</time>
      </trkpt>
      <trkpt lat="45.0618" lon="5.56734">
        <ele>1131</ele>
        <time>2012-04-19T23:31:01Z</time>
      </trkpt>
      <trkpt lat="45.06172" lon="5.56732">
        <ele>1131</ele>
        <time>2012-04-19T23:31:03Z</time>
      </trkpt>
      <trkpt lat="45.06172" lon="5.56739">
        <ele>1124.582</ele>
        <time>2012-04-19T23:31:04Z</time>
      </trkpt>
      <trkpt lat="45.06233" lon="5.566">
        <ele>1121.4375</ele>
        <time>2012-04-19T23:31:36Z</time>
      </trkpt>
      <trkpt lat="45.06247" lon="5.56554">
        <ele>1135</ele>
        <time>2012-04-19T23:31:45Z</time>
      </trkpt>
      <trkpt lat="45.06256" lon="5.56451">
        <ele>1117</ele>
        <time>2012-04-19T23:32:05Z</time>
      </trkpt>
      <trkpt lat="45.06257" lon="5.56438">
        <ele>1118</ele>
        <time>2012-04-19T23:32:07Z</time>
      </trkpt>
      <trkpt lat="45.06266" lon="5.56333">
        <ele>1120</ele>
        <time>2012-04-19T23:32:27Z</time>
      </trkpt>
      <trkpt lat="45.06285" lon="5.56198">
        <ele>1110.3085</ele>
        <time>2012-04-19T23:32:54Z</time>
      </trkpt>
      <trkpt lat="45.06298" lon="5.5611">
        <ele>1098.7148</ele>
        <time>2012-04-19T23:33:11Z</time>
      </trkpt>
      <trkpt lat="45.06298" lon="5.56099">
        <ele>1100</ele>
        <time>2012-04-19T23:33:13Z</time>
      </trkpt>
      <trkpt lat="45.06281" lon="5.56028">
        <ele>1093</ele>
        <time>2012-04-19T23:33:27Z</time>
      </trkpt>
      <trkpt lat="45.06296" lon="5.55937">
        <ele>1087.4414</ele>
        <time>2012-04-19T23:33:45Z</time>
      </trkpt>
      <trkpt lat="45.06298" lon="5.55925">
        <ele>1079</ele>
        <time>2012-04-19T23:33:47Z</time>
      </trkpt>
      <trkpt lat="45.063" lon="5.55913">
        <ele>1075</ele>
        <time>2012-04-19T23:33:49Z</time>
      </trkpt>
      <trkpt lat="45.063" lon="5.55906">
        <ele>1075</ele>
        <time>2012-04-19T23:33:50Z</time>
      </trkpt>
      <trkpt lat="45.063" lon="5.55898">
        <ele>1075</ele>
        <time>2012-04-19T23:33:51Z</time>
      </trkpt>
      <trkpt lat="45.06296" lon="5.55882">
        <ele>1076</ele>
        <time>2012-04-19T23:33:54Z</time>
      </trkpt>
      <trkpt lat="45.06292" lon="5.55857">
        <ele>1075</ele>
        <time>2012-04-19T23:33:59Z</time>
      </trkpt>
      <trkpt lat="45.06287" lon="5.55833">
        <ele>1075</ele>
        <time>2012-04-19T23:34:03Z</time>
      </trkpt>
      <trkpt lat="45.06279" lon="5.55807">
        <ele>1075</ele>
        <time>2012-04-19T23:34:08Z</time>
      </trkpt>
      <trkpt lat="45.06274" lon="5.55792">
        <ele>1076</ele>
        <time>2012-04-19T23:34:11Z</time>
      </trkpt>
      <trkpt lat="45.06274" lon="5.55786">
        <ele>1076</ele>
        <time>2012-04-19T23:34:12Z</time>
      </trkpt>
      <trkpt lat="45.06274" lon="5.55777">
        <ele>1076</ele>
        <time>2012-04-19T23:34:13Z</time>
      </trkpt>
      <trkpt lat="45.06274" lon="5.5576">
        <ele>1076</ele>
        <time>2012-04-19T23:34:16Z</time>
      </trkpt>
      <trkpt lat="45.06274" lon="5.55754">
        <ele>1076</ele>
        <time>2012-04-19T23:34:17Z</time>
      </trkpt>
      <trkpt lat="45.06272" lon="5.55745">
        <ele>1075</ele>
        <time>2012-04-19T23:34:18Z</time>
      </trkpt>
      <trkpt lat="45.06268" lon="5.55732">
        <ele>1075</ele>
        <time>2012-04-19T23:34:20Z</time>
      </trkpt>
      <trkpt lat="45.06259" lon="5.55717">
        <ele>1074</ele>
        <time>2012-04-19T23:34:23Z</time>
      </trkpt>
      <trkpt lat="45.06247" lon="5.55698">
        <ele>1072</ele>
        <time>2012-04-19T23:34:28Z</time>
      </trkpt>
      <trkpt lat="45.06229" lon="5.55668">
        <ele>1071</ele>
        <time>2012-04-19T23:34:35Z</time>
      </trkpt>
      <trkpt lat="45.06214" lon="5.55642">
        <ele>1067</ele>
        <time>2012-04-19T23:34:41Z</time>
      </trkpt>
      <trkpt lat="45.06195" lon="5.5561">
        <ele>1066</ele>
        <time>2012-04-19T23:34:49Z</time>
      </trkpt>
      <trkpt lat="45.06178" lon="5.55582">
        <ele>1064</ele>
        <time>2012-04-19T23:34:56Z</time>
      </trkpt>
      <trkpt lat="45.06159" lon="5.55554">
        <ele>1059</ele>
        <time>2012-04-19T23:35:03Z</time>
      </trkpt>
      <trkpt lat="45.06148" lon="5.55565">
        <ele>1059</ele>
        <time>2012-04-19T23:35:06Z</time>
      </trkpt>
      <trkpt lat="45.06131" lon="5.55586">
        <ele>1059</ele>
        <time>2012-04-19T23:35:12Z</time>
      </trkpt>
      <trkpt lat="45.06111" lon="5.55612">
        <ele>1058</ele>
        <time>2012-04-19T23:35:19Z</time>
      </trkpt>
      <trkpt lat="45.06094" lon="5.55634">
        <ele>1057</ele>
        <time>2012-04-19T23:35:25Z</time>
      </trkpt>
      <trkpt lat="45.06084" lon="5.55644">
        <ele>1057</ele>
        <time>2012-04-19T23:35:28Z</time>
      </trkpt>
      <trkpt lat="45.06077" lon="5.55649">
        <ele>1056</ele>
        <time>2012-04-19T23:35:29Z</time>
      </trkpt>
      <trkpt lat="45.06071" lon="5.55651">
        <ele>1056</ele>
        <time>2012-04-19T23:35:30Z</time>
      </trkpt>
      <trkpt lat="45.06064" lon="5.55649">
        <ele>1056</ele>
        <time>2012-04-19T23:35:31Z</time>
      </trkpt>
      <trkpt lat="45.06051" lon="5.55642">
        <ele>1057</ele>
        <time>2012-04-19T23:35:34Z</time>
      </trkpt>
      <trkpt lat="45.06019" lon="5.55619">
        <ele>1058</ele>
        <time>2012-04-19T23:35:44Z</time>
      </trkpt>
      <trkpt lat="45.06008" lon="5.5561">
        <ele>1058</ele>
        <time>2012-04-19T23:35:47Z</time>
      </trkpt>
      <trkpt lat="45.05996" lon="5.55601">
        <ele>1064</ele>
        <time>2012-04-19T23:35:50Z</time>
      </trkpt>
      <trkpt lat="45.05991" lon="5.55595">
        <ele>1064</ele>
        <time>2012-04-19T23:35:51Z</time>
      </trkpt>
      <trkpt lat="45.05985" lon="5.55593">
        <ele>1064</ele>
        <time>2012-04-19T23:35:52Z</time>
      </trkpt>
      <trkpt lat="45.05976" lon="5.55591">
        <ele>1066</ele>
        <time>2012-04-19T23:35:54Z</time>
      </trkpt>
      <trkpt lat="45.0597" lon="5.55584">
        <ele>1067</ele>
        <time>2012-04-19T23:35:56Z</time>
      </trkpt>
      <trkpt lat="45.05963" lon="5.55574">
        <ele>1063</ele>
        <time>2012-04-19T23:35:58Z</time>
      </trkpt>
      <trkpt lat="45.05953" lon="5.55558">
        <ele>1063</ele>
        <time>2012-04-19T23:36:02Z</time>
      </trkpt>
      <trkpt lat="45.05942" lon="5.55535">
        <ele>1062</ele>
        <time>2012-04-19T23:36:07Z</time>
      </trkpt>
      <trkpt lat="45.05933" lon="5.55516">
        <ele>1062</ele>
        <time>2012-04-19T23:36:11Z</time>
      </trkpt>
      <trkpt lat="45.05925" lon="5.55503">
        <ele>1062</ele>
        <time>2012-04-19T23:36:14Z</time>
      </trkpt>
      <trkpt lat="45.05918" lon="5.55494">
        <ele>1060</ele>
        <time>2012-04-19T23:36:16Z</time>
      </trkpt>
      <trkpt lat="45.0591" lon="5.5549">
        <ele>1060</ele>
        <time>2012-04-19T23:36:18Z</time>
      </trkpt>
      <trkpt lat="45.05905" lon="5.5549">
        <ele>1060</ele>
        <time>2012-04-19T23:36:19Z</time>
      </trkpt>
      <trkpt lat="45.05901" lon="5.5549">
        <ele>1060</ele>
        <time>2012-04-19T23:36:20Z</time>
      </trkpt>
      <trkpt lat="45.05893" lon="5.55492">
        <ele>1060</ele>
        <time>2012-04-19T23:36:22Z</time>
      </trkpt>
      <trkpt lat="45.05884" lon="5.55494">
        <ele>1060</ele>
        <time>2012-04-19T23:36:24Z</time>
      </trkpt>
      <trkpt lat="45.05871" lon="5.55503">
        <ele>1067</ele>
        <time>2012-04-19T23:36:27Z</time>
      </trkpt>
      <trkpt lat="45.05858" lon="5.55513">
        <ele>1067</ele>
        <time>2012-04-19T23:36:31Z</time>
      </trkpt>
      <trkpt lat="45.05843" lon="5.55524">
        <ele>1068</ele>
        <time>2012-04-19T23:36:35Z</time>
      </trkpt>
      <trkpt lat="45.0583" lon="5.55537">
        <ele>1068</ele>
        <time>2012-04-19T23:36:39Z</time>
      </trkpt>
      <trkpt lat="45.0582" lon="5.55552">
        <ele>1069</ele>
        <time>2012-04-19T23:36:43Z</time>
      </trkpt>
      <trkpt lat="45.05805" lon="5.55571">
        <ele>1070</ele>
        <time>2012-04-19T23:36:48Z</time>
      </trkpt>
      <trkpt lat="45.0579" lon="5.55591">
        <ele>1079</ele>
        <time>2012-04-19T23:36:53Z</time>
      </trkpt>
      <trkpt lat="45.05779" lon="5.55601">
        <ele>1079</ele>
        <time>2012-04-19T23:36:56Z</time>
      </trkpt>
      <trkpt lat="45.05757" lon="5.55614">
        <ele>1080</ele>
        <time>2012-04-19T23:37:02Z</time>
      </trkpt>
      <trkpt lat="45.05744" lon="5.55623">
        <ele>1084</ele>
        <time>2012-04-19T23:37:05Z</time>
      </trkpt>
      <trkpt lat="45.05721" lon="5.55636">
        <ele>1086</ele>
        <time>2012-04-19T23:37:12Z</time>
      </trkpt>
      <trkpt lat="45.05697" lon="5.55642">
        <ele>1088</ele>
        <time>2012-04-19T23:37:18Z</time>
      </trkpt>
      <trkpt lat="45.05682" lon="5.55642">
        <ele>1089</ele>
        <time>2012-04-19T23:37:22Z</time>
      </trkpt>
      <trkpt lat="45.05667" lon="5.5564">
        <ele>1090</ele>
        <time>2012-04-19T23:37:26Z</time>
      </trkpt>
      <trkpt lat="45.05657" lon="5.5564">
        <ele>1102</ele>
        <time>2012-04-19T23:37:28Z</time>
      </trkpt>
      <trkpt lat="45.05652" lon="5.55642">
        <ele>1102</ele>
        <time>2012-04-19T23:37:29Z</time>
      </trkpt>
      <trkpt lat="45.05648" lon="5.55629">
        <ele>1102</ele>
        <time>2012-04-19T23:37:31Z</time>
      </trkpt>
      <trkpt lat="45.05644" lon="5.55619">
        <ele>1101</ele>
        <time>2012-04-19T23:37:33Z</time>
      </trkpt>
      <trkpt lat="45.05638" lon="5.55611">
        <ele>1101</ele>
        <time>2012-04-19T23:37:35Z</time>
      </trkpt>
      <trkpt lat="45.05631" lon="5.55604">
        <ele>1102</ele>
        <time>2012-04-19T23:37:37Z</time>
      </trkpt>
      <trkpt lat="45.0562" lon="5.55593">
        <ele>1104</ele>
        <time>2012-04-19T23:37:40Z</time>
      </trkpt>
      <trkpt lat="45.0559" lon="5.55567">
        <ele>1102</ele>
        <time>2012-04-19T23:37:49Z</time>
      </trkpt>
      <trkpt lat="45.05558" lon="5.55543">
        <ele>1116</ele>
        <time>2012-04-19T23:37:59Z</time>
      </trkpt>
      <trkpt lat="45.05515" lon="5.55501">
        <ele>1120</ele>
        <time>2012-04-19T23:38:13Z</time>
      </trkpt>
      <trkpt lat="45.05485" lon="5.55469">
        <ele>1125</ele>
        <time>2012-04-19T23:38:23Z</time>
      </trkpt>
      <trkpt lat="45.05481" lon="5.55464">
        <ele>1125</ele>
        <time>2012-04-19T23:38:24Z</time>
      </trkpt>
      <trkpt lat="45.05453" lon="5.55432">
        <ele>1126</ele>
        <time>2012-04-19T23:38:34Z</time>
      </trkpt>
      <trkpt lat="45.0544" lon="5.55408">
        <ele>1121</ele>
        <time>2012-04-19T23:38:39Z</time>
      </trkpt>
      <trkpt lat="45.0542" lon="5.55383">
        <ele>1122</ele>
        <time>2012-04-19T23:38:46Z</time>
      </trkpt>
      <trkpt lat="45.05408" lon="5.55368">
        <ele>1131</ele>
        <time>2012-04-19T23:38:50Z</time>
      </trkpt>
      <trkpt lat="45.05401" lon="5.55361">
        <ele>1131</ele>
        <time>2012-04-19T23:38:52Z</time>
      </trkpt>
      <trkpt lat="45.05393" lon="5.55355">
        <ele>1131</ele>
        <time>2012-04-19T23:38:54Z</time>
      </trkpt>
      <trkpt lat="45.05378" lon="5.55348">
        <ele>1132</ele>
        <time>2012-04-19T23:38:58Z</time>
      </trkpt>
      <trkpt lat="45.0536" lon="5.55337">
        <ele>1133</ele>
        <time>2012-04-19T23:39:03Z</time>
      </trkpt>
      <trkpt lat="45.05343" lon="5.55325">
        <ele>1134</ele>
        <time>2012-04-19T23:39:08Z</time>
      </trkpt>
      <trkpt lat="45.05326" lon="5.55316">
        <ele>1132</ele>
        <time>2012-04-19T23:39:13Z</time>
      </trkpt>
      <trkpt lat="45.05309" lon="5.5531">
        <ele>1130</ele>
        <time>2012-04-19T23:39:17Z</time>
      </trkpt>
      <trkpt lat="45.05306" lon="5.55308">
        <ele>1130</ele>
        <time>2012-04-19T23:39:17Z</time>
      </trkpt>
      <trkpt lat="45.05292" lon="5.55303">
        <ele>1129</ele>
        <time>2012-04-19T23:39:21Z</time>
      </trkpt>
      <trkpt lat="45.05275" lon="5.55297">
        <ele>1127</ele>
        <time>2012-04-19T23:39:25Z</time>
      </trkpt>
      <trkpt lat="45.05255" lon="5.5529">
        <ele>1126</ele>
        <time>2012-04-19T23:39:30Z</time>
      </trkpt>
      <trkpt lat="45.0524" lon="5.55288">
        <ele>1121</ele>
        <time>2012-04-19T23:39:34Z</time>
      </trkpt>
      <trkpt lat="45.05232" lon="5.55288">
        <ele>1121</ele>
        <time>2012-04-19T23:39:36Z</time>
      </trkpt>
      <trkpt lat="45.05212" lon="5.55295">
        <ele>1122</ele>
        <time>2012-04-19T23:39:41Z</time>
      </trkpt>
      <trkpt lat="45.05206" lon="5.55297">
        <ele>1122</ele>
        <time>2012-04-19T23:39:42Z</time>
      </trkpt>
      <trkpt lat="45.05199" lon="5.55297">
        <ele>1122</ele>
        <time>2012-04-19T23:39:43Z</time>
      </trkpt>
      <trkpt lat="45.05195" lon="5.55292">
        <ele>1122</ele>
        <time>2012-04-19T23:39:44Z</time>
      </trkpt>
      <trkpt lat="45.05187" lon="5.55284">
        <ele>1121</ele>
        <time>2012-04-19T23:39:46Z</time>
      </trkpt>
      <trkpt lat="45.05176" lon="5.55273">
        <ele>1120</ele>
        <time>2012-04-19T23:39:49Z</time>
      </trkpt>
      <trkpt lat="45.05169" lon="5.55265">
        <ele>1119</ele>
        <time>2012-04-19T23:39:51Z</time>
      </trkpt>
      <trkpt lat="45.05159" lon="5.55258">
        <ele>1119</ele>
        <time>2012-04-19T23:39:54Z</time>
      </trkpt>
      <trkpt lat="45.05146" lon="5.55249">
        <ele>1116</ele>
        <time>2012-04-19T23:39:57Z</time>
      </trkpt>
      <trkpt lat="45.05129" lon="5.55241">
        <ele>1116</ele>
        <time>2012-04-19T23:40:02Z</time>
      </trkpt>
      <trkpt lat="45.05109" lon="5.5523">
        <ele>1117</ele>
        <time>2012-04-19T23:40:07Z</time>
      </trkpt>
      <trkpt lat="45.05094" lon="5.55215">
        <ele>1117</ele>
        <time>2012-04-19T23:40:12Z</time>
      </trkpt>
      <trkpt lat="45.05079" lon="5.55207">
        <ele>1121</ele>
        <time>2012-04-19T23:40:16Z</time>
      </trkpt>
      <trkpt lat="45.05073" lon="5.55198">
        <ele>1120</ele>
        <time>2012-04-19T23:40:18Z</time>
      </trkpt>
      <trkpt lat="45.05064" lon="5.55187">
        <ele>1119</ele>
        <time>2012-04-19T23:40:21Z</time>
      </trkpt>
      <trkpt lat="45.05058" lon="5.55185">
        <ele>1120</ele>
        <time>2012-04-19T23:40:22Z</time>
      </trkpt>
      <trkpt lat="45.05049" lon="5.55183">
        <ele>1120</ele>
        <time>2012-04-19T23:40:24Z</time>
      </trkpt>
      <trkpt lat="45.05039" lon="5.55183">
        <ele>1121</ele>
        <time>2012-04-19T23:40:26Z</time>
      </trkpt>
      <trkpt lat="45.05028" lon="5.55183">
        <ele>1121</ele>
        <time>2012-04-19T23:40:28Z</time>
      </trkpt>
      <trkpt lat="45.05015" lon="5.55187">
        <ele>1122</ele>
        <time>2012-04-19T23:40:31Z</time>
      </trkpt>
      <trkpt lat="45.05004" lon="5.55194">
        <ele>1123</ele>
        <time>2012-04-19T23:40:34Z</time>
      </trkpt>
      <trkpt lat="45.04996" lon="5.55196">
        <ele>1126</ele>
        <time>2012-04-19T23:40:36Z</time>
      </trkpt>
      <trkpt lat="45.04983" lon="5.55196">
        <ele>1126</ele>
        <time>2012-04-19T23:40:39Z</time>
      </trkpt>
      <trkpt lat="45.04966" lon="5.55198">
        <ele>1127</ele>
        <time>2012-04-19T23:40:43Z</time>
      </trkpt>
      <trkpt lat="45.04936" lon="5.55204">
        <ele>1128</ele>
        <time>2012-04-19T23:40:51Z</time>
      </trkpt>
      <trkpt lat="45.04918" lon="5.55204">
        <ele>1128</ele>
        <time>2012-04-19T23:40:55Z</time>
      </trkpt>
      <trkpt lat="45.04901" lon="5.55204">
        <ele>1127</ele>
        <time>2012-04-19T23:40:59Z</time>
      </trkpt>
      <trkpt lat="45.04871" lon="5.55202">
        <ele>1126</ele>
        <time>2012-04-19T23:41:07Z</time>
      </trkpt>
      <trkpt lat="45.04863" lon="5.55204">
        <ele>1126</ele>
        <time>2012-04-19T23:41:09Z</time>
      </trkpt>
      <trkpt lat="45.04856" lon="5.55207">
        <ele>1126</ele>
        <time>2012-04-19T23:41:10Z</time>
      </trkpt>
      <trkpt lat="45.04848" lon="5.55213">
        <ele>1126</ele>
        <time>2012-04-19T23:41:12Z</time>
      </trkpt>
      <trkpt lat="45.04843" lon="5.55217">
        <ele>1126</ele>
        <time>2012-04-19T23:41:13Z</time>
      </trkpt>
      <trkpt lat="45.04839" lon="5.55228">
        <ele>1126</ele>
        <time>2012-04-19T23:41:15Z</time>
      </trkpt>
      <trkpt lat="45.04835" lon="5.55243">
        <ele>1127</ele>
        <time>2012-04-19T23:41:18Z</time>
      </trkpt>
      <trkpt lat="45.04828" lon="5.55271">
        <ele>1121</ele>
        <time>2012-04-19T23:41:23Z</time>
      </trkpt>
      <trkpt lat="45.04824" lon="5.55295">
        <ele>1120</ele>
        <time>2012-04-19T23:41:27Z</time>
      </trkpt>
      <trkpt lat="45.0482" lon="5.55325">
        <ele>1122</ele>
        <time>2012-04-19T23:41:33Z</time>
      </trkpt>
      <trkpt lat="45.04814" lon="5.55398">
        <ele>1123</ele>
        <time>2012-04-19T23:41:47Z</time>
      </trkpt>
      <trkpt lat="45.04813" lon="5.5543">
        <ele>1125</ele>
        <time>2012-04-19T23:41:53Z</time>
      </trkpt>
      <trkpt lat="45.04813" lon="5.55447">
        <ele>1125</ele>
        <time>2012-04-19T23:41:56Z</time>
      </trkpt>
      <trkpt lat="45.04811" lon="5.55473">
        <ele>1125</ele>
        <time>2012-04-19T23:42:01Z</time>
      </trkpt>
      <trkpt lat="45.04815" lon="5.55488">
        <ele>1126</ele>
        <time>2012-04-19T23:42:04Z</time>
      </trkpt>
      <trkpt lat="45.04818" lon="5.55509">
        <ele>1129</ele>
        <time>2012-04-19T23:42:08Z</time>
      </trkpt>
      <trkpt lat="45.04822" lon="5.55528">
        <ele>1129</ele>
        <time>2012-04-19T23:42:11Z</time>
      </trkpt>
      <trkpt lat="45.04818" lon="5.55533">
        <ele>1129</ele>
        <time>2012-04-19T23:42:12Z</time>
      </trkpt>
      <trkpt lat="45.04807" lon="5.55539">
        <ele>1129</ele>
        <time>2012-04-19T23:42:15Z</time>
      </trkpt>
      <trkpt lat="45.04792" lon="5.55548">
        <ele>1129</ele>
        <time>2012-04-19T23:42:19Z</time>
      </trkpt>
      <trkpt lat="45.04783" lon="5.55552">
        <ele>1129</ele>
        <time>2012-04-19T23:42:21Z</time>
      </trkpt>
      <trkpt lat="45.04779" lon="5.55552">
        <ele>1129</ele>
        <time>2012-04-19T23:42:22Z</time>
      </trkpt>
      <trkpt lat="45.04775" lon="5.55552">
        <ele>1129</ele>
        <time>2012-04-19T23:42:23Z</time>
      </trkpt>
      <trkpt lat="45.04768" lon="5.55548">
        <ele>1129</ele>
        <time>2012-04-19T23:42:24Z</time>
      </trkpt>
      <trkpt lat="45.0476" lon="5.55541">
        <ele>1128</ele>
        <time>2012-04-19T23:42:26Z</time>
      </trkpt>
      <trkpt lat="45.04754" lon="5.55536">
        <ele>1128</ele>
        <time>2012-04-19T23:42:27Z</time>
      </trkpt>
      <trkpt lat="45.04747" lon="5.55528">
        <ele>1127</ele>
        <time>2012-04-19T23:42:29Z</time>
      </trkpt>
      <trkpt lat="45.04736" lon="5.55513">
        <ele>1126</ele>
        <time>2012-04-19T23:42:33Z</time>
      </trkpt>
      <trkpt lat="45.04732" lon="5.55507">
        <ele>1126</ele>
        <time>2012-04-19T23:42:34Z</time>
      </trkpt>
      <trkpt lat="45.04727" lon="5.55496">
        <ele>1122</ele>
        <time>2012-04-19T23:42:36Z</time>
      </trkpt>
      <trkpt lat="45.04715" lon="5.55475">
        <ele>1122</ele>
        <time>2012-04-19T23:42:41Z</time>
      </trkpt>
      <trkpt lat="45.04708" lon="5.5546">
        <ele>1122</ele>
        <time>2012-04-19T23:42:44Z</time>
      </trkpt>
      <trkpt lat="45.04704" lon="5.55455">
        <ele>1122</ele>
        <time>2012-04-19T23:42:45Z</time>
      </trkpt>
      <trkpt lat="45.047" lon="5.55451">
        <ele>1122</ele>
        <time>2012-04-19T23:42:46Z</time>
      </trkpt>
      <trkpt lat="45.04691" lon="5.55449">
        <ele>1122</ele>
        <time>2012-04-19T23:42:48Z</time>
      </trkpt>
      <trkpt lat="45.04682" lon="5.55447">
        <ele>1122</ele>
        <time>2012-04-19T23:42:50Z</time>
      </trkpt>
      <trkpt lat="45.04678" lon="5.55447">
        <ele>1122</ele>
        <time>2012-04-19T23:42:51Z</time>
      </trkpt>
      <trkpt lat="45.04674" lon="5.55453">
        <ele>1122</ele>
        <time>2012-04-19T23:42:52Z</time>
      </trkpt>
      <trkpt lat="45.04672" lon="5.55473">
        <ele>1123</ele>
        <time>2012-04-19T23:42:55Z</time>
      </trkpt>
      <trkpt lat="45.04672" lon="5.55483">
        <ele>1124</ele>
        <time>2012-04-19T23:42:57Z</time>
      </trkpt>
      <trkpt lat="45.04667" lon="5.55496">
        <ele>1126</ele>
        <time>2012-04-19T23:42:59Z</time>
      </trkpt>
      <trkpt lat="45.04657" lon="5.55513">
        <ele>1125</ele>
        <time>2012-04-19T23:43:03Z</time>
      </trkpt>
      <trkpt lat="45.04649" lon="5.55523">
        <ele>1125</ele>
        <time>2012-04-19T23:43:05Z</time>
      </trkpt>
      <trkpt lat="45.04646" lon="5.55526">
        <ele>1125</ele>
        <time>2012-04-19T23:43:05Z</time>
      </trkpt>
      <trkpt lat="45.04637" lon="5.55533">
        <ele>1124</ele>
        <time>2012-04-19T23:43:07Z</time>
      </trkpt>
      <trkpt lat="45.04631" lon="5.55535">
        <ele>1124</ele>
        <time>2012-04-19T23:43:08Z</time>
      </trkpt>
      <trkpt lat="45.04618" lon="5.55535">
        <ele>1123</ele>
        <time>2012-04-19T23:43:11Z</time>
      </trkpt>
      <trkpt lat="45.04603" lon="5.55539">
        <ele>1123</ele>
        <time>2012-04-19T23:43:15Z</time>
      </trkpt>
      <trkpt lat="45.04588" lon="5.55546">
        <ele>1123</ele>
        <time>2012-04-19T23:43:19Z</time>
      </trkpt>
      <trkpt lat="45.04579" lon="5.55554">
        <ele>1114</ele>
        <time>2012-04-19T23:43:21Z</time>
      </trkpt>
      <trkpt lat="45.04571" lon="5.55567">
        <ele>1115</ele>
        <time>2012-04-19T23:43:24Z</time>
      </trkpt>
      <trkpt lat="45.04564" lon="5.5558">
        <ele>1115</ele>
        <time>2012-04-19T23:43:27Z</time>
      </trkpt>
      <trkpt lat="45.04558" lon="5.55599">
        <ele>1118</ele>
        <time>2012-04-19T23:43:31Z</time>
      </trkpt>
      <trkpt lat="45.04551" lon="5.55629">
        <ele>1119</ele>
        <time>2012-04-19T23:43:37Z</time>
      </trkpt>
      <trkpt lat="45.04547" lon="5.55664">
        <ele>1120</ele>
        <time>2012-04-19T23:43:43Z</time>
      </trkpt>
      <trkpt lat="45.04539" lon="5.55704">
        <ele>1126</ele>
        <time>2012-04-19T23:43:51Z</time>
      </trkpt>
      <trkpt lat="45.04533" lon="5.55724">
        <ele>1126</ele>
        <time>2012-04-19T23:43:55Z</time>
      </trkpt>
      <trkpt lat="45.04532" lon="5.55728">
        <ele>1126</ele>
        <time>2012-04-19T23:43:55Z</time>
      </trkpt>
      <trkpt lat="45.04526" lon="5.55743">
        <ele>1124</ele>
        <time>2012-04-19T23:43:58Z</time>
      </trkpt>
      <trkpt lat="45.04517" lon="5.55756">
        <ele>1127</ele>
        <time>2012-04-19T23:44:01Z</time>
      </trkpt>
      <trkpt lat="45.04506" lon="5.55779">
        <ele>1129</ele>
        <time>2012-04-19T23:44:06Z</time>
      </trkpt>
      <trkpt lat="45.04496" lon="5.55807">
        <ele>1127</ele>
        <time>2012-04-19T23:44:12Z</time>
      </trkpt>
      <trkpt lat="45.04491" lon="5.55822">
        <ele>1128</ele>
        <time>2012-04-19T23:44:15Z</time>
      </trkpt>
      <trkpt lat="45.04483" lon="5.55833">
        <ele>1128</ele>
        <time>2012-04-19T23:44:18Z</time>
      </trkpt>
      <trkpt lat="45.04476" lon="5.55842">
        <ele>1136</ele>
        <time>2012-04-19T23:44:20Z</time>
      </trkpt>
      <trkpt lat="45.0447" lon="5.55844">
        <ele>1137</ele>
        <time>2012-04-19T23:44:21Z</time>
      </trkpt>
      <trkpt lat="45.04466" lon="5.55844">
        <ele>1138</ele>
        <time>2012-04-19T23:44:22Z</time>
      </trkpt>
      <trkpt lat="45.04461" lon="5.55837">
        <ele>1138</ele>
        <time>2012-04-19T23:44:23Z</time>
      </trkpt>
      <trkpt lat="45.04455" lon="5.55829">
        <ele>1129</ele>
        <time>2012-04-19T23:44:25Z</time>
      </trkpt>
      <trkpt lat="45.04451" lon="5.55818">
        <ele>1129</ele>
        <time>2012-04-19T23:44:27Z</time>
      </trkpt>
      <trkpt lat="45.04444" lon="5.5581">
        <ele>1129</ele>
        <time>2012-04-19T23:44:29Z</time>
      </trkpt>
      <trkpt lat="45.0444" lon="5.55805">
        <ele>1129</ele>
        <time>2012-04-19T23:44:30Z</time>
      </trkpt>
      <trkpt lat="45.04433" lon="5.55801">
        <ele>1129</ele>
        <time>2012-04-19T23:44:31Z</time>
      </trkpt>
      <trkpt lat="45.04429" lon="5.55797">
        <ele>1129</ele>
        <time>2012-04-19T23:44:32Z</time>
      </trkpt>
      <trkpt lat="45.04425" lon="5.5579">
        <ele>1128</ele>
        <time>2012-04-19T23:44:33Z</time>
      </trkpt>
      <trkpt lat="45.04423" lon="5.55784">
        <ele>1128</ele>
        <time>2012-04-19T23:44:34Z</time>
      </trkpt>
      <trkpt lat="45.04421" lon="5.55779">
        <ele>1128</ele>
        <time>2012-04-19T23:44:35Z</time>
      </trkpt>
      <trkpt lat="45.04416" lon="5.55773">
        <ele>1140</ele>
        <time>2012-04-19T23:44:36Z</time>
      </trkpt>
      <trkpt lat="45.04414" lon="5.55769">
        <ele>1139</ele>
        <time>2012-04-19T23:44:37Z</time>
      </trkpt>
      <trkpt lat="45.0441" lon="5.55758">
        <ele>1135</ele>
        <time>2012-04-19T23:44:39Z</time>
      </trkpt>
      <trkpt lat="45.04408" lon="5.55747">
        <ele>1132</ele>
        <time>2012-04-19T23:44:41Z</time>
      </trkpt>
      <trkpt lat="45.04401" lon="5.55724">
        <ele>1138</ele>
        <time>2012-04-19T23:44:45Z</time>
      </trkpt>
      <trkpt lat="45.04388" lon="5.55687">
        <ele>1140</ele>
        <time>2012-04-19T23:44:53Z</time>
      </trkpt>
      <trkpt lat="45.0438" lon="5.5567">
        <ele>1142</ele>
        <time>2012-04-19T23:44:57Z</time>
      </trkpt>
      <trkpt lat="45.04373" lon="5.55659">
        <ele>1139</ele>
        <time>2012-04-19T23:44:59Z</time>
      </trkpt>
      <trkpt lat="45.04369" lon="5.55653">
        <ele>1140</ele>
        <time>2012-04-19T23:45:00Z</time>
      </trkpt>
      <trkpt lat="45.04365" lon="5.55651">
        <ele>1142</ele>
        <time>2012-04-19T23:45:01Z</time>
      </trkpt>
      <trkpt lat="45.04363" lon="5.55644">
        <ele>1142</ele>
        <time>2012-04-19T23:45:02Z</time>
      </trkpt>
      <trkpt lat="45.04343" lon="5.55601">
        <ele>1144</ele>
        <time>2012-04-19T23:45:11Z</time>
      </trkpt>
      <trkpt lat="45.04333" lon="5.55574">
        <ele>1154</ele>
        <time>2012-04-19T23:45:17Z</time>
      </trkpt>
      <trkpt lat="45.0432" lon="5.55546">
        <ele>1155</ele>
        <time>2012-04-19T23:45:23Z</time>
      </trkpt>
      <trkpt lat="45.04305" lon="5.55518">
        <ele>1154</ele>
        <time>2012-04-19T23:45:29Z</time>
      </trkpt>
      <trkpt lat="45.04296" lon="5.55505">
        <ele>1156</ele>
        <time>2012-04-19T23:45:32Z</time>
      </trkpt>
      <trkpt lat="45.04288" lon="5.5549">
        <ele>1154</ele>
        <time>2012-04-19T23:45:35Z</time>
      </trkpt>
      <trkpt lat="45.04281" lon="5.55468">
        <ele>1154</ele>
        <time>2012-04-19T23:45:39Z</time>
      </trkpt>
      <trkpt lat="45.04279" lon="5.55462">
        <ele>1154</ele>
        <time>2012-04-19T23:45:40Z</time>
      </trkpt>
      <trkpt lat="45.04275" lon="5.55451">
        <ele>1154</ele>
        <time>2012-04-19T23:45:42Z</time>
      </trkpt>
      <trkpt lat="45.04262" lon="5.55421">
        <ele>1158</ele>
        <time>2012-04-19T23:45:48Z</time>
      </trkpt>
      <trkpt lat="45.04232" lon="5.5537">
        <ele>1166</ele>
        <time>2012-04-19T23:46:01Z</time>
      </trkpt>
      <trkpt lat="45.04227" lon="5.55361">
        <ele>1166</ele>
        <time>2012-04-19T23:46:03Z</time>
      </trkpt>
      <trkpt lat="45.04215" lon="5.55331">
        <ele>1162</ele>
        <time>2012-04-19T23:46:09Z</time>
      </trkpt>
      <trkpt lat="45.04191" lon="5.55277">
        <ele>1162</ele>
        <time>2012-04-19T23:46:21Z</time>
      </trkpt>
      <trkpt lat="45.04187" lon="5.55269">
        <ele>1162</ele>
        <time>2012-04-19T23:46:23Z</time>
      </trkpt>
      <trkpt lat="45.04182" lon="5.55265">
        <ele>1163</ele>
        <time>2012-04-19T23:46:24Z</time>
      </trkpt>
      <trkpt lat="45.04178" lon="5.5526">
        <ele>1163</ele>
        <time>2012-04-19T23:46:25Z</time>
      </trkpt>
      <trkpt lat="45.04174" lon="5.55256">
        <ele>1164</ele>
        <time>2012-04-19T23:46:26Z</time>
      </trkpt>
      <trkpt lat="45.04157" lon="5.55232">
        <ele>1166</ele>
        <time>2012-04-19T23:46:32Z</time>
      </trkpt>
      <trkpt lat="45.04146" lon="5.55211">
        <ele>1165</ele>
        <time>2012-04-19T23:46:37Z</time>
      </trkpt>
      <trkpt lat="45.04139" lon="5.55196">
        <ele>1164</ele>
        <time>2012-04-19T23:46:40Z</time>
      </trkpt>
      <trkpt lat="45.04135" lon="5.55185">
        <ele>1164</ele>
        <time>2012-04-19T23:46:42Z</time>
      </trkpt>
      <trkpt lat="45.04135" lon="5.55174">
        <ele>1163</ele>
        <time>2012-04-19T23:46:44Z</time>
      </trkpt>
      <trkpt lat="45.04137" lon="5.55164">
        <ele>1157</ele>
        <time>2012-04-19T23:46:46Z</time>
      </trkpt>
      <trkpt lat="45.04146" lon="5.55142">
        <ele>1156</ele>
        <time>2012-04-19T23:46:50Z</time>
      </trkpt>
      <trkpt lat="45.04148" lon="5.55131">
        <ele>1156</ele>
        <time>2012-04-19T23:46:52Z</time>
      </trkpt>
      <trkpt lat="45.04148" lon="5.55125">
        <ele>1156</ele>
        <time>2012-04-19T23:46:53Z</time>
      </trkpt>
      <trkpt lat="45.04144" lon="5.55114">
        <ele>1156</ele>
        <time>2012-04-19T23:46:55Z</time>
      </trkpt>
      <trkpt lat="45.04139" lon="5.55104">
        <ele>1156</ele>
        <time>2012-04-19T23:46:57Z</time>
      </trkpt>
      <trkpt lat="45.04133" lon="5.55093">
        <ele>1157</ele>
        <time>2012-04-19T23:46:59Z</time>
      </trkpt>
      <trkpt lat="45.04131" lon="5.55082">
        <ele>1157</ele>
        <time>2012-04-19T23:47:01Z</time>
      </trkpt>
      <trkpt lat="45.04129" lon="5.55076">
        <ele>1158</ele>
        <time>2012-04-19T23:47:02Z</time>
      </trkpt>
      <trkpt lat="45.04131" lon="5.55065">
        <ele>1157</ele>
        <time>2012-04-19T23:47:04Z</time>
      </trkpt>
      <trkpt lat="45.04133" lon="5.55061">
        <ele>1157</ele>
        <time>2012-04-19T23:47:05Z</time>
      </trkpt>
      <trkpt lat="45.04135" lon="5.55052">
        <ele>1157</ele>
        <time>2012-04-19T23:47:06Z</time>
      </trkpt>
      <trkpt lat="45.04142" lon="5.55039">
        <ele>1157</ele>
        <time>2012-04-19T23:47:09Z</time>
      </trkpt>
      <trkpt lat="45.04165" lon="5.55007">
        <ele>1152</ele>
        <time>2012-04-19T23:47:18Z</time>
      </trkpt>
      <trkpt lat="45.04178" lon="5.54994">
        <ele>1146</ele>
        <time>2012-04-19T23:47:22Z</time>
      </trkpt>
      <trkpt lat="45.04202" lon="5.54973">
        <ele>1142</ele>
        <time>2012-04-19T23:47:29Z</time>
      </trkpt>
      <trkpt lat="45.04219" lon="5.54956">
        <ele>1141</ele>
        <time>2012-04-19T23:47:34Z</time>
      </trkpt>
      <trkpt lat="45.04227" lon="5.54938">
        <ele>1141</ele>
        <time>2012-04-19T23:47:38Z</time>
      </trkpt>
      <trkpt lat="45.0424" lon="5.54923">
        <ele>1140</ele>
        <time>2012-04-19T23:47:42Z</time>
      </trkpt>
      <trkpt lat="45.04245" lon="5.54906">
        <ele>1140</ele>
        <time>2012-04-19T23:47:45Z</time>
      </trkpt>
      <trkpt lat="45.04251" lon="5.54889">
        <ele>1134</ele>
        <time>2012-04-19T23:47:48Z</time>
      </trkpt>
      <trkpt lat="45.04253" lon="5.54883">
        <ele>1133</ele>
        <time>2012-04-19T23:47:49Z</time>
      </trkpt>
      <trkpt lat="45.04262" lon="5.54876">
        <ele>1133</ele>
        <time>2012-04-19T23:47:51Z</time>
      </trkpt>
      <trkpt lat="45.04266" lon="5.54868">
        <ele>1132</ele>
        <time>2012-04-19T23:47:53Z</time>
      </trkpt>
      <trkpt lat="45.04272" lon="5.54855">
        <ele>1132</ele>
        <time>2012-04-19T23:47:56Z</time>
      </trkpt>
      <trkpt lat="45.04275" lon="5.54844">
        <ele>1132</ele>
        <time>2012-04-19T23:47:58Z</time>
      </trkpt>
      <trkpt lat="45.04275" lon="5.54838">
        <ele>1133</ele>
        <time>2012-04-19T23:47:59Z</time>
      </trkpt>
      <trkpt lat="45.04275" lon="5.54831">
        <ele>1130</ele>
        <time>2012-04-19T23:48:00Z</time>
      </trkpt>
      <trkpt lat="45.04272" lon="5.54827">
        <ele>1130</ele>
        <time>2012-04-19T23:48:01Z</time>
      </trkpt>
      <trkpt lat="45.04268" lon="5.54825">
        <ele>1131</ele>
        <time>2012-04-19T23:48:02Z</time>
      </trkpt>
      <trkpt lat="45.04264" lon="5.54822">
        <ele>1131</ele>
        <time>2012-04-19T23:48:03Z</time>
      </trkpt>
      <trkpt lat="45.04253" lon="5.5482">
        <ele>1132</ele>
        <time>2012-04-19T23:48:06Z</time>
      </trkpt>
      <trkpt lat="45.04238" lon="5.54818">
        <ele>1134</ele>
        <time>2012-04-19T23:48:10Z</time>
      </trkpt>
      <trkpt lat="45.04225" lon="5.54814">
        <ele>1133</ele>
        <time>2012-04-19T23:48:13Z</time>
      </trkpt>
      <trkpt lat="45.04212" lon="5.54812">
        <ele>1133</ele>
        <time>2012-04-19T23:48:16Z</time>
      </trkpt>
      <trkpt lat="45.04204" lon="5.54812">
        <ele>1133</ele>
        <time>2012-04-19T23:48:18Z</time>
      </trkpt>
      <trkpt lat="45.04193" lon="5.54818">
        <ele>1134</ele>
        <time>2012-04-19T23:48:21Z</time>
      </trkpt>
      <trkpt lat="45.04187" lon="5.54818">
        <ele>1134</ele>
        <time>2012-04-19T23:48:22Z</time>
      </trkpt>
      <trkpt lat="45.04178" lon="5.54818">
        <ele>1135</ele>
        <time>2012-04-19T23:48:24Z</time>
      </trkpt>
      <trkpt lat="45.04174" lon="5.54814">
        <ele>1134</ele>
        <time>2012-04-19T23:48:25Z</time>
      </trkpt>
      <trkpt lat="45.04172" lon="5.54807">
        <ele>1134</ele>
        <time>2012-04-19T23:48:26Z</time>
      </trkpt>
      <trkpt lat="45.04167" lon="5.54799">
        <ele>1133</ele>
        <time>2012-04-19T23:48:28Z</time>
      </trkpt>
      <trkpt lat="45.04165" lon="5.54786">
        <ele>1142</ele>
        <time>2012-04-19T23:48:30Z</time>
      </trkpt>
      <trkpt lat="45.04165" lon="5.54771">
        <ele>1140</ele>
        <time>2012-04-19T23:48:32Z</time>
      </trkpt>
      <trkpt lat="45.04167" lon="5.54739">
        <ele>1130</ele>
        <time>2012-04-19T23:48:38Z</time>
      </trkpt>
      <trkpt lat="45.04167" lon="5.54717">
        <ele>1130</ele>
        <time>2012-04-19T23:48:42Z</time>
      </trkpt>
      <trkpt lat="45.04169" lon="5.54702">
        <ele>1130</ele>
        <time>2012-04-19T23:48:45Z</time>
      </trkpt>
      <trkpt lat="45.04174" lon="5.54692">
        <ele>1131</ele>
        <time>2012-04-19T23:48:47Z</time>
      </trkpt>
      <trkpt lat="45.04176" lon="5.54685">
        <ele>1131</ele>
        <time>2012-04-19T23:48:48Z</time>
      </trkpt>
      <trkpt lat="45.0418" lon="5.54679">
        <ele>1131</ele>
        <time>2012-04-19T23:48:49Z</time>
      </trkpt>
      <trkpt lat="45.04189" lon="5.5467">
        <ele>1130</ele>
        <time>2012-04-19T23:48:51Z</time>
      </trkpt>
      <trkpt lat="45.04197" lon="5.54664">
        <ele>1129</ele>
        <time>2012-04-19T23:48:53Z</time>
      </trkpt>
      <trkpt lat="45.04204" lon="5.54657">
        <ele>1127</ele>
        <time>2012-04-19T23:48:55Z</time>
      </trkpt>
      <trkpt lat="45.04217" lon="5.54644">
        <ele>1125</ele>
        <time>2012-04-19T23:48:59Z</time>
      </trkpt>
      <trkpt lat="45.04227" lon="5.54634">
        <ele>1124</ele>
        <time>2012-04-19T23:49:02Z</time>
      </trkpt>
      <trkpt lat="45.04234" lon="5.54621">
        <ele>1124</ele>
        <time>2012-04-19T23:49:05Z</time>
      </trkpt>
      <trkpt lat="45.04242" lon="5.54606">
        <ele>1122</ele>
        <time>2012-04-19T23:49:08Z</time>
      </trkpt>
      <trkpt lat="45.04247" lon="5.54597">
        <ele>1121</ele>
        <time>2012-04-19T23:49:10Z</time>
      </trkpt>
      <trkpt lat="45.04249" lon="5.54589">
        <ele>1119</ele>
        <time>2012-04-19T23:49:11Z</time>
      </trkpt>
      <trkpt lat="45.04253" lon="5.54565">
        <ele>1110</ele>
        <time>2012-04-19T23:49:15Z</time>
      </trkpt>
      <trkpt lat="45.04255" lon="5.54554">
        <ele>1108</ele>
        <time>2012-04-19T23:49:17Z</time>
      </trkpt>
      <trkpt lat="45.04257" lon="5.54529">
        <ele>1107</ele>
        <time>2012-04-19T23:49:22Z</time>
      </trkpt>
      <trkpt lat="45.04257" lon="5.54509">
        <ele>1111</ele>
        <time>2012-04-19T23:49:25Z</time>
      </trkpt>
      <trkpt lat="45.04255" lon="5.54492">
        <ele>1110</ele>
        <time>2012-04-19T23:49:28Z</time>
      </trkpt>
      <trkpt lat="45.04253" lon="5.54473">
        <ele>1104</ele>
        <time>2012-04-19T23:49:31Z</time>
      </trkpt>
      <trkpt lat="45.04249" lon="5.54445">
        <ele>1116</ele>
        <time>2012-04-19T23:49:36Z</time>
      </trkpt>
      <trkpt lat="45.04242" lon="5.54415">
        <ele>1108</ele>
        <time>2012-04-19T23:49:42Z</time>
      </trkpt>
      <trkpt lat="45.04225" lon="5.54342">
        <ele>1104</ele>
        <time>2012-04-19T23:49:57Z</time>
      </trkpt>
      <trkpt lat="45.04208" lon="5.54269">
        <ele>1095</ele>
        <time>2012-04-19T23:50:12Z</time>
      </trkpt>
      <trkpt lat="45.04206" lon="5.5425">
        <ele>1088</ele>
        <time>2012-04-19T23:50:15Z</time>
      </trkpt>
      <trkpt lat="45.04204" lon="5.54241">
        <ele>1088</ele>
        <time>2012-04-19T23:50:16Z</time>
      </trkpt>
      <trkpt lat="45.042" lon="5.54235">
        <ele>1089</ele>
        <time>2012-04-19T23:50:17Z</time>
      </trkpt>
      <trkpt lat="45.04197" lon="5.54226">
        <ele>1089</ele>
        <time>2012-04-19T23:50:18Z</time>
      </trkpt>
      <trkpt lat="45.04197" lon="5.54222">
        <ele>1088</ele>
        <time>2012-04-19T23:50:18Z</time>
      </trkpt>
      <trkpt lat="45.04197" lon="5.54215">
        <ele>1088</ele>
        <time>2012-04-19T23:50:19Z</time>
      </trkpt>
      <trkpt lat="45.04197" lon="5.54209">
        <ele>1087</ele>
        <time>2012-04-19T23:50:20Z</time>
      </trkpt>
      <trkpt lat="45.04195" lon="5.54202">
        <ele>1087</ele>
        <time>2012-04-19T23:50:21Z</time>
      </trkpt>
      <trkpt lat="45.04193" lon="5.54194">
        <ele>1087</ele>
        <time>2012-04-19T23:50:22Z</time>
      </trkpt>
      <trkpt lat="45.04187" lon="5.54185">
        <ele>1088</ele>
        <time>2012-04-19T23:50:24Z</time>
      </trkpt>
      <trkpt lat="45.04178" lon="5.54181">
        <ele>1088</ele>
        <time>2012-04-19T23:50:26Z</time>
      </trkpt>
      <trkpt lat="45.04172" lon="5.54177">
        <ele>1089</ele>
        <time>2012-04-19T23:50:27Z</time>
      </trkpt>
      <trkpt lat="45.04163" lon="5.54172">
        <ele>1093</ele>
        <time>2012-04-19T23:50:29Z</time>
      </trkpt>
      <trkpt lat="45.04159" lon="5.54168">
        <ele>1093</ele>
        <time>2012-04-19T23:50:30Z</time>
      </trkpt>
      <trkpt lat="45.04154" lon="5.54162">
        <ele>1093</ele>
        <time>2012-04-19T23:50:31Z</time>
      </trkpt>
      <trkpt lat="45.0415" lon="5.54155">
        <ele>1093</ele>
        <time>2012-04-19T23:50:32Z</time>
      </trkpt>
      <trkpt lat="45.04148" lon="5.54149">
        <ele>1094</ele>
        <time>2012-04-19T23:50:33Z</time>
      </trkpt>
      <trkpt lat="45.04146" lon="5.54138">
        <ele>1094</ele>
        <time>2012-04-19T23:50:35Z</time>
      </trkpt>
      <trkpt lat="45.04144" lon="5.54125">
        <ele>1094</ele>
        <time>2012-04-19T23:50:37Z</time>
      </trkpt>
      <trkpt lat="45.04146" lon="5.54112">
        <ele>1093</ele>
        <time>2012-04-19T23:50:39Z</time>
      </trkpt>
      <trkpt lat="45.04146" lon="5.54084">
        <ele>1091</ele>
        <time>2012-04-19T23:50:44Z</time>
      </trkpt>
      <trkpt lat="45.04144" lon="5.54052">
        <ele>1092</ele>
        <time>2012-04-19T23:50:50Z</time>
      </trkpt>
      <trkpt lat="45.04144" lon="5.54041">
        <ele>1093</ele>
        <time>2012-04-19T23:50:52Z</time>
      </trkpt>
      <trkpt lat="45.04139" lon="5.5402">
        <ele>1093</ele>
        <time>2012-04-19T23:50:56Z</time>
      </trkpt>
      <trkpt lat="45.04137" lon="5.54009">
        <ele>1093</ele>
        <time>2012-04-19T23:50:58Z</time>
      </trkpt>
      <trkpt lat="45.04133" lon="5.53999">
        <ele>1092</ele>
        <time>2012-04-19T23:51:00Z</time>
      </trkpt>
      <trkpt lat="45.04131" lon="5.5399">
        <ele>1093</ele>
        <time>2012-04-19T23:51:01Z</time>
      </trkpt>
      <trkpt lat="45.04127" lon="5.53981">
        <ele>1093</ele>
        <time>2012-04-19T23:51:03Z</time>
      </trkpt>
      <trkpt lat="45.04122" lon="5.53971">
        <ele>1093</ele>
        <time>2012-04-19T23:51:05Z</time>
      </trkpt>
      <trkpt lat="45.0412" lon="5.53958">
        <ele>1093</ele>
        <time>2012-04-19T23:51:07Z</time>
      </trkpt>
      <trkpt lat="45.04118" lon="5.53947">
        <ele>1093</ele>
        <time>2012-04-19T23:51:09Z</time>
      </trkpt>
      <trkpt lat="45.0412" lon="5.5393">
        <ele>1093</ele>
        <time>2012-04-19T23:51:12Z</time>
      </trkpt>
      <trkpt lat="45.04122" lon="5.53921">
        <ele>1093</ele>
        <time>2012-04-19T23:51:13Z</time>
      </trkpt>
      <trkpt lat="45.04122" lon="5.53913">
        <ele>1089</ele>
        <time>2012-04-19T23:51:14Z</time>
      </trkpt>
      <trkpt lat="45.04122" lon="5.53904">
        <ele>1089</ele>
        <time>2012-04-19T23:51:15Z</time>
      </trkpt>
      <trkpt lat="45.0412" lon="5.539">
        <ele>1089</ele>
        <time>2012-04-19T23:51:16Z</time>
      </trkpt>
      <trkpt lat="45.04114" lon="5.53887">
        <ele>1089</ele>
        <time>2012-04-19T23:51:19Z</time>
      </trkpt>
      <trkpt lat="45.04109" lon="5.53883">
        <ele>1089</ele>
        <time>2012-04-19T23:51:20Z</time>
      </trkpt>
      <trkpt lat="45.04103" lon="5.53876">
        <ele>1089</ele>
        <time>2012-04-19T23:51:22Z</time>
      </trkpt>
      <trkpt lat="45.04099" lon="5.53872">
        <ele>1089</ele>
        <time>2012-04-19T23:51:23Z</time>
      </trkpt>
      <trkpt lat="45.04092" lon="5.53868">
        <ele>1089</ele>
        <time>2012-04-19T23:51:24Z</time>
      </trkpt>
      <trkpt lat="45.04086" lon="5.53863">
        <ele>1089</ele>
        <time>2012-04-19T23:51:25Z</time>
      </trkpt>
      <trkpt lat="45.04082" lon="5.53861">
        <ele>1098</ele>
        <time>2012-04-19T23:51:26Z</time>
      </trkpt>
      <trkpt lat="45.04073" lon="5.53859">
        <ele>1098</ele>
        <time>2012-04-19T23:51:28Z</time>
      </trkpt>
      <trkpt lat="45.04064" lon="5.53855">
        <ele>1098</ele>
        <time>2012-04-19T23:51:30Z</time>
      </trkpt>
      <trkpt lat="45.04058" lon="5.53853">
        <ele>1099</ele>
        <time>2012-04-19T23:51:31Z</time>
      </trkpt>
      <trkpt lat="45.04051" lon="5.53848">
        <ele>1099</ele>
        <time>2012-04-19T23:51:32Z</time>
      </trkpt>
      <trkpt lat="45.04039" lon="5.53838">
        <ele>1100</ele>
        <time>2012-04-19T23:51:36Z</time>
      </trkpt>
      <trkpt lat="45.0403" lon="5.53827">
        <ele>1095</ele>
        <time>2012-04-19T23:51:39Z</time>
      </trkpt>
      <trkpt lat="45.04021" lon="5.5382">
        <ele>1096</ele>
        <time>2012-04-19T23:51:41Z</time>
      </trkpt>
      <trkpt lat="45.04011" lon="5.53812">
        <ele>1096</ele>
        <time>2012-04-19T23:51:44Z</time>
      </trkpt>
      <trkpt lat="45.03994" lon="5.53799">
        <ele>1101</ele>
        <time>2012-04-19T23:51:49Z</time>
      </trkpt>
      <trkpt lat="45.03989" lon="5.53794">
        <ele>1101</ele>
        <time>2012-04-19T23:51:50Z</time>
      </trkpt>
      <trkpt lat="45.03968" lon="5.53771">
        <ele>1100</ele>
        <time>2012-04-19T23:51:57Z</time>
      </trkpt>
      <trkpt lat="45.03961" lon="5.53765">
        <ele>1100</ele>
        <time>2012-04-19T23:51:59Z</time>
      </trkpt>
      <trkpt lat="45.03948" lon="5.53756">
        <ele>1101</ele>
        <time>2012-04-19T23:52:02Z</time>
      </trkpt>
      <trkpt lat="45.03931" lon="5.53743">
        <ele>1096</ele>
        <time>2012-04-19T23:52:07Z</time>
      </trkpt>
      <trkpt lat="45.03929" lon="5.53739">
        <ele>1096</ele>
        <time>2012-04-19T23:52:08Z</time>
      </trkpt>
      <trkpt lat="45.03912" lon="5.53715">
        <ele>1098</ele>
        <time>2012-04-19T23:52:14Z</time>
      </trkpt>
      <trkpt lat="45.03895" lon="5.53698">
        <ele>1097</ele>
        <time>2012-04-19T23:52:19Z</time>
      </trkpt>
      <trkpt lat="45.03886" lon="5.53687">
        <ele>1097</ele>
        <time>2012-04-19T23:52:22Z</time>
      </trkpt>
      <trkpt lat="45.0388" lon="5.53679">
        <ele>1097</ele>
        <time>2012-04-19T23:52:24Z</time>
      </trkpt>
      <trkpt lat="45.03876" lon="5.53672">
        <ele>1097</ele>
        <time>2012-04-19T23:52:25Z</time>
      </trkpt>
      <trkpt lat="45.03863" lon="5.53659">
        <ele>1094</ele>
        <time>2012-04-19T23:52:29Z</time>
      </trkpt>
      <trkpt lat="45.03848" lon="5.53644">
        <ele>1095</ele>
        <time>2012-04-19T23:52:34Z</time>
      </trkpt>
      <trkpt lat="45.0383" lon="5.53621">
        <ele>1098</ele>
        <time>2012-04-19T23:52:40Z</time>
      </trkpt>
      <trkpt lat="45.03777" lon="5.53565">
        <ele>1096</ele>
        <time>2012-04-19T23:52:58Z</time>
      </trkpt>
      <trkpt lat="45.03764" lon="5.53554">
        <ele>1096</ele>
        <time>2012-04-19T23:53:02Z</time>
      </trkpt>
      <trkpt lat="45.03751" lon="5.53546">
        <ele>1095</ele>
        <time>2012-04-19T23:53:05Z</time>
      </trkpt>
      <trkpt lat="45.03738" lon="5.53535">
        <ele>1101</ele>
        <time>2012-04-19T23:53:09Z</time>
      </trkpt>
      <trkpt lat="45.03727" lon="5.53524">
        <ele>1100</ele>
        <time>2012-04-19T23:53:12Z</time>
      </trkpt>
      <trkpt lat="45.03715" lon="5.53514">
        <ele>1101</ele>
        <time>2012-04-19T23:53:16Z</time>
      </trkpt>
      <trkpt lat="45.03706" lon="5.53505">
        <ele>1102</ele>
        <time>2012-04-19T23:53:18Z</time>
      </trkpt>
      <trkpt lat="45.037" lon="5.53497">
        <ele>1100</ele>
        <time>2012-04-19T23:53:20Z</time>
      </trkpt>
      <trkpt lat="45.03687" lon="5.53479">
        <ele>1101</ele>
        <time>2012-04-19T23:53:25Z</time>
      </trkpt>
      <trkpt lat="45.03672" lon="5.53453">
        <ele>1099</ele>
        <time>2012-04-19T23:53:31Z</time>
      </trkpt>
      <trkpt lat="45.03657" lon="5.53432">
        <ele>1099</ele>
        <time>2012-04-19T23:53:36Z</time>
      </trkpt>
      <trkpt lat="45.03652" lon="5.53417">
        <ele>1098</ele>
        <time>2012-04-19T23:53:39Z</time>
      </trkpt>
      <trkpt lat="45.03655" lon="5.53406">
        <ele>1095</ele>
        <time>2012-04-19T23:53:41Z</time>
      </trkpt>
      <trkpt lat="45.03648" lon="5.53402">
        <ele>1096</ele>
        <time>2012-04-19T23:53:42Z</time>
      </trkpt>
      <trkpt lat="45.03642" lon="5.53396">
        <ele>1096</ele>
        <time>2012-04-19T23:53:44Z</time>
      </trkpt>
      <trkpt lat="45.03633" lon="5.53393">
        <ele>1097</ele>
        <time>2012-04-19T23:53:46Z</time>
      </trkpt>
      <trkpt lat="45.03614" lon="5.53385">
        <ele>1097</ele>
        <time>2012-04-19T23:53:51Z</time>
      </trkpt>
      <trkpt lat="45.0359" lon="5.53376">
        <ele>1097</ele>
        <time>2012-04-19T23:53:57Z</time>
      </trkpt>
      <trkpt lat="45.03584" lon="5.53374">
        <ele>1097</ele>
        <time>2012-04-19T23:53:58Z</time>
      </trkpt>
      <trkpt lat="45.03567" lon="5.5337">
        <ele>1096</ele>
        <time>2012-04-19T23:54:02Z</time>
      </trkpt>
      <trkpt lat="45.03543" lon="5.53366">
        <ele>1097</ele>
        <time>2012-04-19T23:54:08Z</time>
      </trkpt>
      <trkpt lat="45.03502" lon="5.53355">
        <ele>1095</ele>
        <time>2012-04-19T23:54:19Z</time>
      </trkpt>
      <trkpt lat="45.03494" lon="5.53353">
        <ele>1098</ele>
        <time>2012-04-19T23:54:21Z</time>
      </trkpt>
      <trkpt lat="45.03485" lon="5.53348">
        <ele>1098</ele>
        <time>2012-04-19T23:54:23Z</time>
      </trkpt>
      <trkpt lat="45.03468" lon="5.5334">
        <ele>1099</ele>
        <time>2012-04-19T23:54:28Z</time>
      </trkpt>
      <trkpt lat="45.03431" lon="5.53312">
        <ele>1094</ele>
        <time>2012-04-19T23:54:39Z</time>
      </trkpt>
      <trkpt lat="45.03418" lon="5.53301">
        <ele>1094</ele>
        <time>2012-04-19T23:54:43Z</time>
      </trkpt>
      <trkpt lat="45.03406" lon="5.5329">
        <ele>1099</ele>
        <time>2012-04-19T23:54:47Z</time>
      </trkpt>
      <trkpt lat="45.03397" lon="5.5328">
        <ele>1099</ele>
        <time>2012-04-19T23:54:50Z</time>
      </trkpt>
      <trkpt lat="45.03388" lon="5.53267">
        <ele>1099</ele>
        <time>2012-04-19T23:54:53Z</time>
      </trkpt>
      <trkpt lat="45.0338" lon="5.53254">
        <ele>1099</ele>
        <time>2012-04-19T23:54:56Z</time>
      </trkpt>
      <trkpt lat="45.03373" lon="5.53243">
        <ele>1097</ele>
        <time>2012-04-19T23:54:58Z</time>
      </trkpt>
      <trkpt lat="45.03367" lon="5.53232">
        <ele>1097</ele>
        <time>2012-04-19T23:55:00Z</time>
      </trkpt>
      <trkpt lat="45.03361" lon="5.53217">
        <ele>1097</ele>
        <time>2012-04-19T23:55:03Z</time>
      </trkpt>
      <trkpt lat="45.03356" lon="5.53209">
        <ele>1097</ele>
        <time>2012-04-19T23:55:05Z</time>
      </trkpt>
      <trkpt lat="45.03352" lon="5.53196">
        <ele>1096</ele>
        <time>2012-04-19T23:55:07Z</time>
      </trkpt>
      <trkpt lat="45.0335" lon="5.53183">
        <ele>1096</ele>
        <time>2012-04-19T23:55:09Z</time>
      </trkpt>
      <trkpt lat="45.03346" lon="5.53168">
        <ele>1096</ele>
        <time>2012-04-19T23:55:12Z</time>
      </trkpt>
      <trkpt lat="45.03341" lon="5.53153">
        <ele>1095</ele>
        <time>2012-04-19T23:55:15Z</time>
      </trkpt>
      <trkpt lat="45.03339" lon="5.53136">
        <ele>1094</ele>
        <time>2012-04-19T23:55:18Z</time>
      </trkpt>
      <trkpt lat="45.03335" lon="5.53123">
        <ele>1094</ele>
        <time>2012-04-19T23:55:20Z</time>
      </trkpt>
      <trkpt lat="45.03328" lon="5.53125">
        <ele>1096</ele>
        <time>2012-04-19T23:55:21Z</time>
      </trkpt>
      <trkpt lat="45.03315" lon="5.53132">
        <ele>1097</ele>
        <time>2012-04-19T23:55:24Z</time>
      </trkpt>
      <trkpt lat="45.03307" lon="5.53136">
        <ele>1097</ele>
        <time>2012-04-19T23:55:26Z</time>
      </trkpt>
      <trkpt lat="45.03298" lon="5.53142">
        <ele>1097</ele>
        <time>2012-04-19T23:55:28Z</time>
      </trkpt>
      <trkpt lat="45.03294" lon="5.53147">
        <ele>1098</ele>
        <time>2012-04-19T23:55:29Z</time>
      </trkpt>
      <trkpt lat="45.0329" lon="5.53147">
        <ele>1098</ele>
        <time>2012-04-19T23:55:30Z</time>
      </trkpt>
      <trkpt lat="45.03285" lon="5.53147">
        <ele>1098</ele>
        <time>2012-04-19T23:55:31Z</time>
      </trkpt>
      <trkpt lat="45.03279" lon="5.53144">
        <ele>1098</ele>
        <time>2012-04-19T23:55:32Z</time>
      </trkpt>
      <trkpt lat="45.03277" lon="5.5314">
        <ele>1098</ele>
        <time>2012-04-19T23:55:33Z</time>
      </trkpt>
      <trkpt lat="45.03268" lon="5.53129">
        <ele>1098</ele>
        <time>2012-04-19T23:55:36Z</time>
      </trkpt>
      <trkpt lat="45.03253" lon="5.53102">
        <ele>1098</ele>
        <time>2012-04-19T23:55:42Z</time>
      </trkpt>
      <trkpt lat="45.03247" lon="5.53091">
        <ele>1100</ele>
        <time>2012-04-19T23:55:44Z</time>
      </trkpt>
      <trkpt lat="45.03234" lon="5.53078">
        <ele>1100</ele>
        <time>2012-04-19T23:55:48Z</time>
      </trkpt>
      <trkpt lat="45.03225" lon="5.53069">
        <ele>1101</ele>
        <time>2012-04-19T23:55:50Z</time>
      </trkpt>
      <trkpt lat="45.03206" lon="5.53057">
        <ele>1102</ele>
        <time>2012-04-19T23:55:55Z</time>
      </trkpt>
      <trkpt lat="45.03187" lon="5.53046">
        <ele>1103</ele>
        <time>2012-04-19T23:56:00Z</time>
      </trkpt>
      <trkpt lat="45.0318" lon="5.53041">
        <ele>1103</ele>
        <time>2012-04-19T23:56:01Z</time>
      </trkpt>
      <trkpt lat="45.03176" lon="5.53041">
        <ele>1103</ele>
        <time>2012-04-19T23:56:02Z</time>
      </trkpt>
      <trkpt lat="45.03176" lon="5.53035">
        <ele>1102</ele>
        <time>2012-04-19T23:56:03Z</time>
      </trkpt>
      <trkpt lat="45.03176" lon="5.53029">
        <ele>1102</ele>
        <time>2012-04-19T23:56:04Z</time>
      </trkpt>
      <trkpt lat="45.03178" lon="5.53018">
        <ele>1102</ele>
        <time>2012-04-19T23:56:06Z</time>
      </trkpt>
      <trkpt lat="45.03178" lon="5.53009">
        <ele>1102</ele>
        <time>2012-04-19T23:56:07Z</time>
      </trkpt>
      <trkpt lat="45.03178" lon="5.52999">
        <ele>1101</ele>
        <time>2012-04-19T23:56:09Z</time>
      </trkpt>
      <trkpt lat="45.0317" lon="5.52977">
        <ele>1101</ele>
        <time>2012-04-19T23:56:13Z</time>
      </trkpt>
      <trkpt lat="45.03163" lon="5.52962">
        <ele>1103</ele>
        <time>2012-04-19T23:56:16Z</time>
      </trkpt>
      <trkpt lat="45.03152" lon="5.52949">
        <ele>1103</ele>
        <time>2012-04-19T23:56:19Z</time>
      </trkpt>
      <trkpt lat="45.03142" lon="5.52938">
        <ele>1103</ele>
        <time>2012-04-19T23:56:22Z</time>
      </trkpt>
      <trkpt lat="45.03139" lon="5.52935">
        <ele>1103</ele>
        <time>2012-04-19T23:56:23Z</time>
      </trkpt>
      <trkpt lat="45.03129" lon="5.52923">
        <ele>1103</ele>
        <time>2012-04-19T23:56:26Z</time>
      </trkpt>
      <trkpt lat="45.03114" lon="5.52904">
        <ele>1102</ele>
        <time>2012-04-19T23:56:31Z</time>
      </trkpt>
      <trkpt lat="45.03107" lon="5.52891">
        <ele>1102</ele>
        <time>2012-04-19T23:56:34Z</time>
      </trkpt>
      <trkpt lat="45.03107" lon="5.52887">
        <ele>1102</ele>
        <time>2012-04-19T23:56:34Z</time>
      </trkpt>
      <trkpt lat="45.03105" lon="5.52883">
        <ele>1102</ele>
        <time>2012-04-19T23:56:35Z</time>
      </trkpt>
      <trkpt lat="45.03105" lon="5.52876">
        <ele>1102</ele>
        <time>2012-04-19T23:56:36Z</time>
      </trkpt>
      <trkpt lat="45.03105" lon="5.52853">
        <ele>1102</ele>
        <time>2012-04-19T23:56:40Z</time>
      </trkpt>
      <trkpt lat="45.03105" lon="5.5284">
        <ele>1102</ele>
        <time>2012-04-19T23:56:42Z</time>
      </trkpt>
      <trkpt lat="45.03103" lon="5.52831">
        <ele>1102</ele>
        <time>2012-04-19T23:56:43Z</time>
      </trkpt>
      <trkpt lat="45.03103" lon="5.52825">
        <ele>1102</ele>
        <time>2012-04-19T23:56:44Z</time>
      </trkpt>
      <trkpt lat="45.03101" lon="5.5281">
        <ele>1103</ele>
        <time>2012-04-19T23:56:47Z</time>
      </trkpt>
      <trkpt lat="45.03101" lon="5.52803">
        <ele>1103</ele>
        <time>2012-04-19T23:56:48Z</time>
      </trkpt>
      <trkpt lat="45.03099" lon="5.52788">
        <ele>1103</ele>
        <time>2012-04-19T23:56:51Z</time>
      </trkpt>
      <trkpt lat="45.03097" lon="5.52773">
        <ele>1103</ele>
        <time>2012-04-19T23:56:54Z</time>
      </trkpt>
      <trkpt lat="45.0309" lon="5.52745">
        <ele>1103</ele>
        <time>2012-04-19T23:56:59Z</time>
      </trkpt>
      <trkpt lat="45.03082" lon="5.52754">
        <ele>1102</ele>
        <time>2012-04-19T23:57:01Z</time>
      </trkpt>
      <trkpt lat="45.03073" lon="5.5276">
        <ele>1103</ele>
        <time>2012-04-19T23:57:03Z</time>
      </trkpt>
      <trkpt lat="45.03067" lon="5.52765">
        <ele>1103</ele>
        <time>2012-04-19T23:57:04Z</time>
      </trkpt>
      <trkpt lat="45.03062" lon="5.52765">
        <ele>1103</ele>
        <time>2012-04-19T23:57:05Z</time>
      </trkpt>
      <trkpt lat="45.03039" lon="5.52769">
        <ele>1104</ele>
        <time>2012-04-19T23:57:11Z</time>
      </trkpt>
      <trkpt lat="45.03006" lon="5.52778">
        <ele>1104</ele>
        <time>2012-04-19T23:57:20Z</time>
      </trkpt>
      <trkpt lat="45.02987" lon="5.52778">
        <ele>1108</ele>
        <time>2012-04-19T23:57:25Z</time>
      </trkpt>
      <trkpt lat="45.02981" lon="5.52765">
        <ele>1108</ele>
        <time>2012-04-19T23:57:28Z</time>
      </trkpt>
      <trkpt lat="45.02974" lon="5.52763">
        <ele>1108</ele>
        <time>2012-04-19T23:57:29Z</time>
      </trkpt>
      <trkpt lat="45.02972" lon="5.52758">
        <ele>1108</ele>
        <time>2012-04-19T23:57:30Z</time>
      </trkpt>
      <trkpt lat="45.02968" lon="5.52754">
        <ele>1108</ele>
        <time>2012-04-19T23:57:31Z</time>
      </trkpt>
      <trkpt lat="45.02961" lon="5.52752">
        <ele>1109</ele>
        <time>2012-04-19T23:57:32Z</time>
      </trkpt>
      <trkpt lat="45.02957" lon="5.52752">
        <ele>1109</ele>
        <time>2012-04-19T23:57:33Z</time>
      </trkpt>
      <trkpt lat="45.02949" lon="5.52752">
        <ele>1109</ele>
        <time>2012-04-19T23:57:35Z</time>
      </trkpt>
      <trkpt lat="45.02934" lon="5.52756">
        <ele>1110</ele>
        <time>2012-04-19T23:57:39Z</time>
      </trkpt>
      <trkpt lat="45.02925" lon="5.52745">
        <ele>1109</ele>
        <time>2012-04-19T23:57:42Z</time>
      </trkpt>
      <trkpt lat="45.02914" lon="5.52722">
        <ele>1113</ele>
        <time>2012-04-19T23:57:47Z</time>
      </trkpt>
      <trkpt lat="45.02908" lon="5.52717">
        <ele>1113</ele>
        <time>2012-04-19T23:57:48Z</time>
      </trkpt>
      <trkpt lat="45.02906" lon="5.52714">
        <ele>1113</ele>
        <time>2012-04-19T23:57:48Z</time>
      </trkpt>
      <trkpt lat="45.02903" lon="5.52711">
        <ele>1113</ele>
        <time>2012-04-19T23:57:48Z</time>
      </trkpt>
      <trkpt lat="45.02897" lon="5.52707">
        <ele>1113</ele>
        <time>2012-04-19T23:57:49Z</time>
      </trkpt>
      <trkpt lat="45.02891" lon="5.52698">
        <ele>1113</ele>
        <time>2012-04-19T23:57:51Z</time>
      </trkpt>
      <trkpt lat="45.02884" lon="5.52694">
        <ele>1114</ele>
        <time>2012-04-19T23:57:52Z</time>
      </trkpt>
      <trkpt lat="45.02878" lon="5.5269">
        <ele>1114</ele>
        <time>2012-04-19T23:57:53Z</time>
      </trkpt>
      <trkpt lat="45.02869" lon="5.52683">
        <ele>1115</ele>
        <time>2012-04-19T23:57:55Z</time>
      </trkpt>
      <trkpt lat="45.02861" lon="5.52679">
        <ele>1115</ele>
        <time>2012-04-19T23:57:57Z</time>
      </trkpt>
      <trkpt lat="45.02852" lon="5.52677">
        <ele>1116</ele>
        <time>2012-04-19T23:57:59Z</time>
      </trkpt>
      <trkpt lat="45.02843" lon="5.52675">
        <ele>1117</ele>
        <time>2012-04-19T23:58:01Z</time>
      </trkpt>
      <trkpt lat="45.02833" lon="5.52672">
        <ele>1120</ele>
        <time>2012-04-19T23:58:04Z</time>
      </trkpt>
      <trkpt lat="45.02826" lon="5.5267">
        <ele>1120</ele>
        <time>2012-04-19T23:58:05Z</time>
      </trkpt>
      <trkpt lat="45.02809" lon="5.52666">
        <ele>1121</ele>
        <time>2012-04-19T23:58:09Z</time>
      </trkpt>
      <trkpt lat="45.02805" lon="5.52664">
        <ele>1121</ele>
        <time>2012-04-19T23:58:10Z</time>
      </trkpt>
      <trkpt lat="45.02803" lon="5.52657">
        <ele>1121</ele>
        <time>2012-04-19T23:58:11Z</time>
      </trkpt>
      <trkpt lat="45.02803" lon="5.52651">
        <ele>1121</ele>
        <time>2012-04-19T23:58:12Z</time>
      </trkpt>
      <trkpt lat="45.028" lon="5.52632">
        <ele>1121</ele>
        <time>2012-04-19T23:58:15Z</time>
      </trkpt>
      <trkpt lat="45.028" lon="5.52614">
        <ele>1121</ele>
        <time>2012-04-19T23:58:18Z</time>
      </trkpt>
      <trkpt lat="45.028" lon="5.52606">
        <ele>1121</ele>
        <time>2012-04-19T23:58:19Z</time>
      </trkpt>
      <trkpt lat="45.028" lon="5.52597">
        <ele>1121</ele>
        <time>2012-04-19T23:58:20Z</time>
      </trkpt>
      <trkpt lat="45.028" lon="5.52593">
        <ele>1121</ele>
        <time>2012-04-19T23:58:20Z</time>
      </trkpt>
      <trkpt lat="45.02798" lon="5.52587">
        <ele>1121</ele>
        <time>2012-04-19T23:58:21Z</time>
      </trkpt>
      <trkpt lat="45.02798" lon="5.52576">
        <ele>1120</ele>
        <time>2012-04-19T23:58:23Z</time>
      </trkpt>
      <trkpt lat="45.02798" lon="5.52572">
        <ele>1120</ele>
        <time>2012-04-19T23:58:23Z</time>
      </trkpt>
      <trkpt lat="45.02798" lon="5.52565">
        <ele>1120</ele>
        <time>2012-04-19T23:58:24Z</time>
      </trkpt>
      <trkpt lat="45.02798" lon="5.52559">
        <ele>1120</ele>
        <time>2012-04-19T23:58:25Z</time>
      </trkpt>
      <trkpt lat="45.02798" lon="5.52552">
        <ele>1120</ele>
        <time>2012-04-19T23:58:26Z</time>
      </trkpt>
      <trkpt lat="45.02798" lon="5.52544">
        <ele>1120</ele>
        <time>2012-04-19T23:58:27Z</time>
      </trkpt>
      <trkpt lat="45.02796" lon="5.52533">
        <ele>1120</ele>
        <time>2012-04-19T23:58:29Z</time>
      </trkpt>
      <trkpt lat="45.02794" lon="5.52522">
        <ele>1120</ele>
        <time>2012-04-19T23:58:31Z</time>
      </trkpt>
      <trkpt lat="45.02794" lon="5.52509">
        <ele>1120</ele>
        <time>2012-04-19T23:58:33Z</time>
      </trkpt>
      <trkpt lat="45.02779" lon="5.52511">
        <ele>1120</ele>
        <time>2012-04-19T23:58:37Z</time>
      </trkpt>
      <trkpt lat="45.02764" lon="5.52511">
        <ele>1121</ele>
        <time>2012-04-19T23:58:41Z</time>
      </trkpt>
      <trkpt lat="45.02753" lon="5.52511">
        <ele>1121</ele>
        <time>2012-04-19T23:58:43Z</time>
      </trkpt>
      <trkpt lat="45.02745" lon="5.52509">
        <ele>1123</ele>
        <time>2012-04-19T23:58:45Z</time>
      </trkpt>
      <trkpt lat="45.02734" lon="5.52509">
        <ele>1124</ele>
        <time>2012-04-19T23:58:47Z</time>
      </trkpt>
      <trkpt lat="45.02728" lon="5.52509">
        <ele>1125</ele>
        <time>2012-04-19T23:58:48Z</time>
      </trkpt>
      <trkpt lat="45.02719" lon="5.52509">
        <ele>1126</ele>
        <time>2012-04-19T23:58:50Z</time>
      </trkpt>
      <trkpt lat="45.02715" lon="5.52509">
        <ele>1126</ele>
        <time>2012-04-19T23:58:51Z</time>
      </trkpt>
      <trkpt lat="45.02698" lon="5.52477">
        <ele>1127</ele>
        <time>2012-04-19T23:58:58Z</time>
      </trkpt>
      <trkpt lat="45.02693" lon="5.52462">
        <ele>1126</ele>
        <time>2012-04-19T23:59:01Z</time>
      </trkpt>
      <trkpt lat="45.02682" lon="5.52436">
        <ele>1127</ele>
        <time>2012-04-19T23:59:06Z</time>
      </trkpt>
      <trkpt lat="45.0268" lon="5.52428">
        <ele>1127</ele>
        <time>2012-04-19T23:59:07Z</time>
      </trkpt>
      <trkpt lat="45.02676" lon="5.52417">
        <ele>1127</ele>
        <time>2012-04-19T23:59:09Z</time>
      </trkpt>
      <trkpt lat="45.02667" lon="5.52404">
        <ele>1127</ele>
        <time>2012-04-19T23:59:12Z</time>
      </trkpt>
      <trkpt lat="45.02657" lon="5.52385">
        <ele>1133</ele>
        <time>2012-04-19T23:59:16Z</time>
      </trkpt>
      <trkpt lat="45.0265" lon="5.52372">
        <ele>1134</ele>
        <time>2012-04-19T23:59:19Z</time>
      </trkpt>
      <trkpt lat="45.0264" lon="5.52355">
        <ele>1134</ele>
        <time>2012-04-19T23:59:23Z</time>
      </trkpt>
      <trkpt lat="45.02633" lon="5.52344">
        <ele>1135</ele>
        <time>2012-04-19T23:59:25Z</time>
      </trkpt>
      <trkpt lat="45.0262" lon="5.52333">
        <ele>1137</ele>
        <time>2012-04-19T23:59:29Z</time>
      </trkpt>
      <trkpt lat="45.02614" lon="5.52327">
        <ele>1137</ele>
        <time>2012-04-19T23:59:31Z</time>
      </trkpt>
      <trkpt lat="45.02612" lon="5.52318">
        <ele>1138</ele>
        <time>2012-04-19T23:59:32Z</time>
      </trkpt>
      <trkpt lat="45.02614" lon="5.52295">
        <ele>1137</ele>
        <time>2012-04-19T23:59:36Z</time>
      </trkpt>
      <trkpt lat="45.02618" lon="5.5228">
        <ele>1137</ele>
        <time>2012-04-19T23:59:39Z</time>
      </trkpt>
      <trkpt lat="45.02622" lon="5.52265">
        <ele>1136</ele>
        <time>2012-04-19T23:59:42Z</time>
      </trkpt>
      <trkpt lat="45.02627" lon="5.5225">
        <ele>1133</ele>
        <time>2012-04-19T23:59:45Z</time>
      </trkpt>
      <trkpt lat="45.02629" lon="5.52224">
        <ele>1132</ele>
        <time>2012-04-19T23:59:50Z</time>
      </trkpt>
      <trkpt lat="45.02631" lon="5.52209">
        <ele>1132</ele>
        <time>2012-04-19T23:59:53Z</time>
      </trkpt>
      <trkpt lat="45.02629" lon="5.52205">
        <ele>1132</ele>
        <time>2012-04-19T23:59:54Z</time>
      </trkpt>
      <trkpt lat="45.02629" lon="5.522">
        <ele>1132</ele>
        <time>2012-04-19T23:59:54Z</time>
      </trkpt>
      <trkpt lat="45.02629" lon="5.52194">
        <ele>1131</ele>
        <time>2012-04-19T23:59:55Z</time>
      </trkpt>
      <trkpt lat="45.02631" lon="5.52187">
        <ele>1131</ele>
        <time>2012-04-19T23:59:56Z</time>
      </trkpt>
      <trkpt lat="45.02631" lon="5.52183">
        <ele>1131</ele>
        <time>2012-04-19T23:59:56Z</time>
      </trkpt>
      <trkpt lat="45.02631" lon="5.52177">
        <ele>1130</ele>
        <time>2012-04-19T23:59:57Z</time>
      </trkpt>
      <trkpt lat="45.02629" lon="5.52168">
        <ele>1130</ele>
        <time>2012-04-19T23:59:58Z</time>
      </trkpt>
      <trkpt lat="45.02625" lon="5.52162">
        <ele>1127</ele>
        <time>2012-04-19T23:59:59Z</time>
      </trkpt>
      <trkpt lat="45.02618" lon="5.52155">
        <ele>1128</ele>
        <time>2012-04-20T00:00:01Z</time>
      </trkpt>
      <trkpt lat="45.02616" lon="5.52147">
        <ele>1128</ele>
        <time>2012-04-20T00:00:02Z</time>
      </trkpt>
      <trkpt lat="45.0261" lon="5.52145">
        <ele>1128</ele>
        <time>2012-04-20T00:00:03Z</time>
      </trkpt>
      <trkpt lat="45.02601" lon="5.52138">
        <ele>1129</ele>
        <time>2012-04-20T00:00:05Z</time>
      </trkpt>
      <trkpt lat="45.02597" lon="5.52136">
        <ele>1129</ele>
        <time>2012-04-20T00:00:06Z</time>
      </trkpt>
      <trkpt lat="45.02588" lon="5.5213">
        <ele>1129</ele>
        <time>2012-04-20T00:00:08Z</time>
      </trkpt>
      <trkpt lat="45.02586" lon="5.52125">
        <ele>1129</ele>
        <time>2012-04-20T00:00:09Z</time>
      </trkpt>
      <trkpt lat="45.02586" lon="5.52121">
        <ele>1129</ele>
        <time>2012-04-20T00:00:09Z</time>
      </trkpt>
      <trkpt lat="45.02582" lon="5.52115">
        <ele>1138</ele>
        <time>2012-04-20T00:00:10Z</time>
      </trkpt>
      <trkpt lat="45.02579" lon="5.5211">
        <ele>1137</ele>
        <time>2012-04-20T00:00:11Z</time>
      </trkpt>
      <trkpt lat="45.02577" lon="5.52106">
        <ele>1137</ele>
        <time>2012-04-20T00:00:12Z</time>
      </trkpt>
      <trkpt lat="45.02575" lon="5.52102">
        <ele>1136</ele>
        <time>2012-04-20T00:00:13Z</time>
      </trkpt>
      <trkpt lat="45.02577" lon="5.52097">
        <ele>1136</ele>
        <time>2012-04-20T00:00:14Z</time>
      </trkpt>
      <trkpt lat="45.02584" lon="5.52091">
        <ele>1130</ele>
        <time>2012-04-20T00:00:16Z</time>
      </trkpt>
      <trkpt lat="45.02595" lon="5.52082">
        <ele>1128</ele>
        <time>2012-04-20T00:00:19Z</time>
      </trkpt>
      <trkpt lat="45.02601" lon="5.52076">
        <ele>1127</ele>
        <time>2012-04-20T00:00:21Z</time>
      </trkpt>
      <trkpt lat="45.02607" lon="5.52072">
        <ele>1126</ele>
        <time>2012-04-20T00:00:22Z</time>
      </trkpt>
      <trkpt lat="45.02614" lon="5.52061">
        <ele>1125</ele>
        <time>2012-04-20T00:00:24Z</time>
      </trkpt>
      <trkpt lat="45.0262" lon="5.52048">
        <ele>1124</ele>
        <time>2012-04-20T00:00:27Z</time>
      </trkpt>
      <trkpt lat="45.0261" lon="5.52046">
        <ele>1125</ele>
        <time>2012-04-20T00:00:30Z</time>
      </trkpt>
      <trkpt lat="45.02603" lon="5.52035">
        <ele>1125</ele>
        <time>2012-04-20T00:00:32Z</time>
      </trkpt>
      <trkpt lat="45.02597" lon="5.52027">
        <ele>1125</ele>
        <time>2012-04-20T00:00:34Z</time>
      </trkpt>
      <trkpt lat="45.0259" lon="5.52016">
        <ele>1125</ele>
        <time>2012-04-20T00:00:36Z</time>
      </trkpt>
      <trkpt lat="45.02582" lon="5.52005">
        <ele>1129</ele>
        <time>2012-04-20T00:00:39Z</time>
      </trkpt>
      <trkpt lat="45.02573" lon="5.51999">
        <ele>1130</ele>
        <time>2012-04-20T00:00:41Z</time>
      </trkpt>
      <trkpt lat="45.02567" lon="5.51992">
        <ele>1132</ele>
        <time>2012-04-20T00:00:43Z</time>
      </trkpt>
      <trkpt lat="45.0256" lon="5.51988">
        <ele>1133</ele>
        <time>2012-04-20T00:00:44Z</time>
      </trkpt>
      <trkpt lat="45.02554" lon="5.51981">
        <ele>1134</ele>
        <time>2012-04-20T00:00:46Z</time>
      </trkpt>
      <trkpt lat="45.02541" lon="5.51966">
        <ele>1136</ele>
        <time>2012-04-20T00:00:50Z</time>
      </trkpt>
      <trkpt lat="45.02537" lon="5.51962">
        <ele>1137</ele>
        <time>2012-04-20T00:00:51Z</time>
      </trkpt>
      <trkpt lat="45.0253" lon="5.51956">
        <ele>1137</ele>
        <time>2012-04-20T00:00:53Z</time>
      </trkpt>
      <trkpt lat="45.02524" lon="5.51951">
        <ele>1138</ele>
        <time>2012-04-20T00:00:54Z</time>
      </trkpt>
      <trkpt lat="45.02519" lon="5.51945">
        <ele>1138</ele>
        <time>2012-04-20T00:00:55Z</time>
      </trkpt>
      <trkpt lat="45.02515" lon="5.51936">
        <ele>1139</ele>
        <time>2012-04-20T00:00:57Z</time>
      </trkpt>
      <trkpt lat="45.02513" lon="5.51928">
        <ele>1140</ele>
        <time>2012-04-20T00:00:58Z</time>
      </trkpt>
      <trkpt lat="45.02509" lon="5.51915">
        <ele>1141</ele>
        <time>2012-04-20T00:01:00Z</time>
      </trkpt>
      <trkpt lat="45.02504" lon="5.51904">
        <ele>1140</ele>
        <time>2012-04-20T00:01:02Z</time>
      </trkpt>
      <trkpt lat="45.025" lon="5.51891">
        <ele>1139</ele>
        <time>2012-04-20T00:01:04Z</time>
      </trkpt>
      <trkpt lat="45.02494" lon="5.51885">
        <ele>1146</ele>
        <time>2012-04-20T00:01:06Z</time>
      </trkpt>
      <trkpt lat="45.02476" lon="5.51868">
        <ele>1146</ele>
        <time>2012-04-20T00:01:11Z</time>
      </trkpt>
      <trkpt lat="45.02472" lon="5.51863">
        <ele>1146</ele>
        <time>2012-04-20T00:01:12Z</time>
      </trkpt>
      <trkpt lat="45.02464" lon="5.51857">
        <ele>1147</ele>
        <time>2012-04-20T00:01:14Z</time>
      </trkpt>
      <trkpt lat="45.02459" lon="5.51848">
        <ele>1147</ele>
        <time>2012-04-20T00:01:16Z</time>
      </trkpt>
      <trkpt lat="45.02455" lon="5.5184">
        <ele>1147</ele>
        <time>2012-04-20T00:01:18Z</time>
      </trkpt>
      <trkpt lat="45.02451" lon="5.51831">
        <ele>1146</ele>
        <time>2012-04-20T00:01:20Z</time>
      </trkpt>
      <trkpt lat="45.02449" lon="5.51825">
        <ele>1146</ele>
        <time>2012-04-20T00:01:21Z</time>
      </trkpt>
      <trkpt lat="45.02449" lon="5.51816">
        <ele>1146</ele>
        <time>2012-04-20T00:01:22Z</time>
      </trkpt>
      <trkpt lat="45.02449" lon="5.51812">
        <ele>1146</ele>
        <time>2012-04-20T00:01:22Z</time>
      </trkpt>
      <trkpt lat="45.02451" lon="5.51808">
        <ele>1146</ele>
        <time>2012-04-20T00:01:23Z</time>
      </trkpt>
      <trkpt lat="45.02451" lon="5.51803">
        <ele>1146</ele>
        <time>2012-04-20T00:01:23Z</time>
      </trkpt>
      <trkpt lat="45.02444" lon="5.51793">
        <ele>1146</ele>
        <time>2012-04-20T00:01:25Z</time>
      </trkpt>
      <trkpt lat="45.02436" lon="5.51782">
        <ele>1146</ele>
        <time>2012-04-20T00:01:28Z</time>
      </trkpt>
      <trkpt lat="45.02425" lon="5.51771">
        <ele>1146</ele>
        <time>2012-04-20T00:01:31Z</time>
      </trkpt>
      <trkpt lat="45.02421" lon="5.51767">
        <ele>1146</ele>
        <time>2012-04-20T00:01:32Z</time>
      </trkpt>
      <trkpt lat="45.02416" lon="5.51765">
        <ele>1148</ele>
        <time>2012-04-20T00:01:33Z</time>
      </trkpt>
      <trkpt lat="45.02412" lon="5.51763">
        <ele>1148</ele>
        <time>2012-04-20T00:01:34Z</time>
      </trkpt>
      <trkpt lat="45.02408" lon="5.5176">
        <ele>1148</ele>
        <time>2012-04-20T00:01:35Z</time>
      </trkpt>
      <trkpt lat="45.02404" lon="5.51758">
        <ele>1148</ele>
        <time>2012-04-20T00:01:36Z</time>
      </trkpt>
      <trkpt lat="45.02399" lon="5.51756">
        <ele>1149</ele>
        <time>2012-04-20T00:01:37Z</time>
      </trkpt>
      <trkpt lat="45.02389" lon="5.51756">
        <ele>1150</ele>
        <time>2012-04-20T00:01:39Z</time>
      </trkpt>
      <trkpt lat="45.02384" lon="5.51754">
        <ele>1151</ele>
        <time>2012-04-20T00:01:40Z</time>
      </trkpt>
      <trkpt lat="45.02373" lon="5.51754">
        <ele>1152</ele>
        <time>2012-04-20T00:01:42Z</time>
      </trkpt>
      <trkpt lat="45.02367" lon="5.51754">
        <ele>1152</ele>
        <time>2012-04-20T00:01:43Z</time>
      </trkpt>
      <trkpt lat="45.02361" lon="5.51752">
        <ele>1153</ele>
        <time>2012-04-20T00:01:44Z</time>
      </trkpt>
      <trkpt lat="45.02356" lon="5.51752">
        <ele>1153</ele>
        <time>2012-04-20T00:01:45Z</time>
      </trkpt>
      <trkpt lat="45.02337" lon="5.51748">
        <ele>1155</ele>
        <time>2012-04-20T00:01:50Z</time>
      </trkpt>
      <trkpt lat="45.02339" lon="5.51739">
        <ele>1155</ele>
        <time>2012-04-20T00:01:51Z</time>
      </trkpt>
      <trkpt lat="45.02337" lon="5.51733">
        <ele>1155</ele>
        <time>2012-04-20T00:01:52Z</time>
      </trkpt>
      <trkpt lat="45.02335" lon="5.51728">
        <ele>1155</ele>
        <time>2012-04-20T00:01:53Z</time>
      </trkpt>
      <trkpt lat="45.02331" lon="5.51722">
        <ele>1158</ele>
        <time>2012-04-20T00:01:54Z</time>
      </trkpt>
      <trkpt lat="45.02326" lon="5.51718">
        <ele>1158</ele>
        <time>2012-04-20T00:01:55Z</time>
      </trkpt>
      <trkpt lat="45.02324" lon="5.51713">
        <ele>1158</ele>
        <time>2012-04-20T00:01:56Z</time>
      </trkpt>
      <trkpt lat="45.02324" lon="5.51707">
        <ele>1159</ele>
        <time>2012-04-20T00:01:57Z</time>
      </trkpt>
      <trkpt lat="45.02324" lon="5.517">
        <ele>1159</ele>
        <time>2012-04-20T00:01:58Z</time>
      </trkpt>
      <trkpt lat="45.02324" lon="5.51696">
        <ele>1159</ele>
        <time>2012-04-20T00:01:58Z</time>
      </trkpt>
      <trkpt lat="45.02324" lon="5.51692">
        <ele>1159</ele>
        <time>2012-04-20T00:01:58Z</time>
      </trkpt>
      <trkpt lat="45.02326" lon="5.51688">
        <ele>1160</ele>
        <time>2012-04-20T00:01:59Z</time>
      </trkpt>
      <trkpt lat="45.02326" lon="5.51681">
        <ele>1160</ele>
        <time>2012-04-20T00:02:00Z</time>
      </trkpt>
      <trkpt lat="45.02331" lon="5.51675">
        <ele>1160</ele>
        <time>2012-04-20T00:02:01Z</time>
      </trkpt>
      <trkpt lat="45.02337" lon="5.5167">
        <ele>1160</ele>
        <time>2012-04-20T00:02:02Z</time>
      </trkpt>
      <trkpt lat="45.02348" lon="5.51668">
        <ele>1159</ele>
        <time>2012-04-20T00:02:05Z</time>
      </trkpt>
      <trkpt lat="45.02352" lon="5.51668">
        <ele>1158</ele>
        <time>2012-04-20T00:02:06Z</time>
      </trkpt>
      <trkpt lat="45.02361" lon="5.51664">
        <ele>1163</ele>
        <time>2012-04-20T00:02:08Z</time>
      </trkpt>
      <trkpt lat="45.02365" lon="5.5166">
        <ele>1163</ele>
        <time>2012-04-20T00:02:09Z</time>
      </trkpt>
      <trkpt lat="45.02369" lon="5.51657">
        <ele>1163</ele>
        <time>2012-04-20T00:02:10Z</time>
      </trkpt>
      <trkpt lat="45.02369" lon="5.51653">
        <ele>1163</ele>
        <time>2012-04-20T00:02:10Z</time>
      </trkpt>
      <trkpt lat="45.02369" lon="5.51647">
        <ele>1163</ele>
        <time>2012-04-20T00:02:11Z</time>
      </trkpt>
      <trkpt lat="45.02365" lon="5.51638">
        <ele>1164</ele>
        <time>2012-04-20T00:02:13Z</time>
      </trkpt>
      <trkpt lat="45.02365" lon="5.51634">
        <ele>1164</ele>
        <time>2012-04-20T00:02:13Z</time>
      </trkpt>
      <trkpt lat="45.02365" lon="5.51625">
        <ele>1164</ele>
        <time>2012-04-20T00:02:14Z</time>
      </trkpt>
      <trkpt lat="45.02365" lon="5.51621">
        <ele>1164</ele>
        <time>2012-04-20T00:02:14Z</time>
      </trkpt>
      <trkpt lat="45.02369" lon="5.51615">
        <ele>1165</ele>
        <time>2012-04-20T00:02:15Z</time>
      </trkpt>
      <trkpt lat="45.02371" lon="5.5161">
        <ele>1165</ele>
        <time>2012-04-20T00:02:16Z</time>
      </trkpt>
      <trkpt lat="45.02373" lon="5.51606">
        <ele>1165</ele>
        <time>2012-04-20T00:02:17Z</time>
      </trkpt>
      <trkpt lat="45.02376" lon="5.51602">
        <ele>1165</ele>
        <time>2012-04-20T00:02:18Z</time>
      </trkpt>
      <trkpt lat="45.02378" lon="5.51597">
        <ele>1166</ele>
        <time>2012-04-20T00:02:19Z</time>
      </trkpt>
      <trkpt lat="45.0238" lon="5.51593">
        <ele>1166</ele>
        <time>2012-04-20T00:02:20Z</time>
      </trkpt>
      <trkpt lat="45.02382" lon="5.51597">
        <ele>1166</ele>
        <time>2012-04-20T00:02:21Z</time>
      </trkpt>
      <trkpt lat="45.02386" lon="5.51604">
        <ele>1165</ele>
        <time>2012-04-20T00:02:22Z</time>
      </trkpt>
      <trkpt lat="45.02391" lon="5.516">
        <ele>1166</ele>
        <time>2012-04-20T00:02:23Z</time>
      </trkpt>
      <trkpt lat="45.02395" lon="5.51597">
        <ele>1166</ele>
        <time>2012-04-20T00:02:24Z</time>
      </trkpt>
      <trkpt lat="45.02399" lon="5.51595">
        <ele>1166</ele>
        <time>2012-04-20T00:02:25Z</time>
      </trkpt>
      <trkpt lat="45.02404" lon="5.51595">
        <ele>1167</ele>
        <time>2012-04-20T00:02:26Z</time>
      </trkpt>
      <trkpt lat="45.02412" lon="5.51591">
        <ele>1168</ele>
        <time>2012-04-20T00:02:28Z</time>
      </trkpt>
      <trkpt lat="45.02416" lon="5.51591">
        <ele>1168</ele>
        <time>2012-04-20T00:02:29Z</time>
      </trkpt>
      <trkpt lat="45.02421" lon="5.51587">
        <ele>1169</ele>
        <time>2012-04-20T00:02:30Z</time>
      </trkpt>
      <trkpt lat="45.02425" lon="5.51585">
        <ele>1169</ele>
        <time>2012-04-20T00:02:31Z</time>
      </trkpt>
      <trkpt lat="45.02429" lon="5.51582">
        <ele>1171</ele>
        <time>2012-04-20T00:02:32Z</time>
      </trkpt>
      <trkpt lat="45.02444" lon="5.51574">
        <ele>1173</ele>
        <time>2012-04-20T00:02:36Z</time>
      </trkpt>
      <trkpt lat="45.02451" lon="5.51569">
        <ele>1174</ele>
        <time>2012-04-20T00:02:37Z</time>
      </trkpt>
      <trkpt lat="45.02457" lon="5.51567">
        <ele>1175</ele>
        <time>2012-04-20T00:02:38Z</time>
      </trkpt>
      <trkpt lat="45.02464" lon="5.51565">
        <ele>1175</ele>
        <time>2012-04-20T00:02:39Z</time>
      </trkpt>
      <trkpt lat="45.02468" lon="5.51563">
        <ele>1175</ele>
        <time>2012-04-20T00:02:40Z</time>
      </trkpt>
      <trkpt lat="45.02474" lon="5.51563">
        <ele>1176</ele>
        <time>2012-04-20T00:02:41Z</time>
      </trkpt>
      <trkpt lat="45.02481" lon="5.51561">
        <ele>1176</ele>
        <time>2012-04-20T00:02:42Z</time>
      </trkpt>
      <trkpt lat="45.02487" lon="5.51559">
        <ele>1176</ele>
        <time>2012-04-20T00:02:43Z</time>
      </trkpt>
      <trkpt lat="45.025" lon="5.51554">
        <ele>1181</ele>
        <time>2012-04-20T00:02:46Z</time>
      </trkpt>
      <trkpt lat="45.02509" lon="5.51552">
        <ele>1181</ele>
        <time>2012-04-20T00:02:48Z</time>
      </trkpt>
      <trkpt lat="45.02515" lon="5.51548">
        <ele>1181</ele>
        <time>2012-04-20T00:02:49Z</time>
      </trkpt>
      <trkpt lat="45.02526" lon="5.51544">
        <ele>1182</ele>
        <time>2012-04-20T00:02:52Z</time>
      </trkpt>
      <trkpt lat="45.02537" lon="5.51542">
        <ele>1182</ele>
        <time>2012-04-20T00:02:55Z</time>
      </trkpt>
      <trkpt lat="45.02543" lon="5.51539">
        <ele>1182</ele>
        <time>2012-04-20T00:02:56Z</time>
      </trkpt>
      <trkpt lat="45.02549" lon="5.51537">
        <ele>1183</ele>
        <time>2012-04-20T00:02:57Z</time>
      </trkpt>
      <trkpt lat="45.0256" lon="5.51533">
        <ele>1183</ele>
        <time>2012-04-20T00:03:00Z</time>
      </trkpt>
      <trkpt lat="45.02567" lon="5.51531">
        <ele>1183</ele>
        <time>2012-04-20T00:03:01Z</time>
      </trkpt>
      <trkpt lat="45.02575" lon="5.51529">
        <ele>1184</ele>
        <time>2012-04-20T00:03:03Z</time>
      </trkpt>
      <trkpt lat="45.02582" lon="5.51527">
        <ele>1184</ele>
        <time>2012-04-20T00:03:04Z</time>
      </trkpt>
      <trkpt lat="45.02597" lon="5.5152">
        <ele>1187</ele>
        <time>2012-04-20T00:03:08Z</time>
      </trkpt>
      <trkpt lat="45.02603" lon="5.5152">
        <ele>1188</ele>
        <time>2012-04-20T00:03:09Z</time>
      </trkpt>
      <trkpt lat="45.02612" lon="5.51518">
        <ele>1188</ele>
        <time>2012-04-20T00:03:11Z</time>
      </trkpt>
      <trkpt lat="45.02618" lon="5.51518">
        <ele>1188</ele>
        <time>2012-04-20T00:03:12Z</time>
      </trkpt>
      <trkpt lat="45.0264" lon="5.51514">
        <ele>1189</ele>
        <time>2012-04-20T00:03:18Z</time>
      </trkpt>
      <trkpt lat="45.02644" lon="5.51512">
        <ele>1190</ele>
        <time>2012-04-20T00:03:19Z</time>
      </trkpt>
      <trkpt lat="45.0265" lon="5.51509">
        <ele>1190</ele>
        <time>2012-04-20T00:03:20Z</time>
      </trkpt>
      <trkpt lat="45.02659" lon="5.51505">
        <ele>1192</ele>
        <time>2012-04-20T00:03:22Z</time>
      </trkpt>
      <trkpt lat="45.02665" lon="5.51499">
        <ele>1193</ele>
        <time>2012-04-20T00:03:24Z</time>
      </trkpt>
      <trkpt lat="45.0267" lon="5.51492">
        <ele>1194</ele>
        <time>2012-04-20T00:03:25Z</time>
      </trkpt>
      <trkpt lat="45.02672" lon="5.51488">
        <ele>1194</ele>
        <time>2012-04-20T00:03:26Z</time>
      </trkpt>
      <trkpt lat="45.02674" lon="5.51484">
        <ele>1195</ele>
        <time>2012-04-20T00:03:27Z</time>
      </trkpt>
      <trkpt lat="45.02676" lon="5.51477">
        <ele>1195</ele>
        <time>2012-04-20T00:03:28Z</time>
      </trkpt>
      <trkpt lat="45.02678" lon="5.51473">
        <ele>1195</ele>
        <time>2012-04-20T00:03:29Z</time>
      </trkpt>
      <trkpt lat="45.0268" lon="5.51464">
        <ele>1196</ele>
        <time>2012-04-20T00:03:30Z</time>
      </trkpt>
      <trkpt lat="45.02687" lon="5.51449">
        <ele>1196</ele>
        <time>2012-04-20T00:03:33Z</time>
      </trkpt>
      <trkpt lat="45.02695" lon="5.51436">
        <ele>1196</ele>
        <time>2012-04-20T00:03:36Z</time>
      </trkpt>
      <trkpt lat="45.02702" lon="5.51424">
        <ele>1197</ele>
        <time>2012-04-20T00:03:39Z</time>
      </trkpt>
      <trkpt lat="45.02708" lon="5.51413">
        <ele>1198</ele>
        <time>2012-04-20T00:03:41Z</time>
      </trkpt>
      <trkpt lat="45.02713" lon="5.51404">
        <ele>1199</ele>
        <time>2012-04-20T00:03:43Z</time>
      </trkpt>
      <trkpt lat="45.02717" lon="5.51394">
        <ele>1199</ele>
        <time>2012-04-20T00:03:45Z</time>
      </trkpt>
      <trkpt lat="45.02723" lon="5.51385">
        <ele>1199</ele>
        <time>2012-04-20T00:03:47Z</time>
      </trkpt>
      <trkpt lat="45.0273" lon="5.51376">
        <ele>1200</ele>
        <time>2012-04-20T00:03:49Z</time>
      </trkpt>
      <trkpt lat="45.0274" lon="5.51364">
        <ele>1200</ele>
        <time>2012-04-20T00:03:52Z</time>
      </trkpt>
      <trkpt lat="45.02749" lon="5.51355">
        <ele>1201</ele>
        <time>2012-04-20T00:03:54Z</time>
      </trkpt>
      <trkpt lat="45.02755" lon="5.51346">
        <ele>1205</ele>
        <time>2012-04-20T00:03:56Z</time>
      </trkpt>
      <trkpt lat="45.02762" lon="5.5134">
        <ele>1205</ele>
        <time>2012-04-20T00:03:58Z</time>
      </trkpt>
      <trkpt lat="45.02768" lon="5.51329">
        <ele>1205</ele>
        <time>2012-04-20T00:04:00Z</time>
      </trkpt>
      <trkpt lat="45.02775" lon="5.51316">
        <ele>1206</ele>
        <time>2012-04-20T00:04:03Z</time>
      </trkpt>
      <trkpt lat="45.02777" lon="5.5131">
        <ele>1206</ele>
        <time>2012-04-20T00:04:04Z</time>
      </trkpt>
      <trkpt lat="45.02779" lon="5.51303">
        <ele>1206</ele>
        <time>2012-04-20T00:04:05Z</time>
      </trkpt>
      <trkpt lat="45.02781" lon="5.51297">
        <ele>1206</ele>
        <time>2012-04-20T00:04:06Z</time>
      </trkpt>
      <trkpt lat="45.02783" lon="5.51293">
        <ele>1206</ele>
        <time>2012-04-20T00:04:07Z</time>
      </trkpt>
      <trkpt lat="45.02785" lon="5.51288">
        <ele>1206</ele>
        <time>2012-04-20T00:04:08Z</time>
      </trkpt>
      <trkpt lat="45.02788" lon="5.51284">
        <ele>1206</ele>
        <time>2012-04-20T00:04:09Z</time>
      </trkpt>
      <trkpt lat="45.0279" lon="5.51278">
        <ele>1206</ele>
        <time>2012-04-20T00:04:10Z</time>
      </trkpt>
      <trkpt lat="45.02794" lon="5.51273">
        <ele>1206</ele>
        <time>2012-04-20T00:04:11Z</time>
      </trkpt>
      <trkpt lat="45.02796" lon="5.51267">
        <ele>1206</ele>
        <time>2012-04-20T00:04:12Z</time>
      </trkpt>
      <trkpt lat="45.02798" lon="5.51261">
        <ele>1207</ele>
        <time>2012-04-20T00:04:13Z</time>
      </trkpt>
      <trkpt lat="45.028" lon="5.51254">
        <ele>1207</ele>
        <time>2012-04-20T00:04:14Z</time>
      </trkpt>
      <trkpt lat="45.02803" lon="5.51248">
        <ele>1206</ele>
        <time>2012-04-20T00:04:15Z</time>
      </trkpt>
      <trkpt lat="45.02805" lon="5.51233">
        <ele>1206</ele>
        <time>2012-04-20T00:04:18Z</time>
      </trkpt>
      <trkpt lat="45.02809" lon="5.5122">
        <ele>1205</ele>
        <time>2012-04-20T00:04:20Z</time>
      </trkpt>
      <trkpt lat="45.02809" lon="5.51215">
        <ele>1205</ele>
        <time>2012-04-20T00:04:20Z</time>
      </trkpt>
      <trkpt lat="45.02813" lon="5.51209">
        <ele>1205</ele>
        <time>2012-04-20T00:04:21Z</time>
      </trkpt>
      <trkpt lat="45.02816" lon="5.51205">
        <ele>1205</ele>
        <time>2012-04-20T00:04:22Z</time>
      </trkpt>
      <trkpt lat="45.02818" lon="5.512">
        <ele>1205</ele>
        <time>2012-04-20T00:04:23Z</time>
      </trkpt>
      <trkpt lat="45.02822" lon="5.51196">
        <ele>1206</ele>
        <time>2012-04-20T00:04:24Z</time>
      </trkpt>
      <trkpt lat="45.02833" lon="5.51188">
        <ele>1206</ele>
        <time>2012-04-20T00:04:27Z</time>
      </trkpt>
      <trkpt lat="45.02839" lon="5.51185">
        <ele>1209</ele>
        <time>2012-04-20T00:04:28Z</time>
      </trkpt>
      <trkpt lat="45.02843" lon="5.51183">
        <ele>1209</ele>
        <time>2012-04-20T00:04:29Z</time>
      </trkpt>
      <trkpt lat="45.02852" lon="5.51179">
        <ele>1209</ele>
        <time>2012-04-20T00:04:31Z</time>
      </trkpt>
      <trkpt lat="45.02858" lon="5.51179">
        <ele>1209</ele>
        <time>2012-04-20T00:04:32Z</time>
      </trkpt>
      <trkpt lat="45.02867" lon="5.51175">
        <ele>1210</ele>
        <time>2012-04-20T00:04:34Z</time>
      </trkpt>
      <trkpt lat="45.02871" lon="5.51173">
        <ele>1210</ele>
        <time>2012-04-20T00:04:35Z</time>
      </trkpt>
      <trkpt lat="45.02876" lon="5.5117">
        <ele>1210</ele>
        <time>2012-04-20T00:04:36Z</time>
      </trkpt>
      <trkpt lat="45.0288" lon="5.51168">
        <ele>1210</ele>
        <time>2012-04-20T00:04:37Z</time>
      </trkpt>
      <trkpt lat="45.02884" lon="5.51164">
        <ele>1209</ele>
        <time>2012-04-20T00:04:38Z</time>
      </trkpt>
      <trkpt lat="45.02888" lon="5.51162">
        <ele>1210</ele>
        <time>2012-04-20T00:04:39Z</time>
      </trkpt>
      <trkpt lat="45.02893" lon="5.51158">
        <ele>1210</ele>
        <time>2012-04-20T00:04:40Z</time>
      </trkpt>
      <trkpt lat="45.02897" lon="5.51155">
        <ele>1210</ele>
        <time>2012-04-20T00:04:41Z</time>
      </trkpt>
      <trkpt lat="45.02908" lon="5.51149">
        <ele>1210</ele>
        <time>2012-04-20T00:04:44Z</time>
      </trkpt>
      <trkpt lat="45.02912" lon="5.51147">
        <ele>1210</ele>
        <time>2012-04-20T00:04:45Z</time>
      </trkpt>
      <trkpt lat="45.02916" lon="5.51142">
        <ele>1210</ele>
        <time>2012-04-20T00:04:46Z</time>
      </trkpt>
      <trkpt lat="45.02921" lon="5.5114">
        <ele>1214</ele>
        <time>2012-04-20T00:04:47Z</time>
      </trkpt>
      <trkpt lat="45.02925" lon="5.51136">
        <ele>1214</ele>
        <time>2012-04-20T00:04:48Z</time>
      </trkpt>
      <trkpt lat="45.02931" lon="5.51132">
        <ele>1214</ele>
        <time>2012-04-20T00:04:49Z</time>
      </trkpt>
      <trkpt lat="45.02934" lon="5.51127">
        <ele>1214</ele>
        <time>2012-04-20T00:04:50Z</time>
      </trkpt>
      <trkpt lat="45.02942" lon="5.51121">
        <ele>1215</ele>
        <time>2012-04-20T00:04:52Z</time>
      </trkpt>
      <trkpt lat="45.02949" lon="5.51115">
        <ele>1215</ele>
        <time>2012-04-20T00:04:54Z</time>
      </trkpt>
      <trkpt lat="45.02951" lon="5.5111">
        <ele>1215</ele>
        <time>2012-04-20T00:04:55Z</time>
      </trkpt>
      <trkpt lat="45.02959" lon="5.51093">
        <ele>1215</ele>
        <time>2012-04-20T00:04:59Z</time>
      </trkpt>
      <trkpt lat="45.02961" lon="5.51087">
        <ele>1215</ele>
        <time>2012-04-20T00:05:00Z</time>
      </trkpt>
      <trkpt lat="45.02964" lon="5.5108">
        <ele>1214</ele>
        <time>2012-04-20T00:05:01Z</time>
      </trkpt>
      <trkpt lat="45.02966" lon="5.51074">
        <ele>1214</ele>
        <time>2012-04-20T00:05:02Z</time>
      </trkpt>
      <trkpt lat="45.02968" lon="5.51067">
        <ele>1214</ele>
        <time>2012-04-20T00:05:03Z</time>
      </trkpt>
      <trkpt lat="45.0297" lon="5.51061">
        <ele>1214</ele>
        <time>2012-04-20T00:05:04Z</time>
      </trkpt>
      <trkpt lat="45.02972" lon="5.51055">
        <ele>1214</ele>
        <time>2012-04-20T00:05:05Z</time>
      </trkpt>
      <trkpt lat="45.02976" lon="5.51039">
        <ele>1214</ele>
        <time>2012-04-20T00:05:08Z</time>
      </trkpt>
      <trkpt lat="45.02981" lon="5.51016">
        <ele>1213</ele>
        <time>2012-04-20T00:05:12Z</time>
      </trkpt>
      <trkpt lat="45.02981" lon="5.51007">
        <ele>1213</ele>
        <time>2012-04-20T00:05:13Z</time>
      </trkpt>
      <trkpt lat="45.02983" lon="5.50999">
        <ele>1213</ele>
        <time>2012-04-20T00:05:14Z</time>
      </trkpt>
      <trkpt lat="45.02985" lon="5.50992">
        <ele>1213</ele>
        <time>2012-04-20T00:05:15Z</time>
      </trkpt>
      <trkpt lat="45.02985" lon="5.50986">
        <ele>1213</ele>
        <time>2012-04-20T00:05:16Z</time>
      </trkpt>
      <trkpt lat="45.02987" lon="5.50982">
        <ele>1213</ele>
        <time>2012-04-20T00:05:17Z</time>
      </trkpt>
      <trkpt lat="45.02989" lon="5.50977">
        <ele>1213</ele>
        <time>2012-04-20T00:05:18Z</time>
      </trkpt>
      <trkpt lat="45.02989" lon="5.50973">
        <ele>1212</ele>
        <time>2012-04-20T00:05:18Z</time>
      </trkpt>
      <trkpt lat="45.02996" lon="5.50962">
        <ele>1212</ele>
        <time>2012-04-20T00:05:20Z</time>
      </trkpt>
      <trkpt lat="45.02998" lon="5.50956">
        <ele>1212</ele>
        <time>2012-04-20T00:05:21Z</time>
      </trkpt>
      <trkpt lat="45.03009" lon="5.50936">
        <ele>1216</ele>
        <time>2012-04-20T00:05:25Z</time>
      </trkpt>
      <trkpt lat="45.03011" lon="5.50941">
        <ele>1216</ele>
        <time>2012-04-20T00:05:26Z</time>
      </trkpt>
      <trkpt lat="45.03013" lon="5.50945">
        <ele>1217</ele>
        <time>2012-04-20T00:05:27Z</time>
      </trkpt>
      <trkpt lat="45.03017" lon="5.50945">
        <ele>1217</ele>
        <time>2012-04-20T00:05:28Z</time>
      </trkpt>
      <trkpt lat="45.03024" lon="5.50943">
        <ele>1217</ele>
        <time>2012-04-20T00:05:29Z</time>
      </trkpt>
      <trkpt lat="45.03028" lon="5.50939">
        <ele>1217</ele>
        <time>2012-04-20T00:05:30Z</time>
      </trkpt>
      <trkpt lat="45.03032" lon="5.50934">
        <ele>1217</ele>
        <time>2012-04-20T00:05:31Z</time>
      </trkpt>
      <trkpt lat="45.03037" lon="5.50932">
        <ele>1217</ele>
        <time>2012-04-20T00:05:32Z</time>
      </trkpt>
      <trkpt lat="45.03041" lon="5.5093">
        <ele>1218</ele>
        <time>2012-04-20T00:05:33Z</time>
      </trkpt>
      <trkpt lat="45.03045" lon="5.50926">
        <ele>1218</ele>
        <time>2012-04-20T00:05:34Z</time>
      </trkpt>
      <trkpt lat="45.03052" lon="5.50917">
        <ele>1218</ele>
        <time>2012-04-20T00:05:36Z</time>
      </trkpt>
      <trkpt lat="45.03056" lon="5.50911">
        <ele>1218</ele>
        <time>2012-04-20T00:05:37Z</time>
      </trkpt>
      <trkpt lat="45.0306" lon="5.50906">
        <ele>1218</ele>
        <time>2012-04-20T00:05:38Z</time>
      </trkpt>
      <trkpt lat="45.03062" lon="5.50902">
        <ele>1218</ele>
        <time>2012-04-20T00:05:39Z</time>
      </trkpt>
      <trkpt lat="45.03067" lon="5.509">
        <ele>1218</ele>
        <time>2012-04-20T00:05:40Z</time>
      </trkpt>
      <trkpt lat="45.03073" lon="5.50896">
        <ele>1219</ele>
        <time>2012-04-20T00:05:41Z</time>
      </trkpt>
      <trkpt lat="45.03077" lon="5.50891">
        <ele>1219</ele>
        <time>2012-04-20T00:05:42Z</time>
      </trkpt>
      <trkpt lat="45.03082" lon="5.50889">
        <ele>1219</ele>
        <time>2012-04-20T00:05:43Z</time>
      </trkpt>
      <trkpt lat="45.03088" lon="5.50883">
        <ele>1222</ele>
        <time>2012-04-20T00:05:45Z</time>
      </trkpt>
      <trkpt lat="45.0309" lon="5.50879">
        <ele>1222</ele>
        <time>2012-04-20T00:05:46Z</time>
      </trkpt>
      <trkpt lat="45.03097" lon="5.5087">
        <ele>1223</ele>
        <time>2012-04-20T00:05:48Z</time>
      </trkpt>
      <trkpt lat="45.03103" lon="5.50864">
        <ele>1223</ele>
        <time>2012-04-20T00:05:50Z</time>
      </trkpt>
      <trkpt lat="45.03107" lon="5.50859">
        <ele>1223</ele>
        <time>2012-04-20T00:05:51Z</time>
      </trkpt>
      <trkpt lat="45.03112" lon="5.50857">
        <ele>1223</ele>
        <time>2012-04-20T00:05:52Z</time>
      </trkpt>
      <trkpt lat="45.0312" lon="5.50855">
        <ele>1223</ele>
        <time>2012-04-20T00:05:54Z</time>
      </trkpt>
      <trkpt lat="45.03129" lon="5.50853">
        <ele>1224</ele>
        <time>2012-04-20T00:05:56Z</time>
      </trkpt>
      <trkpt lat="45.03146" lon="5.50853">
        <ele>1225</ele>
        <time>2012-04-20T00:06:00Z</time>
      </trkpt>
      <trkpt lat="45.0315" lon="5.50853">
        <ele>1225</ele>
        <time>2012-04-20T00:06:01Z</time>
      </trkpt>
      <trkpt lat="45.03154" lon="5.50853">
        <ele>1225</ele>
        <time>2012-04-20T00:06:02Z</time>
      </trkpt>
      <trkpt lat="45.0315" lon="5.50853">
        <ele>1225</ele>
        <time>2012-04-20T00:06:03Z</time>
      </trkpt>
      <trkpt lat="45.03146" lon="5.50853">
        <ele>1225</ele>
        <time>2012-04-20T00:06:04Z</time>
      </trkpt>
      <trkpt lat="45.03129" lon="5.50853">
        <ele>1224</ele>
        <time>2012-04-20T00:06:08Z</time>
      </trkpt>
      <trkpt lat="45.0312" lon="5.50855">
        <ele>1223</ele>
        <time>2012-04-20T00:06:10Z</time>
      </trkpt>
      <trkpt lat="45.03112" lon="5.50857">
        <ele>1223</ele>
        <time>2012-04-20T00:06:12Z</time>
      </trkpt>
      <trkpt lat="45.03107" lon="5.50859">
        <ele>1223</ele>
        <time>2012-04-20T00:06:13Z</time>
      </trkpt>
      <trkpt lat="45.03103" lon="5.50864">
        <ele>1223</ele>
        <time>2012-04-20T00:06:14Z</time>
      </trkpt>
      <trkpt lat="45.03097" lon="5.5087">
        <ele>1223</ele>
        <time>2012-04-20T00:06:16Z</time>
      </trkpt>
      <trkpt lat="45.0309" lon="5.50879">
        <ele>1222</ele>
        <time>2012-04-20T00:06:18Z</time>
      </trkpt>
      <trkpt lat="45.03088" lon="5.50883">
        <ele>1222</ele>
        <time>2012-04-20T00:06:19Z</time>
      </trkpt>
      <trkpt lat="45.03084" lon="5.50887">
        <ele>1222</ele>
        <time>2012-04-20T00:06:20Z</time>
      </trkpt>
      <trkpt lat="45.03077" lon="5.50891">
        <ele>1219</ele>
        <time>2012-04-20T00:06:21Z</time>
      </trkpt>
      <trkpt lat="45.03073" lon="5.50896">
        <ele>1219</ele>
        <time>2012-04-20T00:06:22Z</time>
      </trkpt>
      <trkpt lat="45.03067" lon="5.509">
        <ele>1218</ele>
        <time>2012-04-20T00:06:23Z</time>
      </trkpt>
      <trkpt lat="45.03062" lon="5.50902">
        <ele>1218</ele>
        <time>2012-04-20T00:06:24Z</time>
      </trkpt>
      <trkpt lat="45.0306" lon="5.50906">
        <ele>1218</ele>
        <time>2012-04-20T00:06:25Z</time>
      </trkpt>
      <trkpt lat="45.03056" lon="5.50911">
        <ele>1218</ele>
        <time>2012-04-20T00:06:26Z</time>
      </trkpt>
      <trkpt lat="45.03052" lon="5.50917">
        <ele>1218</ele>
        <time>2012-04-20T00:06:27Z</time>
      </trkpt>
      <trkpt lat="45.03047" lon="5.50924">
        <ele>1218</ele>
        <time>2012-04-20T00:06:28Z</time>
      </trkpt>
      <trkpt lat="45.03043" lon="5.50928">
        <ele>1218</ele>
        <time>2012-04-20T00:06:29Z</time>
      </trkpt>
      <trkpt lat="45.03037" lon="5.50932">
        <ele>1217</ele>
        <time>2012-04-20T00:06:30Z</time>
      </trkpt>
      <trkpt lat="45.03032" lon="5.50934">
        <ele>1217</ele>
        <time>2012-04-20T00:06:31Z</time>
      </trkpt>
      <trkpt lat="45.03028" lon="5.50939">
        <ele>1217</ele>
        <time>2012-04-20T00:06:32Z</time>
      </trkpt>
      <trkpt lat="45.03024" lon="5.50943">
        <ele>1217</ele>
        <time>2012-04-20T00:06:33Z</time>
      </trkpt>
      <trkpt lat="45.03019" lon="5.50945">
        <ele>1217</ele>
        <time>2012-04-20T00:06:34Z</time>
      </trkpt>
      <trkpt lat="45.03013" lon="5.50945">
        <ele>1217</ele>
        <time>2012-04-20T00:06:35Z</time>
      </trkpt>
      <trkpt lat="45.03011" lon="5.50941">
        <ele>1216</ele>
        <time>2012-04-20T00:06:36Z</time>
      </trkpt>
      <trkpt lat="45.03009" lon="5.50936">
        <ele>1216</ele>
        <time>2012-04-20T00:06:37Z</time>
      </trkpt>
      <trkpt lat="45.03011" lon="5.50932">
        <ele>1216</ele>
        <time>2012-04-20T00:06:38Z</time>
      </trkpt>
      <trkpt lat="45.03017" lon="5.50915">
        <ele>1216</ele>
        <time>2012-04-20T00:06:41Z</time>
      </trkpt>
      <trkpt lat="45.03028" lon="5.50896">
        <ele>1217</ele>
        <time>2012-04-20T00:06:45Z</time>
      </trkpt>
      <trkpt lat="45.03034" lon="5.50881">
        <ele>1218</ele>
        <time>2012-04-20T00:06:48Z</time>
      </trkpt>
      <trkpt lat="45.03043" lon="5.50857">
        <ele>1218</ele>
        <time>2012-04-20T00:06:53Z</time>
      </trkpt>
      <trkpt lat="45.03045" lon="5.50846">
        <ele>1218</ele>
        <time>2012-04-20T00:06:55Z</time>
      </trkpt>
      <trkpt lat="45.03052" lon="5.50836">
        <ele>1218</ele>
        <time>2012-04-20T00:06:57Z</time>
      </trkpt>
      <trkpt lat="45.03056" lon="5.50827">
        <ele>1221</ele>
        <time>2012-04-20T00:06:59Z</time>
      </trkpt>
      <trkpt lat="45.0306" lon="5.50821">
        <ele>1221</ele>
        <time>2012-04-20T00:07:00Z</time>
      </trkpt>
      <trkpt lat="45.03064" lon="5.50816">
        <ele>1221</ele>
        <time>2012-04-20T00:07:01Z</time>
      </trkpt>
      <trkpt lat="45.03067" lon="5.50812">
        <ele>1221</ele>
        <time>2012-04-20T00:07:02Z</time>
      </trkpt>
      <trkpt lat="45.03069" lon="5.50808">
        <ele>1221</ele>
        <time>2012-04-20T00:07:03Z</time>
      </trkpt>
      <trkpt lat="45.03073" lon="5.50803">
        <ele>1222</ele>
        <time>2012-04-20T00:07:04Z</time>
      </trkpt>
      <trkpt lat="45.03075" lon="5.50795">
        <ele>1222</ele>
        <time>2012-04-20T00:07:05Z</time>
      </trkpt>
      <trkpt lat="45.03077" lon="5.50791">
        <ele>1222</ele>
        <time>2012-04-20T00:07:06Z</time>
      </trkpt>
      <trkpt lat="45.03079" lon="5.5078">
        <ele>1223</ele>
        <time>2012-04-20T00:07:08Z</time>
      </trkpt>
      <trkpt lat="45.03082" lon="5.50776">
        <ele>1223</ele>
        <time>2012-04-20T00:07:09Z</time>
      </trkpt>
      <trkpt lat="45.03082" lon="5.50769">
        <ele>1224</ele>
        <time>2012-04-20T00:07:10Z</time>
      </trkpt>
      <trkpt lat="45.03082" lon="5.50756">
        <ele>1224</ele>
        <time>2012-04-20T00:07:12Z</time>
      </trkpt>
      <trkpt lat="45.03082" lon="5.5075">
        <ele>1225</ele>
        <time>2012-04-20T00:07:13Z</time>
      </trkpt>
      <trkpt lat="45.03082" lon="5.50731">
        <ele>1227</ele>
        <time>2012-04-20T00:07:16Z</time>
      </trkpt>
      <trkpt lat="45.03082" lon="5.50718">
        <ele>1227</ele>
        <time>2012-04-20T00:07:18Z</time>
      </trkpt>
      <trkpt lat="45.03079" lon="5.50711">
        <ele>1228</ele>
        <time>2012-04-20T00:07:19Z</time>
      </trkpt>
      <trkpt lat="45.03082" lon="5.50705">
        <ele>1228</ele>
        <time>2012-04-20T00:07:20Z</time>
      </trkpt>
      <trkpt lat="45.03082" lon="5.50692">
        <ele>1228</ele>
        <time>2012-04-20T00:07:22Z</time>
      </trkpt>
      <trkpt lat="45.03084" lon="5.50679">
        <ele>1227</ele>
        <time>2012-04-20T00:07:24Z</time>
      </trkpt>
      <trkpt lat="45.03088" lon="5.50668">
        <ele>1227</ele>
        <time>2012-04-20T00:07:26Z</time>
      </trkpt>
      <trkpt lat="45.0309" lon="5.5066">
        <ele>1228</ele>
        <time>2012-04-20T00:07:27Z</time>
      </trkpt>
      <trkpt lat="45.0309" lon="5.50655">
        <ele>1228</ele>
        <time>2012-04-20T00:07:27Z</time>
      </trkpt>
      <trkpt lat="45.03097" lon="5.50645">
        <ele>1229</ele>
        <time>2012-04-20T00:07:29Z</time>
      </trkpt>
      <trkpt lat="45.03101" lon="5.5064">
        <ele>1229</ele>
        <time>2012-04-20T00:07:30Z</time>
      </trkpt>
      <trkpt lat="45.03107" lon="5.50634">
        <ele>1229</ele>
        <time>2012-04-20T00:07:32Z</time>
      </trkpt>
      <trkpt lat="45.03112" lon="5.5063">
        <ele>1229</ele>
        <time>2012-04-20T00:07:33Z</time>
      </trkpt>
      <trkpt lat="45.03118" lon="5.50625">
        <ele>1230</ele>
        <time>2012-04-20T00:07:34Z</time>
      </trkpt>
      <trkpt lat="45.03125" lon="5.50619">
        <ele>1230</ele>
        <time>2012-04-20T00:07:36Z</time>
      </trkpt>
      <trkpt lat="45.03129" lon="5.5061">
        <ele>1230</ele>
        <time>2012-04-20T00:07:38Z</time>
      </trkpt>
      <trkpt lat="45.0314" lon="5.506">
        <ele>1231</ele>
        <time>2012-04-20T00:07:41Z</time>
      </trkpt>
      <trkpt lat="45.03167" lon="5.50576">
        <ele>1235</ele>
        <time>2012-04-20T00:07:50Z</time>
      </trkpt>
      <trkpt lat="45.03178" lon="5.50567">
        <ele>1236</ele>
        <time>2012-04-20T00:07:53Z</time>
      </trkpt>
      <trkpt lat="45.03195" lon="5.50555">
        <ele>1238</ele>
        <time>2012-04-20T00:07:58Z</time>
      </trkpt>
      <trkpt lat="45.03202" lon="5.50548">
        <ele>1238</ele>
        <time>2012-04-20T00:08:00Z</time>
      </trkpt>
      <trkpt lat="45.03208" lon="5.50537">
        <ele>1239</ele>
        <time>2012-04-20T00:08:02Z</time>
      </trkpt>
      <trkpt lat="45.03212" lon="5.50529">
        <ele>1239</ele>
        <time>2012-04-20T00:08:04Z</time>
      </trkpt>
      <trkpt lat="45.03217" lon="5.50518">
        <ele>1240</ele>
        <time>2012-04-20T00:08:06Z</time>
      </trkpt>
      <trkpt lat="45.03223" lon="5.50505">
        <ele>1241</ele>
        <time>2012-04-20T00:08:09Z</time>
      </trkpt>
      <trkpt lat="45.03228" lon="5.50494">
        <ele>1246</ele>
        <time>2012-04-20T00:08:11Z</time>
      </trkpt>
      <trkpt lat="45.03232" lon="5.50488">
        <ele>1246</ele>
        <time>2012-04-20T00:08:12Z</time>
      </trkpt>
      <trkpt lat="45.03236" lon="5.50482">
        <ele>1246</ele>
        <time>2012-04-20T00:08:13Z</time>
      </trkpt>
      <trkpt lat="45.03243" lon="5.50477">
        <ele>1246</ele>
        <time>2012-04-20T00:08:14Z</time>
      </trkpt>
      <trkpt lat="45.03249" lon="5.50475">
        <ele>1247</ele>
        <time>2012-04-20T00:08:15Z</time>
      </trkpt>
      <trkpt lat="45.03258" lon="5.50473">
        <ele>1251</ele>
        <time>2012-04-20T00:08:17Z</time>
      </trkpt>
      <trkpt lat="45.03268" lon="5.50471">
        <ele>1251</ele>
        <time>2012-04-20T00:08:20Z</time>
      </trkpt>
      <trkpt lat="45.03279" lon="5.50467">
        <ele>1252</ele>
        <time>2012-04-20T00:08:23Z</time>
      </trkpt>
      <trkpt lat="45.03288" lon="5.5046">
        <ele>1253</ele>
        <time>2012-04-20T00:08:25Z</time>
      </trkpt>
      <trkpt lat="45.03296" lon="5.50458">
        <ele>1253</ele>
        <time>2012-04-20T00:08:27Z</time>
      </trkpt>
      <trkpt lat="45.03303" lon="5.50456">
        <ele>1254</ele>
        <time>2012-04-20T00:08:28Z</time>
      </trkpt>
      <trkpt lat="45.03309" lon="5.50456">
        <ele>1254</ele>
        <time>2012-04-20T00:08:29Z</time>
      </trkpt>
      <trkpt lat="45.03322" lon="5.50454">
        <ele>1255</ele>
        <time>2012-04-20T00:08:32Z</time>
      </trkpt>
      <trkpt lat="45.03326" lon="5.50454">
        <ele>1255</ele>
        <time>2012-04-20T00:08:33Z</time>
      </trkpt>
      <trkpt lat="45.03331" lon="5.50454">
        <ele>1255</ele>
        <time>2012-04-20T00:08:34Z</time>
      </trkpt>
      <trkpt lat="45.03335" lon="5.50447">
        <ele>1259</ele>
        <time>2012-04-20T00:08:35Z</time>
      </trkpt>
      <trkpt lat="45.03333" lon="5.50439">
        <ele>1257</ele>
        <time>2012-04-20T00:08:36Z</time>
      </trkpt>
      <trkpt lat="45.03333" lon="5.50434">
        <ele>1258</ele>
        <time>2012-04-20T00:08:36Z</time>
      </trkpt>
      <trkpt lat="45.03326" lon="5.50413">
        <ele>1263</ele>
        <time>2012-04-20T00:08:40Z</time>
      </trkpt>
      <trkpt lat="45.03324" lon="5.50402">
        <ele>1264</ele>
        <time>2012-04-20T00:08:42Z</time>
      </trkpt>
      <trkpt lat="45.0332" lon="5.50389">
        <ele>1264</ele>
        <time>2012-04-20T00:08:44Z</time>
      </trkpt>
      <trkpt lat="45.03313" lon="5.50376">
        <ele>1265</ele>
        <time>2012-04-20T00:08:47Z</time>
      </trkpt>
      <trkpt lat="45.03307" lon="5.50359">
        <ele>1266</ele>
        <time>2012-04-20T00:08:50Z</time>
      </trkpt>
      <trkpt lat="45.033" lon="5.50342">
        <ele>1267</ele>
        <time>2012-04-20T00:08:53Z</time>
      </trkpt>
      <trkpt lat="45.03298" lon="5.50329">
        <ele>1274</ele>
        <time>2012-04-20T00:08:55Z</time>
      </trkpt>
      <trkpt lat="45.03298" lon="5.50323">
        <ele>1274</ele>
        <time>2012-04-20T00:08:56Z</time>
      </trkpt>
      <trkpt lat="45.03298" lon="5.50316">
        <ele>1274</ele>
        <time>2012-04-20T00:08:57Z</time>
      </trkpt>
      <trkpt lat="45.033" lon="5.5031">
        <ele>1274</ele>
        <time>2012-04-20T00:08:58Z</time>
      </trkpt>
      <trkpt lat="45.033" lon="5.50306">
        <ele>1275</ele>
        <time>2012-04-20T00:08:58Z</time>
      </trkpt>
      <trkpt lat="45.03307" lon="5.50299">
        <ele>1275</ele>
        <time>2012-04-20T00:09:00Z</time>
      </trkpt>
      <trkpt lat="45.0332" lon="5.50291">
        <ele>1276</ele>
        <time>2012-04-20T00:09:03Z</time>
      </trkpt>
      <trkpt lat="45.03328" lon="5.50286">
        <ele>1276</ele>
        <time>2012-04-20T00:09:05Z</time>
      </trkpt>
      <trkpt lat="45.03337" lon="5.50282">
        <ele>1280</ele>
        <time>2012-04-20T00:09:07Z</time>
      </trkpt>
      <trkpt lat="45.03346" lon="5.50278">
        <ele>1280</ele>
        <time>2012-04-20T00:09:09Z</time>
      </trkpt>
      <trkpt lat="45.03365" lon="5.50267">
        <ele>1281</ele>
        <time>2012-04-20T00:09:14Z</time>
      </trkpt>
      <trkpt lat="45.03371" lon="5.50265">
        <ele>1281</ele>
        <time>2012-04-20T00:09:15Z</time>
      </trkpt>
      <trkpt lat="45.03388" lon="5.50263">
        <ele>1281</ele>
        <time>2012-04-20T00:09:19Z</time>
      </trkpt>
      <trkpt lat="45.03397" lon="5.50261">
        <ele>1282</ele>
        <time>2012-04-20T00:09:21Z</time>
      </trkpt>
      <trkpt lat="45.03401" lon="5.50256">
        <ele>1283</ele>
        <time>2012-04-20T00:09:22Z</time>
      </trkpt>
      <trkpt lat="45.03403" lon="5.50248">
        <ele>1286</ele>
        <time>2012-04-20T00:09:23Z</time>
      </trkpt>
      <trkpt lat="45.03406" lon="5.50241">
        <ele>1286</ele>
        <time>2012-04-20T00:09:24Z</time>
      </trkpt>
      <trkpt lat="45.03408" lon="5.50231">
        <ele>1287</ele>
        <time>2012-04-20T00:09:26Z</time>
      </trkpt>
      <trkpt lat="45.03408" lon="5.50224">
        <ele>1288</ele>
        <time>2012-04-20T00:09:27Z</time>
      </trkpt>
      <trkpt lat="45.03412" lon="5.50207">
        <ele>1289</ele>
        <time>2012-04-20T00:09:30Z</time>
      </trkpt>
      <trkpt lat="45.03414" lon="5.50194">
        <ele>1290</ele>
        <time>2012-04-20T00:09:32Z</time>
      </trkpt>
      <trkpt lat="45.03418" lon="5.50151">
        <ele>1297</ele>
        <time>2012-04-20T00:09:40Z</time>
      </trkpt>
      <trkpt lat="45.03425" lon="5.50125">
        <ele>1301</ele>
        <time>2012-04-20T00:09:45Z</time>
      </trkpt>
      <trkpt lat="45.03429" lon="5.50104">
        <ele>1303</ele>
        <time>2012-04-20T00:09:49Z</time>
      </trkpt>
      <trkpt lat="45.03431" lon="5.50087">
        <ele>1304</ele>
        <time>2012-04-20T00:09:52Z</time>
      </trkpt>
      <trkpt lat="45.03438" lon="5.50067">
        <ele>1309</ele>
        <time>2012-04-20T00:09:56Z</time>
      </trkpt>
      <trkpt lat="45.0344" lon="5.50055">
        <ele>1310</ele>
        <time>2012-04-20T00:09:58Z</time>
      </trkpt>
      <trkpt lat="45.03442" lon="5.50044">
        <ele>1310</ele>
        <time>2012-04-20T00:10:00Z</time>
      </trkpt>
      <trkpt lat="45.03446" lon="5.50033">
        <ele>1311</ele>
        <time>2012-04-20T00:10:02Z</time>
      </trkpt>
      <trkpt lat="45.03449" lon="5.50027">
        <ele>1311</ele>
        <time>2012-04-20T00:10:03Z</time>
      </trkpt>
      <trkpt lat="45.03457" lon="5.50014">
        <ele>1311</ele>
        <time>2012-04-20T00:10:06Z</time>
      </trkpt>
      <trkpt lat="45.03466" lon="5.50003">
        <ele>1311</ele>
        <time>2012-04-20T00:10:09Z</time>
      </trkpt>
      <trkpt lat="45.0347" lon="5.50001">
        <ele>1311</ele>
        <time>2012-04-20T00:10:10Z</time>
      </trkpt>
      <trkpt lat="45.03479" lon="5.4999">
        <ele>1312</ele>
        <time>2012-04-20T00:10:13Z</time>
      </trkpt>
      <trkpt lat="45.03481" lon="5.49986">
        <ele>1312</ele>
        <time>2012-04-20T00:10:14Z</time>
      </trkpt>
      <trkpt lat="45.03485" lon="5.49979">
        <ele>1312</ele>
        <time>2012-04-20T00:10:15Z</time>
      </trkpt>
      <trkpt lat="45.03498" lon="5.49969">
        <ele>1311</ele>
        <time>2012-04-20T00:10:19Z</time>
      </trkpt>
      <trkpt lat="45.03511" lon="5.49956">
        <ele>1307</ele>
        <time>2012-04-20T00:10:23Z</time>
      </trkpt>
      <trkpt lat="45.03541" lon="5.49937">
        <ele>1306</ele>
        <time>2012-04-20T00:10:32Z</time>
      </trkpt>
      <trkpt lat="45.03564" lon="5.49917">
        <ele>1304</ele>
        <time>2012-04-20T00:10:39Z</time>
      </trkpt>
      <trkpt lat="45.03571" lon="5.49913">
        <ele>1301</ele>
        <time>2012-04-20T00:10:40Z</time>
      </trkpt>
      <trkpt lat="45.03575" lon="5.49907">
        <ele>1301</ele>
        <time>2012-04-20T00:10:41Z</time>
      </trkpt>
      <trkpt lat="45.03579" lon="5.49898">
        <ele>1300</ele>
        <time>2012-04-20T00:10:43Z</time>
      </trkpt>
      <trkpt lat="45.03586" lon="5.49892">
        <ele>1298</ele>
        <time>2012-04-20T00:10:45Z</time>
      </trkpt>
      <trkpt lat="45.03594" lon="5.49883">
        <ele>1297</ele>
        <time>2012-04-20T00:10:47Z</time>
      </trkpt>
      <trkpt lat="45.03603" lon="5.49879">
        <ele>1297</ele>
        <time>2012-04-20T00:10:49Z</time>
      </trkpt>
      <trkpt lat="45.03614" lon="5.49872">
        <ele>1296</ele>
        <time>2012-04-20T00:10:52Z</time>
      </trkpt>
      <trkpt lat="45.03618" lon="5.4987">
        <ele>1296</ele>
        <time>2012-04-20T00:10:53Z</time>
      </trkpt>
      <trkpt lat="45.0362" lon="5.49866">
        <ele>1296</ele>
        <time>2012-04-20T00:10:54Z</time>
      </trkpt>
      <trkpt lat="45.03624" lon="5.49859">
        <ele>1296</ele>
        <time>2012-04-20T00:10:55Z</time>
      </trkpt>
      <trkpt lat="45.03627" lon="5.49853">
        <ele>1296</ele>
        <time>2012-04-20T00:10:56Z</time>
      </trkpt>
      <trkpt lat="45.03629" lon="5.49846">
        <ele>1295</ele>
        <time>2012-04-20T00:10:57Z</time>
      </trkpt>
      <trkpt lat="45.03633" lon="5.49842">
        <ele>1295</ele>
        <time>2012-04-20T00:10:58Z</time>
      </trkpt>
      <trkpt lat="45.0365" lon="5.4984">
        <ele>1294</ele>
        <time>2012-04-20T00:11:02Z</time>
      </trkpt>
      <trkpt lat="45.03659" lon="5.4984">
        <ele>1293</ele>
        <time>2012-04-20T00:11:04Z</time>
      </trkpt>
      <trkpt lat="45.03678" lon="5.4984">
        <ele>1291</ele>
        <time>2012-04-20T00:11:09Z</time>
      </trkpt>
      <trkpt lat="45.03693" lon="5.49836">
        <ele>1290</ele>
        <time>2012-04-20T00:11:13Z</time>
      </trkpt>
      <trkpt lat="45.037" lon="5.49834">
        <ele>1290</ele>
        <time>2012-04-20T00:11:14Z</time>
      </trkpt>
      <trkpt lat="45.03712" lon="5.49831">
        <ele>1296</ele>
        <time>2012-04-20T00:11:17Z</time>
      </trkpt>
      <trkpt lat="45.03721" lon="5.49829">
        <ele>1295</ele>
        <time>2012-04-20T00:11:19Z</time>
      </trkpt>
      <trkpt lat="45.03734" lon="5.49825">
        <ele>1294</ele>
        <time>2012-04-20T00:11:22Z</time>
      </trkpt>
      <trkpt lat="45.03762" lon="5.49821">
        <ele>1293</ele>
        <time>2012-04-20T00:11:29Z</time>
      </trkpt>
      <trkpt lat="45.03773" lon="5.49819">
        <ele>1295</ele>
        <time>2012-04-20T00:11:32Z</time>
      </trkpt>
      <trkpt lat="45.03781" lon="5.49819">
        <ele>1295</ele>
        <time>2012-04-20T00:11:34Z</time>
      </trkpt>
      <trkpt lat="45.03803" lon="5.49819">
        <ele>1294</ele>
        <time>2012-04-20T00:11:39Z</time>
      </trkpt>
      <trkpt lat="45.03815" lon="5.49819">
        <ele>1293</ele>
        <time>2012-04-20T00:11:42Z</time>
      </trkpt>
      <trkpt lat="45.03843" lon="5.49815">
        <ele>1292</ele>
        <time>2012-04-20T00:11:49Z</time>
      </trkpt>
      <trkpt lat="45.03845" lon="5.49814">
        <ele>1292</ele>
        <time>2012-04-20T00:11:49Z</time>
      </trkpt>
      <trkpt lat="45.03878" lon="5.4981">
        <ele>1294</ele>
        <time>2012-04-20T00:11:57Z</time>
      </trkpt>
      <trkpt lat="45.03891" lon="5.49808">
        <ele>1294</ele>
        <time>2012-04-20T00:12:00Z</time>
      </trkpt>
      <trkpt lat="45.03901" lon="5.49806">
        <ele>1294</ele>
        <time>2012-04-20T00:12:03Z</time>
      </trkpt>
      <trkpt lat="45.0391" lon="5.49806">
        <ele>1293</ele>
        <time>2012-04-20T00:12:05Z</time>
      </trkpt>
      <trkpt lat="45.03921" lon="5.49806">
        <ele>1292</ele>
        <time>2012-04-20T00:12:07Z</time>
      </trkpt>
      <trkpt lat="45.03936" lon="5.49804">
        <ele>1292</ele>
        <time>2012-04-20T00:12:11Z</time>
      </trkpt>
      <trkpt lat="45.03968" lon="5.49791">
        <ele>1294</ele>
        <time>2012-04-20T00:12:20Z</time>
      </trkpt>
      <trkpt lat="45.03976" lon="5.49786">
        <ele>1294</ele>
        <time>2012-04-20T00:12:22Z</time>
      </trkpt>
      <trkpt lat="45.03983" lon="5.49784">
        <ele>1295</ele>
        <time>2012-04-20T00:12:23Z</time>
      </trkpt>
      <trkpt lat="45.03994" lon="5.49782">
        <ele>1295</ele>
        <time>2012-04-20T00:12:26Z</time>
      </trkpt>
      <trkpt lat="45.04034" lon="5.49776">
        <ele>1296</ele>
        <time>2012-04-20T00:12:37Z</time>
      </trkpt>
      <trkpt lat="45.04054" lon="5.49773">
        <ele>1296</ele>
        <time>2012-04-20T00:12:42Z</time>
      </trkpt>
      <trkpt lat="45.0406" lon="5.49773">
        <ele>1297</ele>
        <time>2012-04-20T00:12:43Z</time>
      </trkpt>
      <trkpt lat="45.04064" lon="5.49773">
        <ele>1297</ele>
        <time>2012-04-20T00:12:44Z</time>
      </trkpt>
      <trkpt lat="45.04069" lon="5.49776">
        <ele>1297</ele>
        <time>2012-04-20T00:12:45Z</time>
      </trkpt>
      <trkpt lat="45.04073" lon="5.49776">
        <ele>1297</ele>
        <time>2012-04-20T00:12:46Z</time>
      </trkpt>
      <trkpt lat="45.04084" lon="5.49784">
        <ele>1298</ele>
        <time>2012-04-20T00:12:49Z</time>
      </trkpt>
      <trkpt lat="45.04097" lon="5.49799">
        <ele>1296</ele>
        <time>2012-04-20T00:12:53Z</time>
      </trkpt>
      <trkpt lat="45.04114" lon="5.49819">
        <ele>1294</ele>
        <time>2012-04-20T00:12:59Z</time>
      </trkpt>
      <trkpt lat="45.0412" lon="5.49827">
        <ele>1294</ele>
        <time>2012-04-20T00:13:01Z</time>
      </trkpt>
      <trkpt lat="45.04127" lon="5.49836">
        <ele>1289</ele>
        <time>2012-04-20T00:13:03Z</time>
      </trkpt>
      <trkpt lat="45.04131" lon="5.49849">
        <ele>1289</ele>
        <time>2012-04-20T00:13:05Z</time>
      </trkpt>
      <trkpt lat="45.04137" lon="5.49859">
        <ele>1289</ele>
        <time>2012-04-20T00:13:07Z</time>
      </trkpt>
      <trkpt lat="45.04144" lon="5.49864">
        <ele>1289</ele>
        <time>2012-04-20T00:13:08Z</time>
      </trkpt>
      <trkpt lat="45.04154" lon="5.4987">
        <ele>1289</ele>
        <time>2012-04-20T00:13:11Z</time>
      </trkpt>
      <trkpt lat="45.04167" lon="5.49876">
        <ele>1291</ele>
        <time>2012-04-20T00:13:14Z</time>
      </trkpt>
      <trkpt lat="45.04187" lon="5.49885">
        <ele>1291</ele>
        <time>2012-04-20T00:13:19Z</time>
      </trkpt>
      <trkpt lat="45.04215" lon="5.49898">
        <ele>1291</ele>
        <time>2012-04-20T00:13:27Z</time>
      </trkpt>
      <trkpt lat="45.0424" lon="5.49909">
        <ele>1291</ele>
        <time>2012-04-20T00:13:34Z</time>
      </trkpt>
      <trkpt lat="45.04266" lon="5.49922">
        <ele>1290</ele>
        <time>2012-04-20T00:13:41Z</time>
      </trkpt>
      <trkpt lat="45.04266" lon="5.49913">
        <ele>1291</ele>
        <time>2012-04-20T00:13:42Z</time>
      </trkpt>
      <trkpt lat="45.04268" lon="5.49909">
        <ele>1291</ele>
        <time>2012-04-20T00:13:43Z</time>
      </trkpt>
      <trkpt lat="45.04283" lon="5.49881">
        <ele>1293</ele>
        <time>2012-04-20T00:13:49Z</time>
      </trkpt>
      <trkpt lat="45.04285" lon="5.49874">
        <ele>1293</ele>
        <time>2012-04-20T00:13:50Z</time>
      </trkpt>
      <trkpt lat="45.04288" lon="5.49868">
        <ele>1293</ele>
        <time>2012-04-20T00:13:51Z</time>
      </trkpt>
      <trkpt lat="45.04288" lon="5.49864">
        <ele>1293</ele>
        <time>2012-04-20T00:13:51Z</time>
      </trkpt>
      <trkpt lat="45.04288" lon="5.49859">
        <ele>1293</ele>
        <time>2012-04-20T00:13:51Z</time>
      </trkpt>
      <trkpt lat="45.04288" lon="5.49851">
        <ele>1294</ele>
        <time>2012-04-20T00:13:52Z</time>
      </trkpt>
      <trkpt lat="45.04281" lon="5.49838">
        <ele>1294</ele>
        <time>2012-04-20T00:13:54Z</time>
      </trkpt>
      <trkpt lat="45.04275" lon="5.49814">
        <ele>1301</ele>
        <time>2012-04-20T00:13:59Z</time>
      </trkpt>
      <trkpt lat="45.0427" lon="5.49801">
        <ele>1302</ele>
        <time>2012-04-20T00:14:01Z</time>
      </trkpt>
      <trkpt lat="45.04264" lon="5.49776">
        <ele>1304</ele>
        <time>2012-04-20T00:14:06Z</time>
      </trkpt>
      <trkpt lat="45.0426" lon="5.49761">
        <ele>1306</ele>
        <time>2012-04-20T00:14:09Z</time>
      </trkpt>
      <trkpt lat="45.04257" lon="5.49752">
        <ele>1307</ele>
        <time>2012-04-20T00:14:10Z</time>
      </trkpt>
      <trkpt lat="45.04255" lon="5.49748">
        <ele>1312</ele>
        <time>2012-04-20T00:14:11Z</time>
      </trkpt>
      <trkpt lat="45.04251" lon="5.49746">
        <ele>1311</ele>
        <time>2012-04-20T00:14:12Z</time>
      </trkpt>
      <trkpt lat="45.04223" lon="5.49728">
        <ele>1317</ele>
        <time>2012-04-20T00:14:20Z</time>
      </trkpt>
      <trkpt lat="45.04208" lon="5.49724">
        <ele>1317</ele>
        <time>2012-04-20T00:14:24Z</time>
      </trkpt>
      <trkpt lat="45.042" lon="5.49718">
        <ele>1318</ele>
        <time>2012-04-20T00:14:26Z</time>
      </trkpt>
      <trkpt lat="45.04193" lon="5.49713">
        <ele>1319</ele>
        <time>2012-04-20T00:14:27Z</time>
      </trkpt>
      <trkpt lat="45.04176" lon="5.49707">
        <ele>1320</ele>
        <time>2012-04-20T00:14:31Z</time>
      </trkpt>
      <trkpt lat="45.04167" lon="5.49701">
        <ele>1321</ele>
        <time>2012-04-20T00:14:33Z</time>
      </trkpt>
      <trkpt lat="45.04146" lon="5.49694">
        <ele>1321</ele>
        <time>2012-04-20T00:14:39Z</time>
      </trkpt>
      <trkpt lat="45.04099" lon="5.49679">
        <ele>1324</ele>
        <time>2012-04-20T00:14:52Z</time>
      </trkpt>
      <trkpt lat="45.04079" lon="5.49675">
        <ele>1328</ele>
        <time>2012-04-20T00:14:57Z</time>
      </trkpt>
      <trkpt lat="45.04064" lon="5.4967">
        <ele>1325</ele>
        <time>2012-04-20T00:15:01Z</time>
      </trkpt>
      <trkpt lat="45.04056" lon="5.49668">
        <ele>1324</ele>
        <time>2012-04-20T00:15:03Z</time>
      </trkpt>
      <trkpt lat="45.04049" lon="5.49664">
        <ele>1341</ele>
        <time>2012-04-20T00:15:04Z</time>
      </trkpt>
      <trkpt lat="45.04041" lon="5.49658">
        <ele>1342</ele>
        <time>2012-04-20T00:15:06Z</time>
      </trkpt>
      <trkpt lat="45.04034" lon="5.49651">
        <ele>1342</ele>
        <time>2012-04-20T00:15:08Z</time>
      </trkpt>
      <trkpt lat="45.0403" lon="5.49649">
        <ele>1342</ele>
        <time>2012-04-20T00:15:09Z</time>
      </trkpt>
      <trkpt lat="45.04026" lon="5.49645">
        <ele>1343</ele>
        <time>2012-04-20T00:15:10Z</time>
      </trkpt>
      <trkpt lat="45.04015" lon="5.49643">
        <ele>1342</ele>
        <time>2012-04-20T00:15:13Z</time>
      </trkpt>
      <trkpt lat="45.03996" lon="5.49638">
        <ele>1343</ele>
        <time>2012-04-20T00:15:18Z</time>
      </trkpt>
      <trkpt lat="45.03936" lon="5.49617">
        <ele>1347</ele>
        <time>2012-04-20T00:15:35Z</time>
      </trkpt>
      <trkpt lat="45.03925" lon="5.49615">
        <ele>1347</ele>
        <time>2012-04-20T00:15:38Z</time>
      </trkpt>
      <trkpt lat="45.03923" lon="5.4961">
        <ele>1348</ele>
        <time>2012-04-20T00:15:39Z</time>
      </trkpt>
      <trkpt lat="45.03918" lon="5.49606">
        <ele>1349</ele>
        <time>2012-04-20T00:15:40Z</time>
      </trkpt>
      <trkpt lat="45.03906" lon="5.49591">
        <ele>1350</ele>
        <time>2012-04-20T00:15:44Z</time>
      </trkpt>
      <trkpt lat="45.03899" lon="5.49585">
        <ele>1349</ele>
        <time>2012-04-20T00:15:46Z</time>
      </trkpt>
      <trkpt lat="45.03891" lon="5.49578">
        <ele>1359</ele>
        <time>2012-04-20T00:15:48Z</time>
      </trkpt>
      <trkpt lat="45.03841" lon="5.49542">
        <ele>1362</ele>
        <time>2012-04-20T00:16:03Z</time>
      </trkpt>
      <trkpt lat="45.03835" lon="5.49535">
        <ele>1363</ele>
        <time>2012-04-20T00:16:05Z</time>
      </trkpt>
      <trkpt lat="45.0383" lon="5.49531">
        <ele>1360</ele>
        <time>2012-04-20T00:16:06Z</time>
      </trkpt>
      <trkpt lat="45.03826" lon="5.49525">
        <ele>1361</ele>
        <time>2012-04-20T00:16:07Z</time>
      </trkpt>
      <trkpt lat="45.03824" lon="5.4952">
        <ele>1362</ele>
        <time>2012-04-20T00:16:08Z</time>
      </trkpt>
      <trkpt lat="45.03822" lon="5.49512">
        <ele>1364</ele>
        <time>2012-04-20T00:16:09Z</time>
      </trkpt>
      <trkpt lat="45.0382" lon="5.49499">
        <ele>1373</ele>
        <time>2012-04-20T00:16:11Z</time>
      </trkpt>
      <trkpt lat="45.03818" lon="5.49477">
        <ele>1376</ele>
        <time>2012-04-20T00:16:15Z</time>
      </trkpt>
      <trkpt lat="45.03815" lon="5.49465">
        <ele>1378</ele>
        <time>2012-04-20T00:16:17Z</time>
      </trkpt>
      <trkpt lat="45.03815" lon="5.49458">
        <ele>1379</ele>
        <time>2012-04-20T00:16:18Z</time>
      </trkpt>
      <trkpt lat="45.03811" lon="5.49454">
        <ele>1379</ele>
        <time>2012-04-20T00:16:19Z</time>
      </trkpt>
      <trkpt lat="45.03809" lon="5.49449">
        <ele>1380</ele>
        <time>2012-04-20T00:16:20Z</time>
      </trkpt>
      <trkpt lat="45.03807" lon="5.49445">
        <ele>1381</ele>
        <time>2012-04-20T00:16:21Z</time>
      </trkpt>
      <trkpt lat="45.03803" lon="5.49443">
        <ele>1381</ele>
        <time>2012-04-20T00:16:22Z</time>
      </trkpt>
      <trkpt lat="45.03798" lon="5.49443">
        <ele>1381</ele>
        <time>2012-04-20T00:16:23Z</time>
      </trkpt>
      <trkpt lat="45.03794" lon="5.49441">
        <ele>1381</ele>
        <time>2012-04-20T00:16:24Z</time>
      </trkpt>
      <trkpt lat="45.0379" lon="5.49441">
        <ele>1381</ele>
        <time>2012-04-20T00:16:25Z</time>
      </trkpt>
      <trkpt lat="45.03783" lon="5.49443">
        <ele>1380</ele>
        <time>2012-04-20T00:16:26Z</time>
      </trkpt>
      <trkpt lat="45.03777" lon="5.49445">
        <ele>1380</ele>
        <time>2012-04-20T00:16:27Z</time>
      </trkpt>
      <trkpt lat="45.03773" lon="5.49447">
        <ele>1380</ele>
        <time>2012-04-20T00:16:28Z</time>
      </trkpt>
      <trkpt lat="45.03768" lon="5.49449">
        <ele>1379</ele>
        <time>2012-04-20T00:16:29Z</time>
      </trkpt>
      <trkpt lat="45.03762" lon="5.49452">
        <ele>1379</ele>
        <time>2012-04-20T00:16:30Z</time>
      </trkpt>
      <trkpt lat="45.03758" lon="5.49452">
        <ele>1379</ele>
        <time>2012-04-20T00:16:31Z</time>
      </trkpt>
      <trkpt lat="45.03753" lon="5.49452">
        <ele>1379</ele>
        <time>2012-04-20T00:16:32Z</time>
      </trkpt>
      <trkpt lat="45.03745" lon="5.49445">
        <ele>1378</ele>
        <time>2012-04-20T00:16:34Z</time>
      </trkpt>
      <trkpt lat="45.03738" lon="5.49439">
        <ele>1380</ele>
        <time>2012-04-20T00:16:36Z</time>
      </trkpt>
      <trkpt lat="45.03732" lon="5.49434">
        <ele>1380</ele>
        <time>2012-04-20T00:16:37Z</time>
      </trkpt>
      <trkpt lat="45.0373" lon="5.4943">
        <ele>1380</ele>
        <time>2012-04-20T00:16:38Z</time>
      </trkpt>
      <trkpt lat="45.03723" lon="5.49426">
        <ele>1380</ele>
        <time>2012-04-20T00:16:39Z</time>
      </trkpt>
      <trkpt lat="45.03719" lon="5.49422">
        <ele>1380</ele>
        <time>2012-04-20T00:16:40Z</time>
      </trkpt>
      <trkpt lat="45.03715" lon="5.49417">
        <ele>1380</ele>
        <time>2012-04-20T00:16:41Z</time>
      </trkpt>
      <trkpt lat="45.03706" lon="5.49413">
        <ele>1392</ele>
        <time>2012-04-20T00:16:43Z</time>
      </trkpt>
      <trkpt lat="45.03693" lon="5.49407">
        <ele>1392</ele>
        <time>2012-04-20T00:16:46Z</time>
      </trkpt>
      <trkpt lat="45.03682" lon="5.494">
        <ele>1391</ele>
        <time>2012-04-20T00:16:49Z</time>
      </trkpt>
      <trkpt lat="45.03676" lon="5.49396">
        <ele>1392</ele>
        <time>2012-04-20T00:16:50Z</time>
      </trkpt>
      <trkpt lat="45.0367" lon="5.49385">
        <ele>1393</ele>
        <time>2012-04-20T00:16:52Z</time>
      </trkpt>
      <trkpt lat="45.03667" lon="5.49381">
        <ele>1394</ele>
        <time>2012-04-20T00:16:53Z</time>
      </trkpt>
      <trkpt lat="45.03665" lon="5.49377">
        <ele>1396</ele>
        <time>2012-04-20T00:16:54Z</time>
      </trkpt>
      <trkpt lat="45.03663" lon="5.49368">
        <ele>1398</ele>
        <time>2012-04-20T00:16:55Z</time>
      </trkpt>
      <trkpt lat="45.03663" lon="5.49362">
        <ele>1399</ele>
        <time>2012-04-20T00:16:56Z</time>
      </trkpt>
      <trkpt lat="45.03665" lon="5.49353">
        <ele>1400</ele>
        <time>2012-04-20T00:16:57Z</time>
      </trkpt>
      <trkpt lat="45.03667" lon="5.49346">
        <ele>1400</ele>
        <time>2012-04-20T00:16:58Z</time>
      </trkpt>
      <trkpt lat="45.03672" lon="5.4934">
        <ele>1401</ele>
        <time>2012-04-20T00:16:59Z</time>
      </trkpt>
      <trkpt lat="45.03678" lon="5.49336">
        <ele>1401</ele>
        <time>2012-04-20T00:17:00Z</time>
      </trkpt>
      <trkpt lat="45.03689" lon="5.49331">
        <ele>1407</ele>
        <time>2012-04-20T00:17:03Z</time>
      </trkpt>
      <trkpt lat="45.03702" lon="5.49327">
        <ele>1407</ele>
        <time>2012-04-20T00:17:06Z</time>
      </trkpt>
      <trkpt lat="45.03723" lon="5.49325">
        <ele>1406</ele>
        <time>2012-04-20T00:17:11Z</time>
      </trkpt>
      <trkpt lat="45.0373" lon="5.49323">
        <ele>1406</ele>
        <time>2012-04-20T00:17:12Z</time>
      </trkpt>
      <trkpt lat="45.03736" lon="5.49321">
        <ele>1405</ele>
        <time>2012-04-20T00:17:13Z</time>
      </trkpt>
      <trkpt lat="45.03755" lon="5.4931">
        <ele>1403</ele>
        <time>2012-04-20T00:17:18Z</time>
      </trkpt>
      <trkpt lat="45.03764" lon="5.49306">
        <ele>1404</ele>
        <time>2012-04-20T00:17:20Z</time>
      </trkpt>
      <trkpt lat="45.03775" lon="5.49299">
        <ele>1405</ele>
        <time>2012-04-20T00:17:23Z</time>
      </trkpt>
      <trkpt lat="45.03781" lon="5.49295">
        <ele>1405</ele>
        <time>2012-04-20T00:17:24Z</time>
      </trkpt>
      <trkpt lat="45.03792" lon="5.49286">
        <ele>1405</ele>
        <time>2012-04-20T00:17:27Z</time>
      </trkpt>
      <trkpt lat="45.03803" lon="5.49278">
        <ele>1405</ele>
        <time>2012-04-20T00:17:30Z</time>
      </trkpt>
      <trkpt lat="45.03811" lon="5.49269">
        <ele>1406</ele>
        <time>2012-04-20T00:17:32Z</time>
      </trkpt>
      <trkpt lat="45.03826" lon="5.49261">
        <ele>1407</ele>
        <time>2012-04-20T00:17:36Z</time>
      </trkpt>
      <trkpt lat="45.03839" lon="5.49252">
        <ele>1407</ele>
        <time>2012-04-20T00:17:39Z</time>
      </trkpt>
      <trkpt lat="45.03861" lon="5.49239">
        <ele>1411</ele>
        <time>2012-04-20T00:17:45Z</time>
      </trkpt>
      <trkpt lat="45.03873" lon="5.49233">
        <ele>1412</ele>
        <time>2012-04-20T00:17:48Z</time>
      </trkpt>
      <trkpt lat="45.03882" lon="5.49228">
        <ele>1412</ele>
        <time>2012-04-20T00:17:50Z</time>
      </trkpt>
      <trkpt lat="45.03891" lon="5.49226">
        <ele>1413</ele>
        <time>2012-04-20T00:17:52Z</time>
      </trkpt>
      <trkpt lat="45.03899" lon="5.49224">
        <ele>1413</ele>
        <time>2012-04-20T00:17:54Z</time>
      </trkpt>
      <trkpt lat="45.03914" lon="5.49222">
        <ele>1413</ele>
        <time>2012-04-20T00:17:58Z</time>
      </trkpt>
      <trkpt lat="45.03931" lon="5.49222">
        <ele>1417</ele>
        <time>2012-04-20T00:18:02Z</time>
      </trkpt>
      <trkpt lat="45.03948" lon="5.49224">
        <ele>1418</ele>
        <time>2012-04-20T00:18:06Z</time>
      </trkpt>
      <trkpt lat="45.03961" lon="5.49226">
        <ele>1419</ele>
        <time>2012-04-20T00:18:09Z</time>
      </trkpt>
      <trkpt lat="45.0397" lon="5.49231">
        <ele>1419</ele>
        <time>2012-04-20T00:18:11Z</time>
      </trkpt>
      <trkpt lat="45.03976" lon="5.49232">
        <ele>1420</ele>
        <time>2012-04-20T00:18:12Z</time>
      </trkpt>
      <trkpt lat="45.03991" lon="5.49237">
        <ele>1420</ele>
        <time>2012-04-20T00:18:16Z</time>
      </trkpt>
      <trkpt lat="45.04015" lon="5.49239">
        <ele>1425</ele>
        <time>2012-04-20T00:18:22Z</time>
      </trkpt>
      <trkpt lat="45.04028" lon="5.49239">
        <ele>1428</ele>
        <time>2012-04-20T00:18:25Z</time>
      </trkpt>
      <trkpt lat="45.04054" lon="5.49239">
        <ele>1430</ele>
        <time>2012-04-20T00:18:32Z</time>
      </trkpt>
      <trkpt lat="45.0406" lon="5.49239">
        <ele>1431</ele>
        <time>2012-04-20T00:18:33Z</time>
      </trkpt>
      <trkpt lat="45.04069" lon="5.49237">
        <ele>1431</ele>
        <time>2012-04-20T00:18:35Z</time>
      </trkpt>
      <trkpt lat="45.04077" lon="5.49235">
        <ele>1431</ele>
        <time>2012-04-20T00:18:37Z</time>
      </trkpt>
      <trkpt lat="45.04094" lon="5.49231">
        <ele>1435</ele>
        <time>2012-04-20T00:18:41Z</time>
      </trkpt>
      <trkpt lat="45.04105" lon="5.49231">
        <ele>1435</ele>
        <time>2012-04-20T00:18:43Z</time>
      </trkpt>
      <trkpt lat="45.0412" lon="5.49226">
        <ele>1436</ele>
        <time>2012-04-20T00:18:47Z</time>
      </trkpt>
      <trkpt lat="45.04137" lon="5.49218">
        <ele>1437</ele>
        <time>2012-04-20T00:18:52Z</time>
      </trkpt>
      <trkpt lat="45.04154" lon="5.49207">
        <ele>1438</ele>
        <time>2012-04-20T00:18:57Z</time>
      </trkpt>
      <trkpt lat="45.04169" lon="5.49198">
        <ele>1441</ele>
        <time>2012-04-20T00:19:01Z</time>
      </trkpt>
      <trkpt lat="45.04191" lon="5.49186">
        <ele>1442</ele>
        <time>2012-04-20T00:19:07Z</time>
      </trkpt>
      <trkpt lat="45.04197" lon="5.49183">
        <ele>1442</ele>
        <time>2012-04-20T00:19:08Z</time>
      </trkpt>
      <trkpt lat="45.04206" lon="5.49181">
        <ele>1443</ele>
        <time>2012-04-20T00:19:10Z</time>
      </trkpt>
      <trkpt lat="45.04217" lon="5.49179">
        <ele>1443</ele>
        <time>2012-04-20T00:19:13Z</time>
      </trkpt>
      <trkpt lat="45.04225" lon="5.49179">
        <ele>1444</ele>
        <time>2012-04-20T00:19:15Z</time>
      </trkpt>
      <trkpt lat="45.04234" lon="5.49183">
        <ele>1445</ele>
        <time>2012-04-20T00:19:17Z</time>
      </trkpt>
      <trkpt lat="45.04245" lon="5.49192">
        <ele>1444</ele>
        <time>2012-04-20T00:19:20Z</time>
      </trkpt>
      <trkpt lat="45.04264" lon="5.49198">
        <ele>1446</ele>
        <time>2012-04-20T00:19:25Z</time>
      </trkpt>
      <trkpt lat="45.04268" lon="5.49201">
        <ele>1446</ele>
        <time>2012-04-20T00:19:26Z</time>
      </trkpt>
      <trkpt lat="45.04277" lon="5.49201">
        <ele>1446</ele>
        <time>2012-04-20T00:19:28Z</time>
      </trkpt>
      <trkpt lat="45.04288" lon="5.49201">
        <ele>1447</ele>
        <time>2012-04-20T00:19:30Z</time>
      </trkpt>
      <trkpt lat="45.043" lon="5.49201">
        <ele>1447</ele>
        <time>2012-04-20T00:19:33Z</time>
      </trkpt>
      <trkpt lat="45.04324" lon="5.49203">
        <ele>1448</ele>
        <time>2012-04-20T00:19:39Z</time>
      </trkpt>
      <trkpt lat="45.04345" lon="5.49205">
        <ele>1450</ele>
        <time>2012-04-20T00:19:44Z</time>
      </trkpt>
      <trkpt lat="45.04369" lon="5.49207">
        <ele>1451</ele>
        <time>2012-04-20T00:19:50Z</time>
      </trkpt>
      <trkpt lat="45.04382" lon="5.49207">
        <ele>1451</ele>
        <time>2012-04-20T00:19:53Z</time>
      </trkpt>
      <trkpt lat="45.04395" lon="5.49205">
        <ele>1452</ele>
        <time>2012-04-20T00:19:56Z</time>
      </trkpt>
      <trkpt lat="45.04412" lon="5.49201">
        <ele>1452</ele>
        <time>2012-04-20T00:20:00Z</time>
      </trkpt>
      <trkpt lat="45.04436" lon="5.49196">
        <ele>1456</ele>
        <time>2012-04-20T00:20:06Z</time>
      </trkpt>
      <trkpt lat="45.04442" lon="5.49194">
        <ele>1456</ele>
        <time>2012-04-20T00:20:07Z</time>
      </trkpt>
      <trkpt lat="45.04448" lon="5.49192">
        <ele>1456</ele>
        <time>2012-04-20T00:20:08Z</time>
      </trkpt>
      <trkpt lat="45.04455" lon="5.49192">
        <ele>1456</ele>
        <time>2012-04-20T00:20:09Z</time>
      </trkpt>
      <trkpt lat="45.04461" lon="5.49194">
        <ele>1457</ele>
        <time>2012-04-20T00:20:10Z</time>
      </trkpt>
      <trkpt lat="45.04468" lon="5.49196">
        <ele>1457</ele>
        <time>2012-04-20T00:20:11Z</time>
      </trkpt>
      <trkpt lat="45.04474" lon="5.49201">
        <ele>1457</ele>
        <time>2012-04-20T00:20:12Z</time>
      </trkpt>
      <trkpt lat="45.04491" lon="5.49224">
        <ele>1455</ele>
        <time>2012-04-20T00:20:18Z</time>
      </trkpt>
      <trkpt lat="45.04496" lon="5.49233">
        <ele>1454</ele>
        <time>2012-04-20T00:20:20Z</time>
      </trkpt>
      <trkpt lat="45.04502" lon="5.49246">
        <ele>1455</ele>
        <time>2012-04-20T00:20:23Z</time>
      </trkpt>
      <trkpt lat="45.04506" lon="5.49254">
        <ele>1454</ele>
        <time>2012-04-20T00:20:25Z</time>
      </trkpt>
      <trkpt lat="45.04515" lon="5.49269">
        <ele>1455</ele>
        <time>2012-04-20T00:20:28Z</time>
      </trkpt>
      <trkpt lat="45.04521" lon="5.49274">
        <ele>1456</ele>
        <time>2012-04-20T00:20:29Z</time>
      </trkpt>
      <trkpt lat="45.04528" lon="5.49278">
        <ele>1456</ele>
        <time>2012-04-20T00:20:30Z</time>
      </trkpt>
      <trkpt lat="45.04536" lon="5.49282">
        <ele>1457</ele>
        <time>2012-04-20T00:20:32Z</time>
      </trkpt>
      <trkpt lat="45.04547" lon="5.49286">
        <ele>1457</ele>
        <time>2012-04-20T00:20:35Z</time>
      </trkpt>
      <trkpt lat="45.04571" lon="5.49289">
        <ele>1459</ele>
        <time>2012-04-20T00:20:41Z</time>
      </trkpt>
      <trkpt lat="45.04616" lon="5.49291">
        <ele>1465</ele>
        <time>2012-04-20T00:20:53Z</time>
      </trkpt>
      <trkpt lat="45.04654" lon="5.49293">
        <ele>1466</ele>
        <time>2012-04-20T00:21:03Z</time>
      </trkpt>
      <trkpt lat="45.04678" lon="5.49293">
        <ele>1468</ele>
        <time>2012-04-20T00:21:09Z</time>
      </trkpt>
      <trkpt lat="45.04676" lon="5.49286">
        <ele>1469</ele>
        <time>2012-04-20T00:21:10Z</time>
      </trkpt>
      <trkpt lat="45.04674" lon="5.49282">
        <ele>1469</ele>
        <time>2012-04-20T00:21:11Z</time>
      </trkpt>
      <trkpt lat="45.04669" lon="5.49278">
        <ele>1470</ele>
        <time>2012-04-20T00:21:12Z</time>
      </trkpt>
      <trkpt lat="45.04665" lon="5.49274">
        <ele>1468</ele>
        <time>2012-04-20T00:21:13Z</time>
      </trkpt>
      <trkpt lat="45.04657" lon="5.49269">
        <ele>1469</ele>
        <time>2012-04-20T00:21:15Z</time>
      </trkpt>
      <trkpt lat="45.04648" lon="5.49265">
        <ele>1468</ele>
        <time>2012-04-20T00:21:17Z</time>
      </trkpt>
      <trkpt lat="45.04644" lon="5.49261">
        <ele>1468</ele>
        <time>2012-04-20T00:21:18Z</time>
      </trkpt>
      <trkpt lat="45.04637" lon="5.49254">
        <ele>1468</ele>
        <time>2012-04-20T00:21:20Z</time>
      </trkpt>
      <trkpt lat="45.04635" lon="5.49248">
        <ele>1473</ele>
        <time>2012-04-20T00:21:21Z</time>
      </trkpt>
      <trkpt lat="45.04633" lon="5.49241">
        <ele>1473</ele>
        <time>2012-04-20T00:21:22Z</time>
      </trkpt>
      <trkpt lat="45.04633" lon="5.49237">
        <ele>1473</ele>
        <time>2012-04-20T00:21:22Z</time>
      </trkpt>
      <trkpt lat="45.04633" lon="5.49231">
        <ele>1473</ele>
        <time>2012-04-20T00:21:23Z</time>
      </trkpt>
      <trkpt lat="45.04637" lon="5.49218">
        <ele>1474</ele>
        <time>2012-04-20T00:21:25Z</time>
      </trkpt>
      <trkpt lat="45.04642" lon="5.49205">
        <ele>1475</ele>
        <time>2012-04-20T00:21:27Z</time>
      </trkpt>
      <trkpt lat="45.04644" lon="5.49192">
        <ele>1477</ele>
        <time>2012-04-20T00:21:29Z</time>
      </trkpt>
      <trkpt lat="45.04646" lon="5.49179">
        <ele>1478</ele>
        <time>2012-04-20T00:21:31Z</time>
      </trkpt>
      <trkpt lat="45.04646" lon="5.49173">
        <ele>1479</ele>
        <time>2012-04-20T00:21:32Z</time>
      </trkpt>
      <trkpt lat="45.04644" lon="5.49162">
        <ele>1483</ele>
        <time>2012-04-20T00:21:34Z</time>
      </trkpt>
      <trkpt lat="45.04642" lon="5.49149">
        <ele>1482</ele>
        <time>2012-04-20T00:21:36Z</time>
      </trkpt>
      <trkpt lat="45.04637" lon="5.49138">
        <ele>1482</ele>
        <time>2012-04-20T00:21:38Z</time>
      </trkpt>
      <trkpt lat="45.04631" lon="5.49123">
        <ele>1482</ele>
        <time>2012-04-20T00:21:41Z</time>
      </trkpt>
      <trkpt lat="45.04624" lon="5.49115">
        <ele>1482</ele>
        <time>2012-04-20T00:21:43Z</time>
      </trkpt>
      <trkpt lat="45.04618" lon="5.49108">
        <ele>1481</ele>
        <time>2012-04-20T00:21:45Z</time>
      </trkpt>
      <trkpt lat="45.04614" lon="5.49104">
        <ele>1481</ele>
        <time>2012-04-20T00:21:46Z</time>
      </trkpt>
      <trkpt lat="45.04609" lon="5.49093">
        <ele>1481</ele>
        <time>2012-04-20T00:21:48Z</time>
      </trkpt>
      <trkpt lat="45.04605" lon="5.49089">
        <ele>1480</ele>
        <time>2012-04-20T00:21:49Z</time>
      </trkpt>
      <trkpt lat="45.04603" lon="5.49083">
        <ele>1483</ele>
        <time>2012-04-20T00:21:50Z</time>
      </trkpt>
      <trkpt lat="45.04603" lon="5.49078">
        <ele>1483</ele>
        <time>2012-04-20T00:21:50Z</time>
      </trkpt>
      <trkpt lat="45.04603" lon="5.49074">
        <ele>1483</ele>
        <time>2012-04-20T00:21:50Z</time>
      </trkpt>
      <trkpt lat="45.04605" lon="5.4907">
        <ele>1484</ele>
        <time>2012-04-20T00:21:51Z</time>
      </trkpt>
      <trkpt lat="45.04607" lon="5.49065">
        <ele>1485</ele>
        <time>2012-04-20T00:21:52Z</time>
      </trkpt>
      <trkpt lat="45.04612" lon="5.49059">
        <ele>1485</ele>
        <time>2012-04-20T00:21:53Z</time>
      </trkpt>
      <trkpt lat="45.04622" lon="5.49055">
        <ele>1486</ele>
        <time>2012-04-20T00:21:56Z</time>
      </trkpt>
      <trkpt lat="45.04637" lon="5.49053">
        <ele>1488</ele>
        <time>2012-04-20T00:22:00Z</time>
      </trkpt>
      <trkpt lat="45.04646" lon="5.4905">
        <ele>1488</ele>
        <time>2012-04-20T00:22:02Z</time>
      </trkpt>
      <trkpt lat="45.0465" lon="5.4905">
        <ele>1488</ele>
        <time>2012-04-20T00:22:03Z</time>
      </trkpt>
      <trkpt lat="45.04654" lon="5.49048">
        <ele>1489</ele>
        <time>2012-04-20T00:22:04Z</time>
      </trkpt>
      <trkpt lat="45.04659" lon="5.49042">
        <ele>1489</ele>
        <time>2012-04-20T00:22:05Z</time>
      </trkpt>
      <trkpt lat="45.04663" lon="5.49037">
        <ele>1489</ele>
        <time>2012-04-20T00:22:06Z</time>
      </trkpt>
      <trkpt lat="45.04665" lon="5.49029">
        <ele>1490</ele>
        <time>2012-04-20T00:22:07Z</time>
      </trkpt>
      <trkpt lat="45.04676" lon="5.49014">
        <ele>1497</ele>
        <time>2012-04-20T00:22:11Z</time>
      </trkpt>
      <trkpt lat="45.04687" lon="5.48997">
        <ele>1500</ele>
        <time>2012-04-20T00:22:15Z</time>
      </trkpt>
      <trkpt lat="45.047" lon="5.48977">
        <ele>1503</ele>
        <time>2012-04-20T00:22:20Z</time>
      </trkpt>
      <trkpt lat="45.04712" lon="5.48962">
        <ele>1505</ele>
        <time>2012-04-20T00:22:24Z</time>
      </trkpt>
      <trkpt lat="45.0476" lon="5.48909">
        <ele>1514</ele>
        <time>2012-04-20T00:22:40Z</time>
      </trkpt>
      <trkpt lat="45.04807" lon="5.48857">
        <ele>1519</ele>
        <time>2012-04-20T00:22:56Z</time>
      </trkpt>
      <trkpt lat="45.04815" lon="5.48849">
        <ele>1520</ele>
        <time>2012-04-20T00:22:58Z</time>
      </trkpt>
      <trkpt lat="45.04818" lon="5.48842">
        <ele>1520</ele>
        <time>2012-04-20T00:22:59Z</time>
      </trkpt>
      <trkpt lat="45.04822" lon="5.48836">
        <ele>1521</ele>
        <time>2012-04-20T00:23:00Z</time>
      </trkpt>
      <trkpt lat="45.0483" lon="5.48825">
        <ele>1522</ele>
        <time>2012-04-20T00:23:03Z</time>
      </trkpt>
      <trkpt lat="45.04843" lon="5.4881">
        <ele>1524</ele>
        <time>2012-04-20T00:23:07Z</time>
      </trkpt>
      <trkpt lat="45.0485" lon="5.48799">
        <ele>1525</ele>
        <time>2012-04-20T00:23:09Z</time>
      </trkpt>
      <trkpt lat="45.04854" lon="5.48793">
        <ele>1525</ele>
        <time>2012-04-20T00:23:10Z</time>
      </trkpt>
      <trkpt lat="45.04858" lon="5.48776">
        <ele>1525</ele>
        <time>2012-04-20T00:23:13Z</time>
      </trkpt>
      <trkpt lat="45.04863" lon="5.48761">
        <ele>1525</ele>
        <time>2012-04-20T00:23:16Z</time>
      </trkpt>
      <trkpt lat="45.04867" lon="5.48744">
        <ele>1522</ele>
        <time>2012-04-20T00:23:19Z</time>
      </trkpt>
      <trkpt lat="45.04869" lon="5.48731">
        <ele>1522</ele>
        <time>2012-04-20T00:23:21Z</time>
      </trkpt>
      <trkpt lat="45.04871" lon="5.48724">
        <ele>1522</ele>
        <time>2012-04-20T00:23:22Z</time>
      </trkpt>
      <trkpt lat="45.04875" lon="5.48703">
        <ele>1521</ele>
        <time>2012-04-20T00:23:26Z</time>
      </trkpt>
      <trkpt lat="45.0488" lon="5.48692">
        <ele>1521</ele>
        <time>2012-04-20T00:23:28Z</time>
      </trkpt>
      <trkpt lat="45.04886" lon="5.48673">
        <ele>1520</ele>
        <time>2012-04-20T00:23:32Z</time>
      </trkpt>
      <trkpt lat="45.04895" lon="5.4866">
        <ele>1515</ele>
        <time>2012-04-20T00:23:35Z</time>
      </trkpt>
      <trkpt lat="45.04899" lon="5.48645">
        <ele>1515</ele>
        <time>2012-04-20T00:23:38Z</time>
      </trkpt>
      <trkpt lat="45.04905" lon="5.48632">
        <ele>1514</ele>
        <time>2012-04-20T00:23:41Z</time>
      </trkpt>
      <trkpt lat="45.0491" lon="5.48619">
        <ele>1513</ele>
        <time>2012-04-20T00:23:43Z</time>
      </trkpt>
      <trkpt lat="45.04921" lon="5.48602">
        <ele>1515</ele>
        <time>2012-04-20T00:23:47Z</time>
      </trkpt>
      <trkpt lat="45.04923" lon="5.48598">
        <ele>1514</ele>
        <time>2012-04-20T00:23:48Z</time>
      </trkpt>
      <trkpt lat="45.04925" lon="5.48593">
        <ele>1513</ele>
        <time>2012-04-20T00:23:49Z</time>
      </trkpt>
      <trkpt lat="45.04929" lon="5.48589">
        <ele>1514</ele>
        <time>2012-04-20T00:23:50Z</time>
      </trkpt>
      <trkpt lat="45.04936" lon="5.48583">
        <ele>1514</ele>
        <time>2012-04-20T00:23:52Z</time>
      </trkpt>
      <trkpt lat="45.0494" lon="5.48578">
        <ele>1515</ele>
        <time>2012-04-20T00:23:53Z</time>
      </trkpt>
      <trkpt lat="45.04948" lon="5.48572">
        <ele>1517</ele>
        <time>2012-04-20T00:23:55Z</time>
      </trkpt>
      <trkpt lat="45.04963" lon="5.48561">
        <ele>1518</ele>
        <time>2012-04-20T00:23:59Z</time>
      </trkpt>
      <trkpt lat="45.04974" lon="5.48557">
        <ele>1519</ele>
        <time>2012-04-20T00:24:02Z</time>
      </trkpt>
      <trkpt lat="45.04978" lon="5.48553">
        <ele>1519</ele>
        <time>2012-04-20T00:24:03Z</time>
      </trkpt>
      <trkpt lat="45.04985" lon="5.48548">
        <ele>1520</ele>
        <time>2012-04-20T00:24:04Z</time>
      </trkpt>
      <trkpt lat="45.04991" lon="5.48544">
        <ele>1520</ele>
        <time>2012-04-20T00:24:05Z</time>
      </trkpt>
      <trkpt lat="45.05006" lon="5.48535">
        <ele>1525</ele>
        <time>2012-04-20T00:24:09Z</time>
      </trkpt>
      <trkpt lat="45.05015" lon="5.48531">
        <ele>1525</ele>
        <time>2012-04-20T00:24:11Z</time>
      </trkpt>
      <trkpt lat="45.05021" lon="5.48527">
        <ele>1525</ele>
        <time>2012-04-20T00:24:12Z</time>
      </trkpt>
      <trkpt lat="45.05032" lon="5.48525">
        <ele>1526</ele>
        <time>2012-04-20T00:24:15Z</time>
      </trkpt>
      <trkpt lat="45.05039" lon="5.48523">
        <ele>1526</ele>
        <time>2012-04-20T00:24:16Z</time>
      </trkpt>
      <trkpt lat="45.05047" lon="5.4852">
        <ele>1526</ele>
        <time>2012-04-20T00:24:18Z</time>
      </trkpt>
      <trkpt lat="45.05054" lon="5.48516">
        <ele>1527</ele>
        <time>2012-04-20T00:24:19Z</time>
      </trkpt>
      <trkpt lat="45.0506" lon="5.48514">
        <ele>1527</ele>
        <time>2012-04-20T00:24:20Z</time>
      </trkpt>
      <trkpt lat="45.05066" lon="5.4851">
        <ele>1527</ele>
        <time>2012-04-20T00:24:21Z</time>
      </trkpt>
      <trkpt lat="45.05073" lon="5.48505">
        <ele>1528</ele>
        <time>2012-04-20T00:24:22Z</time>
      </trkpt>
      <trkpt lat="45.05077" lon="5.48501">
        <ele>1528</ele>
        <time>2012-04-20T00:24:23Z</time>
      </trkpt>
      <trkpt lat="45.05084" lon="5.48497">
        <ele>1529</ele>
        <time>2012-04-20T00:24:24Z</time>
      </trkpt>
      <trkpt lat="45.05088" lon="5.4849">
        <ele>1529</ele>
        <time>2012-04-20T00:24:25Z</time>
      </trkpt>
      <trkpt lat="45.05096" lon="5.48473">
        <ele>1529</ele>
        <time>2012-04-20T00:24:29Z</time>
      </trkpt>
      <trkpt lat="45.05101" lon="5.48465">
        <ele>1529</ele>
        <time>2012-04-20T00:24:31Z</time>
      </trkpt>
      <trkpt lat="45.05105" lon="5.48456">
        <ele>1529</ele>
        <time>2012-04-20T00:24:33Z</time>
      </trkpt>
      <trkpt lat="45.05111" lon="5.48441">
        <ele>1529</ele>
        <time>2012-04-20T00:24:36Z</time>
      </trkpt>
      <trkpt lat="45.05116" lon="5.4843">
        <ele>1530</ele>
        <time>2012-04-20T00:24:38Z</time>
      </trkpt>
      <trkpt lat="45.05122" lon="5.48415">
        <ele>1530</ele>
        <time>2012-04-20T00:24:41Z</time>
      </trkpt>
      <trkpt lat="45.05124" lon="5.48407">
        <ele>1530</ele>
        <time>2012-04-20T00:24:42Z</time>
      </trkpt>
      <trkpt lat="45.05129" lon="5.48389">
        <ele>1530</ele>
        <time>2012-04-20T00:24:45Z</time>
      </trkpt>
      <trkpt lat="45.05124" lon="5.48387">
        <ele>1530</ele>
        <time>2012-04-20T00:24:46Z</time>
      </trkpt>
      <trkpt lat="45.0512" lon="5.48387">
        <ele>1530</ele>
        <time>2012-04-20T00:24:47Z</time>
      </trkpt>
      <trkpt lat="45.05111" lon="5.48383">
        <ele>1529</ele>
        <time>2012-04-20T00:24:49Z</time>
      </trkpt>
      <trkpt lat="45.05099" lon="5.48379">
        <ele>1529</ele>
        <time>2012-04-20T00:24:52Z</time>
      </trkpt>
      <trkpt lat="45.05086" lon="5.48374">
        <ele>1529</ele>
        <time>2012-04-20T00:24:55Z</time>
      </trkpt>
      <trkpt lat="45.05077" lon="5.48374">
        <ele>1530</ele>
        <time>2012-04-20T00:24:57Z</time>
      </trkpt>
      <trkpt lat="45.05071" lon="5.48372">
        <ele>1530</ele>
        <time>2012-04-20T00:24:58Z</time>
      </trkpt>
      <trkpt lat="45.0506" lon="5.48372">
        <ele>1530</ele>
        <time>2012-04-20T00:25:00Z</time>
      </trkpt>
      <trkpt lat="45.05054" lon="5.48372">
        <ele>1530</ele>
        <time>2012-04-20T00:25:01Z</time>
      </trkpt>
      <trkpt lat="45.05047" lon="5.48368">
        <ele>1530</ele>
        <time>2012-04-20T00:25:02Z</time>
      </trkpt>
      <trkpt lat="45.05045" lon="5.48364">
        <ele>1530</ele>
        <time>2012-04-20T00:25:03Z</time>
      </trkpt>
      <trkpt lat="45.05041" lon="5.48357">
        <ele>1531</ele>
        <time>2012-04-20T00:25:04Z</time>
      </trkpt>
      <trkpt lat="45.05036" lon="5.48351">
        <ele>1531</ele>
        <time>2012-04-20T00:25:05Z</time>
      </trkpt>
      <trkpt lat="45.05032" lon="5.48349">
        <ele>1531</ele>
        <time>2012-04-20T00:25:06Z</time>
      </trkpt>
      <trkpt lat="45.05028" lon="5.48344">
        <ele>1532</ele>
        <time>2012-04-20T00:25:07Z</time>
      </trkpt>
      <trkpt lat="45.05017" lon="5.48338">
        <ele>1533</ele>
        <time>2012-04-20T00:25:10Z</time>
      </trkpt>
      <trkpt lat="45.05013" lon="5.48338">
        <ele>1533</ele>
        <time>2012-04-20T00:25:11Z</time>
      </trkpt>
      <trkpt lat="45.05008" lon="5.48336">
        <ele>1534</ele>
        <time>2012-04-20T00:25:12Z</time>
      </trkpt>
      <trkpt lat="45.05002" lon="5.48334">
        <ele>1535</ele>
        <time>2012-04-20T00:25:13Z</time>
      </trkpt>
      <trkpt lat="45.04998" lon="5.48332">
        <ele>1535</ele>
        <time>2012-04-20T00:25:14Z</time>
      </trkpt>
      <trkpt lat="45.04993" lon="5.48332">
        <ele>1535</ele>
        <time>2012-04-20T00:25:15Z</time>
      </trkpt>
      <trkpt lat="45.04989" lon="5.48325">
        <ele>1536</ele>
        <time>2012-04-20T00:25:16Z</time>
      </trkpt>
      <trkpt lat="45.04987" lon="5.48321">
        <ele>1536</ele>
        <time>2012-04-20T00:25:17Z</time>
      </trkpt>
      <trkpt lat="45.04985" lon="5.48314">
        <ele>1536</ele>
        <time>2012-04-20T00:25:18Z</time>
      </trkpt>
      <trkpt lat="45.04983" lon="5.4831">
        <ele>1536</ele>
        <time>2012-04-20T00:25:19Z</time>
      </trkpt>
      <trkpt lat="45.04976" lon="5.48304">
        <ele>1537</ele>
        <time>2012-04-20T00:25:21Z</time>
      </trkpt>
      <trkpt lat="45.04972" lon="5.48304">
        <ele>1537</ele>
        <time>2012-04-20T00:25:22Z</time>
      </trkpt>
      <trkpt lat="45.04963" lon="5.48301">
        <ele>1537</ele>
        <time>2012-04-20T00:25:24Z</time>
      </trkpt>
      <trkpt lat="45.04957" lon="5.48293">
        <ele>1537</ele>
        <time>2012-04-20T00:25:26Z</time>
      </trkpt>
      <trkpt lat="45.04953" lon="5.48289">
        <ele>1537</ele>
        <time>2012-04-20T00:25:27Z</time>
      </trkpt>
      <trkpt lat="45.04951" lon="5.48282">
        <ele>1537</ele>
        <time>2012-04-20T00:25:28Z</time>
      </trkpt>
      <trkpt lat="45.04946" lon="5.48278">
        <ele>1537</ele>
        <time>2012-04-20T00:25:29Z</time>
      </trkpt>
      <trkpt lat="45.04944" lon="5.48271">
        <ele>1538</ele>
        <time>2012-04-20T00:25:30Z</time>
      </trkpt>
      <trkpt lat="45.04936" lon="5.48265">
        <ele>1538</ele>
        <time>2012-04-20T00:25:32Z</time>
      </trkpt>
      <trkpt lat="45.04931" lon="5.48261">
        <ele>1538</ele>
        <time>2012-04-20T00:25:33Z</time>
      </trkpt>
      <trkpt lat="45.04925" lon="5.48259">
        <ele>1538</ele>
        <time>2012-04-20T00:25:34Z</time>
      </trkpt>
      <trkpt lat="45.04916" lon="5.48254">
        <ele>1539</ele>
        <time>2012-04-20T00:25:36Z</time>
      </trkpt>
      <trkpt lat="45.04899" lon="5.48248">
        <ele>1537</ele>
        <time>2012-04-20T00:25:40Z</time>
      </trkpt>
      <trkpt lat="45.0489" lon="5.48241">
        <ele>1536</ele>
        <time>2012-04-20T00:25:42Z</time>
      </trkpt>
      <trkpt lat="45.04884" lon="5.48239">
        <ele>1536</ele>
        <time>2012-04-20T00:25:43Z</time>
      </trkpt>
      <trkpt lat="45.04878" lon="5.48235">
        <ele>1536</ele>
        <time>2012-04-20T00:25:44Z</time>
      </trkpt>
      <trkpt lat="45.04867" lon="5.48231">
        <ele>1537</ele>
        <time>2012-04-20T00:25:47Z</time>
      </trkpt>
      <trkpt lat="45.04863" lon="5.48229">
        <ele>1537</ele>
        <time>2012-04-20T00:25:48Z</time>
      </trkpt>
      <trkpt lat="45.04852" lon="5.4822">
        <ele>1536</ele>
        <time>2012-04-20T00:25:51Z</time>
      </trkpt>
      <trkpt lat="45.04848" lon="5.48216">
        <ele>1536</ele>
        <time>2012-04-20T00:25:52Z</time>
      </trkpt>
      <trkpt lat="45.04839" lon="5.48209">
        <ele>1535</ele>
        <time>2012-04-20T00:25:54Z</time>
      </trkpt>
      <trkpt lat="45.04835" lon="5.48207">
        <ele>1535</ele>
        <time>2012-04-20T00:25:55Z</time>
      </trkpt>
      <trkpt lat="45.04826" lon="5.48203">
        <ele>1537</ele>
        <time>2012-04-20T00:25:57Z</time>
      </trkpt>
      <trkpt lat="45.0482" lon="5.48198">
        <ele>1536</ele>
        <time>2012-04-20T00:25:58Z</time>
      </trkpt>
      <trkpt lat="45.04815" lon="5.48196">
        <ele>1536</ele>
        <time>2012-04-20T00:25:59Z</time>
      </trkpt>
      <trkpt lat="45.04809" lon="5.48192">
        <ele>1536</ele>
        <time>2012-04-20T00:26:00Z</time>
      </trkpt>
      <trkpt lat="45.048" lon="5.48186">
        <ele>1535</ele>
        <time>2012-04-20T00:26:02Z</time>
      </trkpt>
      <trkpt lat="45.04794" lon="5.48183">
        <ele>1535</ele>
        <time>2012-04-20T00:26:03Z</time>
      </trkpt>
      <trkpt lat="45.04792" lon="5.48179">
        <ele>1535</ele>
        <time>2012-04-20T00:26:04Z</time>
      </trkpt>
      <trkpt lat="45.0479" lon="5.48186">
        <ele>1536</ele>
        <time>2012-04-20T00:26:05Z</time>
      </trkpt>
      <trkpt lat="45.04785" lon="5.48192">
        <ele>1536</ele>
        <time>2012-04-20T00:26:06Z</time>
      </trkpt>
      <trkpt lat="45.04783" lon="5.48201">
        <ele>1537</ele>
        <time>2012-04-20T00:26:07Z</time>
      </trkpt>
      <trkpt lat="45.04783" lon="5.48205">
        <ele>1538</ele>
        <time>2012-04-20T00:26:07Z</time>
      </trkpt>
      <trkpt lat="45.04779" lon="5.48209">
        <ele>1539</ele>
        <time>2012-04-20T00:26:08Z</time>
      </trkpt>
      <trkpt lat="45.04779" lon="5.48214">
        <ele>1539</ele>
        <time>2012-04-20T00:26:08Z</time>
      </trkpt>
      <trkpt lat="45.04779" lon="5.48218">
        <ele>1540</ele>
        <time>2012-04-20T00:26:08Z</time>
      </trkpt>
      <trkpt lat="45.04779" lon="5.48222">
        <ele>1540</ele>
        <time>2012-04-20T00:26:08Z</time>
      </trkpt>
      <trkpt lat="45.04777" lon="5.48229">
        <ele>1541</ele>
        <time>2012-04-20T00:26:09Z</time>
      </trkpt>
      <trkpt lat="45.04755" lon="5.48264">
        <ele>1536.3476</ele>
        <time>2012-04-20T00:26:18Z</time>
      </trkpt>
      <trkpt lat="45.04719" lon="5.48264">
        <ele>1533.7851</ele>
        <time>2012-04-20T00:26:27Z</time>
      </trkpt>
      <trkpt lat="45.04669" lon="5.48236">
        <ele>1530.8125</ele>
        <time>2012-04-20T00:26:42Z</time>
      </trkpt>
      <trkpt lat="45.0461" lon="5.48227">
        <ele>1527.6757</ele>
        <time>2012-04-20T00:26:58Z</time>
      </trkpt>
      <trkpt lat="45.04526" lon="5.48246">
        <ele>1519.0742</ele>
        <time>2012-04-20T00:27:21Z</time>
      </trkpt>
      <trkpt lat="45.04521" lon="5.4825">
        <ele>1527</ele>
        <time>2012-04-20T00:27:22Z</time>
      </trkpt>
      <trkpt lat="45.04521" lon="5.48256">
        <ele>1529</ele>
        <time>2012-04-20T00:27:23Z</time>
      </trkpt>
      <trkpt lat="45.04519" lon="5.48263">
        <ele>1529</ele>
        <time>2012-04-20T00:27:24Z</time>
      </trkpt>
      <trkpt lat="45.04517" lon="5.48269">
        <ele>1529</ele>
        <time>2012-04-20T00:27:25Z</time>
      </trkpt>
      <trkpt lat="45.04515" lon="5.48276">
        <ele>1529</ele>
        <time>2012-04-20T00:27:26Z</time>
      </trkpt>
      <trkpt lat="45.04513" lon="5.48284">
        <ele>1529</ele>
        <time>2012-04-20T00:27:27Z</time>
      </trkpt>
      <trkpt lat="45.04513" lon="5.48291">
        <ele>1528</ele>
        <time>2012-04-20T00:27:28Z</time>
      </trkpt>
      <trkpt lat="45.04511" lon="5.48297">
        <ele>1528</ele>
        <time>2012-04-20T00:27:29Z</time>
      </trkpt>
      <trkpt lat="45.04511" lon="5.48306">
        <ele>1528</ele>
        <time>2012-04-20T00:27:30Z</time>
      </trkpt>
      <trkpt lat="45.04513" lon="5.48312">
        <ele>1527</ele>
        <time>2012-04-20T00:27:31Z</time>
      </trkpt>
      <trkpt lat="45.04513" lon="5.48319">
        <ele>1527</ele>
        <time>2012-04-20T00:27:32Z</time>
      </trkpt>
      <trkpt lat="45.04509" lon="5.48312">
        <ele>1527</ele>
        <time>2012-04-20T00:27:33Z</time>
      </trkpt>
      <trkpt lat="45.04504" lon="5.48308">
        <ele>1527</ele>
        <time>2012-04-20T00:27:34Z</time>
      </trkpt>
      <trkpt lat="45.04494" lon="5.48297">
        <ele>1518</ele>
        <time>2012-04-20T00:27:37Z</time>
      </trkpt>
      <trkpt lat="45.04489" lon="5.48297">
        <ele>1518</ele>
        <time>2012-04-20T00:27:38Z</time>
      </trkpt>
      <trkpt lat="45.04485" lon="5.48295">
        <ele>1517</ele>
        <time>2012-04-20T00:27:39Z</time>
      </trkpt>
      <trkpt lat="45.04481" lon="5.48299">
        <ele>1517</ele>
        <time>2012-04-20T00:27:40Z</time>
      </trkpt>
      <trkpt lat="45.04481" lon="5.48306">
        <ele>1517</ele>
        <time>2012-04-20T00:27:41Z</time>
      </trkpt>
      <trkpt lat="45.04483" lon="5.48317">
        <ele>1517</ele>
        <time>2012-04-20T00:27:43Z</time>
      </trkpt>
      <trkpt lat="45.04496" lon="5.48349">
        <ele>1515</ele>
        <time>2012-04-20T00:27:50Z</time>
      </trkpt>
      <trkpt lat="45.045" lon="5.48357">
        <ele>1514</ele>
        <time>2012-04-20T00:27:52Z</time>
      </trkpt>
      <trkpt lat="45.045" lon="5.48364">
        <ele>1512</ele>
        <time>2012-04-20T00:27:53Z</time>
      </trkpt>
      <trkpt lat="45.04437" lon="5.48302">
        <ele>1483.1796</ele>
        <time>2012-04-20T00:28:14Z</time>
      </trkpt>
      <trkpt lat="45.04403" lon="5.48254">
        <ele>1498</ele>
        <time>2012-04-20T00:28:27Z</time>
      </trkpt>
      <trkpt lat="45.04399" lon="5.48248">
        <ele>1498</ele>
        <time>2012-04-20T00:28:28Z</time>
      </trkpt>
      <trkpt lat="45.04391" lon="5.48229">
        <ele>1494</ele>
        <time>2012-04-20T00:28:32Z</time>
      </trkpt>
      <trkpt lat="45.04391" lon="5.48222">
        <ele>1493</ele>
        <time>2012-04-20T00:28:33Z</time>
      </trkpt>
      <trkpt lat="45.04388" lon="5.48214">
        <ele>1492</ele>
        <time>2012-04-20T00:28:34Z</time>
      </trkpt>
      <trkpt lat="45.04386" lon="5.48201">
        <ele>1491</ele>
        <time>2012-04-20T00:28:36Z</time>
      </trkpt>
      <trkpt lat="45.04386" lon="5.4819">
        <ele>1491</ele>
        <time>2012-04-20T00:28:38Z</time>
      </trkpt>
      <trkpt lat="45.04386" lon="5.48179">
        <ele>1491</ele>
        <time>2012-04-20T00:28:40Z</time>
      </trkpt>
      <trkpt lat="45.04386" lon="5.48171">
        <ele>1491</ele>
        <time>2012-04-20T00:28:41Z</time>
      </trkpt>
      <trkpt lat="45.04388" lon="5.48162">
        <ele>1484</ele>
        <time>2012-04-20T00:28:42Z</time>
      </trkpt>
      <trkpt lat="45.04391" lon="5.48153">
        <ele>1484</ele>
        <time>2012-04-20T00:28:43Z</time>
      </trkpt>
      <trkpt lat="45.04393" lon="5.48147">
        <ele>1483</ele>
        <time>2012-04-20T00:28:44Z</time>
      </trkpt>
      <trkpt lat="45.04395" lon="5.48143">
        <ele>1483</ele>
        <time>2012-04-20T00:28:45Z</time>
      </trkpt>
      <trkpt lat="45.04554" lon="5.48073">
        <ele>1468.3281</ele>
        <time>2012-04-20T00:29:31Z</time>
      </trkpt>
      <trkpt lat="45.04586" lon="5.48061">
        <ele>1469</ele>
        <time>2012-04-20T00:29:40Z</time>
      </trkpt>
      <trkpt lat="45.04601" lon="5.48057">
        <ele>1466</ele>
        <time>2012-04-20T00:29:44Z</time>
      </trkpt>
      <trkpt lat="45.04644" lon="5.48048">
        <ele>1463</ele>
        <time>2012-04-20T00:29:56Z</time>
      </trkpt>
      <trkpt lat="45.04697" lon="5.48035">
        <ele>1460</ele>
        <time>2012-04-20T00:30:11Z</time>
      </trkpt>
      <trkpt lat="45.04753" lon="5.48027">
        <ele>1455</ele>
        <time>2012-04-20T00:30:26Z</time>
      </trkpt>
      <trkpt lat="45.04772" lon="5.48027">
        <ele>1456</ele>
        <time>2012-04-20T00:30:31Z</time>
      </trkpt>
      <trkpt lat="45.04776" lon="5.48026">
        <ele>1456</ele>
        <time>2012-04-20T00:30:31Z</time>
      </trkpt>
      <trkpt lat="45.04903" lon="5.4801">
        <ele>1444</ele>
        <time>2012-04-20T00:31:06Z</time>
      </trkpt>
      <trkpt lat="45.05004" lon="5.47999">
        <ele>1427</ele>
        <time>2012-04-20T00:31:34Z</time>
      </trkpt>
      <trkpt lat="45.05034" lon="5.47999">
        <ele>1418</ele>
        <time>2012-04-20T00:31:42Z</time>
      </trkpt>
      <trkpt lat="45.05051" lon="5.48001">
        <ele>1441</ele>
        <time>2012-04-20T00:31:46Z</time>
      </trkpt>
      <trkpt lat="45.05066" lon="5.48001">
        <ele>1437</ele>
        <time>2012-04-20T00:31:50Z</time>
      </trkpt>
      <trkpt lat="45.05077" lon="5.48003">
        <ele>1432</ele>
        <time>2012-04-20T00:31:53Z</time>
      </trkpt>
      <trkpt lat="45.05086" lon="5.48003">
        <ele>1429</ele>
        <time>2012-04-20T00:31:55Z</time>
      </trkpt>
      <trkpt lat="45.05096" lon="5.48005">
        <ele>1433</ele>
        <time>2012-04-20T00:31:58Z</time>
      </trkpt>
      <trkpt lat="45.05101" lon="5.48003">
        <ele>1434</ele>
        <time>2012-04-20T00:31:59Z</time>
      </trkpt>
      <trkpt lat="45.05096" lon="5.48001">
        <ele>1432</ele>
        <time>2012-04-20T00:32:00Z</time>
      </trkpt>
      <trkpt lat="45.05094" lon="5.47997">
        <ele>1419</ele>
        <time>2012-04-20T00:32:01Z</time>
      </trkpt>
      <trkpt lat="45.05086" lon="5.47995">
        <ele>1422</ele>
        <time>2012-04-20T00:32:03Z</time>
      </trkpt>
      <trkpt lat="45.05073" lon="5.4799">
        <ele>1420</ele>
        <time>2012-04-20T00:32:06Z</time>
      </trkpt>
      <trkpt lat="45.05058" lon="5.47986">
        <ele>1417</ele>
        <time>2012-04-20T00:32:10Z</time>
      </trkpt>
      <trkpt lat="45.05047" lon="5.47984">
        <ele>1416</ele>
        <time>2012-04-20T00:32:13Z</time>
      </trkpt>
      <trkpt lat="45.04998" lon="5.47969">
        <ele>1418</ele>
        <time>2012-04-20T00:32:27Z</time>
      </trkpt>
      <trkpt lat="45.04987" lon="5.47967">
        <ele>1417</ele>
        <time>2012-04-20T00:32:30Z</time>
      </trkpt>
      <trkpt lat="45.04951" lon="5.47954">
        <ele>1415</ele>
        <time>2012-04-20T00:32:40Z</time>
      </trkpt>
      <trkpt lat="45.04933" lon="5.4795">
        <ele>1414</ele>
        <time>2012-04-20T00:32:44Z</time>
      </trkpt>
      <trkpt lat="45.04839" lon="5.47909">
        <ele>1400</ele>
        <time>2012-04-20T00:33:11Z</time>
      </trkpt>
      <trkpt lat="45.04822" lon="5.479">
        <ele>1400</ele>
        <time>2012-04-20T00:33:16Z</time>
      </trkpt>
      <trkpt lat="45.04813" lon="5.47898">
        <ele>1400</ele>
        <time>2012-04-20T00:33:18Z</time>
      </trkpt>
      <trkpt lat="45.0479" lon="5.47885">
        <ele>1399</ele>
        <time>2012-04-20T00:33:25Z</time>
      </trkpt>
      <trkpt lat="45.04777" lon="5.47881">
        <ele>1399</ele>
        <time>2012-04-20T00:33:28Z</time>
      </trkpt>
      <trkpt lat="45.0477" lon="5.47877">
        <ele>1398</ele>
        <time>2012-04-20T00:33:29Z</time>
      </trkpt>
      <trkpt lat="45.04764" lon="5.47874">
        <ele>1398</ele>
        <time>2012-04-20T00:33:30Z</time>
      </trkpt>
      <trkpt lat="45.04755" lon="5.47872">
        <ele>1398</ele>
        <time>2012-04-20T00:33:32Z</time>
      </trkpt>
      <trkpt lat="45.04616" lon="5.47827">
        <ele>1393</ele>
        <time>2012-04-20T00:34:11Z</time>
      </trkpt>
      <trkpt lat="45.04569" lon="5.47802">
        <ele>1392</ele>
        <time>2012-04-20T00:34:25Z</time>
      </trkpt>
      <trkpt lat="45.04532" lon="5.47748">
        <ele>1380</ele>
        <time>2012-04-20T00:34:39Z</time>
      </trkpt>
      <trkpt lat="45.04531" lon="5.47739">
        <ele>1380</ele>
        <time>2012-04-20T00:34:40Z</time>
      </trkpt>
      <trkpt lat="45.04524" lon="5.47694">
        <ele>1377</ele>
        <time>2012-04-20T00:34:49Z</time>
      </trkpt>
      <trkpt lat="45.04528" lon="5.47677">
        <ele>1376</ele>
        <time>2012-04-20T00:34:52Z</time>
      </trkpt>
      <trkpt lat="45.04528" lon="5.47664">
        <ele>1373</ele>
        <time>2012-04-20T00:34:54Z</time>
      </trkpt>
      <trkpt lat="45.04528" lon="5.47658">
        <ele>1373</ele>
        <time>2012-04-20T00:34:55Z</time>
      </trkpt>
      <trkpt lat="45.04534" lon="5.47658">
        <ele>1374</ele>
        <time>2012-04-20T00:34:56Z</time>
      </trkpt>
      <trkpt lat="45.04545" lon="5.4766">
        <ele>1374</ele>
        <time>2012-04-20T00:34:59Z</time>
      </trkpt>
      <trkpt lat="45.04554" lon="5.47664">
        <ele>1374</ele>
        <time>2012-04-20T00:35:01Z</time>
      </trkpt>
      <trkpt lat="45.04562" lon="5.47666">
        <ele>1375</ele>
        <time>2012-04-20T00:35:03Z</time>
      </trkpt>
      <trkpt lat="45.04605" lon="5.47692">
        <ele>1378</ele>
        <time>2012-04-20T00:35:15Z</time>
      </trkpt>
      <trkpt lat="45.04654" lon="5.47699">
        <ele>1377</ele>
        <time>2012-04-20T00:35:28Z</time>
      </trkpt>
      <trkpt lat="45.04695" lon="5.47699">
        <ele>1374</ele>
        <time>2012-04-20T00:35:39Z</time>
      </trkpt>
      <trkpt lat="45.04732" lon="5.47703">
        <ele>1374</ele>
        <time>2012-04-20T00:35:49Z</time>
      </trkpt>
      <trkpt lat="45.04768" lon="5.47692">
        <ele>1369</ele>
        <time>2012-04-20T00:35:59Z</time>
      </trkpt>
      <trkpt lat="45.04811" lon="5.47681">
        <ele>1367</ele>
        <time>2012-04-20T00:36:11Z</time>
      </trkpt>
      <trkpt lat="45.04828" lon="5.47675">
        <ele>1365</ele>
        <time>2012-04-20T00:36:15Z</time>
      </trkpt>
      <trkpt lat="45.0486" lon="5.47668">
        <ele>1363</ele>
        <time>2012-04-20T00:36:24Z</time>
      </trkpt>
      <trkpt lat="45.04897" lon="5.47668">
        <ele>1360</ele>
        <time>2012-04-20T00:36:34Z</time>
      </trkpt>
      <trkpt lat="45.04933" lon="5.47666">
        <ele>1352</ele>
        <time>2012-04-20T00:36:44Z</time>
      </trkpt>
      <trkpt lat="45.04959" lon="5.47658">
        <ele>1349</ele>
        <time>2012-04-20T00:36:51Z</time>
      </trkpt>
      <trkpt lat="45.04981" lon="5.47643">
        <ele>1348</ele>
        <time>2012-04-20T00:36:57Z</time>
      </trkpt>
      <trkpt lat="45.05034" lon="5.47613">
        <ele>1341</ele>
        <time>2012-04-20T00:37:13Z</time>
      </trkpt>
      <trkpt lat="45.05075" lon="5.47596">
        <ele>1337</ele>
        <time>2012-04-20T00:37:24Z</time>
      </trkpt>
      <trkpt lat="45.05092" lon="5.47589">
        <ele>1333</ele>
        <time>2012-04-20T00:37:28Z</time>
      </trkpt>
      <trkpt lat="45.05101" lon="5.47565">
        <ele>1327</ele>
        <time>2012-04-20T00:37:33Z</time>
      </trkpt>
      <trkpt lat="45.05107" lon="5.4752">
        <ele>1323</ele>
        <time>2012-04-20T00:37:42Z</time>
      </trkpt>
      <trkpt lat="45.05124" lon="5.47501">
        <ele>1322</ele>
        <time>2012-04-20T00:37:48Z</time>
      </trkpt>
      <trkpt lat="45.05139" lon="5.4749">
        <ele>1319</ele>
        <time>2012-04-20T00:37:52Z</time>
      </trkpt>
      <trkpt lat="45.05146" lon="5.47475">
        <ele>1319</ele>
        <time>2012-04-20T00:37:55Z</time>
      </trkpt>
      <trkpt lat="45.05152" lon="5.47456">
        <ele>1319</ele>
        <time>2012-04-20T00:37:59Z</time>
      </trkpt>
      <trkpt lat="45.05189" lon="5.47483">
        <ele>1304.5507</ele>
        <time>2012-04-20T00:38:10Z</time>
      </trkpt>
      <trkpt lat="45.05336" lon="5.47567">
        <ele>1286.3007</ele>
        <time>2012-04-20T00:38:53Z</time>
      </trkpt>
      <trkpt lat="45.05469" lon="5.47625">
        <ele>1268.2617</ele>
        <time>2012-04-20T00:39:31Z</time>
      </trkpt>
      <trkpt lat="45.05556" lon="5.47653">
        <ele>1259.2656</ele>
        <time>2012-04-20T00:39:55Z</time>
      </trkpt>
      <trkpt lat="45.05552" lon="5.47659">
        <ele>1273</ele>
        <time>2012-04-20T00:39:56Z</time>
      </trkpt>
      <trkpt lat="45.05556" lon="5.47664">
        <ele>1273</ele>
        <time>2012-04-20T00:39:57Z</time>
      </trkpt>
      <trkpt lat="45.05562" lon="5.47675">
        <ele>1273</ele>
        <time>2012-04-20T00:39:59Z</time>
      </trkpt>
      <trkpt lat="45.05566" lon="5.47684">
        <ele>1273</ele>
        <time>2012-04-20T00:40:01Z</time>
      </trkpt>
      <trkpt lat="45.05573" lon="5.47694">
        <ele>1273</ele>
        <time>2012-04-20T00:40:03Z</time>
      </trkpt>
      <trkpt lat="45.05581" lon="5.47705">
        <ele>1274</ele>
        <time>2012-04-20T00:40:06Z</time>
      </trkpt>
      <trkpt lat="45.0559" lon="5.47711">
        <ele>1267</ele>
        <time>2012-04-20T00:40:08Z</time>
      </trkpt>
      <trkpt lat="45.05599" lon="5.47722">
        <ele>1267</ele>
        <time>2012-04-20T00:40:11Z</time>
      </trkpt>
      <trkpt lat="45.05607" lon="5.47729">
        <ele>1267</ele>
        <time>2012-04-20T00:40:13Z</time>
      </trkpt>
      <trkpt lat="45.05616" lon="5.47735">
        <ele>1267</ele>
        <time>2012-04-20T00:40:15Z</time>
      </trkpt>
      <trkpt lat="45.05622" lon="5.47739">
        <ele>1267</ele>
        <time>2012-04-20T00:40:16Z</time>
      </trkpt>
      <trkpt lat="45.05626" lon="5.47746">
        <ele>1266</ele>
        <time>2012-04-20T00:40:17Z</time>
      </trkpt>
      <trkpt lat="45.05661" lon="5.47787">
        <ele>1266</ele>
        <time>2012-04-20T00:40:29Z</time>
      </trkpt>
      <trkpt lat="45.05667" lon="5.47793">
        <ele>1263</ele>
        <time>2012-04-20T00:40:31Z</time>
      </trkpt>
      <trkpt lat="45.05674" lon="5.47804">
        <ele>1263</ele>
        <time>2012-04-20T00:40:33Z</time>
      </trkpt>
      <trkpt lat="45.05684" lon="5.47825">
        <ele>1263</ele>
        <time>2012-04-20T00:40:38Z</time>
      </trkpt>
      <trkpt lat="45.05708" lon="5.47868">
        <ele>1263</ele>
        <time>2012-04-20T00:40:48Z</time>
      </trkpt>
      <trkpt lat="45.05717" lon="5.47883">
        <ele>1262</ele>
        <time>2012-04-20T00:40:51Z</time>
      </trkpt>
      <trkpt lat="45.05729" lon="5.47907">
        <ele>1261</ele>
        <time>2012-04-20T00:40:56Z</time>
      </trkpt>
      <trkpt lat="45.05734" lon="5.47917">
        <ele>1261</ele>
        <time>2012-04-20T00:40:58Z</time>
      </trkpt>
      <trkpt lat="45.0574" lon="5.4792">
        <ele>1260</ele>
        <time>2012-04-20T00:40:59Z</time>
      </trkpt>
      <trkpt lat="45.05749" lon="5.47928">
        <ele>1260</ele>
        <time>2012-04-20T00:41:01Z</time>
      </trkpt>
      <trkpt lat="45.05757" lon="5.47939">
        <ele>1261</ele>
        <time>2012-04-20T00:41:04Z</time>
      </trkpt>
      <trkpt lat="45.0576" lon="5.47945">
        <ele>1261</ele>
        <time>2012-04-20T00:41:05Z</time>
      </trkpt>
      <trkpt lat="45.0579" lon="5.4799">
        <ele>1260</ele>
        <time>2012-04-20T00:41:17Z</time>
      </trkpt>
      <trkpt lat="45.05802" lon="5.48018">
        <ele>1254</ele>
        <time>2012-04-20T00:41:23Z</time>
      </trkpt>
      <trkpt lat="45.05815" lon="5.48048">
        <ele>1252</ele>
        <time>2012-04-20T00:41:29Z</time>
      </trkpt>
      <trkpt lat="45.05847" lon="5.48096">
        <ele>1242</ele>
        <time>2012-04-20T00:41:41Z</time>
      </trkpt>
      <trkpt lat="45.05873" lon="5.48111">
        <ele>1241</ele>
        <time>2012-04-20T00:41:48Z</time>
      </trkpt>
      <trkpt lat="45.05903" lon="5.48126">
        <ele>1239</ele>
        <time>2012-04-20T00:41:56Z</time>
      </trkpt>
      <trkpt lat="45.05935" lon="5.4816">
        <ele>1233</ele>
        <time>2012-04-20T00:42:07Z</time>
      </trkpt>
      <trkpt lat="45.05948" lon="5.4819">
        <ele>1224</ele>
        <time>2012-04-20T00:42:13Z</time>
      </trkpt>
      <trkpt lat="45.06015" lon="5.48229">
        <ele>1214</ele>
        <time>2012-04-20T00:42:32Z</time>
      </trkpt>
      <trkpt lat="45.06096" lon="5.48276">
        <ele>1192</ele>
        <time>2012-04-20T00:42:56Z</time>
      </trkpt>
      <trkpt lat="45.06119" lon="5.48292">
        <ele>1190</ele>
        <time>2012-04-20T00:43:03Z</time>
      </trkpt>
      <trkpt lat="45.06178" lon="5.48336">
        <ele>1174</ele>
        <time>2012-04-20T00:43:21Z</time>
      </trkpt>
      <trkpt lat="45.06244" lon="5.48379">
        <ele>1168</ele>
        <time>2012-04-20T00:43:41Z</time>
      </trkpt>
      <trkpt lat="45.06253" lon="5.48387">
        <ele>1164</ele>
        <time>2012-04-20T00:43:43Z</time>
      </trkpt>
      <trkpt lat="45.06262" lon="5.48398">
        <ele>1162</ele>
        <time>2012-04-20T00:43:46Z</time>
      </trkpt>
      <trkpt lat="45.0627" lon="5.48413">
        <ele>1161</ele>
        <time>2012-04-20T00:43:49Z</time>
      </trkpt>
      <trkpt lat="45.06277" lon="5.48435">
        <ele>1156</ele>
        <time>2012-04-20T00:43:53Z</time>
      </trkpt>
      <trkpt lat="45.06279" lon="5.4846">
        <ele>1156</ele>
        <time>2012-04-20T00:43:58Z</time>
      </trkpt>
      <trkpt lat="45.06283" lon="5.4848">
        <ele>1156</ele>
        <time>2012-04-20T00:44:01Z</time>
      </trkpt>
      <trkpt lat="45.06292" lon="5.48501">
        <ele>1156</ele>
        <time>2012-04-20T00:44:05Z</time>
      </trkpt>
      <trkpt lat="45.06309" lon="5.48531">
        <ele>1155</ele>
        <time>2012-04-20T00:44:12Z</time>
      </trkpt>
      <trkpt lat="45.06337" lon="5.48572">
        <ele>1145</ele>
        <time>2012-04-20T00:44:23Z</time>
      </trkpt>
      <trkpt lat="45.06337" lon="5.48576">
        <ele>1145</ele>
        <time>2012-04-20T00:44:23Z</time>
      </trkpt>
      <trkpt lat="45.06339" lon="5.48585">
        <ele>1145</ele>
        <time>2012-04-20T00:44:24Z</time>
      </trkpt>
      <trkpt lat="45.06343" lon="5.48593">
        <ele>1144</ele>
        <time>2012-04-20T00:44:26Z</time>
      </trkpt>
      <trkpt lat="45.06347" lon="5.486">
        <ele>1144</ele>
        <time>2012-04-20T00:44:27Z</time>
      </trkpt>
      <trkpt lat="45.06356" lon="5.48619">
        <ele>1143</ele>
        <time>2012-04-20T00:44:31Z</time>
      </trkpt>
      <trkpt lat="45.06362" lon="5.48628">
        <ele>1143</ele>
        <time>2012-04-20T00:44:33Z</time>
      </trkpt>
      <trkpt lat="45.06369" lon="5.48647">
        <ele>1143</ele>
        <time>2012-04-20T00:44:37Z</time>
      </trkpt>
      <trkpt lat="45.06377" lon="5.48671">
        <ele>1148</ele>
        <time>2012-04-20T00:44:42Z</time>
      </trkpt>
      <trkpt lat="45.06384" lon="5.48688">
        <ele>1148</ele>
        <time>2012-04-20T00:44:45Z</time>
      </trkpt>
      <trkpt lat="45.06397" lon="5.48731">
        <ele>1149</ele>
        <time>2012-04-20T00:44:54Z</time>
      </trkpt>
      <trkpt lat="45.06403" lon="5.48746">
        <ele>1147</ele>
        <time>2012-04-20T00:44:57Z</time>
      </trkpt>
      <trkpt lat="45.06408" lon="5.48759">
        <ele>1152</ele>
        <time>2012-04-20T00:44:59Z</time>
      </trkpt>
      <trkpt lat="45.06412" lon="5.48771">
        <ele>1156</ele>
        <time>2012-04-20T00:45:01Z</time>
      </trkpt>
      <trkpt lat="45.06414" lon="5.48791">
        <ele>1160</ele>
        <time>2012-04-20T00:45:04Z</time>
      </trkpt>
      <trkpt lat="45.06416" lon="5.4881">
        <ele>1161</ele>
        <time>2012-04-20T00:45:07Z</time>
      </trkpt>
      <trkpt lat="45.0642" lon="5.48829">
        <ele>1153</ele>
        <time>2012-04-20T00:45:10Z</time>
      </trkpt>
      <trkpt lat="45.06425" lon="5.48859">
        <ele>1150</ele>
        <time>2012-04-20T00:45:16Z</time>
      </trkpt>
      <trkpt lat="45.06425" lon="5.48889">
        <ele>1152</ele>
        <time>2012-04-20T00:45:21Z</time>
      </trkpt>
      <trkpt lat="45.06425" lon="5.48907">
        <ele>1158</ele>
        <time>2012-04-20T00:45:24Z</time>
      </trkpt>
      <trkpt lat="45.06425" lon="5.48919">
        <ele>1161</ele>
        <time>2012-04-20T00:45:26Z</time>
      </trkpt>
      <trkpt lat="45.06425" lon="5.48932">
        <ele>1158</ele>
        <time>2012-04-20T00:45:28Z</time>
      </trkpt>
      <trkpt lat="45.06423" lon="5.48947">
        <ele>1155</ele>
        <time>2012-04-20T00:45:31Z</time>
      </trkpt>
      <trkpt lat="45.06418" lon="5.48973">
        <ele>1156</ele>
        <time>2012-04-20T00:45:36Z</time>
      </trkpt>
      <trkpt lat="45.06414" lon="5.4899">
        <ele>1172</ele>
        <time>2012-04-20T00:45:39Z</time>
      </trkpt>
      <trkpt lat="45.06405" lon="5.49014">
        <ele>1172</ele>
        <time>2012-04-20T00:45:44Z</time>
      </trkpt>
      <trkpt lat="45.06401" lon="5.49029">
        <ele>1174</ele>
        <time>2012-04-20T00:45:47Z</time>
      </trkpt>
      <trkpt lat="45.06395" lon="5.49048">
        <ele>1174</ele>
        <time>2012-04-20T00:45:51Z</time>
      </trkpt>
      <trkpt lat="45.0638" lon="5.49076">
        <ele>1175</ele>
        <time>2012-04-20T00:45:57Z</time>
      </trkpt>
      <trkpt lat="45.06369" lon="5.491">
        <ele>1168</ele>
        <time>2012-04-20T00:46:02Z</time>
      </trkpt>
      <trkpt lat="45.06347" lon="5.4914">
        <ele>1169</ele>
        <time>2012-04-20T00:46:11Z</time>
      </trkpt>
      <trkpt lat="45.06311" lon="5.49198">
        <ele>1194</ele>
        <time>2012-04-20T00:46:26Z</time>
      </trkpt>
      <trkpt lat="45.063" lon="5.49216">
        <ele>1196</ele>
        <time>2012-04-20T00:46:30Z</time>
      </trkpt>
      <trkpt lat="45.06294" lon="5.49231">
        <ele>1197</ele>
        <time>2012-04-20T00:46:33Z</time>
      </trkpt>
      <trkpt lat="45.0629" lon="5.49239">
        <ele>1198</ele>
        <time>2012-04-20T00:46:35Z</time>
      </trkpt>
      <trkpt lat="45.06287" lon="5.49246">
        <ele>1199</ele>
        <time>2012-04-20T00:46:36Z</time>
      </trkpt>
      <trkpt lat="45.06285" lon="5.4925">
        <ele>1200</ele>
        <time>2012-04-20T00:46:37Z</time>
      </trkpt>
      <trkpt lat="45.06285" lon="5.49256">
        <ele>1197</ele>
        <time>2012-04-20T00:46:38Z</time>
      </trkpt>
      <trkpt lat="45.06287" lon="5.49265">
        <ele>1195</ele>
        <time>2012-04-20T00:46:39Z</time>
      </trkpt>
      <trkpt lat="45.0629" lon="5.49274">
        <ele>1195</ele>
        <time>2012-04-20T00:46:40Z</time>
      </trkpt>
      <trkpt lat="45.06305" lon="5.49299">
        <ele>1191</ele>
        <time>2012-04-20T00:46:46Z</time>
      </trkpt>
      <trkpt lat="45.06313" lon="5.4931">
        <ele>1189</ele>
        <time>2012-04-20T00:46:49Z</time>
      </trkpt>
      <trkpt lat="45.06322" lon="5.49334">
        <ele>1188</ele>
        <time>2012-04-20T00:46:54Z</time>
      </trkpt>
      <trkpt lat="45.06332" lon="5.49355">
        <ele>1193</ele>
        <time>2012-04-20T00:46:59Z</time>
      </trkpt>
      <trkpt lat="45.06341" lon="5.49372">
        <ele>1175</ele>
        <time>2012-04-20T00:47:03Z</time>
      </trkpt>
      <trkpt lat="45.06343" lon="5.49383">
        <ele>1177</ele>
        <time>2012-04-20T00:47:05Z</time>
      </trkpt>
      <trkpt lat="45.06345" lon="5.49392">
        <ele>1179</ele>
        <time>2012-04-20T00:47:06Z</time>
      </trkpt>
      <trkpt lat="45.06347" lon="5.494">
        <ele>1181</ele>
        <time>2012-04-20T00:47:07Z</time>
      </trkpt>
      <trkpt lat="45.0635" lon="5.49409">
        <ele>1182</ele>
        <time>2012-04-20T00:47:08Z</time>
      </trkpt>
      <trkpt lat="45.06352" lon="5.49413">
        <ele>1182</ele>
        <time>2012-04-20T00:47:09Z</time>
      </trkpt>
      <trkpt lat="45.06356" lon="5.49419">
        <ele>1193</ele>
        <time>2012-04-20T00:47:10Z</time>
      </trkpt>
      <trkpt lat="45.06358" lon="5.49426">
        <ele>1193</ele>
        <time>2012-04-20T00:47:11Z</time>
      </trkpt>
      <trkpt lat="45.06367" lon="5.49445">
        <ele>1193</ele>
        <time>2012-04-20T00:47:15Z</time>
      </trkpt>
      <trkpt lat="45.06369" lon="5.49452">
        <ele>1193</ele>
        <time>2012-04-20T00:47:16Z</time>
      </trkpt>
      <trkpt lat="45.06375" lon="5.49458">
        <ele>1193</ele>
        <time>2012-04-20T00:47:18Z</time>
      </trkpt>
      <trkpt lat="45.0638" lon="5.49462">
        <ele>1193</ele>
        <time>2012-04-20T00:47:19Z</time>
      </trkpt>
      <trkpt lat="45.06386" lon="5.49469">
        <ele>1192</ele>
        <time>2012-04-20T00:47:21Z</time>
      </trkpt>
      <trkpt lat="45.06393" lon="5.49473">
        <ele>1192</ele>
        <time>2012-04-20T00:47:22Z</time>
      </trkpt>
      <trkpt lat="45.0641" lon="5.4948">
        <ele>1190</ele>
        <time>2012-04-20T00:47:26Z</time>
      </trkpt>
      <trkpt lat="45.06425" lon="5.49486">
        <ele>1172</ele>
        <time>2012-04-20T00:47:30Z</time>
      </trkpt>
      <trkpt lat="45.06433" lon="5.4949">
        <ele>1169</ele>
        <time>2012-04-20T00:47:32Z</time>
      </trkpt>
      <trkpt lat="45.0644" lon="5.49495">
        <ele>1167</ele>
        <time>2012-04-20T00:47:33Z</time>
      </trkpt>
      <trkpt lat="45.06446" lon="5.49497">
        <ele>1163</ele>
        <time>2012-04-20T00:47:34Z</time>
      </trkpt>
      <trkpt lat="45.06448" lon="5.49501">
        <ele>1183</ele>
        <time>2012-04-20T00:47:35Z</time>
      </trkpt>
      <trkpt lat="45.0645" lon="5.49507">
        <ele>1183</ele>
        <time>2012-04-20T00:47:36Z</time>
      </trkpt>
      <trkpt lat="45.06455" lon="5.4952">
        <ele>1183</ele>
        <time>2012-04-20T00:47:38Z</time>
      </trkpt>
      <trkpt lat="45.06457" lon="5.49529">
        <ele>1184</ele>
        <time>2012-04-20T00:47:39Z</time>
      </trkpt>
      <trkpt lat="45.06457" lon="5.49535">
        <ele>1186</ele>
        <time>2012-04-20T00:47:40Z</time>
      </trkpt>
      <trkpt lat="45.06457" lon="5.49546">
        <ele>1189</ele>
        <time>2012-04-20T00:47:42Z</time>
      </trkpt>
      <trkpt lat="45.06463" lon="5.49557">
        <ele>1189</ele>
        <time>2012-04-20T00:47:44Z</time>
      </trkpt>
      <trkpt lat="45.0647" lon="5.4957">
        <ele>1190</ele>
        <time>2012-04-20T00:47:47Z</time>
      </trkpt>
      <trkpt lat="45.06476" lon="5.49576">
        <ele>1188</ele>
        <time>2012-04-20T00:47:49Z</time>
      </trkpt>
      <trkpt lat="45.06483" lon="5.49591">
        <ele>1206</ele>
        <time>2012-04-20T00:47:52Z</time>
      </trkpt>
      <trkpt lat="45.06487" lon="5.49598">
        <ele>1206</ele>
        <time>2012-04-20T00:47:53Z</time>
      </trkpt>
      <trkpt lat="45.06496" lon="5.49608">
        <ele>1210</ele>
        <time>2012-04-20T00:47:56Z</time>
      </trkpt>
      <trkpt lat="45.06502" lon="5.49617">
        <ele>1190</ele>
        <time>2012-04-20T00:47:58Z</time>
      </trkpt>
      <trkpt lat="45.06508" lon="5.49623">
        <ele>1192</ele>
        <time>2012-04-20T00:48:00Z</time>
      </trkpt>
      <trkpt lat="45.06513" lon="5.49625">
        <ele>1192</ele>
        <time>2012-04-20T00:48:01Z</time>
      </trkpt>
      <trkpt lat="45.06517" lon="5.4963">
        <ele>1192</ele>
        <time>2012-04-20T00:48:02Z</time>
      </trkpt>
      <trkpt lat="45.06523" lon="5.49632">
        <ele>1192</ele>
        <time>2012-04-20T00:48:03Z</time>
      </trkpt>
      <trkpt lat="45.0653" lon="5.49634">
        <ele>1191</ele>
        <time>2012-04-20T00:48:04Z</time>
      </trkpt>
      <trkpt lat="45.06543" lon="5.4964">
        <ele>1190</ele>
        <time>2012-04-20T00:48:07Z</time>
      </trkpt>
      <trkpt lat="45.06553" lon="5.49647">
        <ele>1189</ele>
        <time>2012-04-20T00:48:10Z</time>
      </trkpt>
      <trkpt lat="45.06558" lon="5.49651">
        <ele>1189</ele>
        <time>2012-04-20T00:48:11Z</time>
      </trkpt>
      <trkpt lat="45.06562" lon="5.49655">
        <ele>1189</ele>
        <time>2012-04-20T00:48:12Z</time>
      </trkpt>
      <trkpt lat="45.06566" lon="5.49662">
        <ele>1189</ele>
        <time>2012-04-20T00:48:13Z</time>
      </trkpt>
      <trkpt lat="45.06571" lon="5.4967">
        <ele>1199</ele>
        <time>2012-04-20T00:48:15Z</time>
      </trkpt>
      <trkpt lat="45.06573" lon="5.49681">
        <ele>1202</ele>
        <time>2012-04-20T00:48:17Z</time>
      </trkpt>
      <trkpt lat="45.06582" lon="5.49701">
        <ele>1206</ele>
        <time>2012-04-20T00:48:21Z</time>
      </trkpt>
      <trkpt lat="45.0659" lon="5.4972">
        <ele>1193</ele>
        <time>2012-04-20T00:48:25Z</time>
      </trkpt>
      <trkpt lat="45.06622" lon="5.49804">
        <ele>1196</ele>
        <time>2012-04-20T00:48:43Z</time>
      </trkpt>
      <trkpt lat="45.06629" lon="5.49823">
        <ele>1195</ele>
        <time>2012-04-20T00:48:47Z</time>
      </trkpt>
      <trkpt lat="45.06629" lon="5.49829">
        <ele>1195</ele>
        <time>2012-04-20T00:48:48Z</time>
      </trkpt>
      <trkpt lat="45.06626" lon="5.49834">
        <ele>1196</ele>
        <time>2012-04-20T00:48:49Z</time>
      </trkpt>
      <trkpt lat="45.06624" lon="5.4984">
        <ele>1197</ele>
        <time>2012-04-20T00:48:50Z</time>
      </trkpt>
      <trkpt lat="45.06622" lon="5.49846">
        <ele>1197</ele>
        <time>2012-04-20T00:48:51Z</time>
      </trkpt>
      <trkpt lat="45.0662" lon="5.49853">
        <ele>1198</ele>
        <time>2012-04-20T00:48:52Z</time>
      </trkpt>
      <trkpt lat="45.06616" lon="5.49857">
        <ele>1198</ele>
        <time>2012-04-20T00:48:53Z</time>
      </trkpt>
      <trkpt lat="45.06609" lon="5.4987">
        <ele>1199</ele>
        <time>2012-04-20T00:48:56Z</time>
      </trkpt>
      <trkpt lat="45.06605" lon="5.49876">
        <ele>1200</ele>
        <time>2012-04-20T00:48:57Z</time>
      </trkpt>
      <trkpt lat="45.06603" lon="5.49883">
        <ele>1200</ele>
        <time>2012-04-20T00:48:58Z</time>
      </trkpt>
      <trkpt lat="45.06601" lon="5.49887">
        <ele>1201</ele>
        <time>2012-04-20T00:48:59Z</time>
      </trkpt>
      <trkpt lat="45.06601" lon="5.49894">
        <ele>1201</ele>
        <time>2012-04-20T00:49:00Z</time>
      </trkpt>
      <trkpt lat="45.06601" lon="5.499">
        <ele>1202</ele>
        <time>2012-04-20T00:49:01Z</time>
      </trkpt>
      <trkpt lat="45.06601" lon="5.49907">
        <ele>1202</ele>
        <time>2012-04-20T00:49:02Z</time>
      </trkpt>
      <trkpt lat="45.06601" lon="5.49917">
        <ele>1201</ele>
        <time>2012-04-20T00:49:04Z</time>
      </trkpt>
      <trkpt lat="45.06603" lon="5.49922">
        <ele>1200</ele>
        <time>2012-04-20T00:49:05Z</time>
      </trkpt>
      <trkpt lat="45.06605" lon="5.49926">
        <ele>1199</ele>
        <time>2012-04-20T00:49:06Z</time>
      </trkpt>
      <trkpt lat="45.06607" lon="5.4993">
        <ele>1198</ele>
        <time>2012-04-20T00:49:07Z</time>
      </trkpt>
      <trkpt lat="45.06618" lon="5.49943">
        <ele>1195</ele>
        <time>2012-04-20T00:49:10Z</time>
      </trkpt>
      <trkpt lat="45.06622" lon="5.49947">
        <ele>1194</ele>
        <time>2012-04-20T00:49:11Z</time>
      </trkpt>
      <trkpt lat="45.06626" lon="5.49954">
        <ele>1193</ele>
        <time>2012-04-20T00:49:12Z</time>
      </trkpt>
      <trkpt lat="45.06631" lon="5.49958">
        <ele>1192</ele>
        <time>2012-04-20T00:49:13Z</time>
      </trkpt>
      <trkpt lat="45.06635" lon="5.49967">
        <ele>1191</ele>
        <time>2012-04-20T00:49:15Z</time>
      </trkpt>
      <trkpt lat="45.06635" lon="5.49971">
        <ele>1191</ele>
        <time>2012-04-20T00:49:15Z</time>
      </trkpt>
      <trkpt lat="45.06635" lon="5.49975">
        <ele>1190</ele>
        <time>2012-04-20T00:49:15Z</time>
      </trkpt>
      <trkpt lat="45.06633" lon="5.49982">
        <ele>1190</ele>
        <time>2012-04-20T00:49:16Z</time>
      </trkpt>
      <trkpt lat="45.06633" lon="5.49986">
        <ele>1190</ele>
        <time>2012-04-20T00:49:16Z</time>
      </trkpt>
      <trkpt lat="45.06631" lon="5.4999">
        <ele>1190</ele>
        <time>2012-04-20T00:49:17Z</time>
      </trkpt>
      <trkpt lat="45.06626" lon="5.49995">
        <ele>1191</ele>
        <time>2012-04-20T00:49:18Z</time>
      </trkpt>
      <trkpt lat="45.0662" lon="5.50001">
        <ele>1184</ele>
        <time>2012-04-20T00:49:20Z</time>
      </trkpt>
      <trkpt lat="45.06616" lon="5.50003">
        <ele>1185</ele>
        <time>2012-04-20T00:49:21Z</time>
      </trkpt>
      <trkpt lat="45.06605" lon="5.50012">
        <ele>1187</ele>
        <time>2012-04-20T00:49:24Z</time>
      </trkpt>
      <trkpt lat="45.06584" lon="5.50028">
        <ele>1187</ele>
        <time>2012-04-20T00:49:30Z</time>
      </trkpt>
      <trkpt lat="45.06483" lon="5.50137">
        <ele>1171.25</ele>
        <time>2012-04-20T00:50:05Z</time>
      </trkpt>
      <trkpt lat="45.06321" lon="5.50505">
        <ele>1167.7265</ele>
        <time>2012-04-20T00:51:30Z</time>
      </trkpt>
      <trkpt lat="45.06315" lon="5.50509">
        <ele>1183</ele>
        <time>2012-04-20T00:51:31Z</time>
      </trkpt>
      <trkpt lat="45.06285" lon="5.50531">
        <ele>1187</ele>
        <time>2012-04-20T00:51:40Z</time>
      </trkpt>
      <trkpt lat="45.06236" lon="5.50565">
        <ele>1194</ele>
        <time>2012-04-20T00:51:55Z</time>
      </trkpt>
      <trkpt lat="45.06199" lon="5.50587">
        <ele>1190</ele>
        <time>2012-04-20T00:52:05Z</time>
      </trkpt>
      <trkpt lat="45.06189" lon="5.50602">
        <ele>1190</ele>
        <time>2012-04-20T00:52:09Z</time>
      </trkpt>
      <trkpt lat="45.06182" lon="5.50608">
        <ele>1190</ele>
        <time>2012-04-20T00:52:11Z</time>
      </trkpt>
      <trkpt lat="45.06172" lon="5.5061">
        <ele>1190</ele>
        <time>2012-04-20T00:52:14Z</time>
      </trkpt>
      <trkpt lat="45.06165" lon="5.5063">
        <ele>1197</ele>
        <time>2012-04-20T00:52:18Z</time>
      </trkpt>
      <trkpt lat="45.06163" lon="5.5064">
        <ele>1195</ele>
        <time>2012-04-20T00:52:20Z</time>
      </trkpt>
      <trkpt lat="45.06161" lon="5.50647">
        <ele>1194</ele>
        <time>2012-04-20T00:52:21Z</time>
      </trkpt>
      <trkpt lat="45.06156" lon="5.50651">
        <ele>1194</ele>
        <time>2012-04-20T00:52:22Z</time>
      </trkpt>
      <trkpt lat="45.06153" lon="5.50655">
        <ele>1194</ele>
        <time>2012-04-20T00:52:23Z</time>
      </trkpt>
      <trkpt lat="45.06178" lon="5.50683">
        <ele>1169.7929</ele>
        <time>2012-04-20T00:52:31Z</time>
      </trkpt>
      <trkpt lat="45.06243" lon="5.50708">
        <ele>1163.0507</ele>
        <time>2012-04-20T00:52:49Z</time>
      </trkpt>
      <trkpt lat="45.06189" lon="5.50756">
        <ele>1160</ele>
        <time>2012-04-20T00:53:06Z</time>
      </trkpt>
      <trkpt lat="45.0621" lon="5.50866">
        <ele>1135.9257</ele>
        <time>2012-04-20T00:53:28Z</time>
      </trkpt>
      <trkpt lat="45.06117" lon="5.50942">
        <ele>1121.1992</ele>
        <time>2012-04-20T00:53:58Z</time>
      </trkpt>
      <trkpt lat="45.0603" lon="5.51097">
        <ele>1120</ele>
        <time>2012-04-20T00:54:36Z</time>
      </trkpt>
      <trkpt lat="45.0598" lon="5.51184">
        <ele>1112.4101</ele>
        <time>2012-04-20T00:54:58Z</time>
      </trkpt>
      <trkpt lat="45.05978" lon="5.51196">
        <ele>1123</ele>
        <time>2012-04-20T00:55:00Z</time>
      </trkpt>
      <trkpt lat="45.05976" lon="5.51203">
        <ele>1123</ele>
        <time>2012-04-20T00:55:01Z</time>
      </trkpt>
      <trkpt lat="45.05974" lon="5.51211">
        <ele>1122</ele>
        <time>2012-04-20T00:55:02Z</time>
      </trkpt>
      <trkpt lat="45.0597" lon="5.51222">
        <ele>1122</ele>
        <time>2012-04-20T00:55:04Z</time>
      </trkpt>
      <trkpt lat="45.05966" lon="5.5123">
        <ele>1121</ele>
        <time>2012-04-20T00:55:06Z</time>
      </trkpt>
      <trkpt lat="45.05959" lon="5.51239">
        <ele>1121</ele>
        <time>2012-04-20T00:55:08Z</time>
      </trkpt>
      <trkpt lat="45.05944" lon="5.51258">
        <ele>1117</ele>
        <time>2012-04-20T00:55:13Z</time>
      </trkpt>
      <trkpt lat="45.05933" lon="5.51271">
        <ele>1117</ele>
        <time>2012-04-20T00:55:16Z</time>
      </trkpt>
      <trkpt lat="45.05923" lon="5.51284">
        <ele>1116</ele>
        <time>2012-04-20T00:55:19Z</time>
      </trkpt>
      <trkpt lat="45.05914" lon="5.51297">
        <ele>1117</ele>
        <time>2012-04-20T00:55:22Z</time>
      </trkpt>
      <trkpt lat="45.05908" lon="5.51312">
        <ele>1116</ele>
        <time>2012-04-20T00:55:25Z</time>
      </trkpt>
      <trkpt lat="45.05901" lon="5.51327">
        <ele>1115</ele>
        <time>2012-04-20T00:55:28Z</time>
      </trkpt>
      <trkpt lat="45.05897" lon="5.51338">
        <ele>1113</ele>
        <time>2012-04-20T00:55:30Z</time>
      </trkpt>
      <trkpt lat="45.05895" lon="5.51351">
        <ele>1113</ele>
        <time>2012-04-20T00:55:32Z</time>
      </trkpt>
      <trkpt lat="45.0589" lon="5.51366">
        <ele>1113</ele>
        <time>2012-04-20T00:55:35Z</time>
      </trkpt>
      <trkpt lat="45.0589" lon="5.51374">
        <ele>1113</ele>
        <time>2012-04-20T00:55:36Z</time>
      </trkpt>
      <trkpt lat="45.0589" lon="5.51383">
        <ele>1112</ele>
        <time>2012-04-20T00:55:37Z</time>
      </trkpt>
      <trkpt lat="45.05893" lon="5.51398">
        <ele>1112</ele>
        <time>2012-04-20T00:55:40Z</time>
      </trkpt>
      <trkpt lat="45.05899" lon="5.51421">
        <ele>1110</ele>
        <time>2012-04-20T00:55:44Z</time>
      </trkpt>
      <trkpt lat="45.05905" lon="5.51451">
        <ele>1109</ele>
        <time>2012-04-20T00:55:50Z</time>
      </trkpt>
      <trkpt lat="45.0591" lon="5.51467">
        <ele>1109</ele>
        <time>2012-04-20T00:55:53Z</time>
      </trkpt>
      <trkpt lat="45.05957" lon="5.51718">
        <ele>1105</ele>
        <time>2012-04-20T00:56:44Z</time>
      </trkpt>
      <trkpt lat="45.05955" lon="5.51724">
        <ele>1105</ele>
        <time>2012-04-20T00:56:45Z</time>
      </trkpt>
      <trkpt lat="45.05955" lon="5.51728">
        <ele>1105</ele>
        <time>2012-04-20T00:56:45Z</time>
      </trkpt>
      <trkpt lat="45.05955" lon="5.51735">
        <ele>1105</ele>
        <time>2012-04-20T00:56:46Z</time>
      </trkpt>
      <trkpt lat="45.0595" lon="5.51739">
        <ele>1106</ele>
        <time>2012-04-20T00:56:47Z</time>
      </trkpt>
      <trkpt lat="45.05944" lon="5.51748">
        <ele>1106</ele>
        <time>2012-04-20T00:56:49Z</time>
      </trkpt>
      <trkpt lat="45.05938" lon="5.51765">
        <ele>1109</ele>
        <time>2012-04-20T00:56:52Z</time>
      </trkpt>
      <trkpt lat="45.05935" lon="5.51784">
        <ele>1110</ele>
        <time>2012-04-20T00:56:55Z</time>
      </trkpt>
      <trkpt lat="45.05935" lon="5.51793">
        <ele>1110</ele>
        <time>2012-04-20T00:56:56Z</time>
      </trkpt>
      <trkpt lat="45.05935" lon="5.51801">
        <ele>1110</ele>
        <time>2012-04-20T00:56:57Z</time>
      </trkpt>
      <trkpt lat="45.05935" lon="5.51808">
        <ele>1111</ele>
        <time>2012-04-20T00:56:58Z</time>
      </trkpt>
      <trkpt lat="45.05933" lon="5.51825">
        <ele>1111</ele>
        <time>2012-04-20T00:57:01Z</time>
      </trkpt>
      <trkpt lat="45.05933" lon="5.51829">
        <ele>1112</ele>
        <time>2012-04-20T00:57:01Z</time>
      </trkpt>
      <trkpt lat="45.05933" lon="5.51836">
        <ele>1114</ele>
        <time>2012-04-20T00:57:02Z</time>
      </trkpt>
      <trkpt lat="45.05929" lon="5.51846">
        <ele>1114</ele>
        <time>2012-04-20T00:57:04Z</time>
      </trkpt>
      <trkpt lat="45.05905" lon="5.51894">
        <ele>1120</ele>
        <time>2012-04-20T00:57:15Z</time>
      </trkpt>
      <trkpt lat="45.0588" lon="5.51947">
        <ele>1125</ele>
        <time>2012-04-20T00:57:27Z</time>
      </trkpt>
      <trkpt lat="45.05867" lon="5.5199">
        <ele>1127</ele>
        <time>2012-04-20T00:57:36Z</time>
      </trkpt>
      <trkpt lat="45.05858" lon="5.52016">
        <ele>1128</ele>
        <time>2012-04-20T00:57:41Z</time>
      </trkpt>
      <trkpt lat="45.05852" lon="5.52042">
        <ele>1128</ele>
        <time>2012-04-20T00:57:46Z</time>
      </trkpt>
      <trkpt lat="45.05845" lon="5.52063">
        <ele>1127</ele>
        <time>2012-04-20T00:57:50Z</time>
      </trkpt>
      <trkpt lat="45.05839" lon="5.52082">
        <ele>1127</ele>
        <time>2012-04-20T00:57:54Z</time>
      </trkpt>
      <trkpt lat="45.05837" lon="5.521">
        <ele>1127</ele>
        <time>2012-04-20T00:57:57Z</time>
      </trkpt>
      <trkpt lat="45.05835" lon="5.5211">
        <ele>1127</ele>
        <time>2012-04-20T00:57:59Z</time>
      </trkpt>
      <trkpt lat="45.05835" lon="5.52121">
        <ele>1127</ele>
        <time>2012-04-20T00:58:01Z</time>
      </trkpt>
      <trkpt lat="45.05837" lon="5.52125">
        <ele>1127</ele>
        <time>2012-04-20T00:58:02Z</time>
      </trkpt>
      <trkpt lat="45.05839" lon="5.52132">
        <ele>1127</ele>
        <time>2012-04-20T00:58:03Z</time>
      </trkpt>
      <trkpt lat="45.05843" lon="5.5214">
        <ele>1128</ele>
        <time>2012-04-20T00:58:05Z</time>
      </trkpt>
      <trkpt lat="45.05852" lon="5.52147">
        <ele>1128</ele>
        <time>2012-04-20T00:58:07Z</time>
      </trkpt>
      <trkpt lat="45.05873" lon="5.5216">
        <ele>1128</ele>
        <time>2012-04-20T00:58:13Z</time>
      </trkpt>
      <trkpt lat="45.05901" lon="5.52175">
        <ele>1132</ele>
        <time>2012-04-20T00:58:21Z</time>
      </trkpt>
      <trkpt lat="45.05927" lon="5.5219">
        <ele>1132</ele>
        <time>2012-04-20T00:58:28Z</time>
      </trkpt>
      <trkpt lat="45.05942" lon="5.52198">
        <ele>1133</ele>
        <time>2012-04-20T00:58:32Z</time>
      </trkpt>
      <trkpt lat="45.05948" lon="5.52203">
        <ele>1133</ele>
        <time>2012-04-20T00:58:33Z</time>
      </trkpt>
      <trkpt lat="45.05953" lon="5.52205">
        <ele>1133</ele>
        <time>2012-04-20T00:58:34Z</time>
      </trkpt>
      <trkpt lat="45.05957" lon="5.52209">
        <ele>1133</ele>
        <time>2012-04-20T00:58:35Z</time>
      </trkpt>
      <trkpt lat="45.05966" lon="5.52222">
        <ele>1133</ele>
        <time>2012-04-20T00:58:38Z</time>
      </trkpt>
      <trkpt lat="45.05968" lon="5.52226">
        <ele>1134</ele>
        <time>2012-04-20T00:58:39Z</time>
      </trkpt>
      <trkpt lat="45.05968" lon="5.52239">
        <ele>1134</ele>
        <time>2012-04-20T00:58:41Z</time>
      </trkpt>
      <trkpt lat="45.05974" lon="5.52243">
        <ele>1134</ele>
        <time>2012-04-20T00:58:42Z</time>
      </trkpt>
      <trkpt lat="45.05981" lon="5.52245">
        <ele>1134</ele>
        <time>2012-04-20T00:58:43Z</time>
      </trkpt>
      <trkpt lat="45.05987" lon="5.52245">
        <ele>1135</ele>
        <time>2012-04-20T00:58:44Z</time>
      </trkpt>
      <trkpt lat="45.05993" lon="5.52248">
        <ele>1135</ele>
        <time>2012-04-20T00:58:45Z</time>
      </trkpt>
      <trkpt lat="45.05998" lon="5.5225">
        <ele>1136</ele>
        <time>2012-04-20T00:58:46Z</time>
      </trkpt>
      <trkpt lat="45.06004" lon="5.52258">
        <ele>1136</ele>
        <time>2012-04-20T00:58:48Z</time>
      </trkpt>
      <trkpt lat="45.06008" lon="5.52263">
        <ele>1137</ele>
        <time>2012-04-20T00:58:49Z</time>
      </trkpt>
      <trkpt lat="45.06013" lon="5.52267">
        <ele>1137</ele>
        <time>2012-04-20T00:58:50Z</time>
      </trkpt>
      <trkpt lat="45.06017" lon="5.52269">
        <ele>1137</ele>
        <time>2012-04-20T00:58:51Z</time>
      </trkpt>
      <trkpt lat="45.06021" lon="5.52273">
        <ele>1137</ele>
        <time>2012-04-20T00:58:52Z</time>
      </trkpt>
      <trkpt lat="45.06036" lon="5.52293">
        <ele>1137</ele>
        <time>2012-04-20T00:58:57Z</time>
      </trkpt>
      <trkpt lat="45.06045" lon="5.52305">
        <ele>1137</ele>
        <time>2012-04-20T00:59:00Z</time>
      </trkpt>
      <trkpt lat="45.06045" lon="5.5231">
        <ele>1137</ele>
        <time>2012-04-20T00:59:00Z</time>
      </trkpt>
      <trkpt lat="45.06049" lon="5.52316">
        <ele>1137</ele>
        <time>2012-04-20T00:59:01Z</time>
      </trkpt>
      <trkpt lat="45.06053" lon="5.52321">
        <ele>1137</ele>
        <time>2012-04-20T00:59:02Z</time>
      </trkpt>
      <trkpt lat="45.06056" lon="5.52331">
        <ele>1137</ele>
        <time>2012-04-20T00:59:04Z</time>
      </trkpt>
      <trkpt lat="45.06066" lon="5.52374">
        <ele>1141</ele>
        <time>2012-04-20T00:59:12Z</time>
      </trkpt>
      <trkpt lat="45.06071" lon="5.52387">
        <ele>1142</ele>
        <time>2012-04-20T00:59:14Z</time>
      </trkpt>
      <trkpt lat="45.0605" lon="5.52403">
        <ele>1148.6015</ele>
        <time>2012-04-20T00:59:20Z</time>
      </trkpt>
      <trkpt lat="45.06059" lon="5.52442">
        <ele>1151.1679</ele>
        <time>2012-04-20T00:59:28Z</time>
      </trkpt>
      <trkpt lat="45.06103" lon="5.52462">
        <ele>1153.5351</ele>
        <time>2012-04-20T00:59:40Z</time>
      </trkpt>
      <trkpt lat="45.06189" lon="5.52491">
        <ele>1156.4609</ele>
        <time>2012-04-20T01:00:04Z</time>
      </trkpt>
      <trkpt lat="45.06205" lon="5.52524">
        <ele>1160.2109</ele>
        <time>2012-04-20T01:00:11Z</time>
      </trkpt>
      <trkpt lat="45.06208" lon="5.52569">
        <ele>1160</ele>
        <time>2012-04-20T01:00:20Z</time>
      </trkpt>
      <trkpt lat="45.0623" lon="5.52609">
        <ele>1170.9648</ele>
        <time>2012-04-20T01:00:29Z</time>
      </trkpt>
      <trkpt lat="45.06343" lon="5.52638">
        <ele>1171.2539</ele>
        <time>2012-04-20T01:01:00Z</time>
      </trkpt>
      <trkpt lat="45.0635" lon="5.52634">
        <ele>1166</ele>
        <time>2012-04-20T01:01:01Z</time>
      </trkpt>
      <trkpt lat="45.06362" lon="5.52632">
        <ele>1165</ele>
        <time>2012-04-20T01:01:04Z</time>
      </trkpt>
      <trkpt lat="45.06393" lon="5.52627">
        <ele>1163</ele>
        <time>2012-04-20T01:01:12Z</time>
      </trkpt>
      <trkpt lat="45.06403" lon="5.52625">
        <ele>1163</ele>
        <time>2012-04-20T01:01:15Z</time>
      </trkpt>
      <trkpt lat="45.0641" lon="5.52623">
        <ele>1162</ele>
        <time>2012-04-20T01:01:16Z</time>
      </trkpt>
      <trkpt lat="45.06414" lon="5.52623">
        <ele>1162</ele>
        <time>2012-04-20T01:01:17Z</time>
      </trkpt>
      <trkpt lat="45.0642" lon="5.52625">
        <ele>1155</ele>
        <time>2012-04-20T01:01:18Z</time>
      </trkpt>
      <trkpt lat="45.06425" lon="5.52627">
        <ele>1155</ele>
        <time>2012-04-20T01:01:19Z</time>
      </trkpt>
      <trkpt lat="45.06431" lon="5.5263">
        <ele>1155</ele>
        <time>2012-04-20T01:01:20Z</time>
      </trkpt>
      <trkpt lat="45.06438" lon="5.52636">
        <ele>1155</ele>
        <time>2012-04-20T01:01:22Z</time>
      </trkpt>
      <trkpt lat="45.06446" lon="5.52642">
        <ele>1155</ele>
        <time>2012-04-20T01:01:24Z</time>
      </trkpt>
      <trkpt lat="45.06453" lon="5.52653">
        <ele>1155</ele>
        <time>2012-04-20T01:01:26Z</time>
      </trkpt>
      <trkpt lat="45.06461" lon="5.52666">
        <ele>1154</ele>
        <time>2012-04-20T01:01:29Z</time>
      </trkpt>
      <trkpt lat="45.06474" lon="5.52692">
        <ele>1156</ele>
        <time>2012-04-20T01:01:35Z</time>
      </trkpt>
      <trkpt lat="45.06496" lon="5.52737">
        <ele>1155</ele>
        <time>2012-04-20T01:01:45Z</time>
      </trkpt>
      <trkpt lat="45.06502" lon="5.52737">
        <ele>1149</ele>
        <time>2012-04-20T01:01:46Z</time>
      </trkpt>
      <trkpt lat="45.06511" lon="5.52737">
        <ele>1148</ele>
        <time>2012-04-20T01:01:48Z</time>
      </trkpt>
      <trkpt lat="45.06519" lon="5.52737">
        <ele>1147</ele>
        <time>2012-04-20T01:01:50Z</time>
      </trkpt>
      <trkpt lat="45.06528" lon="5.52737">
        <ele>1146</ele>
        <time>2012-04-20T01:01:52Z</time>
      </trkpt>
      <trkpt lat="45.06536" lon="5.52737">
        <ele>1144</ele>
        <time>2012-04-20T01:01:54Z</time>
      </trkpt>
      <trkpt lat="45.06547" lon="5.52739">
        <ele>1143</ele>
        <time>2012-04-20T01:01:57Z</time>
      </trkpt>
      <trkpt lat="45.06553" lon="5.52739">
        <ele>1142</ele>
        <time>2012-04-20T01:01:58Z</time>
      </trkpt>
      <trkpt lat="45.06571" lon="5.52743">
        <ele>1140</ele>
        <time>2012-04-20T01:02:02Z</time>
      </trkpt>
      <trkpt lat="45.0659" lon="5.52745">
        <ele>1136</ele>
        <time>2012-04-20T01:02:07Z</time>
      </trkpt>
      <trkpt lat="45.06599" lon="5.52748">
        <ele>1135</ele>
        <time>2012-04-20T01:02:09Z</time>
      </trkpt>
      <trkpt lat="45.06605" lon="5.52745">
        <ele>1134</ele>
        <time>2012-04-20T01:02:10Z</time>
      </trkpt>
      <trkpt lat="45.06611" lon="5.5276">
        <ele>1135</ele>
        <time>2012-04-20T01:02:13Z</time>
      </trkpt>
      <trkpt lat="45.06618" lon="5.52763">
        <ele>1135</ele>
        <time>2012-04-20T01:02:14Z</time>
      </trkpt>
      <trkpt lat="45.06626" lon="5.52767">
        <ele>1134</ele>
        <time>2012-04-20T01:02:16Z</time>
      </trkpt>
      <trkpt lat="45.06631" lon="5.52769">
        <ele>1134</ele>
        <time>2012-04-20T01:02:17Z</time>
      </trkpt>
      <trkpt lat="45.06637" lon="5.52771">
        <ele>1134</ele>
        <time>2012-04-20T01:02:18Z</time>
      </trkpt>
      <trkpt lat="45.06641" lon="5.52771">
        <ele>1133</ele>
        <time>2012-04-20T01:02:19Z</time>
      </trkpt>
      <trkpt lat="45.06646" lon="5.52771">
        <ele>1133</ele>
        <time>2012-04-20T01:02:20Z</time>
      </trkpt>
      <trkpt lat="45.06652" lon="5.52771">
        <ele>1133</ele>
        <time>2012-04-20T01:02:21Z</time>
      </trkpt>
      <trkpt lat="45.06663" lon="5.52767">
        <ele>1132</ele>
        <time>2012-04-20T01:02:24Z</time>
      </trkpt>
      <trkpt lat="45.06671" lon="5.52765">
        <ele>1128</ele>
        <time>2012-04-20T01:02:26Z</time>
      </trkpt>
      <trkpt lat="45.06699" lon="5.52758">
        <ele>1126</ele>
        <time>2012-04-20T01:02:33Z</time>
      </trkpt>
      <trkpt lat="45.06721" lon="5.52754">
        <ele>1124</ele>
        <time>2012-04-20T01:02:39Z</time>
      </trkpt>
      <trkpt lat="45.06729" lon="5.52752">
        <ele>1123</ele>
        <time>2012-04-20T01:02:41Z</time>
      </trkpt>
      <trkpt lat="45.06738" lon="5.52752">
        <ele>1123</ele>
        <time>2012-04-20T01:02:43Z</time>
      </trkpt>
      <trkpt lat="45.06749" lon="5.52752">
        <ele>1121</ele>
        <time>2012-04-20T01:02:45Z</time>
      </trkpt>
      <trkpt lat="45.06759" lon="5.52752">
        <ele>1120</ele>
        <time>2012-04-20T01:02:47Z</time>
      </trkpt>
      <trkpt lat="45.06768" lon="5.52752">
        <ele>1119</ele>
        <time>2012-04-20T01:02:49Z</time>
      </trkpt>
      <trkpt lat="45.06783" lon="5.52754">
        <ele>1118</ele>
        <time>2012-04-20T01:02:53Z</time>
      </trkpt>
      <trkpt lat="45.06794" lon="5.52754">
        <ele>1117</ele>
        <time>2012-04-20T01:02:55Z</time>
      </trkpt>
      <trkpt lat="45.06802" lon="5.52754">
        <ele>1116</ele>
        <time>2012-04-20T01:02:57Z</time>
      </trkpt>
      <trkpt lat="45.0683" lon="5.52756">
        <ele>1115</ele>
        <time>2012-04-20T01:03:04Z</time>
      </trkpt>
      <trkpt lat="45.06854" lon="5.5276">
        <ele>1114</ele>
        <time>2012-04-20T01:03:10Z</time>
      </trkpt>
      <trkpt lat="45.0686" lon="5.5276">
        <ele>1114</ele>
        <time>2012-04-20T01:03:11Z</time>
      </trkpt>
      <trkpt lat="45.06867" lon="5.5276">
        <ele>1114</ele>
        <time>2012-04-20T01:03:12Z</time>
      </trkpt>
      <trkpt lat="45.06877" lon="5.52756">
        <ele>1114</ele>
        <time>2012-04-20T01:03:15Z</time>
      </trkpt>
      <trkpt lat="45.06888" lon="5.52754">
        <ele>1114</ele>
        <time>2012-04-20T01:03:18Z</time>
      </trkpt>
      <trkpt lat="45.06905" lon="5.52748">
        <ele>1113</ele>
        <time>2012-04-20T01:03:22Z</time>
      </trkpt>
      <trkpt lat="45.06923" lon="5.52739">
        <ele>1113</ele>
        <time>2012-04-20T01:03:27Z</time>
      </trkpt>
      <trkpt lat="45.06933" lon="5.52735">
        <ele>1112</ele>
        <time>2012-04-20T01:03:30Z</time>
      </trkpt>
      <trkpt lat="45.06955" lon="5.5273">
        <ele>1111</ele>
        <time>2012-04-20T01:03:36Z</time>
      </trkpt>
      <trkpt lat="45.07032" lon="5.52715">
        <ele>1111</ele>
        <time>2012-04-20T01:03:57Z</time>
      </trkpt>
      <trkpt lat="45.07041" lon="5.52715">
        <ele>1111</ele>
        <time>2012-04-20T01:03:59Z</time>
      </trkpt>
      <trkpt lat="45.07045" lon="5.52715">
        <ele>1111</ele>
        <time>2012-04-20T01:04:00Z</time>
      </trkpt>
      <trkpt lat="45.07049" lon="5.52717">
        <ele>1111</ele>
        <time>2012-04-20T01:04:01Z</time>
      </trkpt>
      <trkpt lat="45.07073" lon="5.52726">
        <ele>1112</ele>
        <time>2012-04-20T01:04:07Z</time>
      </trkpt>
      <trkpt lat="45.07083" lon="5.52733">
        <ele>1115</ele>
        <time>2012-04-20T01:04:10Z</time>
      </trkpt>
      <trkpt lat="45.07092" lon="5.52737">
        <ele>1115</ele>
        <time>2012-04-20T01:04:12Z</time>
      </trkpt>
      <trkpt lat="45.07096" lon="5.52735">
        <ele>1115</ele>
        <time>2012-04-20T01:04:13Z</time>
      </trkpt>
      <trkpt lat="45.07101" lon="5.5273">
        <ele>1115</ele>
        <time>2012-04-20T01:04:14Z</time>
      </trkpt>
      <trkpt lat="45.07107" lon="5.52728">
        <ele>1115</ele>
        <time>2012-04-20T01:04:15Z</time>
      </trkpt>
      <trkpt lat="45.07113" lon="5.52726">
        <ele>1115</ele>
        <time>2012-04-20T01:04:16Z</time>
      </trkpt>
      <trkpt lat="45.07124" lon="5.52717">
        <ele>1115</ele>
        <time>2012-04-20T01:04:19Z</time>
      </trkpt>
      <trkpt lat="45.07135" lon="5.52711">
        <ele>1115</ele>
        <time>2012-04-20T01:04:22Z</time>
      </trkpt>
      <trkpt lat="45.07161" lon="5.52694">
        <ele>1114</ele>
        <time>2012-04-20T01:04:29Z</time>
      </trkpt>
      <trkpt lat="45.07169" lon="5.52685">
        <ele>1119</ele>
        <time>2012-04-20T01:04:31Z</time>
      </trkpt>
      <trkpt lat="45.07171" lon="5.52683">
        <ele>1118</ele>
        <time>2012-04-20T01:04:31Z</time>
      </trkpt>
      <trkpt lat="45.07178" lon="5.52675">
        <ele>1117</ele>
        <time>2012-04-20T01:04:33Z</time>
      </trkpt>
      <trkpt lat="45.07186" lon="5.52655">
        <ele>1107</ele>
        <time>2012-04-20T01:04:37Z</time>
      </trkpt>
      <trkpt lat="45.07191" lon="5.52642">
        <ele>1105</ele>
        <time>2012-04-20T01:04:39Z</time>
      </trkpt>
      <trkpt lat="45.07193" lon="5.52625">
        <ele>1103</ele>
        <time>2012-04-20T01:04:42Z</time>
      </trkpt>
      <trkpt lat="45.07193" lon="5.52608">
        <ele>1100</ele>
        <time>2012-04-20T01:04:45Z</time>
      </trkpt>
      <trkpt lat="45.07195" lon="5.52589">
        <ele>1098</ele>
        <time>2012-04-20T01:04:48Z</time>
      </trkpt>
      <trkpt lat="45.07199" lon="5.5258">
        <ele>1084</ele>
        <time>2012-04-20T01:04:50Z</time>
      </trkpt>
      <trkpt lat="45.07204" lon="5.52576">
        <ele>1084</ele>
        <time>2012-04-20T01:04:51Z</time>
      </trkpt>
      <trkpt lat="45.07214" lon="5.52567">
        <ele>1083</ele>
        <time>2012-04-20T01:04:54Z</time>
      </trkpt>
      <trkpt lat="45.07229" lon="5.52557">
        <ele>1082</ele>
        <time>2012-04-20T01:04:58Z</time>
      </trkpt>
      <trkpt lat="45.07242" lon="5.52548">
        <ele>1081</ele>
        <time>2012-04-20T01:05:01Z</time>
      </trkpt>
      <trkpt lat="45.07259" lon="5.52531">
        <ele>1078</ele>
        <time>2012-04-20T01:05:06Z</time>
      </trkpt>
      <trkpt lat="45.07272" lon="5.52522">
        <ele>1077</ele>
        <time>2012-04-20T01:05:09Z</time>
      </trkpt>
      <trkpt lat="45.07281" lon="5.52511">
        <ele>1076</ele>
        <time>2012-04-20T01:05:12Z</time>
      </trkpt>
      <trkpt lat="45.07292" lon="5.52501">
        <ele>1075</ele>
        <time>2012-04-20T01:05:15Z</time>
      </trkpt>
      <trkpt lat="45.07302" lon="5.52492">
        <ele>1061</ele>
        <time>2012-04-20T01:05:18Z</time>
      </trkpt>
      <trkpt lat="45.07313" lon="5.52479">
        <ele>1061</ele>
        <time>2012-04-20T01:05:21Z</time>
      </trkpt>
      <trkpt lat="45.07319" lon="5.52473">
        <ele>1060</ele>
        <time>2012-04-20T01:05:23Z</time>
      </trkpt>
      <trkpt lat="45.07328" lon="5.52466">
        <ele>1059</ele>
        <time>2012-04-20T01:05:25Z</time>
      </trkpt>
      <trkpt lat="45.07335" lon="5.52462">
        <ele>1058</ele>
        <time>2012-04-20T01:05:26Z</time>
      </trkpt>
      <trkpt lat="45.07343" lon="5.52458">
        <ele>1057</ele>
        <time>2012-04-20T01:05:28Z</time>
      </trkpt>
      <trkpt lat="45.0735" lon="5.52456">
        <ele>1057</ele>
        <time>2012-04-20T01:05:29Z</time>
      </trkpt>
      <trkpt lat="45.0736" lon="5.52454">
        <ele>1057</ele>
        <time>2012-04-20T01:05:32Z</time>
      </trkpt>
      <trkpt lat="45.07367" lon="5.52449">
        <ele>1056</ele>
        <time>2012-04-20T01:05:33Z</time>
      </trkpt>
      <trkpt lat="45.07373" lon="5.52447">
        <ele>1056</ele>
        <time>2012-04-20T01:05:34Z</time>
      </trkpt>
      <trkpt lat="45.07382" lon="5.52439">
        <ele>1055</ele>
        <time>2012-04-20T01:05:36Z</time>
      </trkpt>
      <trkpt lat="45.07388" lon="5.5243">
        <ele>1054</ele>
        <time>2012-04-20T01:05:38Z</time>
      </trkpt>
      <trkpt lat="45.07392" lon="5.52426">
        <ele>1053</ele>
        <time>2012-04-20T01:05:39Z</time>
      </trkpt>
      <trkpt lat="45.07399" lon="5.52424">
        <ele>1051</ele>
        <time>2012-04-20T01:05:40Z</time>
      </trkpt>
      <trkpt lat="45.07407" lon="5.52421">
        <ele>1049</ele>
        <time>2012-04-20T01:05:42Z</time>
      </trkpt>
      <trkpt lat="45.07414" lon="5.52421">
        <ele>1048</ele>
        <time>2012-04-20T01:05:43Z</time>
      </trkpt>
      <trkpt lat="45.07425" lon="5.52421">
        <ele>1047</ele>
        <time>2012-04-20T01:05:45Z</time>
      </trkpt>
      <trkpt lat="45.07438" lon="5.52424">
        <ele>1048</ele>
        <time>2012-04-20T01:05:48Z</time>
      </trkpt>
      <trkpt lat="45.07457" lon="5.52426">
        <ele>1047</ele>
        <time>2012-04-20T01:05:53Z</time>
      </trkpt>
      <trkpt lat="45.07489" lon="5.52432">
        <ele>1043</ele>
        <time>2012-04-20T01:06:02Z</time>
      </trkpt>
      <trkpt lat="45.07528" lon="5.52439">
        <ele>1039</ele>
        <time>2012-04-20T01:06:12Z</time>
      </trkpt>
      <trkpt lat="45.07545" lon="5.52441">
        <ele>1039</ele>
        <time>2012-04-20T01:06:16Z</time>
      </trkpt>
      <trkpt lat="45.07553" lon="5.52441">
        <ele>1038</ele>
        <time>2012-04-20T01:06:18Z</time>
      </trkpt>
      <trkpt lat="45.07564" lon="5.52436">
        <ele>1036</ele>
        <time>2012-04-20T01:06:21Z</time>
      </trkpt>
      <trkpt lat="45.07577" lon="5.52434">
        <ele>1034</ele>
        <time>2012-04-20T01:06:24Z</time>
      </trkpt>
      <trkpt lat="45.07598" lon="5.52428">
        <ele>1032</ele>
        <time>2012-04-20T01:06:30Z</time>
      </trkpt>
      <trkpt lat="45.07643" lon="5.52415">
        <ele>1021</ele>
        <time>2012-04-20T01:06:42Z</time>
      </trkpt>
      <trkpt lat="45.07689" lon="5.52402">
        <ele>1022</ele>
        <time>2012-04-20T01:06:54Z</time>
      </trkpt>
      <trkpt lat="45.07742" lon="5.52385">
        <ele>1022</ele>
        <time>2012-04-20T01:07:09Z</time>
      </trkpt>
      <trkpt lat="45.07794" lon="5.52372">
        <ele>1024</ele>
        <time>2012-04-20T01:07:23Z</time>
      </trkpt>
      <trkpt lat="45.07854" lon="5.52355">
        <ele>1019</ele>
        <time>2012-04-20T01:07:40Z</time>
      </trkpt>
      <trkpt lat="45.07899" lon="5.5234">
        <ele>1012</ele>
        <time>2012-04-20T01:07:52Z</time>
      </trkpt>
      <trkpt lat="45.07916" lon="5.52338">
        <ele>1006</ele>
        <time>2012-04-20T01:07:56Z</time>
      </trkpt>
      <trkpt lat="45.07925" lon="5.52336">
        <ele>1005</ele>
        <time>2012-04-20T01:07:58Z</time>
      </trkpt>
      <trkpt lat="45.07929" lon="5.52336">
        <ele>1006</ele>
        <time>2012-04-20T01:07:59Z</time>
      </trkpt>
      <trkpt lat="45.0794" lon="5.52338">
        <ele>1008</ele>
        <time>2012-04-20T01:08:02Z</time>
      </trkpt>
      <trkpt lat="45.0795" lon="5.52338">
        <ele>1008</ele>
        <time>2012-04-20T01:08:04Z</time>
      </trkpt>
      <trkpt lat="45.07959" lon="5.52338">
        <ele>1008</ele>
        <time>2012-04-20T01:08:06Z</time>
      </trkpt>
      <trkpt lat="45.07968" lon="5.52336">
        <ele>1007</ele>
        <time>2012-04-20T01:08:08Z</time>
      </trkpt>
      <trkpt lat="45.07998" lon="5.52325">
        <ele>993</ele>
        <time>2012-04-20T01:08:16Z</time>
      </trkpt>
      <trkpt lat="45.08021" lon="5.52316">
        <ele>986</ele>
        <time>2012-04-20T01:08:22Z</time>
      </trkpt>
      <trkpt lat="45.08047" lon="5.5231">
        <ele>983</ele>
        <time>2012-04-20T01:08:29Z</time>
      </trkpt>
      <trkpt lat="45.08073" lon="5.52308">
        <ele>983</ele>
        <time>2012-04-20T01:08:36Z</time>
      </trkpt>
      <trkpt lat="45.0809" lon="5.52305">
        <ele>980</ele>
        <time>2012-04-20T01:08:40Z</time>
      </trkpt>
      <trkpt lat="45.08107" lon="5.52301">
        <ele>979</ele>
        <time>2012-04-20T01:08:44Z</time>
      </trkpt>
      <trkpt lat="45.0812" lon="5.52299">
        <ele>978</ele>
        <time>2012-04-20T01:08:47Z</time>
      </trkpt>
      <trkpt lat="45.08131" lon="5.52295">
        <ele>977</ele>
        <time>2012-04-20T01:08:50Z</time>
      </trkpt>
      <trkpt lat="45.08139" lon="5.5229">
        <ele>977</ele>
        <time>2012-04-20T01:08:52Z</time>
      </trkpt>
      <trkpt lat="45.08156" lon="5.52278">
        <ele>975</ele>
        <time>2012-04-20T01:08:57Z</time>
      </trkpt>
      <trkpt lat="45.08176" lon="5.52265">
        <ele>974</ele>
        <time>2012-04-20T01:09:02Z</time>
      </trkpt>
      <trkpt lat="45.08186" lon="5.52258">
        <ele>974</ele>
        <time>2012-04-20T01:09:05Z</time>
      </trkpt>
      <trkpt lat="45.08195" lon="5.5225">
        <ele>969</ele>
        <time>2012-04-20T01:09:07Z</time>
      </trkpt>
      <trkpt lat="45.08201" lon="5.52241">
        <ele>969</ele>
        <time>2012-04-20T01:09:09Z</time>
      </trkpt>
      <trkpt lat="45.08231" lon="5.52198">
        <ele>968</ele>
        <time>2012-04-20T01:09:20Z</time>
      </trkpt>
      <trkpt lat="45.08261" lon="5.52157">
        <ele>966</ele>
        <time>2012-04-20T01:09:31Z</time>
      </trkpt>
      <trkpt lat="45.08266" lon="5.52147">
        <ele>965</ele>
        <time>2012-04-20T01:09:33Z</time>
      </trkpt>
      <trkpt lat="45.0827" lon="5.52134">
        <ele>965</ele>
        <time>2012-04-20T01:09:35Z</time>
      </trkpt>
      <trkpt lat="45.08281" lon="5.52091">
        <ele>963</ele>
        <time>2012-04-20T01:09:43Z</time>
      </trkpt>
      <trkpt lat="45.08289" lon="5.52072">
        <ele>963</ele>
        <time>2012-04-20T01:09:47Z</time>
      </trkpt>
      <trkpt lat="45.08294" lon="5.52063">
        <ele>963</ele>
        <time>2012-04-20T01:09:49Z</time>
      </trkpt>
      <trkpt lat="45.08298" lon="5.52059">
        <ele>963</ele>
        <time>2012-04-20T01:09:50Z</time>
      </trkpt>
      <trkpt lat="45.08304" lon="5.52054">
        <ele>963</ele>
        <time>2012-04-20T01:09:51Z</time>
      </trkpt>
      <trkpt lat="45.08313" lon="5.52048">
        <ele>963</ele>
        <time>2012-04-20T01:09:53Z</time>
      </trkpt>
      <trkpt lat="45.08324" lon="5.52042">
        <ele>963</ele>
        <time>2012-04-20T01:09:56Z</time>
      </trkpt>
      <trkpt lat="45.08337" lon="5.52037">
        <ele>958</ele>
        <time>2012-04-20T01:09:59Z</time>
      </trkpt>
      <trkpt lat="45.08347" lon="5.52033">
        <ele>958</ele>
        <time>2012-04-20T01:10:02Z</time>
      </trkpt>
      <trkpt lat="45.08358" lon="5.52033">
        <ele>958</ele>
        <time>2012-04-20T01:10:04Z</time>
      </trkpt>
      <trkpt lat="45.08367" lon="5.52035">
        <ele>957</ele>
        <time>2012-04-20T01:10:06Z</time>
      </trkpt>
      <trkpt lat="45.08382" lon="5.52042">
        <ele>956</ele>
        <time>2012-04-20T01:10:10Z</time>
      </trkpt>
      <trkpt lat="45.08403" lon="5.52052">
        <ele>955</ele>
        <time>2012-04-20T01:10:16Z</time>
      </trkpt>
      <trkpt lat="45.0841" lon="5.52054">
        <ele>954</ele>
        <time>2012-04-20T01:10:17Z</time>
      </trkpt>
      <trkpt lat="45.08414" lon="5.52063">
        <ele>953</ele>
        <time>2012-04-20T01:10:19Z</time>
      </trkpt>
      <trkpt lat="45.08422" lon="5.52072">
        <ele>950</ele>
        <time>2012-04-20T01:10:21Z</time>
      </trkpt>
      <trkpt lat="45.08429" lon="5.52076">
        <ele>950</ele>
        <time>2012-04-20T01:10:22Z</time>
      </trkpt>
      <trkpt lat="45.08435" lon="5.52076">
        <ele>950</ele>
        <time>2012-04-20T01:10:23Z</time>
      </trkpt>
      <trkpt lat="45.08442" lon="5.52076">
        <ele>951</ele>
        <time>2012-04-20T01:10:24Z</time>
      </trkpt>
      <trkpt lat="45.0845" lon="5.52076">
        <ele>951</ele>
        <time>2012-04-20T01:10:26Z</time>
      </trkpt>
      <trkpt lat="45.08467" lon="5.52065">
        <ele>951</ele>
        <time>2012-04-20T01:10:31Z</time>
      </trkpt>
      <trkpt lat="45.08476" lon="5.52057">
        <ele>951</ele>
        <time>2012-04-20T01:10:33Z</time>
      </trkpt>
      <trkpt lat="45.0848" lon="5.52063">
        <ele>950</ele>
        <time>2012-04-20T01:10:34Z</time>
      </trkpt>
      <trkpt lat="45.08482" lon="5.52057">
        <ele>951</ele>
        <time>2012-04-20T01:10:35Z</time>
      </trkpt>
      <trkpt lat="45.08482" lon="5.52048">
        <ele>952</ele>
        <time>2012-04-20T01:10:36Z</time>
      </trkpt>
      <trkpt lat="45.08476" lon="5.52035">
        <ele>954</ele>
        <time>2012-04-20T01:10:39Z</time>
      </trkpt>
      <trkpt lat="45.08472" lon="5.52024">
        <ele>956</ele>
        <time>2012-04-20T01:10:41Z</time>
      </trkpt>
      <trkpt lat="45.08467" lon="5.52018">
        <ele>956</ele>
        <time>2012-04-20T01:10:42Z</time>
      </trkpt>
      <trkpt lat="45.08463" lon="5.52014">
        <ele>956</ele>
        <time>2012-04-20T01:10:43Z</time>
      </trkpt>
      <trkpt lat="45.08459" lon="5.52009">
        <ele>956</ele>
        <time>2012-04-20T01:10:44Z</time>
      </trkpt>
      <trkpt lat="45.08455" lon="5.52007">
        <ele>956</ele>
        <time>2012-04-20T01:10:45Z</time>
      </trkpt>
      <trkpt lat="45.0845" lon="5.52005">
        <ele>956</ele>
        <time>2012-04-20T01:10:46Z</time>
      </trkpt>
      <trkpt lat="45.08446" lon="5.52005">
        <ele>956</ele>
        <time>2012-04-20T01:10:47Z</time>
      </trkpt>
      <trkpt lat="45.08437" lon="5.52005">
        <ele>957</ele>
        <time>2012-04-20T01:10:49Z</time>
      </trkpt>
      <trkpt lat="45.08431" lon="5.52005">
        <ele>957</ele>
        <time>2012-04-20T01:10:50Z</time>
      </trkpt>
      <trkpt lat="45.08425" lon="5.52005">
        <ele>957</ele>
        <time>2012-04-20T01:10:51Z</time>
      </trkpt>
      <trkpt lat="45.0841" lon="5.52005">
        <ele>958</ele>
        <time>2012-04-20T01:10:55Z</time>
      </trkpt>
      <trkpt lat="45.08403" lon="5.52005">
        <ele>958</ele>
        <time>2012-04-20T01:10:56Z</time>
      </trkpt>
      <trkpt lat="45.08397" lon="5.52003">
        <ele>958</ele>
        <time>2012-04-20T01:10:57Z</time>
      </trkpt>
      <trkpt lat="45.08384" lon="5.51997">
        <ele>969</ele>
        <time>2012-04-20T01:11:00Z</time>
      </trkpt>
      <trkpt lat="45.08376" lon="5.51992">
        <ele>970</ele>
        <time>2012-04-20T01:11:02Z</time>
      </trkpt>
      <trkpt lat="45.08369" lon="5.51988">
        <ele>970</ele>
        <time>2012-04-20T01:11:04Z</time>
      </trkpt>
      <trkpt lat="45.08356" lon="5.51981">
        <ele>970</ele>
        <time>2012-04-20T01:11:07Z</time>
      </trkpt>
      <trkpt lat="45.08345" lon="5.51975">
        <ele>971</ele>
        <time>2012-04-20T01:11:10Z</time>
      </trkpt>
      <trkpt lat="45.08334" lon="5.51973">
        <ele>971</ele>
        <time>2012-04-20T01:11:13Z</time>
      </trkpt>
      <trkpt lat="45.08322" lon="5.51971">
        <ele>976</ele>
        <time>2012-04-20T01:11:16Z</time>
      </trkpt>
      <trkpt lat="45.08313" lon="5.51971">
        <ele>977</ele>
        <time>2012-04-20T01:11:18Z</time>
      </trkpt>
      <trkpt lat="45.08302" lon="5.51971">
        <ele>978</ele>
        <time>2012-04-20T01:11:20Z</time>
      </trkpt>
      <trkpt lat="45.08289" lon="5.51971">
        <ele>980</ele>
        <time>2012-04-20T01:11:23Z</time>
      </trkpt>
      <trkpt lat="45.08276" lon="5.51973">
        <ele>980</ele>
        <time>2012-04-20T01:11:26Z</time>
      </trkpt>
      <trkpt lat="45.08266" lon="5.51977">
        <ele>980</ele>
        <time>2012-04-20T01:11:29Z</time>
      </trkpt>
      <trkpt lat="45.08253" lon="5.51981">
        <ele>980</ele>
        <time>2012-04-20T01:11:32Z</time>
      </trkpt>
      <trkpt lat="45.08238" lon="5.51988">
        <ele>984</ele>
        <time>2012-04-20T01:11:36Z</time>
      </trkpt>
      <trkpt lat="45.08223" lon="5.52001">
        <ele>976</ele>
        <time>2012-04-20T01:11:40Z</time>
      </trkpt>
      <trkpt lat="45.08206" lon="5.52009">
        <ele>977</ele>
        <time>2012-04-20T01:11:45Z</time>
      </trkpt>
      <trkpt lat="45.08193" lon="5.52016">
        <ele>978</ele>
        <time>2012-04-20T01:11:48Z</time>
      </trkpt>
      <trkpt lat="45.08182" lon="5.52024">
        <ele>978</ele>
        <time>2012-04-20T01:11:51Z</time>
      </trkpt>
      <trkpt lat="45.08174" lon="5.52029">
        <ele>978</ele>
        <time>2012-04-20T01:11:53Z</time>
      </trkpt>
      <trkpt lat="45.08165" lon="5.52033">
        <ele>981</ele>
        <time>2012-04-20T01:11:55Z</time>
      </trkpt>
      <trkpt lat="45.08156" lon="5.52033">
        <ele>981</ele>
        <time>2012-04-20T01:11:57Z</time>
      </trkpt>
      <trkpt lat="45.08148" lon="5.52033">
        <ele>981</ele>
        <time>2012-04-20T01:11:59Z</time>
      </trkpt>
      <trkpt lat="45.08133" lon="5.52033">
        <ele>981</ele>
        <time>2012-04-20T01:12:03Z</time>
      </trkpt>
      <trkpt lat="45.08122" lon="5.52031">
        <ele>981</ele>
        <time>2012-04-20T01:12:06Z</time>
      </trkpt>
      <trkpt lat="45.08109" lon="5.52027">
        <ele>981</ele>
        <time>2012-04-20T01:12:09Z</time>
      </trkpt>
      <trkpt lat="45.08098" lon="5.52024">
        <ele>981</ele>
        <time>2012-04-20T01:12:12Z</time>
      </trkpt>
      <trkpt lat="45.08088" lon="5.52018">
        <ele>982</ele>
        <time>2012-04-20T01:12:15Z</time>
      </trkpt>
      <trkpt lat="45.08075" lon="5.52012">
        <ele>985</ele>
        <time>2012-04-20T01:12:18Z</time>
      </trkpt>
      <trkpt lat="45.08077" lon="5.52005">
        <ele>985</ele>
        <time>2012-04-20T01:12:19Z</time>
      </trkpt>
      <trkpt lat="45.08079" lon="5.51997">
        <ele>986</ele>
        <time>2012-04-20T01:12:20Z</time>
      </trkpt>
      <trkpt lat="45.08081" lon="5.51992">
        <ele>987</ele>
        <time>2012-04-20T01:12:21Z</time>
      </trkpt>
      <trkpt lat="45.08086" lon="5.51986">
        <ele>987</ele>
        <time>2012-04-20T01:12:22Z</time>
      </trkpt>
      <trkpt lat="45.08122" lon="5.51947">
        <ele>992</ele>
        <time>2012-04-20T01:12:34Z</time>
      </trkpt>
      <trkpt lat="45.08152" lon="5.51919">
        <ele>995</ele>
        <time>2012-04-20T01:12:43Z</time>
      </trkpt>
      <trkpt lat="45.08171" lon="5.51898">
        <ele>1002</ele>
        <time>2012-04-20T01:12:49Z</time>
      </trkpt>
      <trkpt lat="45.0818" lon="5.51889">
        <ele>1003</ele>
        <time>2012-04-20T01:12:51Z</time>
      </trkpt>
      <trkpt lat="45.08186" lon="5.51887">
        <ele>1003</ele>
        <time>2012-04-20T01:12:52Z</time>
      </trkpt>
      <trkpt lat="45.08191" lon="5.51885">
        <ele>1004</ele>
        <time>2012-04-20T01:12:53Z</time>
      </trkpt>
      <trkpt lat="45.08197" lon="5.51889">
        <ele>1003</ele>
        <time>2012-04-20T01:12:54Z</time>
      </trkpt>
      <trkpt lat="45.08206" lon="5.51891">
        <ele>1003</ele>
        <time>2012-04-20T01:12:56Z</time>
      </trkpt>
      <trkpt lat="45.08221" lon="5.51898">
        <ele>1003</ele>
        <time>2012-04-20T01:13:00Z</time>
      </trkpt>
      <trkpt lat="45.08231" lon="5.51898">
        <ele>1003</ele>
        <time>2012-04-20T01:13:02Z</time>
      </trkpt>
      <trkpt lat="45.08244" lon="5.51898">
        <ele>1002</ele>
        <time>2012-04-20T01:13:05Z</time>
      </trkpt>
      <trkpt lat="45.08266" lon="5.51896">
        <ele>1000</ele>
        <time>2012-04-20T01:13:10Z</time>
      </trkpt>
      <trkpt lat="45.08287" lon="5.51894">
        <ele>1000</ele>
        <time>2012-04-20T01:13:15Z</time>
      </trkpt>
      <trkpt lat="45.08307" lon="5.51891">
        <ele>999</ele>
        <time>2012-04-20T01:13:20Z</time>
      </trkpt>
      <trkpt lat="45.08334" lon="5.51889">
        <ele>996</ele>
        <time>2012-04-20T01:13:27Z</time>
      </trkpt>
      <trkpt lat="45.08352" lon="5.51885">
        <ele>997</ele>
        <time>2012-04-20T01:13:31Z</time>
      </trkpt>
      <trkpt lat="45.08377" lon="5.51878">
        <ele>998</ele>
        <time>2012-04-20T01:13:38Z</time>
      </trkpt>
      <trkpt lat="45.08388" lon="5.51878">
        <ele>998</ele>
        <time>2012-04-20T01:13:40Z</time>
      </trkpt>
      <trkpt lat="45.08397" lon="5.51876">
        <ele>998</ele>
        <time>2012-04-20T01:13:42Z</time>
      </trkpt>
      <trkpt lat="45.08401" lon="5.51874">
        <ele>998</ele>
        <time>2012-04-20T01:13:43Z</time>
      </trkpt>
      <trkpt lat="45.08407" lon="5.5187">
        <ele>999</ele>
        <time>2012-04-20T01:13:44Z</time>
      </trkpt>
      <trkpt lat="45.08412" lon="5.51866">
        <ele>999</ele>
        <time>2012-04-20T01:13:45Z</time>
      </trkpt>
      <trkpt lat="45.08427" lon="5.51846">
        <ele>1001</ele>
        <time>2012-04-20T01:13:50Z</time>
      </trkpt>
      <trkpt lat="45.08433" lon="5.51842">
        <ele>1001</ele>
        <time>2012-04-20T01:13:51Z</time>
      </trkpt>
      <trkpt lat="45.0844" lon="5.5184">
        <ele>1000</ele>
        <time>2012-04-20T01:13:52Z</time>
      </trkpt>
      <trkpt lat="45.08446" lon="5.51838">
        <ele>1000</ele>
        <time>2012-04-20T01:13:53Z</time>
      </trkpt>
      <trkpt lat="45.08452" lon="5.5184">
        <ele>1000</ele>
        <time>2012-04-20T01:13:54Z</time>
      </trkpt>
      <trkpt lat="45.08463" lon="5.51842">
        <ele>999</ele>
        <time>2012-04-20T01:13:57Z</time>
      </trkpt>
      <trkpt lat="45.0847" lon="5.51846">
        <ele>999</ele>
        <time>2012-04-20T01:13:58Z</time>
      </trkpt>
      <trkpt lat="45.08476" lon="5.51848">
        <ele>999</ele>
        <time>2012-04-20T01:13:59Z</time>
      </trkpt>
      <trkpt lat="45.08485" lon="5.51848">
        <ele>999</ele>
        <time>2012-04-20T01:14:01Z</time>
      </trkpt>
      <trkpt lat="45.08491" lon="5.51848">
        <ele>1000</ele>
        <time>2012-04-20T01:14:02Z</time>
      </trkpt>
      <trkpt lat="45.08498" lon="5.51844">
        <ele>1000</ele>
        <time>2012-04-20T01:14:03Z</time>
      </trkpt>
      <trkpt lat="45.08502" lon="5.51842">
        <ele>1002</ele>
        <time>2012-04-20T01:14:04Z</time>
      </trkpt>
      <trkpt lat="45.08506" lon="5.51836">
        <ele>1002</ele>
        <time>2012-04-20T01:14:05Z</time>
      </trkpt>
      <trkpt lat="45.08513" lon="5.51825">
        <ele>1008</ele>
        <time>2012-04-20T01:14:07Z</time>
      </trkpt>
      <trkpt lat="45.0853" lon="5.51803">
        <ele>1013</ele>
        <time>2012-04-20T01:14:13Z</time>
      </trkpt>
      <trkpt lat="45.08538" lon="5.51791">
        <ele>1014</ele>
        <time>2012-04-20T01:14:16Z</time>
      </trkpt>
      <trkpt lat="45.08543" lon="5.51786">
        <ele>1014</ele>
        <time>2012-04-20T01:14:17Z</time>
      </trkpt>
      <trkpt lat="45.08547" lon="5.51784">
        <ele>1015</ele>
        <time>2012-04-20T01:14:18Z</time>
      </trkpt>
      <trkpt lat="45.08553" lon="5.51786">
        <ele>1014</ele>
        <time>2012-04-20T01:14:19Z</time>
      </trkpt>
      <trkpt lat="45.08558" lon="5.51791">
        <ele>1014</ele>
        <time>2012-04-20T01:14:20Z</time>
      </trkpt>
      <trkpt lat="45.08562" lon="5.51797">
        <ele>1014</ele>
        <time>2012-04-20T01:14:21Z</time>
      </trkpt>
      <trkpt lat="45.08562" lon="5.51803">
        <ele>1013</ele>
        <time>2012-04-20T01:14:22Z</time>
      </trkpt>
      <trkpt lat="45.08562" lon="5.51812">
        <ele>1013</ele>
        <time>2012-04-20T01:14:23Z</time>
      </trkpt>
      <trkpt lat="45.08562" lon="5.51821">
        <ele>1012</ele>
        <time>2012-04-20T01:14:24Z</time>
      </trkpt>
      <trkpt lat="45.0856" lon="5.51838">
        <ele>1005</ele>
        <time>2012-04-20T01:14:27Z</time>
      </trkpt>
      <trkpt lat="45.08555" lon="5.51853">
        <ele>1004</ele>
        <time>2012-04-20T01:14:30Z</time>
      </trkpt>
      <trkpt lat="45.08558" lon="5.51861">
        <ele>1003</ele>
        <time>2012-04-20T01:14:31Z</time>
      </trkpt>
      <trkpt lat="45.08558" lon="5.51868">
        <ele>1003</ele>
        <time>2012-04-20T01:14:32Z</time>
      </trkpt>
      <trkpt lat="45.0856" lon="5.51872">
        <ele>1003</ele>
        <time>2012-04-20T01:14:33Z</time>
      </trkpt>
      <trkpt lat="45.08562" lon="5.51876">
        <ele>1002</ele>
        <time>2012-04-20T01:14:34Z</time>
      </trkpt>
      <trkpt lat="45.08566" lon="5.51881">
        <ele>1002</ele>
        <time>2012-04-20T01:14:35Z</time>
      </trkpt>
      <trkpt lat="45.08573" lon="5.51883">
        <ele>1002</ele>
        <time>2012-04-20T01:14:36Z</time>
      </trkpt>
      <trkpt lat="45.0859" lon="5.51889">
        <ele>1004</ele>
        <time>2012-04-20T01:14:40Z</time>
      </trkpt>
      <trkpt lat="45.08605" lon="5.51894">
        <ele>1004</ele>
        <time>2012-04-20T01:14:44Z</time>
      </trkpt>
      <trkpt lat="45.08611" lon="5.51894">
        <ele>1004</ele>
        <time>2012-04-20T01:14:45Z</time>
      </trkpt>
      <trkpt lat="45.08616" lon="5.51891">
        <ele>1004</ele>
        <time>2012-04-20T01:14:46Z</time>
      </trkpt>
      <trkpt lat="45.08624" lon="5.51885">
        <ele>1004</ele>
        <time>2012-04-20T01:14:48Z</time>
      </trkpt>
      <trkpt lat="45.08633" lon="5.51878">
        <ele>1005</ele>
        <time>2012-04-20T01:14:50Z</time>
      </trkpt>
      <trkpt lat="45.08646" lon="5.51866">
        <ele>1006</ele>
        <time>2012-04-20T01:14:54Z</time>
      </trkpt>
      <trkpt lat="45.08658" lon="5.51848">
        <ele>1008</ele>
        <time>2012-04-20T01:14:58Z</time>
      </trkpt>
      <trkpt lat="45.08663" lon="5.51844">
        <ele>1009</ele>
        <time>2012-04-20T01:14:59Z</time>
      </trkpt>
      <trkpt lat="45.08667" lon="5.51838">
        <ele>1010</ele>
        <time>2012-04-20T01:15:00Z</time>
      </trkpt>
      <trkpt lat="45.08669" lon="5.51829">
        <ele>1012</ele>
        <time>2012-04-20T01:15:01Z</time>
      </trkpt>
      <trkpt lat="45.08669" lon="5.51818">
        <ele>1013</ele>
        <time>2012-04-20T01:15:03Z</time>
      </trkpt>
      <trkpt lat="45.08673" lon="5.51808">
        <ele>1014</ele>
        <time>2012-04-20T01:15:05Z</time>
      </trkpt>
      <trkpt lat="45.08673" lon="5.51797">
        <ele>1014</ele>
        <time>2012-04-20T01:15:07Z</time>
      </trkpt>
      <trkpt lat="45.08676" lon="5.51793">
        <ele>1015</ele>
        <time>2012-04-20T01:15:08Z</time>
      </trkpt>
      <trkpt lat="45.08678" lon="5.51788">
        <ele>1015</ele>
        <time>2012-04-20T01:15:09Z</time>
      </trkpt>
      <trkpt lat="45.08682" lon="5.51782">
        <ele>1015</ele>
        <time>2012-04-20T01:15:10Z</time>
      </trkpt>
      <trkpt lat="45.08695" lon="5.51773">
        <ele>1015</ele>
        <time>2012-04-20T01:15:13Z</time>
      </trkpt>
      <trkpt lat="45.08701" lon="5.51769">
        <ele>1015</ele>
        <time>2012-04-20T01:15:14Z</time>
      </trkpt>
      <trkpt lat="45.08706" lon="5.51763">
        <ele>1015</ele>
        <time>2012-04-20T01:15:15Z</time>
      </trkpt>
      <trkpt lat="45.0871" lon="5.51758">
        <ele>1015</ele>
        <time>2012-04-20T01:15:16Z</time>
      </trkpt>
      <trkpt lat="45.08712" lon="5.51752">
        <ele>1015</ele>
        <time>2012-04-20T01:15:17Z</time>
      </trkpt>
      <trkpt lat="45.08719" lon="5.51745">
        <ele>1022</ele>
        <time>2012-04-20T01:15:19Z</time>
      </trkpt>
      <trkpt lat="45.08725" lon="5.51739">
        <ele>1021</ele>
        <time>2012-04-20T01:15:21Z</time>
      </trkpt>
      <trkpt lat="45.08731" lon="5.51733">
        <ele>1021</ele>
        <time>2012-04-20T01:15:23Z</time>
      </trkpt>
      <trkpt lat="45.08736" lon="5.51733">
        <ele>1021</ele>
        <time>2012-04-20T01:15:24Z</time>
      </trkpt>
      <trkpt lat="45.0874" lon="5.51735">
        <ele>1020</ele>
        <time>2012-04-20T01:15:25Z</time>
      </trkpt>
      <trkpt lat="45.08744" lon="5.51741">
        <ele>1018</ele>
        <time>2012-04-20T01:15:26Z</time>
      </trkpt>
      <trkpt lat="45.08746" lon="5.51748">
        <ele>1017</ele>
        <time>2012-04-20T01:15:27Z</time>
      </trkpt>
      <trkpt lat="45.08746" lon="5.51756">
        <ele>1015</ele>
        <time>2012-04-20T01:15:28Z</time>
      </trkpt>
      <trkpt lat="45.08746" lon="5.51767">
        <ele>1014</ele>
        <time>2012-04-20T01:15:30Z</time>
      </trkpt>
      <trkpt lat="45.08746" lon="5.51775">
        <ele>1014</ele>
        <time>2012-04-20T01:15:31Z</time>
      </trkpt>
      <trkpt lat="45.08749" lon="5.51782">
        <ele>1013</ele>
        <time>2012-04-20T01:15:32Z</time>
      </trkpt>
      <trkpt lat="45.08749" lon="5.51786">
        <ele>1013</ele>
        <time>2012-04-20T01:15:32Z</time>
      </trkpt>
      <trkpt lat="45.08753" lon="5.51788">
        <ele>1013</ele>
        <time>2012-04-20T01:15:33Z</time>
      </trkpt>
      <trkpt lat="45.08757" lon="5.51793">
        <ele>1013</ele>
        <time>2012-04-20T01:15:34Z</time>
      </trkpt>
      <trkpt lat="45.08764" lon="5.51795">
        <ele>1013</ele>
        <time>2012-04-20T01:15:35Z</time>
      </trkpt>
      <trkpt lat="45.08807" lon="5.51808">
        <ele>1014</ele>
        <time>2012-04-20T01:15:47Z</time>
      </trkpt>
      <trkpt lat="45.08817" lon="5.5181">
        <ele>1014</ele>
        <time>2012-04-20T01:15:50Z</time>
      </trkpt>
      <trkpt lat="45.08828" lon="5.5181">
        <ele>1014</ele>
        <time>2012-04-20T01:15:52Z</time>
      </trkpt>
      <trkpt lat="45.08837" lon="5.51808">
        <ele>1017</ele>
        <time>2012-04-20T01:15:54Z</time>
      </trkpt>
      <trkpt lat="45.08843" lon="5.51803">
        <ele>1018</ele>
        <time>2012-04-20T01:15:55Z</time>
      </trkpt>
      <trkpt lat="45.08849" lon="5.51799">
        <ele>1018</ele>
        <time>2012-04-20T01:15:56Z</time>
      </trkpt>
      <trkpt lat="45.08854" lon="5.51793">
        <ele>1019</ele>
        <time>2012-04-20T01:15:57Z</time>
      </trkpt>
      <trkpt lat="45.0886" lon="5.51778">
        <ele>1020</ele>
        <time>2012-04-20T01:16:00Z</time>
      </trkpt>
      <trkpt lat="45.08869" lon="5.51756">
        <ele>1022</ele>
        <time>2012-04-20T01:16:04Z</time>
      </trkpt>
      <trkpt lat="45.08874" lon="5.51748">
        <ele>1028</ele>
        <time>2012-04-20T01:16:06Z</time>
      </trkpt>
      <trkpt lat="45.08882" lon="5.51739">
        <ele>1029</ele>
        <time>2012-04-20T01:16:08Z</time>
      </trkpt>
      <trkpt lat="45.08888" lon="5.5173">
        <ele>1029</ele>
        <time>2012-04-20T01:16:10Z</time>
      </trkpt>
      <trkpt lat="45.08892" lon="5.51722">
        <ele>1030</ele>
        <time>2012-04-20T01:16:12Z</time>
      </trkpt>
      <trkpt lat="45.08897" lon="5.51713">
        <ele>1030</ele>
        <time>2012-04-20T01:16:14Z</time>
      </trkpt>
      <trkpt lat="45.08899" lon="5.517">
        <ele>1030</ele>
        <time>2012-04-20T01:16:16Z</time>
      </trkpt>
      <trkpt lat="45.08901" lon="5.5169">
        <ele>1031</ele>
        <time>2012-04-20T01:16:18Z</time>
      </trkpt>
      <trkpt lat="45.08905" lon="5.51681">
        <ele>1032</ele>
        <time>2012-04-20T01:16:20Z</time>
      </trkpt>
      <trkpt lat="45.08912" lon="5.51677">
        <ele>1032</ele>
        <time>2012-04-20T01:16:21Z</time>
      </trkpt>
      <trkpt lat="45.08918" lon="5.51679">
        <ele>1036</ele>
        <time>2012-04-20T01:16:22Z</time>
      </trkpt>
      <trkpt lat="45.08922" lon="5.51683">
        <ele>1037</ele>
        <time>2012-04-20T01:16:23Z</time>
      </trkpt>
      <trkpt lat="45.08925" lon="5.5169">
        <ele>1037</ele>
        <time>2012-04-20T01:16:24Z</time>
      </trkpt>
      <trkpt lat="45.08927" lon="5.51698">
        <ele>1037</ele>
        <time>2012-04-20T01:16:25Z</time>
      </trkpt>
      <trkpt lat="45.08927" lon="5.51707">
        <ele>1037</ele>
        <time>2012-04-20T01:16:26Z</time>
      </trkpt>
      <trkpt lat="45.08929" lon="5.51726">
        <ele>1036</ele>
        <time>2012-04-20T01:16:29Z</time>
      </trkpt>
      <trkpt lat="45.08929" lon="5.51739">
        <ele>1034</ele>
        <time>2012-04-20T01:16:31Z</time>
      </trkpt>
      <trkpt lat="45.08933" lon="5.5175">
        <ele>1034</ele>
        <time>2012-04-20T01:16:33Z</time>
      </trkpt>
      <trkpt lat="45.08937" lon="5.51756">
        <ele>1029</ele>
        <time>2012-04-20T01:16:34Z</time>
      </trkpt>
      <trkpt lat="45.08942" lon="5.51763">
        <ele>1029</ele>
        <time>2012-04-20T01:16:35Z</time>
      </trkpt>
      <trkpt lat="45.0895" lon="5.51767">
        <ele>1029</ele>
        <time>2012-04-20T01:16:37Z</time>
      </trkpt>
      <trkpt lat="45.08961" lon="5.51771">
        <ele>1030</ele>
        <time>2012-04-20T01:16:40Z</time>
      </trkpt>
      <trkpt lat="45.08976" lon="5.51773">
        <ele>1031</ele>
        <time>2012-04-20T01:16:44Z</time>
      </trkpt>
      <trkpt lat="45.08989" lon="5.51778">
        <ele>1031</ele>
        <time>2012-04-20T01:16:47Z</time>
      </trkpt>
      <trkpt lat="45.09" lon="5.51784">
        <ele>1031</ele>
        <time>2012-04-20T01:16:50Z</time>
      </trkpt>
      <trkpt lat="45.09012" lon="5.51786">
        <ele>1039</ele>
        <time>2012-04-20T01:16:53Z</time>
      </trkpt>
      <trkpt lat="45.09025" lon="5.51788">
        <ele>1040</ele>
        <time>2012-04-20T01:16:56Z</time>
      </trkpt>
      <trkpt lat="45.0904" lon="5.51791">
        <ele>1041</ele>
        <time>2012-04-20T01:17:00Z</time>
      </trkpt>
      <trkpt lat="45.09049" lon="5.51795">
        <ele>1042</ele>
        <time>2012-04-20T01:17:02Z</time>
      </trkpt>
      <trkpt lat="45.09077" lon="5.51814">
        <ele>1044</ele>
        <time>2012-04-20T01:17:10Z</time>
      </trkpt>
      <trkpt lat="45.09092" lon="5.51829">
        <ele>1052</ele>
        <time>2012-04-20T01:17:15Z</time>
      </trkpt>
      <trkpt lat="45.09107" lon="5.51842">
        <ele>1054</ele>
        <time>2012-04-20T01:17:19Z</time>
      </trkpt>
      <trkpt lat="45.09113" lon="5.51853">
        <ele>1056</ele>
        <time>2012-04-20T01:17:21Z</time>
      </trkpt>
      <trkpt lat="45.09118" lon="5.51861">
        <ele>1057</ele>
        <time>2012-04-20T01:17:23Z</time>
      </trkpt>
      <trkpt lat="45.0912" lon="5.51872">
        <ele>1057</ele>
        <time>2012-04-20T01:17:25Z</time>
      </trkpt>
      <trkpt lat="45.09122" lon="5.51883">
        <ele>1057</ele>
        <time>2012-04-20T01:17:27Z</time>
      </trkpt>
      <trkpt lat="45.09124" lon="5.51889">
        <ele>1057</ele>
        <time>2012-04-20T01:17:28Z</time>
      </trkpt>
      <trkpt lat="45.09131" lon="5.51894">
        <ele>1058</ele>
        <time>2012-04-20T01:17:29Z</time>
      </trkpt>
      <trkpt lat="45.09141" lon="5.51913">
        <ele>1061</ele>
        <time>2012-04-20T01:17:33Z</time>
      </trkpt>
      <trkpt lat="45.09148" lon="5.51928">
        <ele>1061</ele>
        <time>2012-04-20T01:17:36Z</time>
      </trkpt>
      <trkpt lat="45.09154" lon="5.51945">
        <ele>1060</ele>
        <time>2012-04-20T01:17:39Z</time>
      </trkpt>
      <trkpt lat="45.09158" lon="5.51958">
        <ele>1060</ele>
        <time>2012-04-20T01:17:41Z</time>
      </trkpt>
      <trkpt lat="45.09158" lon="5.51973">
        <ele>1060</ele>
        <time>2012-04-20T01:17:43Z</time>
      </trkpt>
      <trkpt lat="45.09158" lon="5.51992">
        <ele>1062</ele>
        <time>2012-04-20T01:17:46Z</time>
      </trkpt>
      <trkpt lat="45.09161" lon="5.52009">
        <ele>1061</ele>
        <time>2012-04-20T01:17:49Z</time>
      </trkpt>
      <trkpt lat="45.09167" lon="5.52022">
        <ele>1070</ele>
        <time>2012-04-20T01:17:52Z</time>
      </trkpt>
      <trkpt lat="45.09171" lon="5.52029">
        <ele>1071</ele>
        <time>2012-04-20T01:17:53Z</time>
      </trkpt>
      <trkpt lat="45.09178" lon="5.52035">
        <ele>1072</ele>
        <time>2012-04-20T01:17:55Z</time>
      </trkpt>
      <trkpt lat="45.09193" lon="5.52042">
        <ele>1073</ele>
        <time>2012-04-20T01:17:59Z</time>
      </trkpt>
      <trkpt lat="45.09208" lon="5.5205">
        <ele>1075</ele>
        <time>2012-04-20T01:18:03Z</time>
      </trkpt>
      <trkpt lat="45.09227" lon="5.52063">
        <ele>1078</ele>
        <time>2012-04-20T01:18:08Z</time>
      </trkpt>
      <trkpt lat="45.09249" lon="5.52078">
        <ele>1083</ele>
        <time>2012-04-20T01:18:14Z</time>
      </trkpt>
      <trkpt lat="45.09268" lon="5.52095">
        <ele>1091</ele>
        <time>2012-04-20T01:18:20Z</time>
      </trkpt>
      <trkpt lat="45.09294" lon="5.52115">
        <ele>1096</ele>
        <time>2012-04-20T01:18:28Z</time>
      </trkpt>
      <trkpt lat="45.093" lon="5.52119">
        <ele>1097</ele>
        <time>2012-04-20T01:18:29Z</time>
      </trkpt>
      <trkpt lat="45.09304" lon="5.52115">
        <ele>1099</ele>
        <time>2012-04-20T01:18:30Z</time>
      </trkpt>
      <trkpt lat="45.09304" lon="5.5211">
        <ele>1099</ele>
        <time>2012-04-20T01:18:30Z</time>
      </trkpt>
      <trkpt lat="45.09304" lon="5.52104">
        <ele>1101</ele>
        <time>2012-04-20T01:18:31Z</time>
      </trkpt>
      <trkpt lat="45.09302" lon="5.52076">
        <ele>1112</ele>
        <time>2012-04-20T01:18:36Z</time>
      </trkpt>
      <trkpt lat="45.09304" lon="5.52048">
        <ele>1113</ele>
        <time>2012-04-20T01:18:41Z</time>
      </trkpt>
      <trkpt lat="45.09306" lon="5.52024">
        <ele>1117</ele>
        <time>2012-04-20T01:18:45Z</time>
      </trkpt>
      <trkpt lat="45.09309" lon="5.51986">
        <ele>1127</ele>
        <time>2012-04-20T01:18:52Z</time>
      </trkpt>
      <trkpt lat="45.09311" lon="5.51945">
        <ele>1129</ele>
        <time>2012-04-20T01:19:00Z</time>
      </trkpt>
      <trkpt lat="45.09317" lon="5.51898">
        <ele>1139</ele>
        <time>2012-04-20T01:19:09Z</time>
      </trkpt>
      <trkpt lat="45.09318" lon="5.51888">
        <ele>1138</ele>
        <time>2012-04-20T01:19:10Z</time>
      </trkpt>
      <trkpt lat="45.09321" lon="5.51861">
        <ele>1141</ele>
        <time>2012-04-20T01:19:15Z</time>
      </trkpt>
      <trkpt lat="45.09328" lon="5.51821">
        <ele>1148</ele>
        <time>2012-04-20T01:19:23Z</time>
      </trkpt>
      <trkpt lat="45.09334" lon="5.51799">
        <ele>1169</ele>
        <time>2012-04-20T01:19:27Z</time>
      </trkpt>
      <trkpt lat="45.09339" lon="5.51795">
        <ele>1170</ele>
        <time>2012-04-20T01:19:28Z</time>
      </trkpt>
      <trkpt lat="45.09345" lon="5.51788">
        <ele>1170</ele>
        <time>2012-04-20T01:19:30Z</time>
      </trkpt>
      <trkpt lat="45.09354" lon="5.51784">
        <ele>1171</ele>
        <time>2012-04-20T01:19:32Z</time>
      </trkpt>
      <trkpt lat="45.09367" lon="5.51778">
        <ele>1174</ele>
        <time>2012-04-20T01:19:35Z</time>
      </trkpt>
      <trkpt lat="45.09384" lon="5.51773">
        <ele>1178</ele>
        <time>2012-04-20T01:19:39Z</time>
      </trkpt>
      <trkpt lat="45.09392" lon="5.51773">
        <ele>1180</ele>
        <time>2012-04-20T01:19:41Z</time>
      </trkpt>
      <trkpt lat="45.09399" lon="5.51775">
        <ele>1182</ele>
        <time>2012-04-20T01:19:42Z</time>
      </trkpt>
      <trkpt lat="45.09405" lon="5.51778">
        <ele>1183</ele>
        <time>2012-04-20T01:19:43Z</time>
      </trkpt>
      <trkpt lat="45.09412" lon="5.51784">
        <ele>1184</ele>
        <time>2012-04-20T01:19:45Z</time>
      </trkpt>
      <trkpt lat="45.09418" lon="5.51786">
        <ele>1201</ele>
        <time>2012-04-20T01:19:46Z</time>
      </trkpt>
      <trkpt lat="45.09422" lon="5.51784">
        <ele>1201</ele>
        <time>2012-04-20T01:19:47Z</time>
      </trkpt>
      <trkpt lat="45.09427" lon="5.51775">
        <ele>1200</ele>
        <time>2012-04-20T01:19:49Z</time>
      </trkpt>
      <trkpt lat="45.09433" lon="5.51765">
        <ele>1200</ele>
        <time>2012-04-20T01:19:51Z</time>
      </trkpt>
      <trkpt lat="45.0944" lon="5.51748">
        <ele>1201</ele>
        <time>2012-04-20T01:19:54Z</time>
      </trkpt>
      <trkpt lat="45.09448" lon="5.51726">
        <ele>1204</ele>
        <time>2012-04-20T01:19:58Z</time>
      </trkpt>
      <trkpt lat="45.09452" lon="5.51713">
        <ele>1206</ele>
        <time>2012-04-20T01:20:00Z</time>
      </trkpt>
      <trkpt lat="45.09459" lon="5.517">
        <ele>1207</ele>
        <time>2012-04-20T01:20:03Z</time>
      </trkpt>
      <trkpt lat="45.09463" lon="5.517">
        <ele>1208</ele>
        <time>2012-04-20T01:20:04Z</time>
      </trkpt>
      <trkpt lat="45.09467" lon="5.51707">
        <ele>1208</ele>
        <time>2012-04-20T01:20:05Z</time>
      </trkpt>
      <trkpt lat="45.09474" lon="5.51713">
        <ele>1209</ele>
        <time>2012-04-20T01:20:07Z</time>
      </trkpt>
      <trkpt lat="45.09485" lon="5.51726">
        <ele>1209</ele>
        <time>2012-04-20T01:20:10Z</time>
      </trkpt>
      <trkpt lat="45.09497" lon="5.51735">
        <ele>1211</ele>
        <time>2012-04-20T01:20:13Z</time>
      </trkpt>
      <trkpt lat="45.09504" lon="5.51739">
        <ele>1217</ele>
        <time>2012-04-20T01:20:14Z</time>
      </trkpt>
      <trkpt lat="45.09521" lon="5.5176">
        <ele>1214</ele>
        <time>2012-04-20T01:20:20Z</time>
      </trkpt>
      <trkpt lat="45.09527" lon="5.51771">
        <ele>1214</ele>
        <time>2012-04-20T01:20:22Z</time>
      </trkpt>
      <trkpt lat="45.09538" lon="5.51782">
        <ele>1214</ele>
        <time>2012-04-20T01:20:25Z</time>
      </trkpt>
      <trkpt lat="45.09553" lon="5.51788">
        <ele>1214</ele>
        <time>2012-04-20T01:20:29Z</time>
      </trkpt>
      <trkpt lat="45.09573" lon="5.51793">
        <ele>1214</ele>
        <time>2012-04-20T01:20:34Z</time>
      </trkpt>
      <trkpt lat="45.09581" lon="5.51793">
        <ele>1214</ele>
        <time>2012-04-20T01:20:36Z</time>
      </trkpt>
      <trkpt lat="45.09598" lon="5.51795">
        <ele>1216</ele>
        <time>2012-04-20T01:20:40Z</time>
      </trkpt>
      <trkpt lat="45.09624" lon="5.51791">
        <ele>1217</ele>
        <time>2012-04-20T01:20:47Z</time>
      </trkpt>
      <trkpt lat="45.0963" lon="5.51791">
        <ele>1217</ele>
        <time>2012-04-20T01:20:48Z</time>
      </trkpt>
      <trkpt lat="45.09639" lon="5.51786">
        <ele>1217</ele>
        <time>2012-04-20T01:20:50Z</time>
      </trkpt>
      <trkpt lat="45.09645" lon="5.51782">
        <ele>1218</ele>
        <time>2012-04-20T01:20:51Z</time>
      </trkpt>
      <trkpt lat="45.09654" lon="5.51769">
        <ele>1221</ele>
        <time>2012-04-20T01:20:54Z</time>
      </trkpt>
      <trkpt lat="45.09667" lon="5.51743">
        <ele>1231</ele>
        <time>2012-04-20T01:21:00Z</time>
      </trkpt>
      <trkpt lat="45.0968" lon="5.5172">
        <ele>1237</ele>
        <time>2012-04-20T01:21:05Z</time>
      </trkpt>
      <trkpt lat="45.09686" lon="5.51715">
        <ele>1238</ele>
        <time>2012-04-20T01:21:06Z</time>
      </trkpt>
      <trkpt lat="45.09695" lon="5.51713">
        <ele>1238</ele>
        <time>2012-04-20T01:21:08Z</time>
      </trkpt>
      <trkpt lat="45.09712" lon="5.5172">
        <ele>1238</ele>
        <time>2012-04-20T01:21:12Z</time>
      </trkpt>
      <trkpt lat="45.09736" lon="5.51735">
        <ele>1235</ele>
        <time>2012-04-20T01:21:19Z</time>
      </trkpt>
      <trkpt lat="45.09755" lon="5.51743">
        <ele>1235</ele>
        <time>2012-04-20T01:21:24Z</time>
      </trkpt>
      <trkpt lat="45.09779" lon="5.51743">
        <ele>1240</ele>
        <time>2012-04-20T01:21:30Z</time>
      </trkpt>
      <trkpt lat="45.09806" lon="5.51741">
        <ele>1243</ele>
        <time>2012-04-20T01:21:37Z</time>
      </trkpt>
      <trkpt lat="45.09845" lon="5.51737">
        <ele>1243</ele>
        <time>2012-04-20T01:21:47Z</time>
      </trkpt>
      <trkpt lat="45.09871" lon="5.5173">
        <ele>1245</ele>
        <time>2012-04-20T01:21:54Z</time>
      </trkpt>
      <trkpt lat="45.09884" lon="5.51722">
        <ele>1246</ele>
        <time>2012-04-20T01:21:57Z</time>
      </trkpt>
      <trkpt lat="45.09886" lon="5.51717">
        <ele>1246</ele>
        <time>2012-04-20T01:21:58Z</time>
      </trkpt>
      <trkpt lat="45.09894" lon="5.51703">
        <ele>1248</ele>
        <time>2012-04-20T01:22:01Z</time>
      </trkpt>
      <trkpt lat="45.09907" lon="5.51672">
        <ele>1252</ele>
        <time>2012-04-20T01:22:07Z</time>
      </trkpt>
      <trkpt lat="45.09916" lon="5.51636">
        <ele>1266</ele>
        <time>2012-04-20T01:22:14Z</time>
      </trkpt>
      <trkpt lat="45.09924" lon="5.51615">
        <ele>1270</ele>
        <time>2012-04-20T01:22:18Z</time>
      </trkpt>
      <trkpt lat="45.09933" lon="5.516">
        <ele>1272</ele>
        <time>2012-04-20T01:22:21Z</time>
      </trkpt>
      <trkpt lat="45.09939" lon="5.51595">
        <ele>1272</ele>
        <time>2012-04-20T01:22:22Z</time>
      </trkpt>
      <trkpt lat="45.09946" lon="5.51593">
        <ele>1272</ele>
        <time>2012-04-20T01:22:23Z</time>
      </trkpt>
      <trkpt lat="45.09954" lon="5.51593">
        <ele>1272</ele>
        <time>2012-04-20T01:22:25Z</time>
      </trkpt>
      <trkpt lat="45.09963" lon="5.51595">
        <ele>1273</ele>
        <time>2012-04-20T01:22:27Z</time>
      </trkpt>
      <trkpt lat="45.0997" lon="5.516">
        <ele>1273</ele>
        <time>2012-04-20T01:22:28Z</time>
      </trkpt>
      <trkpt lat="45.09974" lon="5.51602">
        <ele>1273</ele>
        <time>2012-04-20T01:22:29Z</time>
      </trkpt>
      <trkpt lat="45.0998" lon="5.51608">
        <ele>1272</ele>
        <time>2012-04-20T01:22:31Z</time>
      </trkpt>
      <trkpt lat="45.09985" lon="5.51619">
        <ele>1271</ele>
        <time>2012-04-20T01:22:33Z</time>
      </trkpt>
      <trkpt lat="45.09987" lon="5.51627">
        <ele>1270</ele>
        <time>2012-04-20T01:22:34Z</time>
      </trkpt>
      <trkpt lat="45.09991" lon="5.51638">
        <ele>1268</ele>
        <time>2012-04-20T01:22:36Z</time>
      </trkpt>
      <trkpt lat="45.09993" lon="5.51647">
        <ele>1267</ele>
        <time>2012-04-20T01:22:37Z</time>
      </trkpt>
      <trkpt lat="45.1" lon="5.51657">
        <ele>1265</ele>
        <time>2012-04-20T01:22:39Z</time>
      </trkpt>
      <trkpt lat="45.10008" lon="5.51664">
        <ele>1267</ele>
        <time>2012-04-20T01:22:41Z</time>
      </trkpt>
      <trkpt lat="45.10021" lon="5.51666">
        <ele>1271</ele>
        <time>2012-04-20T01:22:44Z</time>
      </trkpt>
      <trkpt lat="45.10036" lon="5.51668">
        <ele>1262</ele>
        <time>2012-04-20T01:22:48Z</time>
      </trkpt>
      <trkpt lat="45.10068" lon="5.51664">
        <ele>1276</ele>
        <time>2012-04-20T01:22:56Z</time>
      </trkpt>
      <trkpt lat="45.10098" lon="5.5166">
        <ele>1277</ele>
        <time>2012-04-20T01:23:04Z</time>
      </trkpt>
      <trkpt lat="45.10124" lon="5.51649">
        <ele>1277</ele>
        <time>2012-04-20T01:23:11Z</time>
      </trkpt>
      <trkpt lat="45.10143" lon="5.51634">
        <ele>1278</ele>
        <time>2012-04-20T01:23:17Z</time>
      </trkpt>
      <trkpt lat="45.10154" lon="5.5161">
        <ele>1280</ele>
        <time>2012-04-20T01:23:22Z</time>
      </trkpt>
      <trkpt lat="45.10163" lon="5.5158">
        <ele>1286</ele>
        <time>2012-04-20T01:23:28Z</time>
      </trkpt>
      <trkpt lat="45.10169" lon="5.5155">
        <ele>1287</ele>
        <time>2012-04-20T01:23:34Z</time>
      </trkpt>
      <trkpt lat="45.10169" lon="5.51529">
        <ele>1289</ele>
        <time>2012-04-20T01:23:38Z</time>
      </trkpt>
      <trkpt lat="45.1016" lon="5.51494">
        <ele>1299</ele>
        <time>2012-04-20T01:23:45Z</time>
      </trkpt>
      <trkpt lat="45.1016" lon="5.51475">
        <ele>1304</ele>
        <time>2012-04-20T01:23:48Z</time>
      </trkpt>
      <trkpt lat="45.1016" lon="5.51454">
        <ele>1306</ele>
        <time>2012-04-20T01:23:52Z</time>
      </trkpt>
      <trkpt lat="45.10156" lon="5.51409">
        <ele>1311</ele>
        <time>2012-04-20T01:24:00Z</time>
      </trkpt>
      <trkpt lat="45.10156" lon="5.51366">
        <ele>1319</ele>
        <time>2012-04-20T01:24:08Z</time>
      </trkpt>
      <trkpt lat="45.1016" lon="5.51366">
        <ele>1319</ele>
        <time>2012-04-20T01:24:09Z</time>
      </trkpt>
      <trkpt lat="45.10169" lon="5.51364">
        <ele>1313</ele>
        <time>2012-04-20T01:24:11Z</time>
      </trkpt>
      <trkpt lat="45.1018" lon="5.5137">
        <ele>1312</ele>
        <time>2012-04-20T01:24:14Z</time>
      </trkpt>
      <trkpt lat="45.10193" lon="5.51383">
        <ele>1311</ele>
        <time>2012-04-20T01:24:18Z</time>
      </trkpt>
      <trkpt lat="45.10203" lon="5.51396">
        <ele>1310</ele>
        <time>2012-04-20T01:24:21Z</time>
      </trkpt>
      <trkpt lat="45.10214" lon="5.51402">
        <ele>1310</ele>
        <time>2012-04-20T01:24:24Z</time>
      </trkpt>
      <trkpt lat="45.10231" lon="5.51409">
        <ele>1309</ele>
        <time>2012-04-20T01:24:28Z</time>
      </trkpt>
      <trkpt lat="45.10248" lon="5.51409">
        <ele>1307</ele>
        <time>2012-04-20T01:24:32Z</time>
      </trkpt>
      <trkpt lat="45.10261" lon="5.51402">
        <ele>1312</ele>
        <time>2012-04-20T01:24:35Z</time>
      </trkpt>
      <trkpt lat="45.1027" lon="5.51402">
        <ele>1314</ele>
        <time>2012-04-20T01:24:37Z</time>
      </trkpt>
      <trkpt lat="45.10281" lon="5.514">
        <ele>1315</ele>
        <time>2012-04-20T01:24:40Z</time>
      </trkpt>
      <trkpt lat="45.10287" lon="5.51396">
        <ele>1316</ele>
        <time>2012-04-20T01:24:41Z</time>
      </trkpt>
      <trkpt lat="45.103" lon="5.51391">
        <ele>1317</ele>
        <time>2012-04-20T01:24:44Z</time>
      </trkpt>
      <trkpt lat="45.10309" lon="5.51394">
        <ele>1317</ele>
        <time>2012-04-20T01:24:46Z</time>
      </trkpt>
      <trkpt lat="45.10324" lon="5.51402">
        <ele>1316</ele>
        <time>2012-04-20T01:24:50Z</time>
      </trkpt>
      <trkpt lat="45.10343" lon="5.51417">
        <ele>1311</ele>
        <time>2012-04-20T01:24:56Z</time>
      </trkpt>
      <trkpt lat="45.10364" lon="5.51432">
        <ele>1310</ele>
        <time>2012-04-20T01:25:02Z</time>
      </trkpt>
      <trkpt lat="45.10384" lon="5.51443">
        <ele>1310</ele>
        <time>2012-04-20T01:25:07Z</time>
      </trkpt>
      <trkpt lat="45.10397" lon="5.51447">
        <ele>1311</ele>
        <time>2012-04-20T01:25:10Z</time>
      </trkpt>
      <trkpt lat="45.10409" lon="5.51449">
        <ele>1311</ele>
        <time>2012-04-20T01:25:13Z</time>
      </trkpt>
      <trkpt lat="45.10427" lon="5.51449">
        <ele>1315</ele>
        <time>2012-04-20T01:25:17Z</time>
      </trkpt>
      <trkpt lat="45.10446" lon="5.51451">
        <ele>1316</ele>
        <time>2012-04-20T01:25:22Z</time>
      </trkpt>
      <trkpt lat="45.10474" lon="5.5146">
        <ele>1317</ele>
        <time>2012-04-20T01:25:29Z</time>
      </trkpt>
      <trkpt lat="45.10491" lon="5.51471">
        <ele>1317</ele>
        <time>2012-04-20T01:25:34Z</time>
      </trkpt>
      <trkpt lat="45.10504" lon="5.51486">
        <ele>1321</ele>
        <time>2012-04-20T01:25:38Z</time>
      </trkpt>
      <trkpt lat="45.10508" lon="5.51501">
        <ele>1318</ele>
        <time>2012-04-20T01:25:41Z</time>
      </trkpt>
      <trkpt lat="45.10508" lon="5.5152">
        <ele>1319</ele>
        <time>2012-04-20T01:25:44Z</time>
      </trkpt>
      <trkpt lat="45.10525" lon="5.51507">
        <ele>1320</ele>
        <time>2012-04-20T01:25:49Z</time>
      </trkpt>
      <trkpt lat="45.10534" lon="5.51505">
        <ele>1321</ele>
        <time>2012-04-20T01:25:51Z</time>
      </trkpt>
      <trkpt lat="45.10549" lon="5.51514">
        <ele>1322</ele>
        <time>2012-04-20T01:25:55Z</time>
      </trkpt>
      <trkpt lat="45.10568" lon="5.51529">
        <ele>1323</ele>
        <time>2012-04-20T01:26:01Z</time>
      </trkpt>
      <trkpt lat="45.10585" lon="5.51535">
        <ele>1328</ele>
        <time>2012-04-20T01:26:05Z</time>
      </trkpt>
      <trkpt lat="45.10603" lon="5.51539">
        <ele>1328</ele>
        <time>2012-04-20T01:26:09Z</time>
      </trkpt>
      <trkpt lat="45.10615" lon="5.51539">
        <ele>1328</ele>
        <time>2012-04-20T01:26:12Z</time>
      </trkpt>
      <trkpt lat="45.10622" lon="5.51537">
        <ele>1329</ele>
        <time>2012-04-20T01:26:13Z</time>
      </trkpt>
      <trkpt lat="45.10637" lon="5.51524">
        <ele>1330</ele>
        <time>2012-04-20T01:26:17Z</time>
      </trkpt>
      <trkpt lat="45.10645" lon="5.51512">
        <ele>1332</ele>
        <time>2012-04-20T01:26:20Z</time>
      </trkpt>
      <trkpt lat="45.1065" lon="5.51492">
        <ele>1337</ele>
        <time>2012-04-20T01:26:23Z</time>
      </trkpt>
      <trkpt lat="45.10667" lon="5.51451">
        <ele>1345</ele>
        <time>2012-04-20T01:26:32Z</time>
      </trkpt>
      <trkpt lat="45.10675" lon="5.51439">
        <ele>1346</ele>
        <time>2012-04-20T01:26:35Z</time>
      </trkpt>
      <trkpt lat="45.10682" lon="5.51417">
        <ele>1347</ele>
        <time>2012-04-20T01:26:39Z</time>
      </trkpt>
      <trkpt lat="45.10682" lon="5.51402">
        <ele>1353</ele>
        <time>2012-04-20T01:26:41Z</time>
      </trkpt>
      <trkpt lat="45.10682" lon="5.51387">
        <ele>1355</ele>
        <time>2012-04-20T01:26:43Z</time>
      </trkpt>
      <trkpt lat="45.10701" lon="5.51387">
        <ele>1357</ele>
        <time>2012-04-20T01:26:48Z</time>
      </trkpt>
      <trkpt lat="45.10723" lon="5.51389">
        <ele>1358</ele>
        <time>2012-04-20T01:26:53Z</time>
      </trkpt>
      <trkpt lat="45.10738" lon="5.51387">
        <ele>1359</ele>
        <time>2012-04-20T01:26:57Z</time>
      </trkpt>
      <trkpt lat="45.10753" lon="5.51383">
        <ele>1367</ele>
        <time>2012-04-20T01:27:01Z</time>
      </trkpt>
      <trkpt lat="45.10774" lon="5.51372">
        <ele>1368</ele>
        <time>2012-04-20T01:27:07Z</time>
      </trkpt>
      <trkpt lat="45.108" lon="5.51357">
        <ele>1371</ele>
        <time>2012-04-20T01:27:14Z</time>
      </trkpt>
      <trkpt lat="45.10826" lon="5.5134">
        <ele>1376</ele>
        <time>2012-04-20T01:27:21Z</time>
      </trkpt>
      <trkpt lat="45.10856" lon="5.51318">
        <ele>1382</ele>
        <time>2012-04-20T01:27:30Z</time>
      </trkpt>
      <trkpt lat="45.10869" lon="5.51306">
        <ele>1383</ele>
        <time>2012-04-20T01:27:34Z</time>
      </trkpt>
      <trkpt lat="45.10879" lon="5.51293">
        <ele>1383</ele>
        <time>2012-04-20T01:27:37Z</time>
      </trkpt>
      <trkpt lat="45.10907" lon="5.51286">
        <ele>1384</ele>
        <time>2012-04-20T01:27:44Z</time>
      </trkpt>
      <trkpt lat="45.10918" lon="5.51282">
        <ele>1384</ele>
        <time>2012-04-20T01:27:47Z</time>
      </trkpt>
      <trkpt lat="45.10927" lon="5.5128">
        <ele>1384</ele>
        <time>2012-04-20T01:27:49Z</time>
      </trkpt>
      <trkpt lat="45.10937" lon="5.51284">
        <ele>1384</ele>
        <time>2012-04-20T01:27:52Z</time>
      </trkpt>
      <trkpt lat="45.10948" lon="5.51293">
        <ele>1383</ele>
        <time>2012-04-20T01:27:55Z</time>
      </trkpt>
      <trkpt lat="45.10959" lon="5.51297">
        <ele>1383</ele>
        <time>2012-04-20T01:27:58Z</time>
      </trkpt>
      <trkpt lat="45.10967" lon="5.51297">
        <ele>1383</ele>
        <time>2012-04-20T01:28:00Z</time>
      </trkpt>
      <trkpt lat="45.10978" lon="5.51293">
        <ele>1384</ele>
        <time>2012-04-20T01:28:03Z</time>
      </trkpt>
      <trkpt lat="45.10991" lon="5.51293">
        <ele>1384</ele>
        <time>2012-04-20T01:28:06Z</time>
      </trkpt>
      <trkpt lat="45.11004" lon="5.51293">
        <ele>1383</ele>
        <time>2012-04-20T01:28:09Z</time>
      </trkpt>
      <trkpt lat="45.11023" lon="5.51306">
        <ele>1382</ele>
        <time>2012-04-20T01:28:14Z</time>
      </trkpt>
      <trkpt lat="45.11037" lon="5.51314">
        <ele>1382</ele>
        <time>2012-04-20T01:28:18Z</time>
      </trkpt>
      <trkpt lat="45.1104" lon="5.51316">
        <ele>1382</ele>
        <time>2012-04-20T01:28:18Z</time>
      </trkpt>
      <trkpt lat="45.11053" lon="5.51321">
        <ele>1381</ele>
        <time>2012-04-20T01:28:21Z</time>
      </trkpt>
      <trkpt lat="45.11062" lon="5.51325">
        <ele>1380</ele>
        <time>2012-04-20T01:28:23Z</time>
      </trkpt>
      <trkpt lat="45.11075" lon="5.51325">
        <ele>1379</ele>
        <time>2012-04-20T01:28:26Z</time>
      </trkpt>
      <trkpt lat="45.11085" lon="5.51318">
        <ele>1377</ele>
        <time>2012-04-20T01:28:29Z</time>
      </trkpt>
      <trkpt lat="45.11107" lon="5.51301">
        <ele>1377</ele>
        <time>2012-04-20T01:28:35Z</time>
      </trkpt>
      <trkpt lat="45.11124" lon="5.51284">
        <ele>1377</ele>
        <time>2012-04-20T01:28:40Z</time>
      </trkpt>
      <trkpt lat="45.11137" lon="5.51265">
        <ele>1376</ele>
        <time>2012-04-20T01:28:45Z</time>
      </trkpt>
      <trkpt lat="45.11141" lon="5.51258">
        <ele>1376</ele>
        <time>2012-04-20T01:28:46Z</time>
      </trkpt>
      <trkpt lat="45.11133" lon="5.5125">
        <ele>1379</ele>
        <time>2012-04-20T01:28:48Z</time>
      </trkpt>
      <trkpt lat="45.11124" lon="5.51239">
        <ele>1380</ele>
        <time>2012-04-20T01:28:51Z</time>
      </trkpt>
      <trkpt lat="45.11115" lon="5.51226">
        <ele>1380</ele>
        <time>2012-04-20T01:28:54Z</time>
      </trkpt>
      <trkpt lat="45.11102" lon="5.51205">
        <ele>1382</ele>
        <time>2012-04-20T01:28:59Z</time>
      </trkpt>
      <trkpt lat="45.11098" lon="5.51196">
        <ele>1382</ele>
        <time>2012-04-20T01:29:01Z</time>
      </trkpt>
      <trkpt lat="45.11083" lon="5.51162">
        <ele>1389</ele>
        <time>2012-04-20T01:29:08Z</time>
      </trkpt>
      <trkpt lat="45.11082" lon="5.51158">
        <ele>1389</ele>
        <time>2012-04-20T01:29:08Z</time>
      </trkpt>
      <trkpt lat="45.11072" lon="5.51138">
        <ele>1391</ele>
        <time>2012-04-20T01:29:12Z</time>
      </trkpt>
      <trkpt lat="45.1106" lon="5.51121">
        <ele>1392</ele>
        <time>2012-04-20T01:29:16Z</time>
      </trkpt>
      <trkpt lat="45.11047" lon="5.51108">
        <ele>1393</ele>
        <time>2012-04-20T01:29:20Z</time>
      </trkpt>
      <trkpt lat="45.11038" lon="5.51097">
        <ele>1393</ele>
        <time>2012-04-20T01:29:23Z</time>
      </trkpt>
      <trkpt lat="45.11034" lon="5.51106">
        <ele>1393</ele>
        <time>2012-04-20T01:29:25Z</time>
      </trkpt>
      <trkpt lat="45.11023" lon="5.51076">
        <ele>1396</ele>
        <time>2012-04-20T01:29:31Z</time>
      </trkpt>
      <trkpt lat="45.11014" lon="5.51059">
        <ele>1396</ele>
        <time>2012-04-20T01:29:35Z</time>
      </trkpt>
      <trkpt lat="45.10995" lon="5.51037">
        <ele>1398</ele>
        <time>2012-04-20T01:29:41Z</time>
      </trkpt>
      <trkpt lat="45.10957" lon="5.51009">
        <ele>1397</ele>
        <time>2012-04-20T01:29:53Z</time>
      </trkpt>
      <trkpt lat="45.10912" lon="5.50982">
        <ele>1395</ele>
        <time>2012-04-20T01:30:06Z</time>
      </trkpt>
      <trkpt lat="45.10866" lon="5.50952">
        <ele>1393</ele>
        <time>2012-04-20T01:30:19Z</time>
      </trkpt>
      <trkpt lat="45.10841" lon="5.50932">
        <ele>1391</ele>
        <time>2012-04-20T01:30:27Z</time>
      </trkpt>
      <trkpt lat="45.10834" lon="5.5093">
        <ele>1391</ele>
        <time>2012-04-20T01:30:28Z</time>
      </trkpt>
      <trkpt lat="45.10817" lon="5.50911">
        <ele>1388</ele>
        <time>2012-04-20T01:30:34Z</time>
      </trkpt>
      <trkpt lat="45.10811" lon="5.50894">
        <ele>1387</ele>
        <time>2012-04-20T01:30:37Z</time>
      </trkpt>
      <trkpt lat="45.10806" lon="5.50881">
        <ele>1387</ele>
        <time>2012-04-20T01:30:39Z</time>
      </trkpt>
      <trkpt lat="45.10804" lon="5.50866">
        <ele>1387</ele>
        <time>2012-04-20T01:30:42Z</time>
      </trkpt>
      <trkpt lat="45.10806" lon="5.50842">
        <ele>1387</ele>
        <time>2012-04-20T01:30:46Z</time>
      </trkpt>
      <trkpt lat="45.10811" lon="5.50823">
        <ele>1387</ele>
        <time>2012-04-20T01:30:49Z</time>
      </trkpt>
      <trkpt lat="45.10806" lon="5.50823">
        <ele>1387</ele>
        <time>2012-04-20T01:30:50Z</time>
      </trkpt>
      <trkpt lat="45.10804" lon="5.50818">
        <ele>1387</ele>
        <time>2012-04-20T01:30:51Z</time>
      </trkpt>
      <trkpt lat="45.108" lon="5.50814">
        <ele>1387</ele>
        <time>2012-04-20T01:30:52Z</time>
      </trkpt>
      <trkpt lat="45.10791" lon="5.50797">
        <ele>1388</ele>
        <time>2012-04-20T01:30:56Z</time>
      </trkpt>
      <trkpt lat="45.10789" lon="5.50778">
        <ele>1388</ele>
        <time>2012-04-20T01:30:59Z</time>
      </trkpt>
      <trkpt lat="45.10791" lon="5.5072">
        <ele>1385</ele>
        <time>2012-04-20T01:31:10Z</time>
      </trkpt>
      <trkpt lat="45.10783" lon="5.5069">
        <ele>1384</ele>
        <time>2012-04-20T01:31:16Z</time>
      </trkpt>
      <trkpt lat="45.10766" lon="5.50658">
        <ele>1381</ele>
        <time>2012-04-20T01:31:23Z</time>
      </trkpt>
      <trkpt lat="45.10736" lon="5.50612">
        <ele>1392</ele>
        <time>2012-04-20T01:31:35Z</time>
      </trkpt>
      <trkpt lat="45.10706" lon="5.50561">
        <ele>1388</ele>
        <time>2012-04-20T01:31:48Z</time>
      </trkpt>
      <trkpt lat="45.10673" lon="5.50518">
        <ele>1390</ele>
        <time>2012-04-20T01:32:00Z</time>
      </trkpt>
      <trkpt lat="45.10656" lon="5.50484">
        <ele>1396</ele>
        <time>2012-04-20T01:32:08Z</time>
      </trkpt>
      <trkpt lat="45.10655" lon="5.5048">
        <ele>1397</ele>
        <time>2012-04-20T01:32:08Z</time>
      </trkpt>
      <trkpt lat="45.10645" lon="5.50456">
        <ele>1397</ele>
        <time>2012-04-20T01:32:13Z</time>
      </trkpt>
      <trkpt lat="45.10635" lon="5.50422">
        <ele>1395</ele>
        <time>2012-04-20T01:32:20Z</time>
      </trkpt>
      <trkpt lat="45.10628" lon="5.504">
        <ele>1383</ele>
        <time>2012-04-20T01:32:24Z</time>
      </trkpt>
      <trkpt lat="45.10615" lon="5.50383">
        <ele>1383</ele>
        <time>2012-04-20T01:32:28Z</time>
      </trkpt>
      <trkpt lat="45.106" lon="5.50368">
        <ele>1383</ele>
        <time>2012-04-20T01:32:33Z</time>
      </trkpt>
      <trkpt lat="45.10579" lon="5.50349">
        <ele>1393</ele>
        <time>2012-04-20T01:32:40Z</time>
      </trkpt>
      <trkpt lat="45.10527" lon="5.50297">
        <ele>1387</ele>
        <time>2012-04-20T01:32:57Z</time>
      </trkpt>
      <trkpt lat="45.10476" lon="5.50248">
        <ele>1389</ele>
        <time>2012-04-20T01:33:14Z</time>
      </trkpt>
      <trkpt lat="45.10431" lon="5.50201">
        <ele>1391</ele>
        <time>2012-04-20T01:33:29Z</time>
      </trkpt>
      <trkpt lat="45.10397" lon="5.5016">
        <ele>1393</ele>
        <time>2012-04-20T01:33:41Z</time>
      </trkpt>
      <trkpt lat="45.10364" lon="5.5013">
        <ele>1396</ele>
        <time>2012-04-20T01:33:51Z</time>
      </trkpt>
      <trkpt lat="45.10334" lon="5.50106">
        <ele>1395</ele>
        <time>2012-04-20T01:34:00Z</time>
      </trkpt>
      <trkpt lat="45.103" lon="5.50076">
        <ele>1397</ele>
        <time>2012-04-20T01:34:11Z</time>
      </trkpt>
      <trkpt lat="45.10276" lon="5.50048">
        <ele>1399</ele>
        <time>2012-04-20T01:34:19Z</time>
      </trkpt>
      <trkpt lat="45.10272" lon="5.50043">
        <ele>1398</ele>
        <time>2012-04-20T01:34:20Z</time>
      </trkpt>
      <trkpt lat="45.10233" lon="5.50001">
        <ele>1408</ele>
        <time>2012-04-20T01:34:33Z</time>
      </trkpt>
      <trkpt lat="45.10229" lon="5.49995">
        <ele>1396</ele>
        <time>2012-04-20T01:34:34Z</time>
      </trkpt>
      <trkpt lat="45.10201" lon="5.49964">
        <ele>1397</ele>
        <time>2012-04-20T01:34:43Z</time>
      </trkpt>
      <trkpt lat="45.10176" lon="5.49937">
        <ele>1395</ele>
        <time>2012-04-20T01:34:52Z</time>
      </trkpt>
      <trkpt lat="45.1015" lon="5.49911">
        <ele>1396</ele>
        <time>2012-04-20T01:35:00Z</time>
      </trkpt>
      <trkpt lat="45.10113" lon="5.49876">
        <ele>1399</ele>
        <time>2012-04-20T01:35:12Z</time>
      </trkpt>
      <trkpt lat="45.10088" lon="5.49849">
        <ele>1398</ele>
        <time>2012-04-20T01:35:21Z</time>
      </trkpt>
      <trkpt lat="45.10057" lon="5.49825">
        <ele>1405</ele>
        <time>2012-04-20T01:35:30Z</time>
      </trkpt>
      <trkpt lat="45.10042" lon="5.49816">
        <ele>1408</ele>
        <time>2012-04-20T01:35:34Z</time>
      </trkpt>
      <trkpt lat="45.10019" lon="5.49804">
        <ele>1411</ele>
        <time>2012-04-20T01:35:41Z</time>
      </trkpt>
      <trkpt lat="45.10006" lon="5.49793">
        <ele>1411</ele>
        <time>2012-04-20T01:35:45Z</time>
      </trkpt>
      <trkpt lat="45.10002" lon="5.49786">
        <ele>1411</ele>
        <time>2012-04-20T01:35:46Z</time>
      </trkpt>
      <trkpt lat="45.1" lon="5.49776">
        <ele>1417</ele>
        <time>2012-04-20T01:35:48Z</time>
      </trkpt>
      <trkpt lat="45.10002" lon="5.49767">
        <ele>1410</ele>
        <time>2012-04-20T01:35:49Z</time>
      </trkpt>
      <trkpt lat="45.10167" lon="5.49861">
        <ele>1383</ele>
        <time>2012-04-20T01:36:38Z</time>
      </trkpt>
      <trkpt lat="45.1036" lon="5.49984">
        <ele>1372</ele>
        <time>2012-04-20T01:37:36Z</time>
      </trkpt>
      <trkpt lat="45.10384" lon="5.50001">
        <ele>1370</ele>
        <time>2012-04-20T01:37:43Z</time>
      </trkpt>
      <trkpt lat="45.10568" lon="5.50134">
        <ele>1341</ele>
        <time>2012-04-20T01:38:40Z</time>
      </trkpt>
      <trkpt lat="45.1068" lon="5.50211">
        <ele>1317</ele>
        <time>2012-04-20T01:39:14Z</time>
      </trkpt>
      <trkpt lat="45.10693" lon="5.50216">
        <ele>1316</ele>
        <time>2012-04-20T01:39:17Z</time>
      </trkpt>
      <trkpt lat="45.10729" lon="5.50231">
        <ele>1311</ele>
        <time>2012-04-20T01:39:27Z</time>
      </trkpt>
      <trkpt lat="45.10783" lon="5.5025">
        <ele>1299</ele>
        <time>2012-04-20T01:39:42Z</time>
      </trkpt>
      <trkpt lat="45.10841" lon="5.50248">
        <ele>1289</ele>
        <time>2012-04-20T01:39:58Z</time>
      </trkpt>
      <trkpt lat="45.1086" lon="5.50273">
        <ele>1287</ele>
        <time>2012-04-20T01:40:05Z</time>
      </trkpt>
      <trkpt lat="45.1089" lon="5.50303">
        <ele>1285</ele>
        <time>2012-04-20T01:40:15Z</time>
      </trkpt>
      <trkpt lat="45.10948" lon="5.50342">
        <ele>1275</ele>
        <time>2012-04-20T01:40:32Z</time>
      </trkpt>
      <trkpt lat="45.11004" lon="5.50398">
        <ele>1264</ele>
        <time>2012-04-20T01:40:50Z</time>
      </trkpt>
      <trkpt lat="45.10991" lon="5.5037">
        <ele>1273</ele>
        <time>2012-04-20T01:40:56Z</time>
      </trkpt>
      <trkpt lat="45.10989" lon="5.50359">
        <ele>1273</ele>
        <time>2012-04-20T01:40:58Z</time>
      </trkpt>
      <trkpt lat="45.10993" lon="5.50357">
        <ele>1272</ele>
        <time>2012-04-20T01:40:59Z</time>
      </trkpt>
      <trkpt lat="45.11002" lon="5.50366">
        <ele>1267</ele>
        <time>2012-04-20T01:41:01Z</time>
      </trkpt>
      <trkpt lat="45.11014" lon="5.50381">
        <ele>1266</ele>
        <time>2012-04-20T01:41:05Z</time>
      </trkpt>
      <trkpt lat="45.11027" lon="5.50389">
        <ele>1266</ele>
        <time>2012-04-20T01:41:08Z</time>
      </trkpt>
      <trkpt lat="45.11045" lon="5.50396">
        <ele>1265</ele>
        <time>2012-04-20T01:41:12Z</time>
      </trkpt>
      <trkpt lat="45.11055" lon="5.50398">
        <ele>1265</ele>
        <time>2012-04-20T01:41:15Z</time>
      </trkpt>
      <trkpt lat="45.11072" lon="5.504">
        <ele>1263</ele>
        <time>2012-04-20T01:41:19Z</time>
      </trkpt>
      <trkpt lat="45.11081" lon="5.50404">
        <ele>1261</ele>
        <time>2012-04-20T01:41:21Z</time>
      </trkpt>
      <trkpt lat="45.11085" lon="5.50408">
        <ele>1263</ele>
        <time>2012-04-20T01:41:22Z</time>
      </trkpt>
      <trkpt lat="45.1109" lon="5.50413">
        <ele>1262</ele>
        <time>2012-04-20T01:41:23Z</time>
      </trkpt>
      <trkpt lat="45.11107" lon="5.50437">
        <ele>1258</ele>
        <time>2012-04-20T01:41:29Z</time>
      </trkpt>
      <trkpt lat="45.11122" lon="5.50452">
        <ele>1258</ele>
        <time>2012-04-20T01:41:34Z</time>
      </trkpt>
      <trkpt lat="45.11128" lon="5.50456">
        <ele>1258</ele>
        <time>2012-04-20T01:41:35Z</time>
      </trkpt>
      <trkpt lat="45.11139" lon="5.5046">
        <ele>1258</ele>
        <time>2012-04-20T01:41:38Z</time>
      </trkpt>
      <trkpt lat="45.11152" lon="5.50469">
        <ele>1257</ele>
        <time>2012-04-20T01:41:41Z</time>
      </trkpt>
      <trkpt lat="45.11163" lon="5.50475">
        <ele>1255</ele>
        <time>2012-04-20T01:41:44Z</time>
      </trkpt>
      <trkpt lat="45.11175" lon="5.50479">
        <ele>1259</ele>
        <time>2012-04-20T01:41:47Z</time>
      </trkpt>
      <trkpt lat="45.11193" lon="5.50479">
        <ele>1262</ele>
        <time>2012-04-20T01:41:51Z</time>
      </trkpt>
      <trkpt lat="45.1121" lon="5.50482">
        <ele>1264</ele>
        <time>2012-04-20T01:41:55Z</time>
      </trkpt>
      <trkpt lat="45.11238" lon="5.50484">
        <ele>1263</ele>
        <time>2012-04-20T01:42:02Z</time>
      </trkpt>
      <trkpt lat="45.11251" lon="5.50484">
        <ele>1265</ele>
        <time>2012-04-20T01:42:05Z</time>
      </trkpt>
      <trkpt lat="45.11263" lon="5.50486">
        <ele>1266</ele>
        <time>2012-04-20T01:42:08Z</time>
      </trkpt>
      <trkpt lat="45.11272" lon="5.50492">
        <ele>1266</ele>
        <time>2012-04-20T01:42:10Z</time>
      </trkpt>
      <trkpt lat="45.11291" lon="5.50509">
        <ele>1251</ele>
        <time>2012-04-20T01:42:16Z</time>
      </trkpt>
      <trkpt lat="45.11313" lon="5.5052">
        <ele>1252</ele>
        <time>2012-04-20T01:42:22Z</time>
      </trkpt>
      <trkpt lat="45.1133" lon="5.50529">
        <ele>1251</ele>
        <time>2012-04-20T01:42:27Z</time>
      </trkpt>
      <trkpt lat="45.11345" lon="5.50533">
        <ele>1253</ele>
        <time>2012-04-20T01:42:31Z</time>
      </trkpt>
      <trkpt lat="45.11358" lon="5.50533">
        <ele>1253</ele>
        <time>2012-04-20T01:42:34Z</time>
      </trkpt>
      <trkpt lat="45.11371" lon="5.50531">
        <ele>1253</ele>
        <time>2012-04-20T01:42:37Z</time>
      </trkpt>
      <trkpt lat="45.11379" lon="5.50522">
        <ele>1254</ele>
        <time>2012-04-20T01:42:39Z</time>
      </trkpt>
      <trkpt lat="45.11384" lon="5.50512">
        <ele>1255</ele>
        <time>2012-04-20T01:42:41Z</time>
      </trkpt>
      <trkpt lat="45.11386" lon="5.50488">
        <ele>1270</ele>
        <time>2012-04-20T01:42:45Z</time>
      </trkpt>
      <trkpt lat="45.1139" lon="5.50475">
        <ele>1271</ele>
        <time>2012-04-20T01:42:47Z</time>
      </trkpt>
      <trkpt lat="45.11399" lon="5.50471">
        <ele>1271</ele>
        <time>2012-04-20T01:42:49Z</time>
      </trkpt>
      <trkpt lat="45.11403" lon="5.50469">
        <ele>1271</ele>
        <time>2012-04-20T01:42:50Z</time>
      </trkpt>
      <trkpt lat="45.11409" lon="5.50469">
        <ele>1271</ele>
        <time>2012-04-20T01:42:51Z</time>
      </trkpt>
      <trkpt lat="45.11416" lon="5.50473">
        <ele>1270</ele>
        <time>2012-04-20T01:42:52Z</time>
      </trkpt>
      <trkpt lat="45.1142" lon="5.50479">
        <ele>1270</ele>
        <time>2012-04-20T01:42:53Z</time>
      </trkpt>
      <trkpt lat="45.11426" lon="5.50494">
        <ele>1267</ele>
        <time>2012-04-20T01:42:56Z</time>
      </trkpt>
      <trkpt lat="45.11437" lon="5.5052">
        <ele>1258</ele>
        <time>2012-04-20T01:43:01Z</time>
      </trkpt>
      <trkpt lat="45.11444" lon="5.50535">
        <ele>1256</ele>
        <time>2012-04-20T01:43:04Z</time>
      </trkpt>
      <trkpt lat="45.11457" lon="5.50552">
        <ele>1255</ele>
        <time>2012-04-20T01:43:08Z</time>
      </trkpt>
      <trkpt lat="45.11465" lon="5.50559">
        <ele>1254</ele>
        <time>2012-04-20T01:43:10Z</time>
      </trkpt>
      <trkpt lat="45.11474" lon="5.50565">
        <ele>1254</ele>
        <time>2012-04-20T01:43:12Z</time>
      </trkpt>
      <trkpt lat="45.11484" lon="5.50565">
        <ele>1254</ele>
        <time>2012-04-20T01:43:14Z</time>
      </trkpt>
      <trkpt lat="45.11497" lon="5.50565">
        <ele>1254</ele>
        <time>2012-04-20T01:43:17Z</time>
      </trkpt>
      <trkpt lat="45.1151" lon="5.50559">
        <ele>1257</ele>
        <time>2012-04-20T01:43:20Z</time>
      </trkpt>
      <trkpt lat="45.11523" lon="5.50546">
        <ele>1260</ele>
        <time>2012-04-20T01:43:24Z</time>
      </trkpt>
      <trkpt lat="45.11547" lon="5.50507">
        <ele>1263</ele>
        <time>2012-04-20T01:43:34Z</time>
      </trkpt>
      <trkpt lat="45.1156" lon="5.50488">
        <ele>1274</ele>
        <time>2012-04-20T01:43:39Z</time>
      </trkpt>
      <trkpt lat="45.11564" lon="5.50484">
        <ele>1274</ele>
        <time>2012-04-20T01:43:40Z</time>
      </trkpt>
      <trkpt lat="45.1157" lon="5.50484">
        <ele>1274</ele>
        <time>2012-04-20T01:43:41Z</time>
      </trkpt>
      <trkpt lat="45.11575" lon="5.50488">
        <ele>1273</ele>
        <time>2012-04-20T01:43:42Z</time>
      </trkpt>
      <trkpt lat="45.11577" lon="5.50497">
        <ele>1271</ele>
        <time>2012-04-20T01:43:43Z</time>
      </trkpt>
      <trkpt lat="45.11579" lon="5.50509">
        <ele>1266</ele>
        <time>2012-04-20T01:43:45Z</time>
      </trkpt>
      <trkpt lat="45.11587" lon="5.50548">
        <ele>1268</ele>
        <time>2012-04-20T01:43:52Z</time>
      </trkpt>
      <trkpt lat="45.11605" lon="5.50602">
        <ele>1256</ele>
        <time>2012-04-20T01:44:03Z</time>
      </trkpt>
      <trkpt lat="45.11608" lon="5.50601">
        <ele>1240</ele>
        <time>2012-04-20T01:44:03Z</time>
      </trkpt>
      <trkpt lat="45.11605" lon="5.50603">
        <ele>1256</ele>
        <time>2012-04-20T01:44:03Z</time>
      </trkpt>
      <trkpt lat="45.11615" lon="5.50634">
        <ele>1254</ele>
        <time>2012-04-20T01:44:09Z</time>
      </trkpt>
      <trkpt lat="45.11626" lon="5.50651">
        <ele>1253</ele>
        <time>2012-04-20T01:44:13Z</time>
      </trkpt>
      <trkpt lat="45.11635" lon="5.50662">
        <ele>1254</ele>
        <time>2012-04-20T01:44:16Z</time>
      </trkpt>
      <trkpt lat="45.11643" lon="5.50668">
        <ele>1242</ele>
        <time>2012-04-20T01:44:18Z</time>
      </trkpt>
      <trkpt lat="45.11647" lon="5.5067">
        <ele>1244</ele>
        <time>2012-04-20T01:44:19Z</time>
      </trkpt>
      <trkpt lat="45.11671" lon="5.50685">
        <ele>1252</ele>
        <time>2012-04-20T01:44:26Z</time>
      </trkpt>
      <trkpt lat="45.1169" lon="5.50692">
        <ele>1252</ele>
        <time>2012-04-20T01:44:31Z</time>
      </trkpt>
      <trkpt lat="45.1171" lon="5.50698">
        <ele>1252</ele>
        <time>2012-04-20T01:44:36Z</time>
      </trkpt>
      <trkpt lat="45.11723" lon="5.50698">
        <ele>1254</ele>
        <time>2012-04-20T01:44:39Z</time>
      </trkpt>
      <trkpt lat="45.11733" lon="5.50698">
        <ele>1255</ele>
        <time>2012-04-20T01:44:41Z</time>
      </trkpt>
      <trkpt lat="45.1174" lon="5.50698">
        <ele>1255</ele>
        <time>2012-04-20T01:44:42Z</time>
      </trkpt>
      <trkpt lat="45.1175" lon="5.50698">
        <ele>1264</ele>
        <time>2012-04-20T01:44:44Z</time>
      </trkpt>
      <trkpt lat="45.11759" lon="5.507">
        <ele>1264</ele>
        <time>2012-04-20T01:44:46Z</time>
      </trkpt>
      <trkpt lat="45.11766" lon="5.50709">
        <ele>1263</ele>
        <time>2012-04-20T01:44:48Z</time>
      </trkpt>
      <trkpt lat="45.11776" lon="5.50737">
        <ele>1259</ele>
        <time>2012-04-20T01:44:54Z</time>
      </trkpt>
      <trkpt lat="45.11787" lon="5.50752">
        <ele>1247</ele>
        <time>2012-04-20T01:44:58Z</time>
      </trkpt>
      <trkpt lat="45.118" lon="5.50758">
        <ele>1249</ele>
        <time>2012-04-20T01:45:01Z</time>
      </trkpt>
      <trkpt lat="45.11828" lon="5.50767">
        <ele>1253</ele>
        <time>2012-04-20T01:45:08Z</time>
      </trkpt>
      <trkpt lat="45.11853" lon="5.50776">
        <ele>1256</ele>
        <time>2012-04-20T01:45:15Z</time>
      </trkpt>
      <trkpt lat="45.11875" lon="5.50776">
        <ele>1257</ele>
        <time>2012-04-20T01:45:20Z</time>
      </trkpt>
      <trkpt lat="45.11894" lon="5.50778">
        <ele>1257</ele>
        <time>2012-04-20T01:45:25Z</time>
      </trkpt>
      <trkpt lat="45.11916" lon="5.5078">
        <ele>1258</ele>
        <time>2012-04-20T01:45:30Z</time>
      </trkpt>
      <trkpt lat="45.11924" lon="5.50778">
        <ele>1259</ele>
        <time>2012-04-20T01:45:32Z</time>
      </trkpt>
      <trkpt lat="45.11931" lon="5.50771">
        <ele>1260</ele>
        <time>2012-04-20T01:45:34Z</time>
      </trkpt>
      <trkpt lat="45.11937" lon="5.50761">
        <ele>1261</ele>
        <time>2012-04-20T01:45:36Z</time>
      </trkpt>
      <trkpt lat="45.11944" lon="5.50737">
        <ele>1272</ele>
        <time>2012-04-20T01:45:40Z</time>
      </trkpt>
      <trkpt lat="45.1195" lon="5.5072">
        <ele>1273</ele>
        <time>2012-04-20T01:45:43Z</time>
      </trkpt>
      <trkpt lat="45.11959" lon="5.50713">
        <ele>1274</ele>
        <time>2012-04-20T01:45:45Z</time>
      </trkpt>
      <trkpt lat="45.11965" lon="5.50711">
        <ele>1274</ele>
        <time>2012-04-20T01:45:46Z</time>
      </trkpt>
      <trkpt lat="45.11978" lon="5.50722">
        <ele>1273</ele>
        <time>2012-04-20T01:45:50Z</time>
      </trkpt>
      <trkpt lat="45.11995" lon="5.50741">
        <ele>1269</ele>
        <time>2012-04-20T01:45:56Z</time>
      </trkpt>
      <trkpt lat="45.12006" lon="5.50756">
        <ele>1264</ele>
        <time>2012-04-20T01:46:00Z</time>
      </trkpt>
      <trkpt lat="45.12017" lon="5.50765">
        <ele>1262</ele>
        <time>2012-04-20T01:46:03Z</time>
      </trkpt>
      <trkpt lat="45.12027" lon="5.50769">
        <ele>1261</ele>
        <time>2012-04-20T01:46:06Z</time>
      </trkpt>
      <trkpt lat="45.12036" lon="5.50769">
        <ele>1261</ele>
        <time>2012-04-20T01:46:08Z</time>
      </trkpt>
      <trkpt lat="45.12051" lon="5.50767">
        <ele>1262</ele>
        <time>2012-04-20T01:46:12Z</time>
      </trkpt>
      <trkpt lat="45.12062" lon="5.50763">
        <ele>1264</ele>
        <time>2012-04-20T01:46:15Z</time>
      </trkpt>
      <trkpt lat="45.1207" lon="5.50761">
        <ele>1265</ele>
        <time>2012-04-20T01:46:17Z</time>
      </trkpt>
      <trkpt lat="45.12077" lon="5.50761">
        <ele>1266</ele>
        <time>2012-04-20T01:46:18Z</time>
      </trkpt>
      <trkpt lat="45.12085" lon="5.50765">
        <ele>1268</ele>
        <time>2012-04-20T01:46:20Z</time>
      </trkpt>
      <trkpt lat="45.12094" lon="5.50771">
        <ele>1266</ele>
        <time>2012-04-20T01:46:22Z</time>
      </trkpt>
      <trkpt lat="45.12107" lon="5.5078">
        <ele>1265</ele>
        <time>2012-04-20T01:46:25Z</time>
      </trkpt>
      <trkpt lat="45.12122" lon="5.50782">
        <ele>1265</ele>
        <time>2012-04-20T01:46:29Z</time>
      </trkpt>
      <trkpt lat="45.12139" lon="5.50782">
        <ele>1265</ele>
        <time>2012-04-20T01:46:33Z</time>
      </trkpt>
      <trkpt lat="45.1216" lon="5.50773">
        <ele>1267</ele>
        <time>2012-04-20T01:46:39Z</time>
      </trkpt>
      <trkpt lat="45.12178" lon="5.50763">
        <ele>1267</ele>
        <time>2012-04-20T01:46:44Z</time>
      </trkpt>
      <trkpt lat="45.12186" lon="5.50758">
        <ele>1266</ele>
        <time>2012-04-20T01:46:46Z</time>
      </trkpt>
      <trkpt lat="45.12199" lon="5.50746">
        <ele>1273</ele>
        <time>2012-04-20T01:46:50Z</time>
      </trkpt>
      <trkpt lat="45.12216" lon="5.5072">
        <ele>1274</ele>
        <time>2012-04-20T01:46:56Z</time>
      </trkpt>
      <trkpt lat="45.12235" lon="5.5069">
        <ele>1276</ele>
        <time>2012-04-20T01:47:03Z</time>
      </trkpt>
      <trkpt lat="45.12255" lon="5.50666">
        <ele>1278</ele>
        <time>2012-04-20T01:47:10Z</time>
      </trkpt>
      <trkpt lat="45.1228" lon="5.50628">
        <ele>1279</ele>
        <time>2012-04-20T01:47:20Z</time>
      </trkpt>
      <trkpt lat="45.12296" lon="5.506">
        <ele>1280</ele>
        <time>2012-04-20T01:47:26Z</time>
      </trkpt>
      <trkpt lat="45.123" lon="5.50585">
        <ele>1280</ele>
        <time>2012-04-20T01:47:29Z</time>
      </trkpt>
      <trkpt lat="45.12306" lon="5.50572">
        <ele>1289</ele>
        <time>2012-04-20T01:47:32Z</time>
      </trkpt>
      <trkpt lat="45.12311" lon="5.50565">
        <ele>1289</ele>
        <time>2012-04-20T01:47:33Z</time>
      </trkpt>
      <trkpt lat="45.12319" lon="5.50563">
        <ele>1288</ele>
        <time>2012-04-20T01:47:35Z</time>
      </trkpt>
      <trkpt lat="45.12326" lon="5.50563">
        <ele>1287</ele>
        <time>2012-04-20T01:47:36Z</time>
      </trkpt>
      <trkpt lat="45.12336" lon="5.50567">
        <ele>1283</ele>
        <time>2012-04-20T01:47:39Z</time>
      </trkpt>
      <trkpt lat="45.12349" lon="5.5058">
        <ele>1283</ele>
        <time>2012-04-20T01:47:43Z</time>
      </trkpt>
      <trkpt lat="45.1236" lon="5.50593">
        <ele>1276</ele>
        <time>2012-04-20T01:47:46Z</time>
      </trkpt>
      <trkpt lat="45.12362" lon="5.506">
        <ele>1275</ele>
        <time>2012-04-20T01:47:47Z</time>
      </trkpt>
      <trkpt lat="45.12368" lon="5.50612">
        <ele>1275</ele>
        <time>2012-04-20T01:47:50Z</time>
      </trkpt>
      <trkpt lat="45.12373" lon="5.50619">
        <ele>1274</ele>
        <time>2012-04-20T01:47:51Z</time>
      </trkpt>
      <trkpt lat="45.12383" lon="5.50625">
        <ele>1274</ele>
        <time>2012-04-20T01:47:54Z</time>
      </trkpt>
      <trkpt lat="45.12399" lon="5.5063">
        <ele>1274</ele>
        <time>2012-04-20T01:47:58Z</time>
      </trkpt>
      <trkpt lat="45.12418" lon="5.50625">
        <ele>1274</ele>
        <time>2012-04-20T01:48:03Z</time>
      </trkpt>
      <trkpt lat="45.12437" lon="5.50617">
        <ele>1274</ele>
        <time>2012-04-20T01:48:08Z</time>
      </trkpt>
      <trkpt lat="45.1245" lon="5.50606">
        <ele>1275</ele>
        <time>2012-04-20T01:48:12Z</time>
      </trkpt>
      <trkpt lat="45.12456" lon="5.50595">
        <ele>1275</ele>
        <time>2012-04-20T01:48:14Z</time>
      </trkpt>
      <trkpt lat="45.12465" lon="5.50576">
        <ele>1284</ele>
        <time>2012-04-20T01:48:18Z</time>
      </trkpt>
      <trkpt lat="45.12471" lon="5.50565">
        <ele>1284</ele>
        <time>2012-04-20T01:48:20Z</time>
      </trkpt>
      <trkpt lat="45.12478" lon="5.50561">
        <ele>1284</ele>
        <time>2012-04-20T01:48:21Z</time>
      </trkpt>
      <trkpt lat="45.12482" lon="5.50561">
        <ele>1284</ele>
        <time>2012-04-20T01:48:22Z</time>
      </trkpt>
      <trkpt lat="45.12491" lon="5.50563">
        <ele>1283</ele>
        <time>2012-04-20T01:48:24Z</time>
      </trkpt>
      <trkpt lat="45.12495" lon="5.5057">
        <ele>1281</ele>
        <time>2012-04-20T01:48:25Z</time>
      </trkpt>
      <trkpt lat="45.12504" lon="5.50578">
        <ele>1279</ele>
        <time>2012-04-20T01:48:27Z</time>
      </trkpt>
      <trkpt lat="45.1251" lon="5.50587">
        <ele>1275</ele>
        <time>2012-04-20T01:48:29Z</time>
      </trkpt>
      <trkpt lat="45.12517" lon="5.50597">
        <ele>1274</ele>
        <time>2012-04-20T01:48:31Z</time>
      </trkpt>
      <trkpt lat="45.12529" lon="5.50615">
        <ele>1273</ele>
        <time>2012-04-20T01:48:35Z</time>
      </trkpt>
      <trkpt lat="45.12538" lon="5.5064">
        <ele>1271</ele>
        <time>2012-04-20T01:48:40Z</time>
      </trkpt>
      <trkpt lat="45.12551" lon="5.50668">
        <ele>1261</ele>
        <time>2012-04-20T01:48:46Z</time>
      </trkpt>
      <trkpt lat="45.12566" lon="5.5069">
        <ele>1261</ele>
        <time>2012-04-20T01:48:51Z</time>
      </trkpt>
      <trkpt lat="45.12572" lon="5.50694">
        <ele>1260</ele>
        <time>2012-04-20T01:48:52Z</time>
      </trkpt>
      <trkpt lat="45.12581" lon="5.50698">
        <ele>1260</ele>
        <time>2012-04-20T01:48:54Z</time>
      </trkpt>
      <trkpt lat="45.12592" lon="5.507">
        <ele>1265</ele>
        <time>2012-04-20T01:48:57Z</time>
      </trkpt>
      <trkpt lat="45.126" lon="5.507">
        <ele>1265</ele>
        <time>2012-04-20T01:48:59Z</time>
      </trkpt>
      <trkpt lat="45.12607" lon="5.507">
        <ele>1265</ele>
        <time>2012-04-20T01:49:00Z</time>
      </trkpt>
      <trkpt lat="45.12615" lon="5.50703">
        <ele>1265</ele>
        <time>2012-04-20T01:49:02Z</time>
      </trkpt>
      <trkpt lat="45.1262" lon="5.50709">
        <ele>1265</ele>
        <time>2012-04-20T01:49:03Z</time>
      </trkpt>
      <trkpt lat="45.12624" lon="5.50718">
        <ele>1264</ele>
        <time>2012-04-20T01:49:05Z</time>
      </trkpt>
      <trkpt lat="45.12626" lon="5.50726">
        <ele>1264</ele>
        <time>2012-04-20T01:49:06Z</time>
      </trkpt>
      <trkpt lat="45.12624" lon="5.50737">
        <ele>1263</ele>
        <time>2012-04-20T01:49:08Z</time>
      </trkpt>
      <trkpt lat="45.12622" lon="5.50746">
        <ele>1262</ele>
        <time>2012-04-20T01:49:09Z</time>
      </trkpt>
      <trkpt lat="45.12635" lon="5.50746">
        <ele>1263</ele>
        <time>2012-04-20T01:49:12Z</time>
      </trkpt>
      <trkpt lat="45.12641" lon="5.50748">
        <ele>1263</ele>
        <time>2012-04-20T01:49:13Z</time>
      </trkpt>
      <trkpt lat="45.12647" lon="5.5075">
        <ele>1263</ele>
        <time>2012-04-20T01:49:14Z</time>
      </trkpt>
      <trkpt lat="45.12654" lon="5.50754">
        <ele>1258</ele>
        <time>2012-04-20T01:49:15Z</time>
      </trkpt>
      <trkpt lat="45.1266" lon="5.50761">
        <ele>1258</ele>
        <time>2012-04-20T01:49:17Z</time>
      </trkpt>
      <trkpt lat="45.12667" lon="5.50763">
        <ele>1258</ele>
        <time>2012-04-20T01:49:18Z</time>
      </trkpt>
      <trkpt lat="45.12677" lon="5.50758">
        <ele>1258</ele>
        <time>2012-04-20T01:49:21Z</time>
      </trkpt>
      <trkpt lat="45.12714" lon="5.50741">
        <ele>1267</ele>
        <time>2012-04-20T01:49:31Z</time>
      </trkpt>
      <trkpt lat="45.12733" lon="5.50728">
        <ele>1267</ele>
        <time>2012-04-20T01:49:36Z</time>
      </trkpt>
      <trkpt lat="45.1275" lon="5.50718">
        <ele>1266</ele>
        <time>2012-04-20T01:49:41Z</time>
      </trkpt>
      <trkpt lat="45.1277" lon="5.50703">
        <ele>1267</ele>
        <time>2012-04-20T01:49:47Z</time>
      </trkpt>
      <trkpt lat="45.12783" lon="5.5069">
        <ele>1267</ele>
        <time>2012-04-20T01:49:51Z</time>
      </trkpt>
      <trkpt lat="45.12793" lon="5.50675">
        <ele>1267</ele>
        <time>2012-04-20T01:49:55Z</time>
      </trkpt>
      <trkpt lat="45.12802" lon="5.50653">
        <ele>1276</ele>
        <time>2012-04-20T01:49:59Z</time>
      </trkpt>
      <trkpt lat="45.12806" lon="5.50623">
        <ele>1278</ele>
        <time>2012-04-20T01:50:05Z</time>
      </trkpt>
      <trkpt lat="45.12808" lon="5.50615">
        <ele>1279</ele>
        <time>2012-04-20T01:50:06Z</time>
      </trkpt>
      <trkpt lat="45.12813" lon="5.5061">
        <ele>1279</ele>
        <time>2012-04-20T01:50:07Z</time>
      </trkpt>
      <trkpt lat="45.12823" lon="5.50597">
        <ele>1281</ele>
        <time>2012-04-20T01:50:10Z</time>
      </trkpt>
      <trkpt lat="45.12834" lon="5.50608">
        <ele>1280</ele>
        <time>2012-04-20T01:50:13Z</time>
      </trkpt>
      <trkpt lat="45.12843" lon="5.50615">
        <ele>1279</ele>
        <time>2012-04-20T01:50:15Z</time>
      </trkpt>
      <trkpt lat="45.12853" lon="5.50617">
        <ele>1279</ele>
        <time>2012-04-20T01:50:18Z</time>
      </trkpt>
      <trkpt lat="45.12866" lon="5.50619">
        <ele>1279</ele>
        <time>2012-04-20T01:50:21Z</time>
      </trkpt>
      <trkpt lat="45.12881" lon="5.50619">
        <ele>1279</ele>
        <time>2012-04-20T01:50:25Z</time>
      </trkpt>
      <trkpt lat="45.12892" lon="5.50617">
        <ele>1280</ele>
        <time>2012-04-20T01:50:28Z</time>
      </trkpt>
      <trkpt lat="45.12898" lon="5.50612">
        <ele>1281</ele>
        <time>2012-04-20T01:50:29Z</time>
      </trkpt>
      <trkpt lat="45.12905" lon="5.50604">
        <ele>1283</ele>
        <time>2012-04-20T01:50:31Z</time>
      </trkpt>
      <trkpt lat="45.12911" lon="5.50587">
        <ele>1288</ele>
        <time>2012-04-20T01:50:34Z</time>
      </trkpt>
      <trkpt lat="45.12914" lon="5.50576">
        <ele>1292</ele>
        <time>2012-04-20T01:50:36Z</time>
      </trkpt>
      <trkpt lat="45.12918" lon="5.5057">
        <ele>1293</ele>
        <time>2012-04-20T01:50:37Z</time>
      </trkpt>
      <trkpt lat="45.12922" lon="5.50565">
        <ele>1294</ele>
        <time>2012-04-20T01:50:38Z</time>
      </trkpt>
      <trkpt lat="45.12931" lon="5.50559">
        <ele>1295</ele>
        <time>2012-04-20T01:50:40Z</time>
      </trkpt>
      <trkpt lat="45.12944" lon="5.50555">
        <ele>1295</ele>
        <time>2012-04-20T01:50:43Z</time>
      </trkpt>
      <trkpt lat="45.12956" lon="5.50548">
        <ele>1296</ele>
        <time>2012-04-20T01:50:46Z</time>
      </trkpt>
      <trkpt lat="45.12965" lon="5.50542">
        <ele>1296</ele>
        <time>2012-04-20T01:50:48Z</time>
      </trkpt>
      <trkpt lat="45.12974" lon="5.50531">
        <ele>1297</ele>
        <time>2012-04-20T01:50:51Z</time>
      </trkpt>
      <trkpt lat="45.12978" lon="5.5052">
        <ele>1298</ele>
        <time>2012-04-20T01:50:53Z</time>
      </trkpt>
      <trkpt lat="45.12986" lon="5.50499">
        <ele>1306</ele>
        <time>2012-04-20T01:50:57Z</time>
      </trkpt>
      <trkpt lat="45.12997" lon="5.50475">
        <ele>1308</ele>
        <time>2012-04-20T01:51:02Z</time>
      </trkpt>
      <trkpt lat="45.1301" lon="5.50458">
        <ele>1311</ele>
        <time>2012-04-20T01:51:06Z</time>
      </trkpt>
      <trkpt lat="45.13021" lon="5.50445">
        <ele>1312</ele>
        <time>2012-04-20T01:51:09Z</time>
      </trkpt>
      <trkpt lat="45.13032" lon="5.50437">
        <ele>1313</ele>
        <time>2012-04-20T01:51:12Z</time>
      </trkpt>
      <trkpt lat="45.1304" lon="5.50437">
        <ele>1313</ele>
        <time>2012-04-20T01:51:14Z</time>
      </trkpt>
      <trkpt lat="45.13047" lon="5.50441">
        <ele>1312</ele>
        <time>2012-04-20T01:51:15Z</time>
      </trkpt>
      <trkpt lat="45.13055" lon="5.50449">
        <ele>1312</ele>
        <time>2012-04-20T01:51:17Z</time>
      </trkpt>
      <trkpt lat="45.13062" lon="5.50469">
        <ele>1310</ele>
        <time>2012-04-20T01:51:21Z</time>
      </trkpt>
      <trkpt lat="45.1307" lon="5.50484">
        <ele>1308</ele>
        <time>2012-04-20T01:51:24Z</time>
      </trkpt>
      <trkpt lat="45.13077" lon="5.50492">
        <ele>1307</ele>
        <time>2012-04-20T01:51:26Z</time>
      </trkpt>
      <trkpt lat="45.13083" lon="5.50497">
        <ele>1306</ele>
        <time>2012-04-20T01:51:27Z</time>
      </trkpt>
      <trkpt lat="45.13094" lon="5.50494">
        <ele>1309</ele>
        <time>2012-04-20T01:51:30Z</time>
      </trkpt>
      <trkpt lat="45.13109" lon="5.50492">
        <ele>1312</ele>
        <time>2012-04-20T01:51:34Z</time>
      </trkpt>
      <trkpt lat="45.13122" lon="5.5049">
        <ele>1313</ele>
        <time>2012-04-20T01:51:37Z</time>
      </trkpt>
      <trkpt lat="45.13138" lon="5.5049">
        <ele>1314</ele>
        <time>2012-04-20T01:51:41Z</time>
      </trkpt>
      <trkpt lat="45.13141" lon="5.5049">
        <ele>1314</ele>
        <time>2012-04-20T01:51:41Z</time>
      </trkpt>
      <trkpt lat="45.13156" lon="5.50494">
        <ele>1313</ele>
        <time>2012-04-20T01:51:45Z</time>
      </trkpt>
      <trkpt lat="45.13162" lon="5.50497">
        <ele>1313</ele>
        <time>2012-04-20T01:51:46Z</time>
      </trkpt>
      <trkpt lat="45.13177" lon="5.50492">
        <ele>1315</ele>
        <time>2012-04-20T01:51:50Z</time>
      </trkpt>
      <trkpt lat="45.13197" lon="5.50486">
        <ele>1317</ele>
        <time>2012-04-20T01:51:55Z</time>
      </trkpt>
      <trkpt lat="45.1322" lon="5.50473">
        <ele>1317</ele>
        <time>2012-04-20T01:52:02Z</time>
      </trkpt>
      <trkpt lat="45.13242" lon="5.50462">
        <ele>1318</ele>
        <time>2012-04-20T01:52:08Z</time>
      </trkpt>
      <trkpt lat="45.13257" lon="5.50452">
        <ele>1312</ele>
        <time>2012-04-20T01:52:12Z</time>
      </trkpt>
      <trkpt lat="45.13265" lon="5.50441">
        <ele>1313</ele>
        <time>2012-04-20T01:52:15Z</time>
      </trkpt>
      <trkpt lat="45.13276" lon="5.50424">
        <ele>1314</ele>
        <time>2012-04-20T01:52:19Z</time>
      </trkpt>
      <trkpt lat="45.13298" lon="5.50398">
        <ele>1323</ele>
        <time>2012-04-20T01:52:26Z</time>
      </trkpt>
      <trkpt lat="45.13317" lon="5.50379">
        <ele>1324</ele>
        <time>2012-04-20T01:52:32Z</time>
      </trkpt>
      <trkpt lat="45.13341" lon="5.50361">
        <ele>1321</ele>
        <time>2012-04-20T01:52:39Z</time>
      </trkpt>
      <trkpt lat="45.13366" lon="5.50349">
        <ele>1321</ele>
        <time>2012-04-20T01:52:46Z</time>
      </trkpt>
      <trkpt lat="45.13375" lon="5.50346">
        <ele>1321</ele>
        <time>2012-04-20T01:52:48Z</time>
      </trkpt>
      <trkpt lat="45.13392" lon="5.5034">
        <ele>1321</ele>
        <time>2012-04-20T01:52:52Z</time>
      </trkpt>
      <trkpt lat="45.13416" lon="5.50336">
        <ele>1326</ele>
        <time>2012-04-20T01:52:58Z</time>
      </trkpt>
      <trkpt lat="45.13439" lon="5.50334">
        <ele>1322</ele>
        <time>2012-04-20T01:53:04Z</time>
      </trkpt>
      <trkpt lat="45.13459" lon="5.50338">
        <ele>1321</ele>
        <time>2012-04-20T01:53:09Z</time>
      </trkpt>
      <trkpt lat="45.1348" lon="5.50344">
        <ele>1322</ele>
        <time>2012-04-20T01:53:15Z</time>
      </trkpt>
      <trkpt lat="45.13499" lon="5.50344">
        <ele>1325</ele>
        <time>2012-04-20T01:53:20Z</time>
      </trkpt>
      <trkpt lat="45.13519" lon="5.50338">
        <ele>1323</ele>
        <time>2012-04-20T01:53:25Z</time>
      </trkpt>
      <trkpt lat="45.13549" lon="5.50327">
        <ele>1336</ele>
        <time>2012-04-20T01:53:33Z</time>
      </trkpt>
      <trkpt lat="45.13583" lon="5.50308">
        <ele>1336</ele>
        <time>2012-04-20T01:53:43Z</time>
      </trkpt>
      <trkpt lat="45.13619" lon="5.50295">
        <ele>1336</ele>
        <time>2012-04-20T01:53:53Z</time>
      </trkpt>
      <trkpt lat="45.13656" lon="5.50282">
        <ele>1337</ele>
        <time>2012-04-20T01:54:03Z</time>
      </trkpt>
      <trkpt lat="45.13675" lon="5.50278">
        <ele>1337</ele>
        <time>2012-04-20T01:54:08Z</time>
      </trkpt>
      <trkpt lat="45.13688" lon="5.50278">
        <ele>1337</ele>
        <time>2012-04-20T01:54:11Z</time>
      </trkpt>
      <trkpt lat="45.13712" lon="5.50273">
        <ele>1338</ele>
        <time>2012-04-20T01:54:17Z</time>
      </trkpt>
      <trkpt lat="45.13729" lon="5.50271">
        <ele>1339</ele>
        <time>2012-04-20T01:54:21Z</time>
      </trkpt>
      <trkpt lat="45.1375" lon="5.50265">
        <ele>1344</ele>
        <time>2012-04-20T01:54:27Z</time>
      </trkpt>
      <trkpt lat="45.13774" lon="5.50258">
        <ele>1341</ele>
        <time>2012-04-20T01:54:33Z</time>
      </trkpt>
      <trkpt lat="45.1381" lon="5.50248">
        <ele>1356</ele>
        <time>2012-04-20T01:54:43Z</time>
      </trkpt>
      <trkpt lat="45.13847" lon="5.50233">
        <ele>1350</ele>
        <time>2012-04-20T01:54:53Z</time>
      </trkpt>
      <trkpt lat="45.13871" lon="5.50224">
        <ele>1350</ele>
        <time>2012-04-20T01:54:59Z</time>
      </trkpt>
      <trkpt lat="45.13888" lon="5.50213">
        <ele>1351</ele>
        <time>2012-04-20T01:55:04Z</time>
      </trkpt>
      <trkpt lat="45.13896" lon="5.50203">
        <ele>1352</ele>
        <time>2012-04-20T01:55:07Z</time>
      </trkpt>
      <trkpt lat="45.13911" lon="5.5019">
        <ele>1354</ele>
        <time>2012-04-20T01:55:11Z</time>
      </trkpt>
      <trkpt lat="45.13924" lon="5.50183">
        <ele>1349</ele>
        <time>2012-04-20T01:55:14Z</time>
      </trkpt>
      <trkpt lat="45.13937" lon="5.50179">
        <ele>1348</ele>
        <time>2012-04-20T01:55:17Z</time>
      </trkpt>
      <trkpt lat="45.1395" lon="5.50177">
        <ele>1345</ele>
        <time>2012-04-20T01:55:20Z</time>
      </trkpt>
      <trkpt lat="45.13963" lon="5.50168">
        <ele>1344</ele>
        <time>2012-04-20T01:55:23Z</time>
      </trkpt>
      <trkpt lat="45.13974" lon="5.50158">
        <ele>1358</ele>
        <time>2012-04-20T01:55:26Z</time>
      </trkpt>
      <trkpt lat="45.13991" lon="5.50143">
        <ele>1358</ele>
        <time>2012-04-20T01:55:31Z</time>
      </trkpt>
      <trkpt lat="45.13997" lon="5.50138">
        <ele>1359</ele>
        <time>2012-04-20T01:55:32Z</time>
      </trkpt>
      <trkpt lat="45.14025" lon="5.50117">
        <ele>1355</ele>
        <time>2012-04-20T01:55:40Z</time>
      </trkpt>
      <trkpt lat="45.14051" lon="5.50095">
        <ele>1356</ele>
        <time>2012-04-20T01:55:48Z</time>
      </trkpt>
      <trkpt lat="45.14079" lon="5.50078">
        <ele>1365</ele>
        <time>2012-04-20T01:55:56Z</time>
      </trkpt>
      <trkpt lat="45.141" lon="5.50067">
        <ele>1367</ele>
        <time>2012-04-20T01:56:02Z</time>
      </trkpt>
      <trkpt lat="45.14152" lon="5.50048">
        <ele>1369</ele>
        <time>2012-04-20T01:56:16Z</time>
      </trkpt>
      <trkpt lat="45.14173" lon="5.50046">
        <ele>1369</ele>
        <time>2012-04-20T01:56:21Z</time>
      </trkpt>
      <trkpt lat="45.14197" lon="5.50044">
        <ele>1370</ele>
        <time>2012-04-20T01:56:27Z</time>
      </trkpt>
      <trkpt lat="45.14231" lon="5.50046">
        <ele>1371</ele>
        <time>2012-04-20T01:56:36Z</time>
      </trkpt>
      <trkpt lat="45.14261" lon="5.5005">
        <ele>1373</ele>
        <time>2012-04-20T01:56:44Z</time>
      </trkpt>
      <trkpt lat="45.14293" lon="5.5005">
        <ele>1374</ele>
        <time>2012-04-20T01:56:52Z</time>
      </trkpt>
      <trkpt lat="45.14323" lon="5.5005">
        <ele>1374</ele>
        <time>2012-04-20T01:57:00Z</time>
      </trkpt>
      <trkpt lat="45.14351" lon="5.50052">
        <ele>1378</ele>
        <time>2012-04-20T01:57:07Z</time>
      </trkpt>
      <trkpt lat="45.14366" lon="5.5005">
        <ele>1379</ele>
        <time>2012-04-20T01:57:11Z</time>
      </trkpt>
      <trkpt lat="45.14388" lon="5.50044">
        <ele>1381</ele>
        <time>2012-04-20T01:57:17Z</time>
      </trkpt>
      <trkpt lat="45.14405" lon="5.5004">
        <ele>1383</ele>
        <time>2012-04-20T01:57:21Z</time>
      </trkpt>
      <trkpt lat="45.14416" lon="5.5004">
        <ele>1383</ele>
        <time>2012-04-20T01:57:23Z</time>
      </trkpt>
      <trkpt lat="45.14428" lon="5.50042">
        <ele>1388</ele>
        <time>2012-04-20T01:57:26Z</time>
      </trkpt>
      <trkpt lat="45.14452" lon="5.50052">
        <ele>1387</ele>
        <time>2012-04-20T01:57:32Z</time>
      </trkpt>
      <trkpt lat="45.14465" lon="5.50057">
        <ele>1387</ele>
        <time>2012-04-20T01:57:35Z</time>
      </trkpt>
      <trkpt lat="45.14473" lon="5.50061">
        <ele>1387</ele>
        <time>2012-04-20T01:57:37Z</time>
      </trkpt>
      <trkpt lat="45.14491" lon="5.50067">
        <ele>1385</ele>
        <time>2012-04-20T01:57:41Z</time>
      </trkpt>
      <trkpt lat="45.14521" lon="5.50074">
        <ele>1392</ele>
        <time>2012-04-20T01:57:49Z</time>
      </trkpt>
      <trkpt lat="45.1454" lon="5.50078">
        <ele>1394</ele>
        <time>2012-04-20T01:57:54Z</time>
      </trkpt>
      <trkpt lat="45.14566" lon="5.50085">
        <ele>1381</ele>
        <time>2012-04-20T01:58:01Z</time>
      </trkpt>
      <trkpt lat="45.14598" lon="5.50095">
        <ele>1385</ele>
        <time>2012-04-20T01:58:10Z</time>
      </trkpt>
      <trkpt lat="45.14617" lon="5.50102">
        <ele>1383</ele>
        <time>2012-04-20T01:58:15Z</time>
      </trkpt>
      <trkpt lat="45.14634" lon="5.50104">
        <ele>1384</ele>
        <time>2012-04-20T01:58:19Z</time>
      </trkpt>
      <trkpt lat="45.14654" lon="5.501">
        <ele>1388</ele>
        <time>2012-04-20T01:58:24Z</time>
      </trkpt>
      <trkpt lat="45.14677" lon="5.50093">
        <ele>1394</ele>
        <time>2012-04-20T01:58:30Z</time>
      </trkpt>
      <trkpt lat="45.14701" lon="5.50087">
        <ele>1394</ele>
        <time>2012-04-20T01:58:36Z</time>
      </trkpt>
      <trkpt lat="45.14722" lon="5.50082">
        <ele>1414</ele>
        <time>2012-04-20T01:58:42Z</time>
      </trkpt>
      <trkpt lat="45.14733" lon="5.50082">
        <ele>1413</ele>
        <time>2012-04-20T01:58:44Z</time>
      </trkpt>
      <trkpt lat="45.1474" lon="5.50085">
        <ele>1403</ele>
        <time>2012-04-20T01:58:45Z</time>
      </trkpt>
      <trkpt lat="45.14752" lon="5.50093">
        <ele>1407</ele>
        <time>2012-04-20T01:58:48Z</time>
      </trkpt>
      <trkpt lat="45.1477" lon="5.50108">
        <ele>1404</ele>
        <time>2012-04-20T01:58:53Z</time>
      </trkpt>
      <trkpt lat="45.14782" lon="5.50121">
        <ele>1403</ele>
        <time>2012-04-20T01:58:57Z</time>
      </trkpt>
      <trkpt lat="45.14791" lon="5.50134">
        <ele>1402</ele>
        <time>2012-04-20T01:59:00Z</time>
      </trkpt>
      <trkpt lat="45.148" lon="5.50145">
        <ele>1401</ele>
        <time>2012-04-20T01:59:03Z</time>
      </trkpt>
      <trkpt lat="45.14813" lon="5.50165">
        <ele>1399</ele>
        <time>2012-04-20T01:59:08Z</time>
      </trkpt>
      <trkpt lat="45.14815" lon="5.50168">
        <ele>1386</ele>
        <time>2012-04-20T01:59:08Z</time>
      </trkpt>
      <trkpt lat="45.14825" lon="5.50185">
        <ele>1384</ele>
        <time>2012-04-20T01:59:12Z</time>
      </trkpt>
      <trkpt lat="45.14832" lon="5.50198">
        <ele>1381</ele>
        <time>2012-04-20T01:59:15Z</time>
      </trkpt>
      <trkpt lat="45.14838" lon="5.50203">
        <ele>1390</ele>
        <time>2012-04-20T01:59:16Z</time>
      </trkpt>
      <trkpt lat="45.14843" lon="5.50207">
        <ele>1389</ele>
        <time>2012-04-20T01:59:17Z</time>
      </trkpt>
      <trkpt lat="45.14847" lon="5.50207">
        <ele>1390</ele>
        <time>2012-04-20T01:59:18Z</time>
      </trkpt>
      <trkpt lat="45.14862" lon="5.50211">
        <ele>1390</ele>
        <time>2012-04-20T01:59:22Z</time>
      </trkpt>
      <trkpt lat="45.14875" lon="5.50211">
        <ele>1391</ele>
        <time>2012-04-20T01:59:25Z</time>
      </trkpt>
      <trkpt lat="45.14888" lon="5.50211">
        <ele>1392</ele>
        <time>2012-04-20T01:59:28Z</time>
      </trkpt>
      <trkpt lat="45.14898" lon="5.50211">
        <ele>1393</ele>
        <time>2012-04-20T01:59:30Z</time>
      </trkpt>
      <trkpt lat="45.14909" lon="5.50216">
        <ele>1393</ele>
        <time>2012-04-20T01:59:33Z</time>
      </trkpt>
      <trkpt lat="45.1492" lon="5.50222">
        <ele>1402</ele>
        <time>2012-04-20T01:59:36Z</time>
      </trkpt>
      <trkpt lat="45.14935" lon="5.50226">
        <ele>1402</ele>
        <time>2012-04-20T01:59:40Z</time>
      </trkpt>
      <trkpt lat="45.14946" lon="5.50233">
        <ele>1403</ele>
        <time>2012-04-20T01:59:43Z</time>
      </trkpt>
      <trkpt lat="45.14958" lon="5.50239">
        <ele>1404</ele>
        <time>2012-04-20T01:59:46Z</time>
      </trkpt>
      <trkpt lat="45.14969" lon="5.50246">
        <ele>1405</ele>
        <time>2012-04-20T01:59:49Z</time>
      </trkpt>
      <trkpt lat="45.14978" lon="5.50252">
        <ele>1389</ele>
        <time>2012-04-20T01:59:51Z</time>
      </trkpt>
      <trkpt lat="45.14988" lon="5.50261">
        <ele>1391</ele>
        <time>2012-04-20T01:59:54Z</time>
      </trkpt>
      <trkpt lat="45.15006" lon="5.50273">
        <ele>1395</ele>
        <time>2012-04-20T01:59:59Z</time>
      </trkpt>
      <trkpt lat="45.15023" lon="5.50284">
        <ele>1393</ele>
        <time>2012-04-20T02:00:04Z</time>
      </trkpt>
      <trkpt lat="45.15049" lon="5.50293">
        <ele>1394</ele>
        <time>2012-04-20T02:00:11Z</time>
      </trkpt>
      <trkpt lat="45.15085" lon="5.50306">
        <ele>1397</ele>
        <time>2012-04-20T02:00:21Z</time>
      </trkpt>
      <trkpt lat="45.15126" lon="5.50312">
        <ele>1399</ele>
        <time>2012-04-20T02:00:32Z</time>
      </trkpt>
      <trkpt lat="45.15147" lon="5.50319">
        <ele>1398</ele>
        <time>2012-04-20T02:00:38Z</time>
      </trkpt>
      <trkpt lat="45.15167" lon="5.50323">
        <ele>1394</ele>
        <time>2012-04-20T02:00:43Z</time>
      </trkpt>
      <trkpt lat="45.15184" lon="5.50327">
        <ele>1399</ele>
        <time>2012-04-20T02:00:47Z</time>
      </trkpt>
      <trkpt lat="45.15197" lon="5.50329">
        <ele>1402</ele>
        <time>2012-04-20T02:00:50Z</time>
      </trkpt>
      <trkpt lat="45.15209" lon="5.50331">
        <ele>1404</ele>
        <time>2012-04-20T02:00:53Z</time>
      </trkpt>
      <trkpt lat="45.15229" lon="5.50336">
        <ele>1384</ele>
        <time>2012-04-20T02:00:58Z</time>
      </trkpt>
      <trkpt lat="45.15242" lon="5.50338">
        <ele>1389</ele>
        <time>2012-04-20T02:01:01Z</time>
      </trkpt>
      <trkpt lat="45.15252" lon="5.5034">
        <ele>1393</ele>
        <time>2012-04-20T02:01:04Z</time>
      </trkpt>
      <trkpt lat="45.15261" lon="5.50342">
        <ele>1391</ele>
        <time>2012-04-20T02:01:06Z</time>
      </trkpt>
      <trkpt lat="45.1527" lon="5.50344">
        <ele>1390</ele>
        <time>2012-04-20T02:01:08Z</time>
      </trkpt>
      <trkpt lat="45.15289" lon="5.50344">
        <ele>1391</ele>
        <time>2012-04-20T02:01:13Z</time>
      </trkpt>
      <trkpt lat="45.15302" lon="5.50344">
        <ele>1393</ele>
        <time>2012-04-20T02:01:16Z</time>
      </trkpt>
      <trkpt lat="45.15312" lon="5.50344">
        <ele>1396</ele>
        <time>2012-04-20T02:01:18Z</time>
      </trkpt>
      <trkpt lat="45.15321" lon="5.50342">
        <ele>1399</ele>
        <time>2012-04-20T02:01:20Z</time>
      </trkpt>
      <trkpt lat="45.1534" lon="5.50334">
        <ele>1407</ele>
        <time>2012-04-20T02:01:25Z</time>
      </trkpt>
      <trkpt lat="45.15347" lon="5.50331">
        <ele>1413</ele>
        <time>2012-04-20T02:01:26Z</time>
      </trkpt>
      <trkpt lat="45.15355" lon="5.50331">
        <ele>1414</ele>
        <time>2012-04-20T02:01:28Z</time>
      </trkpt>
      <trkpt lat="45.15364" lon="5.50334">
        <ele>1404</ele>
        <time>2012-04-20T02:01:30Z</time>
      </trkpt>
      <trkpt lat="45.1537" lon="5.50334">
        <ele>1404</ele>
        <time>2012-04-20T02:01:31Z</time>
      </trkpt>
      <trkpt lat="45.15377" lon="5.50336">
        <ele>1404</ele>
        <time>2012-04-20T02:01:32Z</time>
      </trkpt>
      <trkpt lat="45.15403" lon="5.50342">
        <ele>1408</ele>
        <time>2012-04-20T02:01:39Z</time>
      </trkpt>
      <trkpt lat="45.15409" lon="5.50346">
        <ele>1408</ele>
        <time>2012-04-20T02:01:40Z</time>
      </trkpt>
      <trkpt lat="45.15413" lon="5.50344">
        <ele>1409</ele>
        <time>2012-04-20T02:01:41Z</time>
      </trkpt>
      <trkpt lat="45.15413" lon="5.5034">
        <ele>1411</ele>
        <time>2012-04-20T02:01:41Z</time>
      </trkpt>
      <trkpt lat="45.15411" lon="5.50336">
        <ele>1412</ele>
        <time>2012-04-20T02:01:42Z</time>
      </trkpt>
      <trkpt lat="45.15407" lon="5.50329">
        <ele>1415</ele>
        <time>2012-04-20T02:01:43Z</time>
      </trkpt>
      <trkpt lat="45.15398" lon="5.50312">
        <ele>1415</ele>
        <time>2012-04-20T02:01:47Z</time>
      </trkpt>
      <trkpt lat="45.15394" lon="5.50301">
        <ele>1415</ele>
        <time>2012-04-20T02:01:49Z</time>
      </trkpt>
      <trkpt lat="45.15385" lon="5.50286">
        <ele>1416</ele>
        <time>2012-04-20T02:01:52Z</time>
      </trkpt>
      <trkpt lat="45.15381" lon="5.50276">
        <ele>1416</ele>
        <time>2012-04-20T02:01:54Z</time>
      </trkpt>
      <trkpt lat="45.15388" lon="5.50261">
        <ele>1415</ele>
        <time>2012-04-20T02:01:57Z</time>
      </trkpt>
      <trkpt lat="45.15413" lon="5.50291">
        <ele>1414</ele>
        <time>2012-04-20T02:02:06Z</time>
      </trkpt>
      <trkpt lat="45.15473" lon="5.5034">
        <ele>1411</ele>
        <time>2012-04-20T02:02:25Z</time>
      </trkpt>
      <trkpt lat="45.15499" lon="5.50379">
        <ele>1410</ele>
        <time>2012-04-20T02:02:35Z</time>
      </trkpt>
      <trkpt lat="45.15512" lon="5.50426">
        <ele>1416</ele>
        <time>2012-04-20T02:02:44Z</time>
      </trkpt>
      <trkpt lat="45.15518" lon="5.50486">
        <ele>1412</ele>
        <time>2012-04-20T02:02:55Z</time>
      </trkpt>
      <trkpt lat="45.15523" lon="5.50522">
        <ele>1402</ele>
        <time>2012-04-20T02:03:02Z</time>
      </trkpt>
      <trkpt lat="45.15553" lon="5.50567">
        <ele>1400</ele>
        <time>2012-04-20T02:03:14Z</time>
      </trkpt>
      <trkpt lat="45.15628" lon="5.50666">
        <ele>1395</ele>
        <time>2012-04-20T02:03:42Z</time>
      </trkpt>
      <trkpt lat="45.15727" lon="5.50776">
        <ele>1378</ele>
        <time>2012-04-20T02:04:16Z</time>
      </trkpt>
      <trkpt lat="45.15752" lon="5.50795">
        <ele>1388</ele>
        <time>2012-04-20T02:04:24Z</time>
      </trkpt>
      <trkpt lat="45.15774" lon="5.5081">
        <ele>1386</ele>
        <time>2012-04-20T02:04:30Z</time>
      </trkpt>
      <trkpt lat="45.15862" lon="5.50866">
        <ele>1372</ele>
        <time>2012-04-20T02:04:56Z</time>
      </trkpt>
      <trkpt lat="45.15937" lon="5.50936">
        <ele>1357</ele>
        <time>2012-04-20T02:05:21Z</time>
      </trkpt>
      <trkpt lat="45.15948" lon="5.50962">
        <ele>1354</ele>
        <time>2012-04-20T02:05:26Z</time>
      </trkpt>
      <trkpt lat="45.15954" lon="5.50975">
        <ele>1353</ele>
        <time>2012-04-20T02:05:29Z</time>
      </trkpt>
      <trkpt lat="45.1596" lon="5.51003">
        <ele>1339</ele>
        <time>2012-04-20T02:05:34Z</time>
      </trkpt>
      <trkpt lat="45.15967" lon="5.51031">
        <ele>1337</ele>
        <time>2012-04-20T02:05:39Z</time>
      </trkpt>
      <trkpt lat="45.15984" lon="5.51052">
        <ele>1335</ele>
        <time>2012-04-20T02:05:45Z</time>
      </trkpt>
      <trkpt lat="45.16044" lon="5.51093">
        <ele>1330</ele>
        <time>2012-04-20T02:06:03Z</time>
      </trkpt>
      <trkpt lat="45.16083" lon="5.51112">
        <ele>1331</ele>
        <time>2012-04-20T02:06:14Z</time>
      </trkpt>
      <trkpt lat="45.16104" lon="5.51136">
        <ele>1334</ele>
        <time>2012-04-20T02:06:21Z</time>
      </trkpt>
      <trkpt lat="45.16115" lon="5.5116">
        <ele>1331</ele>
        <time>2012-04-20T02:06:26Z</time>
      </trkpt>
      <trkpt lat="45.16113" lon="5.5119">
        <ele>1314</ele>
        <time>2012-04-20T02:06:31Z</time>
      </trkpt>
      <trkpt lat="45.16117" lon="5.51233">
        <ele>1308</ele>
        <time>2012-04-20T02:06:39Z</time>
      </trkpt>
      <trkpt lat="45.16124" lon="5.51256">
        <ele>1290</ele>
        <time>2012-04-20T02:06:43Z</time>
      </trkpt>
      <trkpt lat="45.16141" lon="5.51276">
        <ele>1290</ele>
        <time>2012-04-20T02:06:49Z</time>
      </trkpt>
      <trkpt lat="45.16177" lon="5.51293">
        <ele>1296</ele>
        <time>2012-04-20T02:06:59Z</time>
      </trkpt>
      <trkpt lat="45.16227" lon="5.51316">
        <ele>1295</ele>
        <time>2012-04-20T02:07:13Z</time>
      </trkpt>
      <trkpt lat="45.16263" lon="5.51331">
        <ele>1297</ele>
        <time>2012-04-20T02:07:23Z</time>
      </trkpt>
      <trkpt lat="45.16276" lon="5.51353">
        <ele>1287</ele>
        <time>2012-04-20T02:07:28Z</time>
      </trkpt>
      <trkpt lat="45.16289" lon="5.51376">
        <ele>1285</ele>
        <time>2012-04-20T02:07:33Z</time>
      </trkpt>
      <trkpt lat="45.16295" lon="5.51411">
        <ele>1282</ele>
        <time>2012-04-20T02:07:39Z</time>
      </trkpt>
      <trkpt lat="45.163" lon="5.51488">
        <ele>1265</ele>
        <time>2012-04-20T02:07:54Z</time>
      </trkpt>
      <trkpt lat="45.16208" lon="5.51453">
        <ele>1254</ele>
        <time>2012-04-20T02:08:20Z</time>
      </trkpt>
      <trkpt lat="45.16197" lon="5.51449">
        <ele>1254</ele>
        <time>2012-04-20T02:08:23Z</time>
      </trkpt>
      <trkpt lat="45.16143" lon="5.51426">
        <ele>1247</ele>
        <time>2012-04-20T02:08:38Z</time>
      </trkpt>
      <trkpt lat="45.16096" lon="5.51439">
        <ele>1241</ele>
        <time>2012-04-20T02:08:51Z</time>
      </trkpt>
      <trkpt lat="45.16068" lon="5.51436">
        <ele>1232</ele>
        <time>2012-04-20T02:08:58Z</time>
      </trkpt>
      <trkpt lat="45.16057" lon="5.51434">
        <ele>1231</ele>
        <time>2012-04-20T02:09:01Z</time>
      </trkpt>
      <trkpt lat="45.16036" lon="5.51428">
        <ele>1229</ele>
        <time>2012-04-20T02:09:07Z</time>
      </trkpt>
      <trkpt lat="45.15991" lon="5.51389">
        <ele>1234</ele>
        <time>2012-04-20T02:09:21Z</time>
      </trkpt>
      <trkpt lat="45.15954" lon="5.51379">
        <ele>1234</ele>
        <time>2012-04-20T02:09:31Z</time>
      </trkpt>
      <trkpt lat="45.1593" lon="5.51376">
        <ele>1232</ele>
        <time>2012-04-20T02:09:37Z</time>
      </trkpt>
      <trkpt lat="45.15898" lon="5.51387">
        <ele>1221</ele>
        <time>2012-04-20T02:09:46Z</time>
      </trkpt>
      <trkpt lat="45.15875" lon="5.51398">
        <ele>1218</ele>
        <time>2012-04-20T02:09:52Z</time>
      </trkpt>
      <trkpt lat="45.15847" lon="5.51413">
        <ele>1210</ele>
        <time>2012-04-20T02:10:00Z</time>
      </trkpt>
      <trkpt lat="45.15823" lon="5.51424">
        <ele>1197</ele>
        <time>2012-04-20T02:10:06Z</time>
      </trkpt>
      <trkpt lat="45.15787" lon="5.51426">
        <ele>1193</ele>
        <time>2012-04-20T02:10:16Z</time>
      </trkpt>
      <trkpt lat="45.15759" lon="5.51424">
        <ele>1196</ele>
        <time>2012-04-20T02:10:23Z</time>
      </trkpt>
      <trkpt lat="45.15748" lon="5.51417">
        <ele>1198</ele>
        <time>2012-04-20T02:10:26Z</time>
      </trkpt>
      <trkpt lat="45.15739" lon="5.51415">
        <ele>1200</ele>
        <time>2012-04-20T02:10:28Z</time>
      </trkpt>
      <trkpt lat="45.1572" lon="5.51402">
        <ele>1201</ele>
        <time>2012-04-20T02:10:33Z</time>
      </trkpt>
      <trkpt lat="45.15583" lon="5.51318">
        <ele>1197</ele>
        <time>2012-04-20T02:11:14Z</time>
      </trkpt>
      <trkpt lat="45.15482" lon="5.5128">
        <ele>1190</ele>
        <time>2012-04-20T02:11:43Z</time>
      </trkpt>
      <trkpt lat="45.15454" lon="5.51284">
        <ele>1187</ele>
        <time>2012-04-20T02:11:50Z</time>
      </trkpt>
      <trkpt lat="45.15407" lon="5.51293">
        <ele>1179</ele>
        <time>2012-04-20T02:12:03Z</time>
      </trkpt>
      <trkpt lat="45.15368" lon="5.51323">
        <ele>1175</ele>
        <time>2012-04-20T02:12:15Z</time>
      </trkpt>
      <trkpt lat="45.1536" lon="5.51329">
        <ele>1174</ele>
        <time>2012-04-20T02:12:17Z</time>
      </trkpt>
      <trkpt lat="45.15334" lon="5.51346">
        <ele>1165</ele>
        <time>2012-04-20T02:12:24Z</time>
      </trkpt>
      <trkpt lat="45.15317" lon="5.51346">
        <ele>1160</ele>
        <time>2012-04-20T02:12:28Z</time>
      </trkpt>
      <trkpt lat="45.15304" lon="5.51346">
        <ele>1158</ele>
        <time>2012-04-20T02:12:31Z</time>
      </trkpt>
      <trkpt lat="45.15272" lon="5.51336">
        <ele>1156</ele>
        <time>2012-04-20T02:12:40Z</time>
      </trkpt>
      <trkpt lat="45.15255" lon="5.51332">
        <ele>1159</ele>
        <time>2012-04-20T02:12:44Z</time>
      </trkpt>
      <trkpt lat="45.15237" lon="5.51329">
        <ele>1160</ele>
        <time>2012-04-20T02:12:48Z</time>
      </trkpt>
      <trkpt lat="45.15222" lon="5.51325">
        <ele>1162</ele>
        <time>2012-04-20T02:12:52Z</time>
      </trkpt>
      <trkpt lat="45.15224" lon="5.51421">
        <ele>1141</ele>
        <time>2012-04-20T02:13:10Z</time>
      </trkpt>
      <trkpt lat="45.15214" lon="5.5152">
        <ele>1128</ele>
        <time>2012-04-20T02:13:29Z</time>
      </trkpt>
      <trkpt lat="45.15184" lon="5.51597">
        <ele>1117</ele>
        <time>2012-04-20T02:13:46Z</time>
      </trkpt>
      <trkpt lat="45.1515" lon="5.51646">
        <ele>1114</ele>
        <time>2012-04-20T02:13:59Z</time>
      </trkpt>
      <trkpt lat="45.15137" lon="5.51666">
        <ele>1113</ele>
        <time>2012-04-20T02:14:04Z</time>
      </trkpt>
      <trkpt lat="45.15111" lon="5.51685">
        <ele>1106</ele>
        <time>2012-04-20T02:14:12Z</time>
      </trkpt>
      <trkpt lat="45.15104" lon="5.51696">
        <ele>1105</ele>
        <time>2012-04-20T02:14:14Z</time>
      </trkpt>
      <trkpt lat="45.15091" lon="5.51715">
        <ele>1088.3437</ele>
        <time>2012-04-20T02:14:19Z</time>
      </trkpt>
      <trkpt lat="45.15115" lon="5.51756">
        <ele>1086.0273</ele>
        <time>2012-04-20T02:14:29Z</time>
      </trkpt>
      <trkpt lat="45.15092" lon="5.51786">
        <ele>1081.1132</ele>
        <time>2012-04-20T02:14:37Z</time>
      </trkpt>
      <trkpt lat="45.15072" lon="5.51812">
        <ele>1074.7812</ele>
        <time>2012-04-20T02:14:44Z</time>
      </trkpt>
      <trkpt lat="45.15068" lon="5.51816">
        <ele>1088</ele>
        <time>2012-04-20T02:14:45Z</time>
      </trkpt>
      <trkpt lat="45.15066" lon="5.51821">
        <ele>1088</ele>
        <time>2012-04-20T02:14:46Z</time>
      </trkpt>
      <trkpt lat="45.15059" lon="5.51823">
        <ele>1088</ele>
        <time>2012-04-20T02:14:47Z</time>
      </trkpt>
      <trkpt lat="45.15049" lon="5.51823">
        <ele>1086</ele>
        <time>2012-04-20T02:14:49Z</time>
      </trkpt>
      <trkpt lat="45.15018" lon="5.51883">
        <ele>1075</ele>
        <time>2012-04-20T02:15:03Z</time>
      </trkpt>
      <trkpt lat="45.15018" lon="5.51936">
        <ele>1064</ele>
        <time>2012-04-20T02:15:13Z</time>
      </trkpt>
      <trkpt lat="45.15031" lon="5.52016">
        <ele>1048</ele>
        <time>2012-04-20T02:15:28Z</time>
      </trkpt>
      <trkpt lat="45.15064" lon="5.52067">
        <ele>1043</ele>
        <time>2012-04-20T02:15:41Z</time>
      </trkpt>
      <trkpt lat="45.15096" lon="5.52087">
        <ele>1035</ele>
        <time>2012-04-20T02:15:50Z</time>
      </trkpt>
      <trkpt lat="45.15115" lon="5.52106">
        <ele>1031</ele>
        <time>2012-04-20T02:15:56Z</time>
      </trkpt>
      <trkpt lat="45.15115" lon="5.5214">
        <ele>1026</ele>
        <time>2012-04-20T02:16:02Z</time>
      </trkpt>
      <trkpt lat="45.15104" lon="5.52196">
        <ele>1009</ele>
        <time>2012-04-20T02:16:13Z</time>
      </trkpt>
      <trkpt lat="45.15102" lon="5.522">
        <ele>1009</ele>
        <time>2012-04-20T02:16:14Z</time>
      </trkpt>
      <trkpt lat="45.151" lon="5.52207">
        <ele>1008</ele>
        <time>2012-04-20T02:16:15Z</time>
      </trkpt>
      <trkpt lat="45.15096" lon="5.52211">
        <ele>1008</ele>
        <time>2012-04-20T02:16:16Z</time>
      </trkpt>
      <trkpt lat="45.15091" lon="5.52218">
        <ele>1007</ele>
        <time>2012-04-20T02:16:17Z</time>
      </trkpt>
      <trkpt lat="45.15085" lon="5.52222">
        <ele>1006</ele>
        <time>2012-04-20T02:16:18Z</time>
      </trkpt>
      <trkpt lat="45.15081" lon="5.52228">
        <ele>1002</ele>
        <time>2012-04-20T02:16:19Z</time>
      </trkpt>
      <trkpt lat="45.15076" lon="5.52235">
        <ele>1001</ele>
        <time>2012-04-20T02:16:20Z</time>
      </trkpt>
      <trkpt lat="45.15072" lon="5.52241">
        <ele>1001</ele>
        <time>2012-04-20T02:16:21Z</time>
      </trkpt>
      <trkpt lat="45.15061" lon="5.5226">
        <ele>998</ele>
        <time>2012-04-20T02:16:25Z</time>
      </trkpt>
      <trkpt lat="45.15059" lon="5.52265">
        <ele>998</ele>
        <time>2012-04-20T02:16:26Z</time>
      </trkpt>
      <trkpt lat="45.15055" lon="5.52282">
        <ele>998</ele>
        <time>2012-04-20T02:16:29Z</time>
      </trkpt>
      <trkpt lat="45.15042" lon="5.52273">
        <ele>997</ele>
        <time>2012-04-20T02:16:32Z</time>
      </trkpt>
      <trkpt lat="45.1498" lon="5.52235">
        <ele>997</ele>
        <time>2012-04-20T02:16:50Z</time>
      </trkpt>
      <trkpt lat="45.14918" lon="5.52198">
        <ele>996</ele>
        <time>2012-04-20T02:17:08Z</time>
      </trkpt>
      <trkpt lat="45.14894" lon="5.52183">
        <ele>993</ele>
        <time>2012-04-20T02:17:15Z</time>
      </trkpt>
      <trkpt lat="45.14875" lon="5.52172">
        <ele>992</ele>
        <time>2012-04-20T02:17:20Z</time>
      </trkpt>
      <trkpt lat="45.14855" lon="5.52155">
        <ele>994</ele>
        <time>2012-04-20T02:17:26Z</time>
      </trkpt>
      <trkpt lat="45.14823" lon="5.52125">
        <ele>993</ele>
        <time>2012-04-20T02:17:36Z</time>
      </trkpt>
      <trkpt lat="45.1479" lon="5.52091">
        <ele>994</ele>
        <time>2012-04-20T02:17:47Z</time>
      </trkpt>
      <trkpt lat="45.1478" lon="5.5208">
        <ele>996</ele>
        <time>2012-04-20T02:17:50Z</time>
      </trkpt>
      <trkpt lat="45.14744" lon="5.52039">
        <ele>993</ele>
        <time>2012-04-20T02:18:02Z</time>
      </trkpt>
      <trkpt lat="45.14673" lon="5.51954">
        <ele>1001</ele>
        <time>2012-04-20T02:18:27Z</time>
      </trkpt>
      <trkpt lat="45.14637" lon="5.51909">
        <ele>1003</ele>
        <time>2012-04-20T02:18:40Z</time>
      </trkpt>
      <trkpt lat="45.14609" lon="5.51868">
        <ele>1003</ele>
        <time>2012-04-20T02:18:51Z</time>
      </trkpt>
      <trkpt lat="45.14589" lon="5.5184">
        <ele>1003</ele>
        <time>2012-04-20T02:18:58Z</time>
      </trkpt>
      <trkpt lat="45.14574" lon="5.51816">
        <ele>1006</ele>
        <time>2012-04-20T02:19:04Z</time>
      </trkpt>
      <trkpt lat="45.14568" lon="5.51831">
        <ele>1005</ele>
        <time>2012-04-20T02:19:07Z</time>
      </trkpt>
      <trkpt lat="45.14559" lon="5.51855">
        <ele>1001</ele>
        <time>2012-04-20T02:19:12Z</time>
      </trkpt>
      <trkpt lat="45.14538" lon="5.51904">
        <ele>998</ele>
        <time>2012-04-20T02:19:23Z</time>
      </trkpt>
      <trkpt lat="45.14525" lon="5.51943">
        <ele>992</ele>
        <time>2012-04-20T02:19:31Z</time>
      </trkpt>
      <trkpt lat="45.14516" lon="5.51977">
        <ele>990</ele>
        <time>2012-04-20T02:19:38Z</time>
      </trkpt>
      <trkpt lat="45.14508" lon="5.52003">
        <ele>987</ele>
        <time>2012-04-20T02:19:43Z</time>
      </trkpt>
      <trkpt lat="45.14501" lon="5.52016">
        <ele>987</ele>
        <time>2012-04-20T02:19:46Z</time>
      </trkpt>
      <trkpt lat="45.14493" lon="5.52029">
        <ele>989</ele>
        <time>2012-04-20T02:19:49Z</time>
      </trkpt>
      <trkpt lat="45.14478" lon="5.52044">
        <ele>989</ele>
        <time>2012-04-20T02:19:54Z</time>
      </trkpt>
      <trkpt lat="45.14431" lon="5.52078">
        <ele>990</ele>
        <time>2012-04-20T02:20:08Z</time>
      </trkpt>
      <trkpt lat="45.14416" lon="5.52084">
        <ele>990</ele>
        <time>2012-04-20T02:20:12Z</time>
      </trkpt>
      <trkpt lat="45.14405" lon="5.52089">
        <ele>989</ele>
        <time>2012-04-20T02:20:15Z</time>
      </trkpt>
      <trkpt lat="45.14394" lon="5.52089">
        <ele>989</ele>
        <time>2012-04-20T02:20:17Z</time>
      </trkpt>
      <trkpt lat="45.14383" lon="5.52089">
        <ele>989</ele>
        <time>2012-04-20T02:20:19Z</time>
      </trkpt>
      <trkpt lat="45.14366" lon="5.52084">
        <ele>989</ele>
        <time>2012-04-20T02:20:23Z</time>
      </trkpt>
      <trkpt lat="45.14362" lon="5.52082">
        <ele>991</ele>
        <time>2012-04-20T02:20:24Z</time>
      </trkpt>
      <trkpt lat="45.14355" lon="5.52082">
        <ele>991</ele>
        <time>2012-04-20T02:20:25Z</time>
      </trkpt>
      <trkpt lat="45.14347" lon="5.52087">
        <ele>989</ele>
        <time>2012-04-20T02:20:27Z</time>
      </trkpt>
      <trkpt lat="45.14325" lon="5.52102">
        <ele>990</ele>
        <time>2012-04-20T02:20:33Z</time>
      </trkpt>
      <trkpt lat="45.14313" lon="5.52112">
        <ele>990</ele>
        <time>2012-04-20T02:20:37Z</time>
      </trkpt>
      <trkpt lat="45.1431" lon="5.52119">
        <ele>990</ele>
        <time>2012-04-20T02:20:38Z</time>
      </trkpt>
      <trkpt lat="45.14306" lon="5.52121">
        <ele>990</ele>
        <time>2012-04-20T02:20:39Z</time>
      </trkpt>
      <trkpt lat="45.143" lon="5.52121">
        <ele>990</ele>
        <time>2012-04-20T02:20:40Z</time>
      </trkpt>
      <trkpt lat="45.14287" lon="5.52123">
        <ele>990</ele>
        <time>2012-04-20T02:20:43Z</time>
      </trkpt>
      <trkpt lat="45.14278" lon="5.52123">
        <ele>991</ele>
        <time>2012-04-20T02:20:45Z</time>
      </trkpt>
      <trkpt lat="45.14231" lon="5.5211">
        <ele>991</ele>
        <time>2012-04-20T02:20:58Z</time>
      </trkpt>
      <trkpt lat="45.14214" lon="5.52106">
        <ele>991</ele>
        <time>2012-04-20T02:21:02Z</time>
      </trkpt>
      <trkpt lat="45.14203" lon="5.52106">
        <ele>990</ele>
        <time>2012-04-20T02:21:04Z</time>
      </trkpt>
      <trkpt lat="45.1419" lon="5.52106">
        <ele>989</ele>
        <time>2012-04-20T02:21:07Z</time>
      </trkpt>
      <trkpt lat="45.14171" lon="5.5211">
        <ele>989</ele>
        <time>2012-04-20T02:21:12Z</time>
      </trkpt>
      <trkpt lat="45.14149" lon="5.52117">
        <ele>987</ele>
        <time>2012-04-20T02:21:18Z</time>
      </trkpt>
      <trkpt lat="45.14128" lon="5.52127">
        <ele>987</ele>
        <time>2012-04-20T02:21:24Z</time>
      </trkpt>
      <trkpt lat="45.14113" lon="5.5214">
        <ele>987</ele>
        <time>2012-04-20T02:21:28Z</time>
      </trkpt>
      <trkpt lat="45.14092" lon="5.52162">
        <ele>989</ele>
        <time>2012-04-20T02:21:35Z</time>
      </trkpt>
      <trkpt lat="45.14064" lon="5.52185">
        <ele>989</ele>
        <time>2012-04-20T02:21:44Z</time>
      </trkpt>
      <trkpt lat="45.14038" lon="5.52203">
        <ele>988</ele>
        <time>2012-04-20T02:21:51Z</time>
      </trkpt>
      <trkpt lat="45.14016" lon="5.52218">
        <ele>987</ele>
        <time>2012-04-20T02:21:57Z</time>
      </trkpt>
      <trkpt lat="45.13993" lon="5.52228">
        <ele>985</ele>
        <time>2012-04-20T02:22:03Z</time>
      </trkpt>
      <trkpt lat="45.13967" lon="5.52241">
        <ele>985</ele>
        <time>2012-04-20T02:22:10Z</time>
      </trkpt>
      <trkpt lat="45.13952" lon="5.52248">
        <ele>984</ele>
        <time>2012-04-20T02:22:14Z</time>
      </trkpt>
      <trkpt lat="45.13941" lon="5.52252">
        <ele>982</ele>
        <time>2012-04-20T02:22:17Z</time>
      </trkpt>
      <trkpt lat="45.13918" lon="5.52256">
        <ele>982</ele>
        <time>2012-04-20T02:22:23Z</time>
      </trkpt>
      <trkpt lat="45.13877" lon="5.5226">
        <ele>981</ele>
        <time>2012-04-20T02:22:34Z</time>
      </trkpt>
      <trkpt lat="45.13836" lon="5.52267">
        <ele>981</ele>
        <time>2012-04-20T02:22:45Z</time>
      </trkpt>
      <trkpt lat="45.13815" lon="5.52267">
        <ele>980</ele>
        <time>2012-04-20T02:22:50Z</time>
      </trkpt>
      <trkpt lat="45.138" lon="5.52269">
        <ele>980</ele>
        <time>2012-04-20T02:22:54Z</time>
      </trkpt>
      <trkpt lat="45.13772" lon="5.52273">
        <ele>979</ele>
        <time>2012-04-20T02:23:01Z</time>
      </trkpt>
      <trkpt lat="45.13748" lon="5.52278">
        <ele>979</ele>
        <time>2012-04-20T02:23:07Z</time>
      </trkpt>
      <trkpt lat="45.13735" lon="5.52282">
        <ele>980</ele>
        <time>2012-04-20T02:23:10Z</time>
      </trkpt>
      <trkpt lat="45.13727" lon="5.52286">
        <ele>980</ele>
        <time>2012-04-20T02:23:12Z</time>
      </trkpt>
      <trkpt lat="45.13722" lon="5.52292">
        <ele>980</ele>
        <time>2012-04-20T02:23:13Z</time>
      </trkpt>
      <trkpt lat="45.13716" lon="5.52299">
        <ele>980</ele>
        <time>2012-04-20T02:23:15Z</time>
      </trkpt>
      <trkpt lat="45.13705" lon="5.52308">
        <ele>980</ele>
        <time>2012-04-20T02:23:18Z</time>
      </trkpt>
      <trkpt lat="45.13688" lon="5.52316">
        <ele>981</ele>
        <time>2012-04-20T02:23:23Z</time>
      </trkpt>
      <trkpt lat="45.13667" lon="5.52314">
        <ele>980</ele>
        <time>2012-04-20T02:23:28Z</time>
      </trkpt>
      <trkpt lat="45.13639" lon="5.52314">
        <ele>980</ele>
        <time>2012-04-20T02:23:35Z</time>
      </trkpt>
      <trkpt lat="45.13615" lon="5.52321">
        <ele>980</ele>
        <time>2012-04-20T02:23:41Z</time>
      </trkpt>
      <trkpt lat="45.13583" lon="5.52331">
        <ele>977</ele>
        <time>2012-04-20T02:23:50Z</time>
      </trkpt>
      <trkpt lat="45.13559" lon="5.52338">
        <ele>979</ele>
        <time>2012-04-20T02:23:56Z</time>
      </trkpt>
      <trkpt lat="45.13538" lon="5.52346">
        <ele>979</ele>
        <time>2012-04-20T02:24:02Z</time>
      </trkpt>
      <trkpt lat="45.13516" lon="5.52359">
        <ele>980</ele>
        <time>2012-04-20T02:24:08Z</time>
      </trkpt>
      <trkpt lat="45.13501" lon="5.5237">
        <ele>980</ele>
        <time>2012-04-20T02:24:12Z</time>
      </trkpt>
      <trkpt lat="45.13495" lon="5.52376">
        <ele>980</ele>
        <time>2012-04-20T02:24:14Z</time>
      </trkpt>
      <trkpt lat="45.13484" lon="5.52378">
        <ele>980</ele>
        <time>2012-04-20T02:24:17Z</time>
      </trkpt>
      <trkpt lat="45.13461" lon="5.52381">
        <ele>979</ele>
        <time>2012-04-20T02:24:23Z</time>
      </trkpt>
      <trkpt lat="45.13444" lon="5.52391">
        <ele>979</ele>
        <time>2012-04-20T02:24:28Z</time>
      </trkpt>
      <trkpt lat="45.13424" lon="5.52406">
        <ele>978</ele>
        <time>2012-04-20T02:24:34Z</time>
      </trkpt>
      <trkpt lat="45.13392" lon="5.52432">
        <ele>977</ele>
        <time>2012-04-20T02:24:44Z</time>
      </trkpt>
      <trkpt lat="45.13383" lon="5.52441">
        <ele>977</ele>
        <time>2012-04-20T02:24:46Z</time>
      </trkpt>
      <trkpt lat="45.13358" lon="5.52464">
        <ele>977</ele>
        <time>2012-04-20T02:24:54Z</time>
      </trkpt>
      <trkpt lat="45.13325" lon="5.52501">
        <ele>980</ele>
        <time>2012-04-20T02:25:05Z</time>
      </trkpt>
      <trkpt lat="45.13298" lon="5.52531">
        <ele>979</ele>
        <time>2012-04-20T02:25:14Z</time>
      </trkpt>
      <trkpt lat="45.13261" lon="5.52567">
        <ele>979</ele>
        <time>2012-04-20T02:25:26Z</time>
      </trkpt>
      <trkpt lat="45.13246" lon="5.5258">
        <ele>980</ele>
        <time>2012-04-20T02:25:30Z</time>
      </trkpt>
      <trkpt lat="45.13227" lon="5.52593">
        <ele>979</ele>
        <time>2012-04-20T02:25:35Z</time>
      </trkpt>
      <trkpt lat="45.13212" lon="5.52604">
        <ele>979</ele>
        <time>2012-04-20T02:25:39Z</time>
      </trkpt>
      <trkpt lat="45.13201" lon="5.52612">
        <ele>979</ele>
        <time>2012-04-20T02:25:42Z</time>
      </trkpt>
      <trkpt lat="45.13197" lon="5.52612">
        <ele>979</ele>
        <time>2012-04-20T02:25:43Z</time>
      </trkpt>
      <trkpt lat="45.1319" lon="5.52612">
        <ele>979</ele>
        <time>2012-04-20T02:25:44Z</time>
      </trkpt>
      <trkpt lat="45.13188" lon="5.52619">
        <ele>979</ele>
        <time>2012-04-20T02:25:45Z</time>
      </trkpt>
      <trkpt lat="45.13177" lon="5.52647">
        <ele>979</ele>
        <time>2012-04-20T02:25:51Z</time>
      </trkpt>
      <trkpt lat="45.13173" lon="5.52672">
        <ele>978</ele>
        <time>2012-04-20T02:25:56Z</time>
      </trkpt>
      <trkpt lat="45.13169" lon="5.5269">
        <ele>977</ele>
        <time>2012-04-20T02:25:59Z</time>
      </trkpt>
      <trkpt lat="45.13152" lon="5.52743">
        <ele>977</ele>
        <time>2012-04-20T02:26:10Z</time>
      </trkpt>
      <trkpt lat="45.13147" lon="5.52756">
        <ele>976</ele>
        <time>2012-04-20T02:26:12Z</time>
      </trkpt>
      <trkpt lat="45.13145" lon="5.52763">
        <ele>976</ele>
        <time>2012-04-20T02:26:13Z</time>
      </trkpt>
      <trkpt lat="45.13141" lon="5.52773">
        <ele>976</ele>
        <time>2012-04-20T02:26:15Z</time>
      </trkpt>
      <trkpt lat="45.13124" lon="5.52784">
        <ele>976</ele>
        <time>2012-04-20T02:26:20Z</time>
      </trkpt>
      <trkpt lat="45.13109" lon="5.52793">
        <ele>976</ele>
        <time>2012-04-20T02:26:24Z</time>
      </trkpt>
      <trkpt lat="45.13102" lon="5.52799">
        <ele>976</ele>
        <time>2012-04-20T02:26:26Z</time>
      </trkpt>
      <trkpt lat="45.13104" lon="5.52808">
        <ele>976</ele>
        <time>2012-04-20T02:26:27Z</time>
      </trkpt>
      <trkpt lat="45.13102" lon="5.52812">
        <ele>976</ele>
        <time>2012-04-20T02:26:28Z</time>
      </trkpt>
      <trkpt lat="45.131" lon="5.52816">
        <ele>976</ele>
        <time>2012-04-20T02:26:29Z</time>
      </trkpt>
      <trkpt lat="45.13094" lon="5.52818">
        <ele>976</ele>
        <time>2012-04-20T02:26:30Z</time>
      </trkpt>
      <trkpt lat="45.13092" lon="5.52814">
        <ele>976</ele>
        <time>2012-04-20T02:26:31Z</time>
      </trkpt>
      <trkpt lat="45.13087" lon="5.5281">
        <ele>976</ele>
        <time>2012-04-20T02:26:32Z</time>
      </trkpt>
      <trkpt lat="45.13081" lon="5.5281">
        <ele>978</ele>
        <time>2012-04-20T02:26:33Z</time>
      </trkpt>
      <trkpt lat="45.13064" lon="5.52808">
        <ele>978</ele>
        <time>2012-04-20T02:26:37Z</time>
      </trkpt>
      <trkpt lat="45.13029" lon="5.52803">
        <ele>979</ele>
        <time>2012-04-20T02:26:46Z</time>
      </trkpt>
      <trkpt lat="45.12993" lon="5.52797">
        <ele>983</ele>
        <time>2012-04-20T02:26:56Z</time>
      </trkpt>
      <trkpt lat="45.12959" lon="5.52793">
        <ele>984</ele>
        <time>2012-04-20T02:27:05Z</time>
      </trkpt>
      <trkpt lat="45.12924" lon="5.52788">
        <ele>985</ele>
        <time>2012-04-20T02:27:14Z</time>
      </trkpt>
      <trkpt lat="45.12892" lon="5.52788">
        <ele>989</ele>
        <time>2012-04-20T02:27:22Z</time>
      </trkpt>
      <trkpt lat="45.12864" lon="5.52784">
        <ele>989</ele>
        <time>2012-04-20T02:27:29Z</time>
      </trkpt>
      <trkpt lat="45.12815" lon="5.52773">
        <ele>990</ele>
        <time>2012-04-20T02:27:42Z</time>
      </trkpt>
      <trkpt lat="45.128" lon="5.52767">
        <ele>990</ele>
        <time>2012-04-20T02:27:46Z</time>
      </trkpt>
      <trkpt lat="45.12787" lon="5.52758">
        <ele>990</ele>
        <time>2012-04-20T02:27:49Z</time>
      </trkpt>
      <trkpt lat="45.12778" lon="5.52754">
        <ele>990</ele>
        <time>2012-04-20T02:27:51Z</time>
      </trkpt>
      <trkpt lat="45.12763" lon="5.52741">
        <ele>991</ele>
        <time>2012-04-20T02:27:55Z</time>
      </trkpt>
      <trkpt lat="45.12753" lon="5.52735">
        <ele>991</ele>
        <time>2012-04-20T02:27:58Z</time>
      </trkpt>
      <trkpt lat="45.12747" lon="5.52729">
        <ele>991</ele>
        <time>2012-04-20T02:27:59Z</time>
      </trkpt>
      <trkpt lat="45.12742" lon="5.52724">
        <ele>992</ele>
        <time>2012-04-20T02:28:00Z</time>
      </trkpt>
      <trkpt lat="45.12731" lon="5.52717">
        <ele>992</ele>
        <time>2012-04-20T02:28:03Z</time>
      </trkpt>
      <trkpt lat="45.1272" lon="5.52715">
        <ele>992</ele>
        <time>2012-04-20T02:28:06Z</time>
      </trkpt>
      <trkpt lat="45.12714" lon="5.52717">
        <ele>992</ele>
        <time>2012-04-20T02:28:07Z</time>
      </trkpt>
      <trkpt lat="45.12705" lon="5.52722">
        <ele>993</ele>
        <time>2012-04-20T02:28:09Z</time>
      </trkpt>
      <trkpt lat="45.12692" lon="5.52737">
        <ele>993</ele>
        <time>2012-04-20T02:28:13Z</time>
      </trkpt>
      <trkpt lat="45.12677" lon="5.52754">
        <ele>992</ele>
        <time>2012-04-20T02:28:18Z</time>
      </trkpt>
      <trkpt lat="45.12671" lon="5.52763">
        <ele>992</ele>
        <time>2012-04-20T02:28:20Z</time>
      </trkpt>
      <trkpt lat="45.12665" lon="5.52769">
        <ele>992</ele>
        <time>2012-04-20T02:28:22Z</time>
      </trkpt>
      <trkpt lat="45.12658" lon="5.52778">
        <ele>992</ele>
        <time>2012-04-20T02:28:24Z</time>
      </trkpt>
      <trkpt lat="45.12645" lon="5.52786">
        <ele>992</ele>
        <time>2012-04-20T02:28:27Z</time>
      </trkpt>
      <trkpt lat="45.12624" lon="5.52799">
        <ele>992</ele>
        <time>2012-04-20T02:28:33Z</time>
      </trkpt>
      <trkpt lat="45.12613" lon="5.52808">
        <ele>991</ele>
        <time>2012-04-20T02:28:36Z</time>
      </trkpt>
      <trkpt lat="45.12602" lon="5.5282">
        <ele>991</ele>
        <time>2012-04-20T02:28:39Z</time>
      </trkpt>
      <trkpt lat="45.12568" lon="5.52872">
        <ele>987</ele>
        <time>2012-04-20T02:28:52Z</time>
      </trkpt>
      <trkpt lat="45.12564" lon="5.52881">
        <ele>987</ele>
        <time>2012-04-20T02:28:54Z</time>
      </trkpt>
      <trkpt lat="45.12547" lon="5.52906">
        <ele>986</ele>
        <time>2012-04-20T02:29:00Z</time>
      </trkpt>
      <trkpt lat="45.12525" lon="5.52932">
        <ele>981</ele>
        <time>2012-04-20T02:29:07Z</time>
      </trkpt>
      <trkpt lat="45.12504" lon="5.52956">
        <ele>980</ele>
        <time>2012-04-20T02:29:14Z</time>
      </trkpt>
      <trkpt lat="45.12489" lon="5.52971">
        <ele>980</ele>
        <time>2012-04-20T02:29:19Z</time>
      </trkpt>
      <trkpt lat="45.12469" lon="5.52981">
        <ele>981</ele>
        <time>2012-04-20T02:29:24Z</time>
      </trkpt>
      <trkpt lat="45.12465" lon="5.52984">
        <ele>981</ele>
        <time>2012-04-20T02:29:25Z</time>
      </trkpt>
      <trkpt lat="45.12332" lon="5.53031">
        <ele>977</ele>
        <time>2012-04-20T02:30:03Z</time>
      </trkpt>
      <trkpt lat="45.12289" lon="5.53044">
        <ele>976</ele>
        <time>2012-04-20T02:30:15Z</time>
      </trkpt>
      <trkpt lat="45.12257" lon="5.53052">
        <ele>970.97265</ele>
        <time>2012-04-20T02:30:24Z</time>
      </trkpt>
    </trkseg>
  </trk>
</gpx>